<?xml version="1.0" encoding="UTF-8" standalone="no" ?>
<gpx xmlns="http://www.topografix.com/GPX/1/1" xmlns:xsi="http://www.w3.org/2001/XMLSchema-instance" xsi:schemaLocation="http://www.topografix.com/GPX/1/1 http://www.topografix.com/GPX/1/1/gpx.xsd" version="1.1" creator="VisuGPX - https://www.visugpx.com">
  <metadata>
    <name>Moras</name>
    <desc><![CDATA[2009-10-14_Moras, Dist.101Km Asc.1036m 4h36.gpx]]></desc>
  </metadata>
  <trk>
    <name><![CDATA[Moras]]></name>
    <cmt><![CDATA[Jacques]]></cmt>
    <trkseg>
      <trkpt lat="45.11578" lon="4.96454">
        <ele>177.31700134277</ele>
        <time>2009-10-14T11:23:27Z</time>
      </trkpt>
      <trkpt lat="45.11579" lon="4.96455">
        <ele>177.72300720215</ele>
        <time>2009-10-14T11:23:31Z</time>
      </trkpt>
      <trkpt lat="45.11583" lon="4.96467">
        <ele>177.04499816894</ele>
        <time>2009-10-14T11:23:36Z</time>
      </trkpt>
      <trkpt lat="45.11583" lon="4.96472">
        <ele>177.22799682617</ele>
        <time>2009-10-14T11:23:37Z</time>
      </trkpt>
      <trkpt lat="45.11581" lon="4.96489">
        <ele>177.32400512695</ele>
        <time>2009-10-14T11:23:41Z</time>
      </trkpt>
      <trkpt lat="45.11582" lon="4.96496">
        <ele>177.48500061035</ele>
        <time>2009-10-14T11:23:44Z</time>
      </trkpt>
      <trkpt lat="45.11583" lon="4.96513">
        <ele>175.78199768066</ele>
        <time>2009-10-14T11:23:48Z</time>
      </trkpt>
      <trkpt lat="45.11585" lon="4.9652">
        <ele>175.19599914551</ele>
        <time>2009-10-14T11:23:49Z</time>
      </trkpt>
      <trkpt lat="45.11608" lon="4.96579">
        <ele>176.41600036621</ele>
        <time>2009-10-14T11:23:57Z</time>
      </trkpt>
      <trkpt lat="45.1162" lon="4.9661">
        <ele>176.20399475098</ele>
        <time>2009-10-14T11:24:01Z</time>
      </trkpt>
      <trkpt lat="45.11632" lon="4.96642">
        <ele>176.09300231934</ele>
        <time>2009-10-14T11:24:05Z</time>
      </trkpt>
      <trkpt lat="45.11654" lon="4.96699">
        <ele>176.88900756836</ele>
        <time>2009-10-14T11:24:12Z</time>
      </trkpt>
      <trkpt lat="45.11682" lon="4.96758">
        <ele>178.17100524902</ele>
        <time>2009-10-14T11:24:20Z</time>
      </trkpt>
      <trkpt lat="45.11715" lon="4.96811">
        <ele>178.66900634766</ele>
        <time>2009-10-14T11:24:28Z</time>
      </trkpt>
      <trkpt lat="45.11727" lon="4.96832">
        <ele>179.22500610352</ele>
        <time>2009-10-14T11:24:31Z</time>
      </trkpt>
      <trkpt lat="45.11736" lon="4.96855">
        <ele>178.96499633789</ele>
        <time>2009-10-14T11:24:34Z</time>
      </trkpt>
      <trkpt lat="45.11755" lon="4.96873">
        <ele>179.27400207519</ele>
        <time>2009-10-14T11:24:38Z</time>
      </trkpt>
      <trkpt lat="45.11764" lon="4.96862">
        <ele>179.80499267578</ele>
        <time>2009-10-14T11:24:40Z</time>
      </trkpt>
      <trkpt lat="45.11765" lon="4.96845">
        <ele>179.87100219727</ele>
        <time>2009-10-14T11:24:42Z</time>
      </trkpt>
      <trkpt lat="45.11755" lon="4.96832">
        <ele>179.69999694824</ele>
        <time>2009-10-14T11:24:44Z</time>
      </trkpt>
      <trkpt lat="45.11748" lon="4.96828">
        <ele>179.78399658203</ele>
        <time>2009-10-14T11:24:45Z</time>
      </trkpt>
      <trkpt lat="45.1171" lon="4.96792">
        <ele>179.28900146484</ele>
        <time>2009-10-14T11:24:51Z</time>
      </trkpt>
      <trkpt lat="45.11673" lon="4.96728">
        <ele>178.24600219727</ele>
        <time>2009-10-14T11:24:58Z</time>
      </trkpt>
      <trkpt lat="45.11647" lon="4.96665">
        <ele>177.4940032959</ele>
        <time>2009-10-14T11:25:04Z</time>
      </trkpt>
      <trkpt lat="45.1161" lon="4.96568">
        <ele>177.47300720215</ele>
        <time>2009-10-14T11:25:13Z</time>
      </trkpt>
      <trkpt lat="45.11585" lon="4.96506">
        <ele>178.24899291992</ele>
        <time>2009-10-14T11:25:19Z</time>
      </trkpt>
      <trkpt lat="45.11582" lon="4.96467">
        <ele>177.64700317383</ele>
        <time>2009-10-14T11:25:23Z</time>
      </trkpt>
      <trkpt lat="45.11579" lon="4.9645">
        <ele>179.16600036621</ele>
        <time>2009-10-14T11:25:26Z</time>
      </trkpt>
      <trkpt lat="45.11577" lon="4.96448">
        <ele>179.19999694824</ele>
        <time>2009-10-14T11:25:29Z</time>
      </trkpt>
      <trkpt lat="45.11578" lon="4.96448">
        <ele>179.37899780273</ele>
        <time>2009-10-14T11:25:40Z</time>
      </trkpt>
      <trkpt lat="45.11577" lon="4.96448">
        <ele>178.98300170898</ele>
        <time>2009-10-14T11:25:43Z</time>
      </trkpt>
      <trkpt lat="45.11576" lon="4.96447">
        <ele>179.69099426269</ele>
        <time>2009-10-14T11:25:48Z</time>
      </trkpt>
      <trkpt lat="45.11575" lon="4.96448">
        <ele>180.07800292969</ele>
        <time>2009-10-14T11:25:51Z</time>
      </trkpt>
      <trkpt lat="45.11575" lon="4.96449">
        <ele>180.17500305176</ele>
        <time>2009-10-14T11:25:53Z</time>
      </trkpt>
      <trkpt lat="45.11566" lon="4.96449">
        <ele>179.94400024414</ele>
        <time>2009-10-14T11:25:58Z</time>
      </trkpt>
      <trkpt lat="45.11561" lon="4.96428">
        <ele>180.07800292969</ele>
        <time>2009-10-14T11:26:02Z</time>
      </trkpt>
      <trkpt lat="45.11566" lon="4.96425">
        <ele>180.63400268555</ele>
        <time>2009-10-14T11:26:05Z</time>
      </trkpt>
      <trkpt lat="45.11569" lon="4.96428">
        <ele>180.96899414062</ele>
        <time>2009-10-14T11:26:39Z</time>
      </trkpt>
      <trkpt lat="45.11568" lon="4.9643">
        <ele>181.29200744629</ele>
        <time>2009-10-14T11:26:41Z</time>
      </trkpt>
      <trkpt lat="45.11562" lon="4.96438">
        <ele>180.63000488281</ele>
        <time>2009-10-14T11:26:47Z</time>
      </trkpt>
      <trkpt lat="45.11563" lon="4.96446">
        <ele>179.77000427246</ele>
        <time>2009-10-14T11:26:49Z</time>
      </trkpt>
      <trkpt lat="45.11573" lon="4.96454">
        <ele>179.76800537109</ele>
        <time>2009-10-14T11:26:53Z</time>
      </trkpt>
      <trkpt lat="45.11578" lon="4.96451">
        <ele>179.61799621582</ele>
        <time>2009-10-14T11:26:56Z</time>
      </trkpt>
      <trkpt lat="45.1158" lon="4.96452">
        <ele>180.44799804688</ele>
        <time>2009-10-14T11:26:58Z</time>
      </trkpt>
      <trkpt lat="45.11584" lon="4.96468">
        <ele>180.52099609375</ele>
        <time>2009-10-14T11:27:05Z</time>
      </trkpt>
      <trkpt lat="45.11583" lon="4.96487">
        <ele>180.20599365234</ele>
        <time>2009-10-14T11:27:11Z</time>
      </trkpt>
      <trkpt lat="45.11583" lon="4.96496">
        <ele>179.52400207519</ele>
        <time>2009-10-14T11:27:16Z</time>
      </trkpt>
      <trkpt lat="45.11583" lon="4.96504">
        <ele>178.98100280762</ele>
        <time>2009-10-14T11:27:18Z</time>
      </trkpt>
      <trkpt lat="45.11587" lon="4.96525">
        <ele>177.65400695801</ele>
        <time>2009-10-14T11:27:21Z</time>
      </trkpt>
      <trkpt lat="45.1159" lon="4.96532">
        <ele>177.87300109863</ele>
        <time>2009-10-14T11:27:22Z</time>
      </trkpt>
      <trkpt lat="45.11599" lon="4.96556">
        <ele>178.55499267578</ele>
        <time>2009-10-14T11:27:25Z</time>
      </trkpt>
      <trkpt lat="45.11608" lon="4.9658">
        <ele>177.92199707031</ele>
        <time>2009-10-14T11:27:28Z</time>
      </trkpt>
      <trkpt lat="45.11611" lon="4.96588">
        <ele>177.8450012207</ele>
        <time>2009-10-14T11:27:29Z</time>
      </trkpt>
      <trkpt lat="45.11614" lon="4.96596">
        <ele>177.94599914551</ele>
        <time>2009-10-14T11:27:30Z</time>
      </trkpt>
      <trkpt lat="45.11629" lon="4.96634">
        <ele>177.83700561523</ele>
        <time>2009-10-14T11:27:35Z</time>
      </trkpt>
      <trkpt lat="45.11653" lon="4.96696">
        <ele>179.71699523926</ele>
        <time>2009-10-14T11:27:43Z</time>
      </trkpt>
      <trkpt lat="45.1168" lon="4.96753">
        <ele>179.19700622559</ele>
        <time>2009-10-14T11:27:51Z</time>
      </trkpt>
      <trkpt lat="45.11692" lon="4.96774">
        <ele>180.64599609375</ele>
        <time>2009-10-14T11:27:54Z</time>
      </trkpt>
      <trkpt lat="45.11717" lon="4.96815">
        <ele>180.37199401856</ele>
        <time>2009-10-14T11:28:00Z</time>
      </trkpt>
      <trkpt lat="45.11725" lon="4.96828">
        <ele>180.10600280762</ele>
        <time>2009-10-14T11:28:02Z</time>
      </trkpt>
      <trkpt lat="45.11729" lon="4.96835">
        <ele>179.56399536133</ele>
        <time>2009-10-14T11:28:03Z</time>
      </trkpt>
      <trkpt lat="45.11744" lon="4.96874">
        <ele>180.33099365234</ele>
        <time>2009-10-14T11:28:08Z</time>
      </trkpt>
      <trkpt lat="45.11749" lon="4.96879">
        <ele>180.11399841309</ele>
        <time>2009-10-14T11:28:09Z</time>
      </trkpt>
      <trkpt lat="45.11765" lon="4.96893">
        <ele>181.34100341797</ele>
        <time>2009-10-14T11:28:12Z</time>
      </trkpt>
      <trkpt lat="45.11799" lon="4.96946">
        <ele>181.11399841309</ele>
        <time>2009-10-14T11:28:20Z</time>
      </trkpt>
      <trkpt lat="45.11825" lon="4.96986">
        <ele>183.13000488281</ele>
        <time>2009-10-14T11:28:26Z</time>
      </trkpt>
      <trkpt lat="45.11871" lon="4.97047">
        <ele>182.55700683594</ele>
        <time>2009-10-14T11:28:36Z</time>
      </trkpt>
      <trkpt lat="45.11875" lon="4.97053">
        <ele>182.2619934082</ele>
        <time>2009-10-14T11:28:37Z</time>
      </trkpt>
      <trkpt lat="45.11881" lon="4.97086">
        <ele>181.27299499512</ele>
        <time>2009-10-14T11:28:41Z</time>
      </trkpt>
      <trkpt lat="45.11881" lon="4.97096">
        <ele>181.34899902344</ele>
        <time>2009-10-14T11:28:42Z</time>
      </trkpt>
      <trkpt lat="45.11875" lon="4.97133">
        <ele>181.09300231934</ele>
        <time>2009-10-14T11:28:46Z</time>
      </trkpt>
      <trkpt lat="45.11881" lon="4.97193">
        <ele>180.54299926758</ele>
        <time>2009-10-14T11:28:52Z</time>
      </trkpt>
      <trkpt lat="45.11899" lon="4.97297">
        <ele>180.28999328613</ele>
        <time>2009-10-14T11:29:03Z</time>
      </trkpt>
      <trkpt lat="45.11908" lon="4.9735">
        <ele>178.95399475098</ele>
        <time>2009-10-14T11:29:09Z</time>
      </trkpt>
      <trkpt lat="45.11921" lon="4.97423">
        <ele>179.20100402832</ele>
        <time>2009-10-14T11:29:18Z</time>
      </trkpt>
      <trkpt lat="45.11932" lon="4.9748">
        <ele>180.01699829102</ele>
        <time>2009-10-14T11:29:25Z</time>
      </trkpt>
      <trkpt lat="45.11949" lon="4.97578">
        <ele>182.33000183106</ele>
        <time>2009-10-14T11:29:37Z</time>
      </trkpt>
      <trkpt lat="45.11953" lon="4.97612">
        <ele>182.97900390625</ele>
        <time>2009-10-14T11:29:41Z</time>
      </trkpt>
      <trkpt lat="45.11973" lon="4.97714">
        <ele>182.2140045166</ele>
        <time>2009-10-14T11:29:53Z</time>
      </trkpt>
      <trkpt lat="45.11985" lon="4.97786">
        <ele>182.19700622559</ele>
        <time>2009-10-14T11:30:01Z</time>
      </trkpt>
      <trkpt lat="45.11988" lon="4.97803">
        <ele>183.03799438477</ele>
        <time>2009-10-14T11:30:03Z</time>
      </trkpt>
      <trkpt lat="45.11998" lon="4.97856">
        <ele>184.15800476074</ele>
        <time>2009-10-14T11:30:09Z</time>
      </trkpt>
      <trkpt lat="45.12012" lon="4.97935">
        <ele>184.58099365234</ele>
        <time>2009-10-14T11:30:18Z</time>
      </trkpt>
      <trkpt lat="45.12014" lon="4.97943">
        <ele>184.86799621582</ele>
        <time>2009-10-14T11:30:19Z</time>
      </trkpt>
      <trkpt lat="45.1203" lon="4.98004">
        <ele>185.82600402832</ele>
        <time>2009-10-14T11:30:26Z</time>
      </trkpt>
      <trkpt lat="45.12049" lon="4.98073">
        <ele>185.84700012207</ele>
        <time>2009-10-14T11:30:34Z</time>
      </trkpt>
      <trkpt lat="45.12063" lon="4.98139">
        <ele>186.08599853516</ele>
        <time>2009-10-14T11:30:42Z</time>
      </trkpt>
      <trkpt lat="45.12069" lon="4.98207">
        <ele>187.82600402832</ele>
        <time>2009-10-14T11:30:50Z</time>
      </trkpt>
      <trkpt lat="45.12067" lon="4.98272">
        <ele>188.61999511719</ele>
        <time>2009-10-14T11:30:57Z</time>
      </trkpt>
      <trkpt lat="45.12056" lon="4.98348">
        <ele>189.27499389648</ele>
        <time>2009-10-14T11:31:05Z</time>
      </trkpt>
      <trkpt lat="45.12049" lon="4.98373">
        <ele>190.1549987793</ele>
        <time>2009-10-14T11:31:08Z</time>
      </trkpt>
      <trkpt lat="45.12032" lon="4.98404">
        <ele>190.30400085449</ele>
        <time>2009-10-14T11:31:13Z</time>
      </trkpt>
      <trkpt lat="45.12013" lon="4.984">
        <ele>189.17900085449</ele>
        <time>2009-10-14T11:31:16Z</time>
      </trkpt>
      <trkpt lat="45.12006" lon="4.98398">
        <ele>188.94599914551</ele>
        <time>2009-10-14T11:31:17Z</time>
      </trkpt>
      <trkpt lat="45.11979" lon="4.98397">
        <ele>188.89900207519</ele>
        <time>2009-10-14T11:31:21Z</time>
      </trkpt>
      <trkpt lat="45.11966" lon="4.98417">
        <ele>188.69099426269</ele>
        <time>2009-10-14T11:31:24Z</time>
      </trkpt>
      <trkpt lat="45.11968" lon="4.98432">
        <ele>188.47799682617</ele>
        <time>2009-10-14T11:31:26Z</time>
      </trkpt>
      <trkpt lat="45.11981" lon="4.98444">
        <ele>189.94599914551</ele>
        <time>2009-10-14T11:31:29Z</time>
      </trkpt>
      <trkpt lat="45.11986" lon="4.98445">
        <ele>190.06500244141</ele>
        <time>2009-10-14T11:31:30Z</time>
      </trkpt>
      <trkpt lat="45.11996" lon="4.98439">
        <ele>189.63299560547</ele>
        <time>2009-10-14T11:31:32Z</time>
      </trkpt>
      <trkpt lat="45.12004" lon="4.98434">
        <ele>189.95399475098</ele>
        <time>2009-10-14T11:31:34Z</time>
      </trkpt>
      <trkpt lat="45.12014" lon="4.98416">
        <ele>190.43600463867</ele>
        <time>2009-10-14T11:31:39Z</time>
      </trkpt>
      <trkpt lat="45.12019" lon="4.98424">
        <ele>190.20500183106</ele>
        <time>2009-10-14T11:31:42Z</time>
      </trkpt>
      <trkpt lat="45.12014" lon="4.98433">
        <ele>190.71600341797</ele>
        <time>2009-10-14T11:31:46Z</time>
      </trkpt>
      <trkpt lat="45.12013" lon="4.98442">
        <ele>190.5359954834</ele>
        <time>2009-10-14T11:31:49Z</time>
      </trkpt>
      <trkpt lat="45.12018" lon="4.98445">
        <ele>190.73300170898</ele>
        <time>2009-10-14T11:31:51Z</time>
      </trkpt>
      <trkpt lat="45.12021" lon="4.98447">
        <ele>191.06700134277</ele>
        <time>2009-10-14T11:31:53Z</time>
      </trkpt>
      <trkpt lat="45.12025" lon="4.98441">
        <ele>191.19799804688</ele>
        <time>2009-10-14T11:31:58Z</time>
      </trkpt>
      <trkpt lat="45.12028" lon="4.9843">
        <ele>191.67500305176</ele>
        <time>2009-10-14T11:32:04Z</time>
      </trkpt>
      <trkpt lat="45.12028" lon="4.9842">
        <ele>191.91700744629</ele>
        <time>2009-10-14T11:32:09Z</time>
      </trkpt>
      <trkpt lat="45.12023" lon="4.98412">
        <ele>192.0119934082</ele>
        <time>2009-10-14T11:32:14Z</time>
      </trkpt>
      <trkpt lat="45.12011" lon="4.98404">
        <ele>191.19200134277</ele>
        <time>2009-10-14T11:32:19Z</time>
      </trkpt>
      <trkpt lat="45.11996" lon="4.98398">
        <ele>190.59300231934</ele>
        <time>2009-10-14T11:32:25Z</time>
      </trkpt>
      <trkpt lat="45.11988" lon="4.98395">
        <ele>190.93499755859</ele>
        <time>2009-10-14T11:32:30Z</time>
      </trkpt>
      <trkpt lat="45.11985" lon="4.98394">
        <ele>190.49699401856</ele>
        <time>2009-10-14T11:32:33Z</time>
      </trkpt>
      <trkpt lat="45.11984" lon="4.98394">
        <ele>190.48100280762</ele>
        <time>2009-10-14T11:32:35Z</time>
      </trkpt>
      <trkpt lat="45.11975" lon="4.984">
        <ele>190.19500732422</ele>
        <time>2009-10-14T11:32:41Z</time>
      </trkpt>
      <trkpt lat="45.1197" lon="4.98403">
        <ele>190.05400085449</ele>
        <time>2009-10-14T11:32:44Z</time>
      </trkpt>
      <trkpt lat="45.11958" lon="4.98409">
        <ele>191.79400634766</ele>
        <time>2009-10-14T11:32:52Z</time>
      </trkpt>
      <trkpt lat="45.11957" lon="4.98421">
        <ele>190.05900573731</ele>
        <time>2009-10-14T11:32:58Z</time>
      </trkpt>
      <trkpt lat="45.11959" lon="4.98427">
        <ele>190.09899902344</ele>
        <time>2009-10-14T11:33:01Z</time>
      </trkpt>
      <trkpt lat="45.1196" lon="4.98432">
        <ele>190.23399353027</ele>
        <time>2009-10-14T11:33:04Z</time>
      </trkpt>
      <trkpt lat="45.11966" lon="4.98432">
        <ele>190.38900756836</ele>
        <time>2009-10-14T11:33:09Z</time>
      </trkpt>
      <trkpt lat="45.11967" lon="4.98429">
        <ele>190.83700561523</ele>
        <time>2009-10-14T11:33:11Z</time>
      </trkpt>
      <trkpt lat="45.11969" lon="4.98422">
        <ele>190.96899414062</ele>
        <time>2009-10-14T11:33:15Z</time>
      </trkpt>
      <trkpt lat="45.11963" lon="4.98409">
        <ele>190.39599609375</ele>
        <time>2009-10-14T11:33:22Z</time>
      </trkpt>
      <trkpt lat="45.11961" lon="4.98408">
        <ele>190.45100402832</ele>
        <time>2009-10-14T11:33:23Z</time>
      </trkpt>
      <trkpt lat="45.11954" lon="4.98399">
        <ele>190.14199829102</ele>
        <time>2009-10-14T11:33:28Z</time>
      </trkpt>
      <trkpt lat="45.11958" lon="4.9839">
        <ele>188.99699401856</ele>
        <time>2009-10-14T11:33:32Z</time>
      </trkpt>
      <trkpt lat="45.11959" lon="4.9839">
        <ele>188.77499389648</ele>
        <time>2009-10-14T11:33:33Z</time>
      </trkpt>
      <trkpt lat="45.11963" lon="4.98393">
        <ele>189.30400085449</ele>
        <time>2009-10-14T11:33:35Z</time>
      </trkpt>
      <trkpt lat="45.11969" lon="4.98402">
        <ele>189.22300720215</ele>
        <time>2009-10-14T11:33:40Z</time>
      </trkpt>
      <trkpt lat="45.11971" lon="4.98418">
        <ele>190.33999633789</ele>
        <time>2009-10-14T11:33:47Z</time>
      </trkpt>
      <trkpt lat="45.11972" lon="4.98421">
        <ele>190.39700317383</ele>
        <time>2009-10-14T11:33:48Z</time>
      </trkpt>
      <trkpt lat="45.11975" lon="4.98427">
        <ele>189.94099426269</ele>
        <time>2009-10-14T11:33:51Z</time>
      </trkpt>
      <trkpt lat="45.11983" lon="4.98422">
        <ele>189.82299804688</ele>
        <time>2009-10-14T11:33:56Z</time>
      </trkpt>
      <trkpt lat="45.11991" lon="4.98409">
        <ele>190.32899475098</ele>
        <time>2009-10-14T11:34:02Z</time>
      </trkpt>
      <trkpt lat="45.11998" lon="4.98411">
        <ele>189.67900085449</ele>
        <time>2009-10-14T11:34:06Z</time>
      </trkpt>
      <trkpt lat="45.11998" lon="4.98421">
        <ele>190.36500549316</ele>
        <time>2009-10-14T11:34:10Z</time>
      </trkpt>
      <trkpt lat="45.11999" lon="4.98429">
        <ele>190.96200561523</ele>
        <time>2009-10-14T11:34:14Z</time>
      </trkpt>
      <trkpt lat="45.12" lon="4.98424">
        <ele>190.97300720215</ele>
        <time>2009-10-14T11:34:19Z</time>
      </trkpt>
      <trkpt lat="45.11996" lon="4.98421">
        <ele>190.67799377441</ele>
        <time>2009-10-14T11:34:27Z</time>
      </trkpt>
      <trkpt lat="45.1199" lon="4.98417">
        <ele>191.60600280762</ele>
        <time>2009-10-14T11:34:33Z</time>
      </trkpt>
      <trkpt lat="45.11979" lon="4.98417">
        <ele>190.88400268555</ele>
        <time>2009-10-14T11:34:39Z</time>
      </trkpt>
      <trkpt lat="45.11981" lon="4.98409">
        <ele>190.78900146484</ele>
        <time>2009-10-14T11:34:42Z</time>
      </trkpt>
      <trkpt lat="45.11985" lon="4.9841">
        <ele>190.88400268555</ele>
        <time>2009-10-14T11:34:44Z</time>
      </trkpt>
      <trkpt lat="45.11993" lon="4.98407">
        <ele>191.02600097656</ele>
        <time>2009-10-14T11:34:50Z</time>
      </trkpt>
      <trkpt lat="45.11996" lon="4.98408">
        <ele>190.9640045166</ele>
        <time>2009-10-14T11:34:54Z</time>
      </trkpt>
      <trkpt lat="45.11998" lon="4.98418">
        <ele>191.99899291992</ele>
        <time>2009-10-14T11:35:01Z</time>
      </trkpt>
      <trkpt lat="45.11997" lon="4.98421">
        <ele>191.87300109863</ele>
        <time>2009-10-14T11:35:04Z</time>
      </trkpt>
      <trkpt lat="45.11998" lon="4.98429">
        <ele>191.66400146484</ele>
        <time>2009-10-14T11:35:10Z</time>
      </trkpt>
      <trkpt lat="45.12007" lon="4.98426">
        <ele>191.64100646973</ele>
        <time>2009-10-14T11:35:19Z</time>
      </trkpt>
      <trkpt lat="45.12008" lon="4.98419">
        <ele>192.00199890137</ele>
        <time>2009-10-14T11:35:23Z</time>
      </trkpt>
      <trkpt lat="45.12013" lon="4.98416">
        <ele>191.87699890137</ele>
        <time>2009-10-14T11:35:27Z</time>
      </trkpt>
      <trkpt lat="45.12011" lon="4.98424">
        <ele>192.22999572754</ele>
        <time>2009-10-14T11:35:32Z</time>
      </trkpt>
      <trkpt lat="45.12007" lon="4.9842">
        <ele>191.89700317383</ele>
        <time>2009-10-14T11:35:35Z</time>
      </trkpt>
      <trkpt lat="45.12005" lon="4.98415">
        <ele>192.27299499512</ele>
        <time>2009-10-14T11:35:37Z</time>
      </trkpt>
      <trkpt lat="45.11996" lon="4.98418">
        <ele>192.13999938965</ele>
        <time>2009-10-14T11:35:42Z</time>
      </trkpt>
      <trkpt lat="45.11996" lon="4.98421">
        <ele>192.04200744629</ele>
        <time>2009-10-14T11:35:43Z</time>
      </trkpt>
      <trkpt lat="45.11995" lon="4.98436">
        <ele>192.35299682617</ele>
        <time>2009-10-14T11:35:50Z</time>
      </trkpt>
      <trkpt lat="45.11995" lon="4.98437">
        <ele>192.70100402832</ele>
        <time>2009-10-14T11:35:51Z</time>
      </trkpt>
      <trkpt lat="45.1199" lon="4.98444">
        <ele>192.32699584961</ele>
        <time>2009-10-14T11:35:58Z</time>
      </trkpt>
      <trkpt lat="45.11989" lon="4.98444">
        <ele>192.34800720215</ele>
        <time>2009-10-14T11:35:59Z</time>
      </trkpt>
      <trkpt lat="45.11986" lon="4.98443">
        <ele>192.24099731445</ele>
        <time>2009-10-14T11:36:01Z</time>
      </trkpt>
      <trkpt lat="45.11981" lon="4.98435">
        <ele>192.09899902344</ele>
        <time>2009-10-14T11:36:05Z</time>
      </trkpt>
      <trkpt lat="45.11986" lon="4.98421">
        <ele>191.15699768066</ele>
        <time>2009-10-14T11:36:10Z</time>
      </trkpt>
      <trkpt lat="45.11988" lon="4.9842">
        <ele>190.55000305176</ele>
        <time>2009-10-14T11:36:11Z</time>
      </trkpt>
      <trkpt lat="45.11992" lon="4.9842">
        <ele>190.51600646973</ele>
        <time>2009-10-14T11:36:13Z</time>
      </trkpt>
      <trkpt lat="45.11993" lon="4.98409">
        <ele>190.74899291992</ele>
        <time>2009-10-14T11:36:19Z</time>
      </trkpt>
      <trkpt lat="45.11988" lon="4.98408">
        <ele>190.84599304199</ele>
        <time>2009-10-14T11:36:22Z</time>
      </trkpt>
      <trkpt lat="45.11984" lon="4.98409">
        <ele>192.02200317383</ele>
        <time>2009-10-14T11:36:29Z</time>
      </trkpt>
      <trkpt lat="45.11985" lon="4.98408">
        <ele>192.68299865723</ele>
        <time>2009-10-14T11:36:34Z</time>
      </trkpt>
      <trkpt lat="45.11985" lon="4.98408">
        <ele>191.8809967041</ele>
        <time>2009-10-14T11:36:44Z</time>
      </trkpt>
      <trkpt lat="45.11986" lon="4.98407">
        <ele>193.43699645996</ele>
        <time>2009-10-14T11:37:07Z</time>
      </trkpt>
      <trkpt lat="45.11986" lon="4.98407">
        <ele>192.69500732422</ele>
        <time>2009-10-14T11:37:12Z</time>
      </trkpt>
      <trkpt lat="45.11987" lon="4.98406">
        <ele>192.66600036621</ele>
        <time>2009-10-14T11:37:38Z</time>
      </trkpt>
      <trkpt lat="45.11987" lon="4.98406">
        <ele>192.33700561523</ele>
        <time>2009-10-14T11:37:49Z</time>
      </trkpt>
      <trkpt lat="45.11987" lon="4.98404">
        <ele>193.43299865723</ele>
        <time>2009-10-14T11:38:49Z</time>
      </trkpt>
      <trkpt lat="45.11987" lon="4.98405">
        <ele>193.11999511719</ele>
        <time>2009-10-14T11:39:01Z</time>
      </trkpt>
      <trkpt lat="45.11986" lon="4.98405">
        <ele>192.94999694824</ele>
        <time>2009-10-14T11:39:12Z</time>
      </trkpt>
      <trkpt lat="45.11986" lon="4.98406">
        <ele>193.98899841309</ele>
        <time>2009-10-14T11:39:23Z</time>
      </trkpt>
      <trkpt lat="45.11985" lon="4.98408">
        <ele>193.8869934082</ele>
        <time>2009-10-14T11:40:09Z</time>
      </trkpt>
      <trkpt lat="45.11985" lon="4.98408">
        <ele>195.49000549316</ele>
        <time>2009-10-14T11:40:13Z</time>
      </trkpt>
      <trkpt lat="45.11985" lon="4.98408">
        <ele>196.37199401856</ele>
        <time>2009-10-14T11:40:15Z</time>
      </trkpt>
      <trkpt lat="45.11985" lon="4.98408">
        <ele>194.2619934082</ele>
        <time>2009-10-14T11:40:17Z</time>
      </trkpt>
      <trkpt lat="45.11985" lon="4.98409">
        <ele>193.73399353027</ele>
        <time>2009-10-14T11:40:31Z</time>
      </trkpt>
      <trkpt lat="45.11985" lon="4.98408">
        <ele>193.82400512695</ele>
        <time>2009-10-14T11:40:34Z</time>
      </trkpt>
      <trkpt lat="45.11985" lon="4.98408">
        <ele>193.7200012207</ele>
        <time>2009-10-14T11:40:47Z</time>
      </trkpt>
      <trkpt lat="45.1198" lon="4.98407">
        <ele>192.97099304199</ele>
        <time>2009-10-14T11:40:52Z</time>
      </trkpt>
      <trkpt lat="45.11982" lon="4.98393">
        <ele>193.24299621582</ele>
        <time>2009-10-14T11:40:57Z</time>
      </trkpt>
      <trkpt lat="45.11988" lon="4.98391">
        <ele>192.83700561523</ele>
        <time>2009-10-14T11:40:59Z</time>
      </trkpt>
      <trkpt lat="45.11995" lon="4.98393">
        <ele>193.77699279785</ele>
        <time>2009-10-14T11:41:01Z</time>
      </trkpt>
      <trkpt lat="45.12023" lon="4.98407">
        <ele>195.0119934082</ele>
        <time>2009-10-14T11:41:09Z</time>
      </trkpt>
      <trkpt lat="45.12033" lon="4.98422">
        <ele>195.33500671387</ele>
        <time>2009-10-14T11:41:13Z</time>
      </trkpt>
      <trkpt lat="45.12038" lon="4.98429">
        <ele>195.02600097656</ele>
        <time>2009-10-14T11:41:15Z</time>
      </trkpt>
      <trkpt lat="45.1205" lon="4.98428">
        <ele>195.23399353027</ele>
        <time>2009-10-14T11:41:18Z</time>
      </trkpt>
      <trkpt lat="45.12071" lon="4.98412">
        <ele>195.35499572754</ele>
        <time>2009-10-14T11:41:23Z</time>
      </trkpt>
      <trkpt lat="45.12082" lon="4.9841">
        <ele>195.3630065918</ele>
        <time>2009-10-14T11:41:25Z</time>
      </trkpt>
      <trkpt lat="45.12122" lon="4.9841">
        <ele>196.9640045166</ele>
        <time>2009-10-14T11:41:33Z</time>
      </trkpt>
      <trkpt lat="45.12159" lon="4.9841">
        <ele>195.39300537109</ele>
        <time>2009-10-14T11:41:40Z</time>
      </trkpt>
      <trkpt lat="45.12184" lon="4.9841">
        <ele>195.70799255371</ele>
        <time>2009-10-14T11:41:47Z</time>
      </trkpt>
      <trkpt lat="45.12206" lon="4.98409">
        <ele>196.80299377441</ele>
        <time>2009-10-14T11:41:52Z</time>
      </trkpt>
      <trkpt lat="45.12243" lon="4.98408">
        <ele>197.34300231934</ele>
        <time>2009-10-14T11:41:59Z</time>
      </trkpt>
      <trkpt lat="45.12268" lon="4.98408">
        <ele>197.22799682617</ele>
        <time>2009-10-14T11:42:04Z</time>
      </trkpt>
      <trkpt lat="45.12295" lon="4.98411">
        <ele>197.39100646973</ele>
        <time>2009-10-14T11:42:09Z</time>
      </trkpt>
      <trkpt lat="45.12324" lon="4.98412">
        <ele>198.2619934082</ele>
        <time>2009-10-14T11:42:15Z</time>
      </trkpt>
      <trkpt lat="45.12328" lon="4.98411">
        <ele>198.08000183106</ele>
        <time>2009-10-14T11:42:16Z</time>
      </trkpt>
      <trkpt lat="45.12349" lon="4.984">
        <ele>198.93099975586</ele>
        <time>2009-10-14T11:42:20Z</time>
      </trkpt>
      <trkpt lat="45.12358" lon="4.98391">
        <ele>200.04699707031</ele>
        <time>2009-10-14T11:42:22Z</time>
      </trkpt>
      <trkpt lat="45.12369" lon="4.98368">
        <ele>199.9880065918</ele>
        <time>2009-10-14T11:42:27Z</time>
      </trkpt>
      <trkpt lat="45.12381" lon="4.98374">
        <ele>199.89700317383</ele>
        <time>2009-10-14T11:42:31Z</time>
      </trkpt>
      <trkpt lat="45.12394" lon="4.98409">
        <ele>201.74899291992</ele>
        <time>2009-10-14T11:42:38Z</time>
      </trkpt>
      <trkpt lat="45.12407" lon="4.98448">
        <ele>201.66600036621</ele>
        <time>2009-10-14T11:42:45Z</time>
      </trkpt>
      <trkpt lat="45.12422" lon="4.98494">
        <ele>202.1609954834</ele>
        <time>2009-10-14T11:42:53Z</time>
      </trkpt>
      <trkpt lat="45.12427" lon="4.98517">
        <ele>202.07099914551</ele>
        <time>2009-10-14T11:42:57Z</time>
      </trkpt>
      <trkpt lat="45.12429" lon="4.98523">
        <ele>202.43600463867</ele>
        <time>2009-10-14T11:42:58Z</time>
      </trkpt>
      <trkpt lat="45.12443" lon="4.98547">
        <ele>204.19299316406</ele>
        <time>2009-10-14T11:43:03Z</time>
      </trkpt>
      <trkpt lat="45.1245" lon="4.98551">
        <ele>204.19299316406</ele>
        <time>2009-10-14T11:43:05Z</time>
      </trkpt>
      <trkpt lat="45.12476" lon="4.98558">
        <ele>205.53399658203</ele>
        <time>2009-10-14T11:43:12Z</time>
      </trkpt>
      <trkpt lat="45.12489" lon="4.98559">
        <ele>207.25500488281</ele>
        <time>2009-10-14T11:43:16Z</time>
      </trkpt>
      <trkpt lat="45.12504" lon="4.98559">
        <ele>207.88000488281</ele>
        <time>2009-10-14T11:43:20Z</time>
      </trkpt>
      <trkpt lat="45.12523" lon="4.98566">
        <ele>209.27699279785</ele>
        <time>2009-10-14T11:43:25Z</time>
      </trkpt>
      <trkpt lat="45.12537" lon="4.98572">
        <ele>211.15100097656</ele>
        <time>2009-10-14T11:43:29Z</time>
      </trkpt>
      <trkpt lat="45.12546" lon="4.98577">
        <ele>210.92599487305</ele>
        <time>2009-10-14T11:43:32Z</time>
      </trkpt>
      <trkpt lat="45.12566" lon="4.98588">
        <ele>213.66299438477</ele>
        <time>2009-10-14T11:43:39Z</time>
      </trkpt>
      <trkpt lat="45.12582" lon="4.98597">
        <ele>215.57899475098</ele>
        <time>2009-10-14T11:43:45Z</time>
      </trkpt>
      <trkpt lat="45.126" lon="4.98607">
        <ele>217.05700683594</ele>
        <time>2009-10-14T11:43:51Z</time>
      </trkpt>
      <trkpt lat="45.12614" lon="4.98615">
        <ele>218.44900512695</ele>
        <time>2009-10-14T11:43:56Z</time>
      </trkpt>
      <trkpt lat="45.12632" lon="4.98624">
        <ele>219.08999633789</ele>
        <time>2009-10-14T11:44:02Z</time>
      </trkpt>
      <trkpt lat="45.12651" lon="4.98636">
        <ele>221.45599365234</ele>
        <time>2009-10-14T11:44:09Z</time>
      </trkpt>
      <trkpt lat="45.12668" lon="4.98645">
        <ele>222.92300415039</ele>
        <time>2009-10-14T11:44:15Z</time>
      </trkpt>
      <trkpt lat="45.12686" lon="4.98663">
        <ele>224.94700622559</ele>
        <time>2009-10-14T11:44:22Z</time>
      </trkpt>
      <trkpt lat="45.12697" lon="4.98684">
        <ele>226.78900146484</ele>
        <time>2009-10-14T11:44:29Z</time>
      </trkpt>
      <trkpt lat="45.12703" lon="4.98698">
        <ele>228.26100158691</ele>
        <time>2009-10-14T11:44:34Z</time>
      </trkpt>
      <trkpt lat="45.12713" lon="4.98719">
        <ele>229.87899780273</ele>
        <time>2009-10-14T11:44:40Z</time>
      </trkpt>
      <trkpt lat="45.12725" lon="4.98739">
        <ele>230.19500732422</ele>
        <time>2009-10-14T11:44:46Z</time>
      </trkpt>
      <trkpt lat="45.1274" lon="4.98761">
        <ele>231.82200622559</ele>
        <time>2009-10-14T11:44:53Z</time>
      </trkpt>
      <trkpt lat="45.12753" lon="4.98775">
        <ele>233.03500366211</ele>
        <time>2009-10-14T11:44:58Z</time>
      </trkpt>
      <trkpt lat="45.12768" lon="4.98786">
        <ele>234.19200134277</ele>
        <time>2009-10-14T11:45:03Z</time>
      </trkpt>
      <trkpt lat="45.12788" lon="4.98798">
        <ele>236.12100219727</ele>
        <time>2009-10-14T11:45:10Z</time>
      </trkpt>
      <trkpt lat="45.12807" lon="4.98808">
        <ele>237.41400146484</ele>
        <time>2009-10-14T11:45:17Z</time>
      </trkpt>
      <trkpt lat="45.12827" lon="4.98815">
        <ele>238.49299621582</ele>
        <time>2009-10-14T11:45:24Z</time>
      </trkpt>
      <trkpt lat="45.12849" lon="4.98823">
        <ele>239.75300598144</ele>
        <time>2009-10-14T11:45:31Z</time>
      </trkpt>
      <trkpt lat="45.1288" lon="4.9883">
        <ele>240.63900756836</ele>
        <time>2009-10-14T11:45:40Z</time>
      </trkpt>
      <trkpt lat="45.12904" lon="4.98836">
        <ele>241.40600585938</ele>
        <time>2009-10-14T11:45:47Z</time>
      </trkpt>
      <trkpt lat="45.12924" lon="4.98841">
        <ele>241.79600524902</ele>
        <time>2009-10-14T11:45:53Z</time>
      </trkpt>
      <trkpt lat="45.1293" lon="4.98842">
        <ele>242.62100219727</ele>
        <time>2009-10-14T11:45:57Z</time>
      </trkpt>
      <trkpt lat="45.12931" lon="4.98843">
        <ele>242.2559967041</ele>
        <time>2009-10-14T11:46:06Z</time>
      </trkpt>
      <trkpt lat="45.12931" lon="4.98843">
        <ele>242.61700439453</ele>
        <time>2009-10-14T11:46:12Z</time>
      </trkpt>
      <trkpt lat="45.12932" lon="4.98843">
        <ele>242.70700073242</ele>
        <time>2009-10-14T11:46:16Z</time>
      </trkpt>
      <trkpt lat="45.12932" lon="4.98843">
        <ele>242.73199462891</ele>
        <time>2009-10-14T11:46:17Z</time>
      </trkpt>
      <trkpt lat="45.12938" lon="4.98844">
        <ele>242.64799499512</ele>
        <time>2009-10-14T11:46:23Z</time>
      </trkpt>
      <trkpt lat="45.12949" lon="4.98849">
        <ele>243.2440032959</ele>
        <time>2009-10-14T11:46:27Z</time>
      </trkpt>
      <trkpt lat="45.12981" lon="4.98858">
        <ele>243.50100708008</ele>
        <time>2009-10-14T11:46:35Z</time>
      </trkpt>
      <trkpt lat="45.13015" lon="4.9887">
        <ele>244.42999267578</ele>
        <time>2009-10-14T11:46:43Z</time>
      </trkpt>
      <trkpt lat="45.13028" lon="4.98874">
        <ele>245.74899291992</ele>
        <time>2009-10-14T11:46:46Z</time>
      </trkpt>
      <trkpt lat="45.13059" lon="4.98886">
        <ele>245.16400146484</ele>
        <time>2009-10-14T11:46:53Z</time>
      </trkpt>
      <trkpt lat="45.13093" lon="4.989">
        <ele>246.64199829102</ele>
        <time>2009-10-14T11:47:01Z</time>
      </trkpt>
      <trkpt lat="45.13144" lon="4.98918">
        <ele>248.52799987793</ele>
        <time>2009-10-14T11:47:13Z</time>
      </trkpt>
      <trkpt lat="45.13174" lon="4.98929">
        <ele>248.97200012207</ele>
        <time>2009-10-14T11:47:21Z</time>
      </trkpt>
      <trkpt lat="45.13201" lon="4.98939">
        <ele>251.35499572754</ele>
        <time>2009-10-14T11:47:28Z</time>
      </trkpt>
      <trkpt lat="45.13218" lon="4.98946">
        <ele>253.07000732422</ele>
        <time>2009-10-14T11:47:32Z</time>
      </trkpt>
      <trkpt lat="45.13253" lon="4.98961">
        <ele>254.79600524902</ele>
        <time>2009-10-14T11:47:41Z</time>
      </trkpt>
      <trkpt lat="45.13287" lon="4.98976">
        <ele>256.32501220703</ele>
        <time>2009-10-14T11:47:51Z</time>
      </trkpt>
      <trkpt lat="45.13307" lon="4.98985">
        <ele>258.4880065918</ele>
        <time>2009-10-14T11:47:57Z</time>
      </trkpt>
      <trkpt lat="45.13335" lon="4.99002">
        <ele>260.01998901367</ele>
        <time>2009-10-14T11:48:06Z</time>
      </trkpt>
      <trkpt lat="45.13354" lon="4.99016">
        <ele>261.15701293945</ele>
        <time>2009-10-14T11:48:12Z</time>
      </trkpt>
      <trkpt lat="45.13377" lon="4.99034">
        <ele>263.5830078125</ele>
        <time>2009-10-14T11:48:20Z</time>
      </trkpt>
      <trkpt lat="45.13382" lon="4.99039">
        <ele>264.42001342773</ele>
        <time>2009-10-14T11:48:22Z</time>
      </trkpt>
      <trkpt lat="45.13406" lon="4.99061">
        <ele>264.77899169922</ele>
        <time>2009-10-14T11:48:31Z</time>
      </trkpt>
      <trkpt lat="45.13417" lon="4.99072">
        <ele>265.94299316406</ele>
        <time>2009-10-14T11:48:35Z</time>
      </trkpt>
      <trkpt lat="45.13436" lon="4.99089">
        <ele>267.77200317383</ele>
        <time>2009-10-14T11:48:41Z</time>
      </trkpt>
      <trkpt lat="45.13454" lon="4.99107">
        <ele>270.21398925781</ele>
        <time>2009-10-14T11:48:47Z</time>
      </trkpt>
      <trkpt lat="45.13464" lon="4.99116">
        <ele>271.5</ele>
        <time>2009-10-14T11:48:50Z</time>
      </trkpt>
      <trkpt lat="45.13493" lon="4.99144">
        <ele>271.83499145508</ele>
        <time>2009-10-14T11:48:59Z</time>
      </trkpt>
      <trkpt lat="45.13528" lon="4.99172">
        <ele>272.73498535156</ele>
        <time>2009-10-14T11:49:09Z</time>
      </trkpt>
      <trkpt lat="45.13569" lon="4.99201">
        <ele>272.95199584961</ele>
        <time>2009-10-14T11:49:19Z</time>
      </trkpt>
      <trkpt lat="45.13605" lon="4.99221">
        <ele>273.01599121094</ele>
        <time>2009-10-14T11:49:27Z</time>
      </trkpt>
      <trkpt lat="45.13643" lon="4.99229">
        <ele>272.10501098633</ele>
        <time>2009-10-14T11:49:35Z</time>
      </trkpt>
      <trkpt lat="45.13665" lon="4.99224">
        <ele>272.46301269531</ele>
        <time>2009-10-14T11:49:40Z</time>
      </trkpt>
      <trkpt lat="45.13678" lon="4.99219">
        <ele>272.76800537109</ele>
        <time>2009-10-14T11:49:44Z</time>
      </trkpt>
      <trkpt lat="45.13685" lon="4.99217">
        <ele>272.42401123047</ele>
        <time>2009-10-14T11:49:46Z</time>
      </trkpt>
      <trkpt lat="45.13697" lon="4.99211">
        <ele>273.15600585938</ele>
        <time>2009-10-14T11:49:49Z</time>
      </trkpt>
      <trkpt lat="45.13733" lon="4.99191">
        <ele>272.39898681641</ele>
        <time>2009-10-14T11:49:57Z</time>
      </trkpt>
      <trkpt lat="45.13776" lon="4.99166">
        <ele>272.5710144043</ele>
        <time>2009-10-14T11:50:05Z</time>
      </trkpt>
      <trkpt lat="45.13818" lon="4.9914">
        <ele>270.74700927734</ele>
        <time>2009-10-14T11:50:13Z</time>
      </trkpt>
      <trkpt lat="45.1386" lon="4.99116">
        <ele>271.37799072266</ele>
        <time>2009-10-14T11:50:21Z</time>
      </trkpt>
      <trkpt lat="45.13917" lon="4.99088">
        <ele>271.51400756836</ele>
        <time>2009-10-14T11:50:31Z</time>
      </trkpt>
      <trkpt lat="45.1396" lon="4.99082">
        <ele>271.37600708008</ele>
        <time>2009-10-14T11:50:38Z</time>
      </trkpt>
      <trkpt lat="45.14011" lon="4.99083">
        <ele>270.87100219727</ele>
        <time>2009-10-14T11:50:46Z</time>
      </trkpt>
      <trkpt lat="45.14066" lon="4.99084">
        <ele>270.03601074219</ele>
        <time>2009-10-14T11:50:54Z</time>
      </trkpt>
      <trkpt lat="45.14118" lon="4.99086">
        <ele>269.58700561523</ele>
        <time>2009-10-14T11:51:02Z</time>
      </trkpt>
      <trkpt lat="45.14168" lon="4.99097">
        <ele>267.35501098633</ele>
        <time>2009-10-14T11:51:09Z</time>
      </trkpt>
      <trkpt lat="45.14209" lon="4.99119">
        <ele>267.70401000977</ele>
        <time>2009-10-14T11:51:15Z</time>
      </trkpt>
      <trkpt lat="45.14223" lon="4.99125">
        <ele>266.91198730469</ele>
        <time>2009-10-14T11:51:17Z</time>
      </trkpt>
      <trkpt lat="45.1426" lon="4.99129">
        <ele>264.71200561523</ele>
        <time>2009-10-14T11:51:22Z</time>
      </trkpt>
      <trkpt lat="45.14304" lon="4.99125">
        <ele>261.80700683594</ele>
        <time>2009-10-14T11:51:28Z</time>
      </trkpt>
      <trkpt lat="45.14358" lon="4.99123">
        <ele>260.90399169922</ele>
        <time>2009-10-14T11:51:35Z</time>
      </trkpt>
      <trkpt lat="45.14373" lon="4.99122">
        <ele>259.90100097656</ele>
        <time>2009-10-14T11:51:37Z</time>
      </trkpt>
      <trkpt lat="45.14397" lon="4.9912">
        <ele>261.65301513672</ele>
        <time>2009-10-14T11:51:40Z</time>
      </trkpt>
      <trkpt lat="45.14438" lon="4.99126">
        <ele>260.01098632812</ele>
        <time>2009-10-14T11:51:45Z</time>
      </trkpt>
      <trkpt lat="45.14472" lon="4.99142">
        <ele>259.80801391602</ele>
        <time>2009-10-14T11:51:50Z</time>
      </trkpt>
      <trkpt lat="45.14507" lon="4.99151">
        <ele>261.65100097656</ele>
        <time>2009-10-14T11:51:55Z</time>
      </trkpt>
      <trkpt lat="45.14513" lon="4.99152">
        <ele>261.78601074219</ele>
        <time>2009-10-14T11:51:56Z</time>
      </trkpt>
      <trkpt lat="45.14559" lon="4.99157">
        <ele>262.1130065918</ele>
        <time>2009-10-14T11:52:03Z</time>
      </trkpt>
      <trkpt lat="45.14608" lon="4.99163">
        <ele>262.52301025391</ele>
        <time>2009-10-14T11:52:11Z</time>
      </trkpt>
      <trkpt lat="45.14644" lon="4.99167">
        <ele>262.93701171875</ele>
        <time>2009-10-14T11:52:17Z</time>
      </trkpt>
      <trkpt lat="45.14676" lon="4.99169">
        <ele>264.4169921875</ele>
        <time>2009-10-14T11:52:23Z</time>
      </trkpt>
      <trkpt lat="45.14712" lon="4.99173">
        <ele>263.87298583984</ele>
        <time>2009-10-14T11:52:29Z</time>
      </trkpt>
      <trkpt lat="45.14747" lon="4.99182">
        <ele>262.57501220703</ele>
        <time>2009-10-14T11:52:35Z</time>
      </trkpt>
      <trkpt lat="45.14781" lon="4.99203">
        <ele>264.80200195312</ele>
        <time>2009-10-14T11:52:41Z</time>
      </trkpt>
      <trkpt lat="45.14793" lon="4.99211">
        <ele>266.07000732422</ele>
        <time>2009-10-14T11:52:43Z</time>
      </trkpt>
      <trkpt lat="45.14828" lon="4.99235">
        <ele>267.45098876953</ele>
        <time>2009-10-14T11:52:50Z</time>
      </trkpt>
      <trkpt lat="45.14833" lon="4.99238">
        <ele>267.54901123047</ele>
        <time>2009-10-14T11:52:51Z</time>
      </trkpt>
      <trkpt lat="45.14864" lon="4.9926">
        <ele>269.06698608398</ele>
        <time>2009-10-14T11:52:58Z</time>
      </trkpt>
      <trkpt lat="45.14874" lon="4.99267">
        <ele>269.82699584961</ele>
        <time>2009-10-14T11:53:00Z</time>
      </trkpt>
      <trkpt lat="45.14904" lon="4.99286">
        <ele>271.36401367188</ele>
        <time>2009-10-14T11:53:07Z</time>
      </trkpt>
      <trkpt lat="45.14937" lon="4.99307">
        <ele>271.5830078125</ele>
        <time>2009-10-14T11:53:15Z</time>
      </trkpt>
      <trkpt lat="45.14961" lon="4.9932">
        <ele>272.94000244141</ele>
        <time>2009-10-14T11:53:21Z</time>
      </trkpt>
      <trkpt lat="45.1499" lon="4.99336">
        <ele>275.32901000977</ele>
        <time>2009-10-14T11:53:28Z</time>
      </trkpt>
      <trkpt lat="45.15011" lon="4.99353">
        <ele>277.42700195312</ele>
        <time>2009-10-14T11:53:34Z</time>
      </trkpt>
      <trkpt lat="45.15029" lon="4.99369">
        <ele>278.70300292969</ele>
        <time>2009-10-14T11:53:39Z</time>
      </trkpt>
      <trkpt lat="45.15049" lon="4.9939">
        <ele>280.35000610352</ele>
        <time>2009-10-14T11:53:46Z</time>
      </trkpt>
      <trkpt lat="45.15071" lon="4.99412">
        <ele>282.22299194336</ele>
        <time>2009-10-14T11:53:53Z</time>
      </trkpt>
      <trkpt lat="45.15089" lon="4.99431">
        <ele>282.93399047852</ele>
        <time>2009-10-14T11:53:59Z</time>
      </trkpt>
      <trkpt lat="45.15108" lon="4.99449">
        <ele>284.62899780273</ele>
        <time>2009-10-14T11:54:05Z</time>
      </trkpt>
      <trkpt lat="45.15128" lon="4.99464">
        <ele>286.08999633789</ele>
        <time>2009-10-14T11:54:11Z</time>
      </trkpt>
      <trkpt lat="45.15149" lon="4.99479">
        <ele>287.98599243164</ele>
        <time>2009-10-14T11:54:17Z</time>
      </trkpt>
      <trkpt lat="45.15163" lon="4.99499">
        <ele>288.85101318359</ele>
        <time>2009-10-14T11:54:22Z</time>
      </trkpt>
      <trkpt lat="45.15179" lon="4.99531">
        <ele>290.52899169922</ele>
        <time>2009-10-14T11:54:29Z</time>
      </trkpt>
      <trkpt lat="45.15191" lon="4.99565">
        <ele>291.96398925781</ele>
        <time>2009-10-14T11:54:36Z</time>
      </trkpt>
      <trkpt lat="45.15193" lon="4.99593">
        <ele>293.55801391602</ele>
        <time>2009-10-14T11:54:41Z</time>
      </trkpt>
      <trkpt lat="45.15193" lon="4.99599">
        <ele>293.55700683594</ele>
        <time>2009-10-14T11:54:42Z</time>
      </trkpt>
      <trkpt lat="45.15191" lon="4.99649">
        <ele>295.55499267578</ele>
        <time>2009-10-14T11:54:51Z</time>
      </trkpt>
      <trkpt lat="45.15199" lon="4.99666">
        <ele>296.35299682617</ele>
        <time>2009-10-14T11:54:55Z</time>
      </trkpt>
      <trkpt lat="45.15208" lon="4.99672">
        <ele>296.85699462891</ele>
        <time>2009-10-14T11:54:58Z</time>
      </trkpt>
      <trkpt lat="45.15216" lon="4.99672">
        <ele>297.76501464844</ele>
        <time>2009-10-14T11:55:02Z</time>
      </trkpt>
      <trkpt lat="45.15235" lon="4.99673">
        <ele>298.45700073242</ele>
        <time>2009-10-14T11:55:07Z</time>
      </trkpt>
      <trkpt lat="45.15254" lon="4.99672">
        <ele>299.41101074219</ele>
        <time>2009-10-14T11:55:12Z</time>
      </trkpt>
      <trkpt lat="45.15275" lon="4.99666">
        <ele>300.95401000977</ele>
        <time>2009-10-14T11:55:18Z</time>
      </trkpt>
      <trkpt lat="45.1529" lon="4.99657">
        <ele>302.20098876953</ele>
        <time>2009-10-14T11:55:23Z</time>
      </trkpt>
      <trkpt lat="45.15301" lon="4.99643">
        <ele>303.16598510742</ele>
        <time>2009-10-14T11:55:28Z</time>
      </trkpt>
      <trkpt lat="45.15316" lon="4.99632">
        <ele>303.74398803711</ele>
        <time>2009-10-14T11:55:32Z</time>
      </trkpt>
      <trkpt lat="45.15332" lon="4.99614">
        <ele>304.62298583984</ele>
        <time>2009-10-14T11:55:37Z</time>
      </trkpt>
      <trkpt lat="45.15348" lon="4.99587">
        <ele>305.3219909668</ele>
        <time>2009-10-14T11:55:43Z</time>
      </trkpt>
      <trkpt lat="45.15358" lon="4.99557">
        <ele>306.26599121094</ele>
        <time>2009-10-14T11:55:49Z</time>
      </trkpt>
      <trkpt lat="45.15365" lon="4.99531">
        <ele>306.74499511719</ele>
        <time>2009-10-14T11:55:54Z</time>
      </trkpt>
      <trkpt lat="45.15381" lon="4.99501">
        <ele>308.13000488281</ele>
        <time>2009-10-14T11:56:00Z</time>
      </trkpt>
      <trkpt lat="45.15401" lon="4.99484">
        <ele>309.43499755859</ele>
        <time>2009-10-14T11:56:05Z</time>
      </trkpt>
      <trkpt lat="45.15426" lon="4.99469">
        <ele>310.21200561523</ele>
        <time>2009-10-14T11:56:12Z</time>
      </trkpt>
      <trkpt lat="45.15444" lon="4.99454">
        <ele>311.93701171875</ele>
        <time>2009-10-14T11:56:18Z</time>
      </trkpt>
      <trkpt lat="45.15461" lon="4.99432">
        <ele>312.37899780273</ele>
        <time>2009-10-14T11:56:24Z</time>
      </trkpt>
      <trkpt lat="45.15463" lon="4.99428">
        <ele>312.75500488281</ele>
        <time>2009-10-14T11:56:25Z</time>
      </trkpt>
      <trkpt lat="45.15468" lon="4.9941">
        <ele>314.78100585938</ele>
        <time>2009-10-14T11:56:29Z</time>
      </trkpt>
      <trkpt lat="45.15471" lon="4.99406">
        <ele>314.91198730469</ele>
        <time>2009-10-14T11:56:30Z</time>
      </trkpt>
      <trkpt lat="45.15491" lon="4.99379">
        <ele>316.62100219727</ele>
        <time>2009-10-14T11:56:37Z</time>
      </trkpt>
      <trkpt lat="45.15504" lon="4.9937">
        <ele>317.16400146484</ele>
        <time>2009-10-14T11:56:41Z</time>
      </trkpt>
      <trkpt lat="45.15529" lon="4.99355">
        <ele>319.32998657227</ele>
        <time>2009-10-14T11:56:48Z</time>
      </trkpt>
      <trkpt lat="45.15559" lon="4.99339">
        <ele>318.85598754883</ele>
        <time>2009-10-14T11:56:55Z</time>
      </trkpt>
      <trkpt lat="45.15585" lon="4.9932">
        <ele>318.62701416016</ele>
        <time>2009-10-14T11:57:01Z</time>
      </trkpt>
      <trkpt lat="45.15604" lon="4.99298">
        <ele>319.37899780273</ele>
        <time>2009-10-14T11:57:06Z</time>
      </trkpt>
      <trkpt lat="45.15614" lon="4.99283">
        <ele>319.27700805664</ele>
        <time>2009-10-14T11:57:09Z</time>
      </trkpt>
      <trkpt lat="45.15636" lon="4.99262">
        <ele>319.76901245117</ele>
        <time>2009-10-14T11:57:14Z</time>
      </trkpt>
      <trkpt lat="45.1567" lon="4.99249">
        <ele>320.61801147461</ele>
        <time>2009-10-14T11:57:20Z</time>
      </trkpt>
      <trkpt lat="45.1571" lon="4.99237">
        <ele>319.74600219727</ele>
        <time>2009-10-14T11:57:27Z</time>
      </trkpt>
      <trkpt lat="45.15759" lon="4.99224">
        <ele>320.27700805664</ele>
        <time>2009-10-14T11:57:35Z</time>
      </trkpt>
      <trkpt lat="45.15796" lon="4.99213">
        <ele>320.02600097656</ele>
        <time>2009-10-14T11:57:41Z</time>
      </trkpt>
      <trkpt lat="45.15827" lon="4.99208">
        <ele>319.71200561523</ele>
        <time>2009-10-14T11:57:46Z</time>
      </trkpt>
      <trkpt lat="45.15861" lon="4.99206">
        <ele>319.27099609375</ele>
        <time>2009-10-14T11:57:51Z</time>
      </trkpt>
      <trkpt lat="45.15894" lon="4.99203">
        <ele>319.00100708008</ele>
        <time>2009-10-14T11:57:56Z</time>
      </trkpt>
      <trkpt lat="45.15901" lon="4.99202">
        <ele>318.81799316406</ele>
        <time>2009-10-14T11:57:57Z</time>
      </trkpt>
      <trkpt lat="45.15935" lon="4.99191">
        <ele>317.56698608398</ele>
        <time>2009-10-14T11:58:02Z</time>
      </trkpt>
      <trkpt lat="45.15971" lon="4.99172">
        <ele>317.83999633789</ele>
        <time>2009-10-14T11:58:08Z</time>
      </trkpt>
      <trkpt lat="45.16011" lon="4.99162">
        <ele>317.03201293945</ele>
        <time>2009-10-14T11:58:14Z</time>
      </trkpt>
      <trkpt lat="45.16047" lon="4.99155">
        <ele>317.15798950195</ele>
        <time>2009-10-14T11:58:19Z</time>
      </trkpt>
      <trkpt lat="45.16084" lon="4.99148">
        <ele>316.75</ele>
        <time>2009-10-14T11:58:24Z</time>
      </trkpt>
      <trkpt lat="45.1611" lon="4.99153">
        <ele>317.63900756836</ele>
        <time>2009-10-14T11:58:28Z</time>
      </trkpt>
      <trkpt lat="45.16128" lon="4.99176">
        <ele>318.75399780273</ele>
        <time>2009-10-14T11:58:32Z</time>
      </trkpt>
      <trkpt lat="45.16142" lon="4.992">
        <ele>319.50601196289</ele>
        <time>2009-10-14T11:58:36Z</time>
      </trkpt>
      <trkpt lat="45.16163" lon="4.99213">
        <ele>321.03799438477</ele>
        <time>2009-10-14T11:58:41Z</time>
      </trkpt>
      <trkpt lat="45.16168" lon="4.99213">
        <ele>320.98999023438</ele>
        <time>2009-10-14T11:58:42Z</time>
      </trkpt>
      <trkpt lat="45.16203" lon="4.9921">
        <ele>322.70401000977</ele>
        <time>2009-10-14T11:58:50Z</time>
      </trkpt>
      <trkpt lat="45.16229" lon="4.99206">
        <ele>323.78900146484</ele>
        <time>2009-10-14T11:58:56Z</time>
      </trkpt>
      <trkpt lat="45.16236" lon="4.99205">
        <ele>324.88198852539</ele>
        <time>2009-10-14T11:58:58Z</time>
      </trkpt>
      <trkpt lat="45.16262" lon="4.99198">
        <ele>326.69500732422</ele>
        <time>2009-10-14T11:59:05Z</time>
      </trkpt>
      <trkpt lat="45.1629" lon="4.99188">
        <ele>328.21798706055</ele>
        <time>2009-10-14T11:59:13Z</time>
      </trkpt>
      <trkpt lat="45.16325" lon="4.99176">
        <ele>329.98098754883</ele>
        <time>2009-10-14T11:59:22Z</time>
      </trkpt>
      <trkpt lat="45.16357" lon="4.99163">
        <ele>332.02398681641</ele>
        <time>2009-10-14T11:59:31Z</time>
      </trkpt>
      <trkpt lat="45.16396" lon="4.99149">
        <ele>334.24398803711</ele>
        <time>2009-10-14T11:59:42Z</time>
      </trkpt>
      <trkpt lat="45.16426" lon="4.99137">
        <ele>336.03399658203</ele>
        <time>2009-10-14T11:59:51Z</time>
      </trkpt>
      <trkpt lat="45.16452" lon="4.99127">
        <ele>337.67498779297</ele>
        <time>2009-10-14T11:59:59Z</time>
      </trkpt>
      <trkpt lat="45.16475" lon="4.99119">
        <ele>339.09100341797</ele>
        <time>2009-10-14T12:00:06Z</time>
      </trkpt>
      <trkpt lat="45.165" lon="4.99114">
        <ele>340.92098999023</ele>
        <time>2009-10-14T12:00:14Z</time>
      </trkpt>
      <trkpt lat="45.16531" lon="4.99112">
        <ele>342.89599609375</ele>
        <time>2009-10-14T12:00:23Z</time>
      </trkpt>
      <trkpt lat="45.16562" lon="4.9911">
        <ele>345.03399658203</ele>
        <time>2009-10-14T12:00:32Z</time>
      </trkpt>
      <trkpt lat="45.16589" lon="4.9911">
        <ele>347.32800292969</ele>
        <time>2009-10-14T12:00:40Z</time>
      </trkpt>
      <trkpt lat="45.16608" lon="4.99121">
        <ele>348.60699462891</ele>
        <time>2009-10-14T12:00:46Z</time>
      </trkpt>
      <trkpt lat="45.16623" lon="4.9915">
        <ele>349.71600341797</ele>
        <time>2009-10-14T12:00:53Z</time>
      </trkpt>
      <trkpt lat="45.16637" lon="4.99164">
        <ele>350.78799438477</ele>
        <time>2009-10-14T12:00:58Z</time>
      </trkpt>
      <trkpt lat="45.1666" lon="4.99168">
        <ele>352.56201171875</ele>
        <time>2009-10-14T12:01:05Z</time>
      </trkpt>
      <trkpt lat="45.16684" lon="4.99157">
        <ele>354.20199584961</ele>
        <time>2009-10-14T12:01:12Z</time>
      </trkpt>
      <trkpt lat="45.16705" lon="4.99153">
        <ele>355.23699951172</ele>
        <time>2009-10-14T12:01:18Z</time>
      </trkpt>
      <trkpt lat="45.16719" lon="4.99165">
        <ele>356.50601196289</ele>
        <time>2009-10-14T12:01:23Z</time>
      </trkpt>
      <trkpt lat="45.16736" lon="4.99191">
        <ele>357.3630065918</ele>
        <time>2009-10-14T12:01:30Z</time>
      </trkpt>
      <trkpt lat="45.16752" lon="4.992">
        <ele>358.52499389648</ele>
        <time>2009-10-14T12:01:35Z</time>
      </trkpt>
      <trkpt lat="45.16768" lon="4.99193">
        <ele>359.36099243164</ele>
        <time>2009-10-14T12:01:40Z</time>
      </trkpt>
      <trkpt lat="45.16777" lon="4.99187">
        <ele>360.71600341797</ele>
        <time>2009-10-14T12:01:43Z</time>
      </trkpt>
      <trkpt lat="45.16796" lon="4.99183">
        <ele>361.27801513672</ele>
        <time>2009-10-14T12:01:49Z</time>
      </trkpt>
      <trkpt lat="45.16815" lon="4.99195">
        <ele>362.35000610352</ele>
        <time>2009-10-14T12:01:55Z</time>
      </trkpt>
      <trkpt lat="45.16838" lon="4.99218">
        <ele>363.75601196289</ele>
        <time>2009-10-14T12:02:03Z</time>
      </trkpt>
      <trkpt lat="45.16858" lon="4.99237">
        <ele>365.04400634766</ele>
        <time>2009-10-14T12:02:10Z</time>
      </trkpt>
      <trkpt lat="45.16885" lon="4.99259">
        <ele>366.43301391602</ele>
        <time>2009-10-14T12:02:19Z</time>
      </trkpt>
      <trkpt lat="45.16906" lon="4.99261">
        <ele>369.19799804688</ele>
        <time>2009-10-14T12:02:25Z</time>
      </trkpt>
      <trkpt lat="45.16929" lon="4.9925">
        <ele>369.2200012207</ele>
        <time>2009-10-14T12:02:32Z</time>
      </trkpt>
      <trkpt lat="45.1695" lon="4.99242">
        <ele>369.85101318359</ele>
        <time>2009-10-14T12:02:38Z</time>
      </trkpt>
      <trkpt lat="45.16978" lon="4.99231">
        <ele>370.57000732422</ele>
        <time>2009-10-14T12:02:45Z</time>
      </trkpt>
      <trkpt lat="45.17023" lon="4.99215">
        <ele>370.56698608398</ele>
        <time>2009-10-14T12:02:55Z</time>
      </trkpt>
      <trkpt lat="45.17067" lon="4.99199">
        <ele>371.35299682617</ele>
        <time>2009-10-14T12:03:05Z</time>
      </trkpt>
      <trkpt lat="45.17084" lon="4.99193">
        <ele>371.45498657227</ele>
        <time>2009-10-14T12:03:09Z</time>
      </trkpt>
      <trkpt lat="45.17119" lon="4.99176">
        <ele>373.05700683594</ele>
        <time>2009-10-14T12:03:18Z</time>
      </trkpt>
      <trkpt lat="45.17154" lon="4.99156">
        <ele>373.95498657227</ele>
        <time>2009-10-14T12:03:27Z</time>
      </trkpt>
      <trkpt lat="45.17192" lon="4.99134">
        <ele>374.75399780273</ele>
        <time>2009-10-14T12:03:37Z</time>
      </trkpt>
      <trkpt lat="45.17208" lon="4.9913">
        <ele>374.73699951172</ele>
        <time>2009-10-14T12:03:41Z</time>
      </trkpt>
      <trkpt lat="45.17244" lon="4.99133">
        <ele>374.41900634766</ele>
        <time>2009-10-14T12:03:49Z</time>
      </trkpt>
      <trkpt lat="45.17277" lon="4.99142">
        <ele>376.19400024414</ele>
        <time>2009-10-14T12:03:56Z</time>
      </trkpt>
      <trkpt lat="45.17287" lon="4.99146">
        <ele>374.89199829102</ele>
        <time>2009-10-14T12:03:58Z</time>
      </trkpt>
      <trkpt lat="45.17319" lon="4.99168">
        <ele>375.76300048828</ele>
        <time>2009-10-14T12:04:05Z</time>
      </trkpt>
      <trkpt lat="45.17364" lon="4.99207">
        <ele>375.02600097656</ele>
        <time>2009-10-14T12:04:14Z</time>
      </trkpt>
      <trkpt lat="45.17397" lon="4.99223">
        <ele>374.94000244141</ele>
        <time>2009-10-14T12:04:20Z</time>
      </trkpt>
      <trkpt lat="45.17438" lon="4.99228">
        <ele>374.91799926758</ele>
        <time>2009-10-14T12:04:27Z</time>
      </trkpt>
      <trkpt lat="45.17487" lon="4.99232">
        <ele>375.50500488281</ele>
        <time>2009-10-14T12:04:36Z</time>
      </trkpt>
      <trkpt lat="45.17526" lon="4.99236">
        <ele>375.56298828125</ele>
        <time>2009-10-14T12:04:44Z</time>
      </trkpt>
      <trkpt lat="45.17567" lon="4.9924">
        <ele>378.18200683594</ele>
        <time>2009-10-14T12:04:53Z</time>
      </trkpt>
      <trkpt lat="45.17602" lon="4.99238">
        <ele>377.53799438477</ele>
        <time>2009-10-14T12:05:00Z</time>
      </trkpt>
      <trkpt lat="45.17607" lon="4.99237">
        <ele>377.27398681641</ele>
        <time>2009-10-14T12:05:01Z</time>
      </trkpt>
      <trkpt lat="45.17649" lon="4.99223">
        <ele>377.48001098633</ele>
        <time>2009-10-14T12:05:10Z</time>
      </trkpt>
      <trkpt lat="45.17686" lon="4.99216">
        <ele>378.83200073242</ele>
        <time>2009-10-14T12:05:17Z</time>
      </trkpt>
      <trkpt lat="45.1772" lon="4.99222">
        <ele>378.76998901367</ele>
        <time>2009-10-14T12:05:23Z</time>
      </trkpt>
      <trkpt lat="45.17737" lon="4.99233">
        <ele>378.53201293945</ele>
        <time>2009-10-14T12:05:26Z</time>
      </trkpt>
      <trkpt lat="45.17769" lon="4.99276">
        <ele>379.32598876953</ele>
        <time>2009-10-14T12:05:33Z</time>
      </trkpt>
      <trkpt lat="45.17773" lon="4.99282">
        <ele>379.39099121094</ele>
        <time>2009-10-14T12:05:34Z</time>
      </trkpt>
      <trkpt lat="45.17802" lon="4.99313">
        <ele>377.84698486328</ele>
        <time>2009-10-14T12:05:40Z</time>
      </trkpt>
      <trkpt lat="45.17807" lon="4.99317">
        <ele>377.50201416016</ele>
        <time>2009-10-14T12:05:41Z</time>
      </trkpt>
      <trkpt lat="45.17852" lon="4.99343">
        <ele>376.52899169922</ele>
        <time>2009-10-14T12:05:48Z</time>
      </trkpt>
      <trkpt lat="45.17873" lon="4.99353">
        <ele>374.6369934082</ele>
        <time>2009-10-14T12:05:51Z</time>
      </trkpt>
      <trkpt lat="45.17911" lon="4.99357">
        <ele>373.58401489258</ele>
        <time>2009-10-14T12:05:56Z</time>
      </trkpt>
      <trkpt lat="45.17938" lon="4.99368">
        <ele>374.29598999023</ele>
        <time>2009-10-14T12:06:00Z</time>
      </trkpt>
      <trkpt lat="45.1795" lon="4.99392">
        <ele>374.87899780273</ele>
        <time>2009-10-14T12:06:03Z</time>
      </trkpt>
      <trkpt lat="45.17953" lon="4.99411">
        <ele>375.18399047852</ele>
        <time>2009-10-14T12:06:05Z</time>
      </trkpt>
      <trkpt lat="45.17959" lon="4.9947">
        <ele>377.78900146484</ele>
        <time>2009-10-14T12:06:12Z</time>
      </trkpt>
      <trkpt lat="45.17967" lon="4.99495">
        <ele>377.67700195312</ele>
        <time>2009-10-14T12:06:16Z</time>
      </trkpt>
      <trkpt lat="45.17992" lon="4.99533">
        <ele>376.23199462891</ele>
        <time>2009-10-14T12:06:23Z</time>
      </trkpt>
      <trkpt lat="45.18019" lon="4.99568">
        <ele>375.07598876953</ele>
        <time>2009-10-14T12:06:29Z</time>
      </trkpt>
      <trkpt lat="45.18024" lon="4.99573">
        <ele>374.95901489258</ele>
        <time>2009-10-14T12:06:30Z</time>
      </trkpt>
      <trkpt lat="45.18039" lon="4.99582">
        <ele>376.15100097656</ele>
        <time>2009-10-14T12:06:33Z</time>
      </trkpt>
      <trkpt lat="45.18059" lon="4.9958">
        <ele>375.56201171875</ele>
        <time>2009-10-14T12:06:37Z</time>
      </trkpt>
      <trkpt lat="45.18082" lon="4.99564">
        <ele>374.14898681641</ele>
        <time>2009-10-14T12:06:41Z</time>
      </trkpt>
      <trkpt lat="45.18087" lon="4.99558">
        <ele>374.01300048828</ele>
        <time>2009-10-14T12:06:42Z</time>
      </trkpt>
      <trkpt lat="45.18102" lon="4.99538">
        <ele>373.25900268555</ele>
        <time>2009-10-14T12:06:45Z</time>
      </trkpt>
      <trkpt lat="45.18131" lon="4.99517">
        <ele>372.64801025391</ele>
        <time>2009-10-14T12:06:50Z</time>
      </trkpt>
      <trkpt lat="45.18138" lon="4.99516">
        <ele>372.67401123047</ele>
        <time>2009-10-14T12:06:51Z</time>
      </trkpt>
      <trkpt lat="45.18187" lon="4.99512">
        <ele>374.27801513672</ele>
        <time>2009-10-14T12:06:59Z</time>
      </trkpt>
      <trkpt lat="45.18226" lon="4.99507">
        <ele>374.45999145508</ele>
        <time>2009-10-14T12:07:06Z</time>
      </trkpt>
      <trkpt lat="45.18265" lon="4.99504">
        <ele>374.98300170898</ele>
        <time>2009-10-14T12:07:13Z</time>
      </trkpt>
      <trkpt lat="45.18286" lon="4.99514">
        <ele>375.49798583984</ele>
        <time>2009-10-14T12:07:17Z</time>
      </trkpt>
      <trkpt lat="45.18326" lon="4.99561">
        <ele>377.68701171875</ele>
        <time>2009-10-14T12:07:26Z</time>
      </trkpt>
      <trkpt lat="45.18343" lon="4.99591">
        <ele>378.96798706055</ele>
        <time>2009-10-14T12:07:31Z</time>
      </trkpt>
      <trkpt lat="45.18368" lon="4.99635">
        <ele>380.96798706055</ele>
        <time>2009-10-14T12:07:39Z</time>
      </trkpt>
      <trkpt lat="45.18379" lon="4.99647">
        <ele>381.76501464844</ele>
        <time>2009-10-14T12:07:42Z</time>
      </trkpt>
      <trkpt lat="45.18412" lon="4.99658">
        <ele>380.79299926758</ele>
        <time>2009-10-14T12:07:49Z</time>
      </trkpt>
      <trkpt lat="45.18447" lon="4.99663">
        <ele>379.50100708008</ele>
        <time>2009-10-14T12:07:55Z</time>
      </trkpt>
      <trkpt lat="45.18454" lon="4.99664">
        <ele>379.26098632812</ele>
        <time>2009-10-14T12:07:56Z</time>
      </trkpt>
      <trkpt lat="45.1849" lon="4.99683">
        <ele>377.50698852539</ele>
        <time>2009-10-14T12:08:01Z</time>
      </trkpt>
      <trkpt lat="45.18521" lon="4.99683">
        <ele>375.72900390625</ele>
        <time>2009-10-14T12:08:05Z</time>
      </trkpt>
      <trkpt lat="45.18537" lon="4.99658">
        <ele>375.43399047852</ele>
        <time>2009-10-14T12:08:08Z</time>
      </trkpt>
      <trkpt lat="45.1854" lon="4.99648">
        <ele>375.02801513672</ele>
        <time>2009-10-14T12:08:09Z</time>
      </trkpt>
      <trkpt lat="45.1855" lon="4.99617">
        <ele>374.96899414062</ele>
        <time>2009-10-14T12:08:12Z</time>
      </trkpt>
      <trkpt lat="45.18571" lon="4.996">
        <ele>374.9289855957</ele>
        <time>2009-10-14T12:08:16Z</time>
      </trkpt>
      <trkpt lat="45.18577" lon="4.996">
        <ele>374.38299560547</ele>
        <time>2009-10-14T12:08:17Z</time>
      </trkpt>
      <trkpt lat="45.18609" lon="4.996">
        <ele>373.55899047852</ele>
        <time>2009-10-14T12:08:22Z</time>
      </trkpt>
      <trkpt lat="45.18621" lon="4.99596">
        <ele>375.18701171875</ele>
        <time>2009-10-14T12:08:24Z</time>
      </trkpt>
      <trkpt lat="45.18638" lon="4.99586">
        <ele>375.74398803711</ele>
        <time>2009-10-14T12:08:27Z</time>
      </trkpt>
      <trkpt lat="45.18649" lon="4.99578">
        <ele>375.73400878906</ele>
        <time>2009-10-14T12:08:29Z</time>
      </trkpt>
      <trkpt lat="45.18679" lon="4.99568">
        <ele>376.89999389648</ele>
        <time>2009-10-14T12:08:34Z</time>
      </trkpt>
      <trkpt lat="45.18702" lon="4.99579">
        <ele>377.18600463867</ele>
        <time>2009-10-14T12:08:38Z</time>
      </trkpt>
      <trkpt lat="45.18741" lon="4.99616">
        <ele>377.92199707031</ele>
        <time>2009-10-14T12:08:46Z</time>
      </trkpt>
      <trkpt lat="45.18769" lon="4.99629">
        <ele>379.28100585938</ele>
        <time>2009-10-14T12:08:51Z</time>
      </trkpt>
      <trkpt lat="45.18821" lon="4.99643">
        <ele>380.10699462891</ele>
        <time>2009-10-14T12:09:00Z</time>
      </trkpt>
      <trkpt lat="45.1886" lon="4.99653">
        <ele>379.63900756836</ele>
        <time>2009-10-14T12:09:07Z</time>
      </trkpt>
      <trkpt lat="45.18889" lon="4.99647">
        <ele>381.52899169922</ele>
        <time>2009-10-14T12:09:12Z</time>
      </trkpt>
      <trkpt lat="45.18916" lon="4.99637">
        <ele>382.18899536133</ele>
        <time>2009-10-14T12:09:17Z</time>
      </trkpt>
      <trkpt lat="45.18932" lon="4.9965">
        <ele>381.72299194336</ele>
        <time>2009-10-14T12:09:20Z</time>
      </trkpt>
      <trkpt lat="45.18969" lon="4.99702">
        <ele>378.33499145508</ele>
        <time>2009-10-14T12:09:28Z</time>
      </trkpt>
      <trkpt lat="45.19006" lon="4.99751">
        <ele>378.40200805664</ele>
        <time>2009-10-14T12:09:35Z</time>
      </trkpt>
      <trkpt lat="45.19043" lon="4.99812">
        <ele>378.86099243164</ele>
        <time>2009-10-14T12:09:43Z</time>
      </trkpt>
      <trkpt lat="45.19054" lon="4.99843">
        <ele>378.89401245117</ele>
        <time>2009-10-14T12:09:47Z</time>
      </trkpt>
      <trkpt lat="45.19061" lon="4.99857">
        <ele>378.21301269531</ele>
        <time>2009-10-14T12:09:49Z</time>
      </trkpt>
      <trkpt lat="45.19073" lon="4.99874">
        <ele>380.04699707031</ele>
        <time>2009-10-14T12:09:52Z</time>
      </trkpt>
      <trkpt lat="45.19078" lon="4.99879">
        <ele>379.83700561523</ele>
        <time>2009-10-14T12:09:53Z</time>
      </trkpt>
      <trkpt lat="45.19104" lon="4.99896">
        <ele>381.33801269531</ele>
        <time>2009-10-14T12:09:58Z</time>
      </trkpt>
      <trkpt lat="45.19146" lon="4.99907">
        <ele>381.0950012207</ele>
        <time>2009-10-14T12:10:05Z</time>
      </trkpt>
      <trkpt lat="45.19166" lon="4.99924">
        <ele>379.60299682617</ele>
        <time>2009-10-14T12:10:09Z</time>
      </trkpt>
      <trkpt lat="45.19171" lon="4.99929">
        <ele>379.04699707031</ele>
        <time>2009-10-14T12:10:10Z</time>
      </trkpt>
      <trkpt lat="45.19201" lon="4.99939">
        <ele>375.63198852539</ele>
        <time>2009-10-14T12:10:15Z</time>
      </trkpt>
      <trkpt lat="45.19213" lon="4.99937">
        <ele>375.3869934082</ele>
        <time>2009-10-14T12:10:17Z</time>
      </trkpt>
      <trkpt lat="45.19225" lon="4.99935">
        <ele>374.59799194336</ele>
        <time>2009-10-14T12:10:19Z</time>
      </trkpt>
      <trkpt lat="45.1925" lon="4.99946">
        <ele>372.76098632812</ele>
        <time>2009-10-14T12:10:23Z</time>
      </trkpt>
      <trkpt lat="45.19256" lon="4.99953">
        <ele>372.02200317383</ele>
        <time>2009-10-14T12:10:24Z</time>
      </trkpt>
      <trkpt lat="45.19301" lon="4.99993">
        <ele>366.05599975586</ele>
        <time>2009-10-14T12:10:30Z</time>
      </trkpt>
      <trkpt lat="45.19338" lon="5.00017">
        <ele>362.55899047852</ele>
        <time>2009-10-14T12:10:34Z</time>
      </trkpt>
      <trkpt lat="45.19368" lon="5.00031">
        <ele>360.36999511719</ele>
        <time>2009-10-14T12:10:37Z</time>
      </trkpt>
      <trkpt lat="45.194" lon="5.00033">
        <ele>358.38900756836</ele>
        <time>2009-10-14T12:10:40Z</time>
      </trkpt>
      <trkpt lat="45.19445" lon="5.00031">
        <ele>354.97799682617</ele>
        <time>2009-10-14T12:10:44Z</time>
      </trkpt>
      <trkpt lat="45.19478" lon="5.00047">
        <ele>349.64599609375</ele>
        <time>2009-10-14T12:10:47Z</time>
      </trkpt>
      <trkpt lat="45.19487" lon="5.00058">
        <ele>349.62799072266</ele>
        <time>2009-10-14T12:10:48Z</time>
      </trkpt>
      <trkpt lat="45.19495" lon="5.0007">
        <ele>349.26901245117</ele>
        <time>2009-10-14T12:10:49Z</time>
      </trkpt>
      <trkpt lat="45.19554" lon="5.00162">
        <ele>348.51501464844</ele>
        <time>2009-10-14T12:10:57Z</time>
      </trkpt>
      <trkpt lat="45.1959" lon="5.00219">
        <ele>347.11499023438</ele>
        <time>2009-10-14T12:11:03Z</time>
      </trkpt>
      <trkpt lat="45.19621" lon="5.00266">
        <ele>350.03201293945</ele>
        <time>2009-10-14T12:11:09Z</time>
      </trkpt>
      <trkpt lat="45.19642" lon="5.00302">
        <ele>349.85900878906</ele>
        <time>2009-10-14T12:11:14Z</time>
      </trkpt>
      <trkpt lat="45.19663" lon="5.00336">
        <ele>351.98498535156</ele>
        <time>2009-10-14T12:11:20Z</time>
      </trkpt>
      <trkpt lat="45.19678" lon="5.00361">
        <ele>352.39999389648</ele>
        <time>2009-10-14T12:11:25Z</time>
      </trkpt>
      <trkpt lat="45.19688" lon="5.00379">
        <ele>354.43399047852</ele>
        <time>2009-10-14T12:11:29Z</time>
      </trkpt>
      <trkpt lat="45.19696" lon="5.00391">
        <ele>354.87799072266</ele>
        <time>2009-10-14T12:11:32Z</time>
      </trkpt>
      <trkpt lat="45.19712" lon="5.00417">
        <ele>357.1969909668</ele>
        <time>2009-10-14T12:11:38Z</time>
      </trkpt>
      <trkpt lat="45.19717" lon="5.00426">
        <ele>358.03500366211</ele>
        <time>2009-10-14T12:11:40Z</time>
      </trkpt>
      <trkpt lat="45.19733" lon="5.00451">
        <ele>359.85198974609</ele>
        <time>2009-10-14T12:11:46Z</time>
      </trkpt>
      <trkpt lat="45.19735" lon="5.00455">
        <ele>360.14498901367</ele>
        <time>2009-10-14T12:11:47Z</time>
      </trkpt>
      <trkpt lat="45.19747" lon="5.00477">
        <ele>362.80700683594</ele>
        <time>2009-10-14T12:11:52Z</time>
      </trkpt>
      <trkpt lat="45.19757" lon="5.00491">
        <ele>364.80899047852</ele>
        <time>2009-10-14T12:11:56Z</time>
      </trkpt>
      <trkpt lat="45.19771" lon="5.00517">
        <ele>367.46200561523</ele>
        <time>2009-10-14T12:12:02Z</time>
      </trkpt>
      <trkpt lat="45.19782" lon="5.00544">
        <ele>371.04800415039</ele>
        <time>2009-10-14T12:12:07Z</time>
      </trkpt>
      <trkpt lat="45.19791" lon="5.00581">
        <ele>373.05801391602</ele>
        <time>2009-10-14T12:12:14Z</time>
      </trkpt>
      <trkpt lat="45.19795" lon="5.00599">
        <ele>375.07501220703</ele>
        <time>2009-10-14T12:12:18Z</time>
      </trkpt>
      <trkpt lat="45.19801" lon="5.00625">
        <ele>376.06900024414</ele>
        <time>2009-10-14T12:12:24Z</time>
      </trkpt>
      <trkpt lat="45.19803" lon="5.00636">
        <ele>377.47500610352</ele>
        <time>2009-10-14T12:12:27Z</time>
      </trkpt>
      <trkpt lat="45.19807" lon="5.00655">
        <ele>380.05999755859</ele>
        <time>2009-10-14T12:12:32Z</time>
      </trkpt>
      <trkpt lat="45.19809" lon="5.00665">
        <ele>379.75799560547</ele>
        <time>2009-10-14T12:12:35Z</time>
      </trkpt>
      <trkpt lat="45.19806" lon="5.0068">
        <ele>381.18200683594</ele>
        <time>2009-10-14T12:12:40Z</time>
      </trkpt>
      <trkpt lat="45.19806" lon="5.00691">
        <ele>380.3030090332</ele>
        <time>2009-10-14T12:12:45Z</time>
      </trkpt>
      <trkpt lat="45.19812" lon="5.00692">
        <ele>380.00698852539</ele>
        <time>2009-10-14T12:12:49Z</time>
      </trkpt>
      <trkpt lat="45.19818" lon="5.00692">
        <ele>380.65701293945</ele>
        <time>2009-10-14T12:12:53Z</time>
      </trkpt>
      <trkpt lat="45.19818" lon="5.00697">
        <ele>380.50601196289</ele>
        <time>2009-10-14T12:12:57Z</time>
      </trkpt>
      <trkpt lat="45.19813" lon="5.00692">
        <ele>380.29400634766</ele>
        <time>2009-10-14T12:13:01Z</time>
      </trkpt>
      <trkpt lat="45.19814" lon="5.00695">
        <ele>380.39498901367</ele>
        <time>2009-10-14T12:13:04Z</time>
      </trkpt>
      <trkpt lat="45.19821" lon="5.00696">
        <ele>381.04299926758</ele>
        <time>2009-10-14T12:13:09Z</time>
      </trkpt>
      <trkpt lat="45.19825" lon="5.00697">
        <ele>380.6789855957</ele>
        <time>2009-10-14T12:13:11Z</time>
      </trkpt>
      <trkpt lat="45.19836" lon="5.00701">
        <ele>380.01901245117</ele>
        <time>2009-10-14T12:13:16Z</time>
      </trkpt>
      <trkpt lat="45.19847" lon="5.00708">
        <ele>378.90600585938</ele>
        <time>2009-10-14T12:13:20Z</time>
      </trkpt>
      <trkpt lat="45.19876" lon="5.0073">
        <ele>376.27600097656</ele>
        <time>2009-10-14T12:13:27Z</time>
      </trkpt>
      <trkpt lat="45.19881" lon="5.00733">
        <ele>375.98901367188</ele>
        <time>2009-10-14T12:13:28Z</time>
      </trkpt>
      <trkpt lat="45.19904" lon="5.00747">
        <ele>373.61801147461</ele>
        <time>2009-10-14T12:13:32Z</time>
      </trkpt>
      <trkpt lat="45.1992" lon="5.00756">
        <ele>374.72100830078</ele>
        <time>2009-10-14T12:13:35Z</time>
      </trkpt>
      <trkpt lat="45.19957" lon="5.00771">
        <ele>374.73901367188</ele>
        <time>2009-10-14T12:13:42Z</time>
      </trkpt>
      <trkpt lat="45.19991" lon="5.00794">
        <ele>374.40798950195</ele>
        <time>2009-10-14T12:13:49Z</time>
      </trkpt>
      <trkpt lat="45.20024" lon="5.00829">
        <ele>373.01800537109</ele>
        <time>2009-10-14T12:13:56Z</time>
      </trkpt>
      <trkpt lat="45.20073" lon="5.0086">
        <ele>374.21798706055</ele>
        <time>2009-10-14T12:14:05Z</time>
      </trkpt>
      <trkpt lat="45.20083" lon="5.00867">
        <ele>374.80499267578</ele>
        <time>2009-10-14T12:14:07Z</time>
      </trkpt>
      <trkpt lat="45.20122" lon="5.00885">
        <ele>375.74899291992</ele>
        <time>2009-10-14T12:14:16Z</time>
      </trkpt>
      <trkpt lat="45.2013" lon="5.00889">
        <ele>376.55499267578</ele>
        <time>2009-10-14T12:14:18Z</time>
      </trkpt>
      <trkpt lat="45.20159" lon="5.00903">
        <ele>379.22399902344</ele>
        <time>2009-10-14T12:14:25Z</time>
      </trkpt>
      <trkpt lat="45.20174" lon="5.00911">
        <ele>381.31298828125</ele>
        <time>2009-10-14T12:14:29Z</time>
      </trkpt>
      <trkpt lat="45.20199" lon="5.00924">
        <ele>382.60998535156</ele>
        <time>2009-10-14T12:14:36Z</time>
      </trkpt>
      <trkpt lat="45.20214" lon="5.0093">
        <ele>383.79400634766</ele>
        <time>2009-10-14T12:14:41Z</time>
      </trkpt>
      <trkpt lat="45.20235" lon="5.00935">
        <ele>385.39898681641</ele>
        <time>2009-10-14T12:14:48Z</time>
      </trkpt>
      <trkpt lat="45.20252" lon="5.00938">
        <ele>387.31600952148</ele>
        <time>2009-10-14T12:14:53Z</time>
      </trkpt>
      <trkpt lat="45.20259" lon="5.0094">
        <ele>388.10501098633</ele>
        <time>2009-10-14T12:14:55Z</time>
      </trkpt>
      <trkpt lat="45.20279" lon="5.00949">
        <ele>388.09100341797</ele>
        <time>2009-10-14T12:15:01Z</time>
      </trkpt>
      <trkpt lat="45.20293" lon="5.00966">
        <ele>388.46200561523</ele>
        <time>2009-10-14T12:15:07Z</time>
      </trkpt>
      <trkpt lat="45.20314" lon="5.00992">
        <ele>386.68798828125</ele>
        <time>2009-10-14T12:15:14Z</time>
      </trkpt>
      <trkpt lat="45.20318" lon="5.00996">
        <ele>386.57901000977</ele>
        <time>2009-10-14T12:15:15Z</time>
      </trkpt>
      <trkpt lat="45.20334" lon="5.0103">
        <ele>384.05999755859</ele>
        <time>2009-10-14T12:15:20Z</time>
      </trkpt>
      <trkpt lat="45.20334" lon="5.01061">
        <ele>382.39801025391</ele>
        <time>2009-10-14T12:15:23Z</time>
      </trkpt>
      <trkpt lat="45.20322" lon="5.01086">
        <ele>381.87799072266</ele>
        <time>2009-10-14T12:15:26Z</time>
      </trkpt>
      <trkpt lat="45.20296" lon="5.01109">
        <ele>380.16799926758</ele>
        <time>2009-10-14T12:15:30Z</time>
      </trkpt>
      <trkpt lat="45.2028" lon="5.01138">
        <ele>378.72698974609</ele>
        <time>2009-10-14T12:15:34Z</time>
      </trkpt>
      <trkpt lat="45.20293" lon="5.01152">
        <ele>378.07598876953</ele>
        <time>2009-10-14T12:15:36Z</time>
      </trkpt>
      <trkpt lat="45.203" lon="5.01152">
        <ele>377.72500610352</ele>
        <time>2009-10-14T12:15:37Z</time>
      </trkpt>
      <trkpt lat="45.20309" lon="5.0115">
        <ele>377.76098632812</ele>
        <time>2009-10-14T12:15:38Z</time>
      </trkpt>
      <trkpt lat="45.20329" lon="5.01142">
        <ele>379.02600097656</ele>
        <time>2009-10-14T12:15:41Z</time>
      </trkpt>
      <trkpt lat="45.20354" lon="5.01133">
        <ele>379.1969909668</ele>
        <time>2009-10-14T12:15:45Z</time>
      </trkpt>
      <trkpt lat="45.20374" lon="5.01118">
        <ele>379.11099243164</ele>
        <time>2009-10-14T12:15:49Z</time>
      </trkpt>
      <trkpt lat="45.20405" lon="5.01084">
        <ele>380.15899658203</ele>
        <time>2009-10-14T12:15:56Z</time>
      </trkpt>
      <trkpt lat="45.2043" lon="5.01076">
        <ele>379.7799987793</ele>
        <time>2009-10-14T12:16:01Z</time>
      </trkpt>
      <trkpt lat="45.20446" lon="5.01089">
        <ele>378.29000854492</ele>
        <time>2009-10-14T12:16:04Z</time>
      </trkpt>
      <trkpt lat="45.20446" lon="5.01107">
        <ele>377.51501464844</ele>
        <time>2009-10-14T12:16:06Z</time>
      </trkpt>
      <trkpt lat="45.20441" lon="5.01119">
        <ele>376.58700561523</ele>
        <time>2009-10-14T12:16:08Z</time>
      </trkpt>
      <trkpt lat="45.20435" lon="5.01133">
        <ele>376.16400146484</ele>
        <time>2009-10-14T12:16:10Z</time>
      </trkpt>
      <trkpt lat="45.20445" lon="5.01171">
        <ele>375.64099121094</ele>
        <time>2009-10-14T12:16:14Z</time>
      </trkpt>
      <trkpt lat="45.20464" lon="5.01177">
        <ele>375.41900634766</ele>
        <time>2009-10-14T12:16:16Z</time>
      </trkpt>
      <trkpt lat="45.20502" lon="5.01181">
        <ele>375.21899414062</ele>
        <time>2009-10-14T12:16:21Z</time>
      </trkpt>
      <trkpt lat="45.20539" lon="5.01196">
        <ele>376.37100219727</ele>
        <time>2009-10-14T12:16:27Z</time>
      </trkpt>
      <trkpt lat="45.20582" lon="5.01215">
        <ele>377.84899902344</ele>
        <time>2009-10-14T12:16:35Z</time>
      </trkpt>
      <trkpt lat="45.2061" lon="5.01234">
        <ele>376.6789855957</ele>
        <time>2009-10-14T12:16:41Z</time>
      </trkpt>
      <trkpt lat="45.20635" lon="5.01268">
        <ele>376.24301147461</ele>
        <time>2009-10-14T12:16:48Z</time>
      </trkpt>
      <trkpt lat="45.20659" lon="5.01308">
        <ele>376.17001342773</ele>
        <time>2009-10-14T12:16:55Z</time>
      </trkpt>
      <trkpt lat="45.20684" lon="5.01356">
        <ele>375.41500854492</ele>
        <time>2009-10-14T12:17:02Z</time>
      </trkpt>
      <trkpt lat="45.20704" lon="5.01376">
        <ele>374.83898925781</ele>
        <time>2009-10-14T12:17:06Z</time>
      </trkpt>
      <trkpt lat="45.20753" lon="5.01408">
        <ele>372.51699829102</ele>
        <time>2009-10-14T12:17:14Z</time>
      </trkpt>
      <trkpt lat="45.20758" lon="5.01413">
        <ele>372.06399536133</ele>
        <time>2009-10-14T12:17:15Z</time>
      </trkpt>
      <trkpt lat="45.20777" lon="5.01435">
        <ele>370.45300292969</ele>
        <time>2009-10-14T12:17:19Z</time>
      </trkpt>
      <trkpt lat="45.2081" lon="5.0146">
        <ele>370.81600952148</ele>
        <time>2009-10-14T12:17:25Z</time>
      </trkpt>
      <trkpt lat="45.20846" lon="5.01487">
        <ele>370.51300048828</ele>
        <time>2009-10-14T12:17:31Z</time>
      </trkpt>
      <trkpt lat="45.20885" lon="5.01507">
        <ele>369.22601318359</ele>
        <time>2009-10-14T12:17:37Z</time>
      </trkpt>
      <trkpt lat="45.20928" lon="5.01528">
        <ele>368.78100585938</ele>
        <time>2009-10-14T12:17:44Z</time>
      </trkpt>
      <trkpt lat="45.20945" lon="5.01538">
        <ele>369.99099731445</ele>
        <time>2009-10-14T12:17:47Z</time>
      </trkpt>
      <trkpt lat="45.20966" lon="5.01567">
        <ele>369.5539855957</ele>
        <time>2009-10-14T12:17:52Z</time>
      </trkpt>
      <trkpt lat="45.20972" lon="5.01581">
        <ele>369.59600830078</ele>
        <time>2009-10-14T12:17:54Z</time>
      </trkpt>
      <trkpt lat="45.20991" lon="5.01649">
        <ele>370.28201293945</ele>
        <time>2009-10-14T12:18:03Z</time>
      </trkpt>
      <trkpt lat="45.20998" lon="5.01708">
        <ele>370.88800048828</ele>
        <time>2009-10-14T12:18:10Z</time>
      </trkpt>
      <trkpt lat="45.20998" lon="5.01717">
        <ele>370.53201293945</ele>
        <time>2009-10-14T12:18:11Z</time>
      </trkpt>
      <trkpt lat="45.21013" lon="5.0176">
        <ele>370.07400512695</ele>
        <time>2009-10-14T12:18:16Z</time>
      </trkpt>
      <trkpt lat="45.21024" lon="5.0177">
        <ele>370.67700195312</ele>
        <time>2009-10-14T12:18:18Z</time>
      </trkpt>
      <trkpt lat="45.21065" lon="5.01789">
        <ele>370.89999389648</ele>
        <time>2009-10-14T12:18:25Z</time>
      </trkpt>
      <trkpt lat="45.21106" lon="5.01791">
        <ele>371.71200561523</ele>
        <time>2009-10-14T12:18:32Z</time>
      </trkpt>
      <trkpt lat="45.21125" lon="5.01792">
        <ele>372.10800170898</ele>
        <time>2009-10-14T12:18:35Z</time>
      </trkpt>
      <trkpt lat="45.2115" lon="5.01808">
        <ele>372.19299316406</ele>
        <time>2009-10-14T12:18:40Z</time>
      </trkpt>
      <trkpt lat="45.2116" lon="5.01824">
        <ele>372.91299438477</ele>
        <time>2009-10-14T12:18:43Z</time>
      </trkpt>
      <trkpt lat="45.2117" lon="5.01859">
        <ele>375.0719909668</ele>
        <time>2009-10-14T12:18:49Z</time>
      </trkpt>
      <trkpt lat="45.2117" lon="5.01897">
        <ele>373.23001098633</ele>
        <time>2009-10-14T12:18:55Z</time>
      </trkpt>
      <trkpt lat="45.21168" lon="5.0195">
        <ele>372.5719909668</ele>
        <time>2009-10-14T12:19:01Z</time>
      </trkpt>
      <trkpt lat="45.21166" lon="5.02">
        <ele>369.57998657227</ele>
        <time>2009-10-14T12:19:06Z</time>
      </trkpt>
      <trkpt lat="45.21163" lon="5.02069">
        <ele>368.07501220703</ele>
        <time>2009-10-14T12:19:12Z</time>
      </trkpt>
      <trkpt lat="45.21159" lon="5.02107">
        <ele>365.61700439453</ele>
        <time>2009-10-14T12:19:15Z</time>
      </trkpt>
      <trkpt lat="45.21164" lon="5.02142">
        <ele>364.73199462891</ele>
        <time>2009-10-14T12:19:18Z</time>
      </trkpt>
      <trkpt lat="45.2117" lon="5.02149">
        <ele>364.64099121094</ele>
        <time>2009-10-14T12:19:19Z</time>
      </trkpt>
      <trkpt lat="45.21185" lon="5.02155">
        <ele>364.81799316406</ele>
        <time>2009-10-14T12:19:21Z</time>
      </trkpt>
      <trkpt lat="45.21219" lon="5.02158">
        <ele>364.48599243164</ele>
        <time>2009-10-14T12:19:26Z</time>
      </trkpt>
      <trkpt lat="45.21251" lon="5.02178">
        <ele>362.57800292969</ele>
        <time>2009-10-14T12:19:31Z</time>
      </trkpt>
      <trkpt lat="45.21292" lon="5.02212">
        <ele>361.27801513672</ele>
        <time>2009-10-14T12:19:38Z</time>
      </trkpt>
      <trkpt lat="45.21324" lon="5.0223">
        <ele>360.5530090332</ele>
        <time>2009-10-14T12:19:43Z</time>
      </trkpt>
      <trkpt lat="45.21359" lon="5.02231">
        <ele>359.35598754883</ele>
        <time>2009-10-14T12:19:48Z</time>
      </trkpt>
      <trkpt lat="45.21373" lon="5.02224">
        <ele>359.17700195312</ele>
        <time>2009-10-14T12:19:50Z</time>
      </trkpt>
      <trkpt lat="45.2142" lon="5.02196">
        <ele>357.89401245117</ele>
        <time>2009-10-14T12:19:57Z</time>
      </trkpt>
      <trkpt lat="45.21473" lon="5.02175">
        <ele>355.51599121094</ele>
        <time>2009-10-14T12:20:04Z</time>
      </trkpt>
      <trkpt lat="45.21541" lon="5.02156">
        <ele>353.40899658203</ele>
        <time>2009-10-14T12:20:13Z</time>
      </trkpt>
      <trkpt lat="45.21572" lon="5.02152">
        <ele>352.37600708008</ele>
        <time>2009-10-14T12:20:17Z</time>
      </trkpt>
      <trkpt lat="45.21599" lon="5.0213">
        <ele>351.83801269531</ele>
        <time>2009-10-14T12:20:21Z</time>
      </trkpt>
      <trkpt lat="45.21603" lon="5.02121">
        <ele>352.10800170898</ele>
        <time>2009-10-14T12:20:22Z</time>
      </trkpt>
      <trkpt lat="45.21634" lon="5.02062">
        <ele>352.18200683594</ele>
        <time>2009-10-14T12:20:29Z</time>
      </trkpt>
      <trkpt lat="45.21663" lon="5.02035">
        <ele>352.21398925781</ele>
        <time>2009-10-14T12:20:34Z</time>
      </trkpt>
      <trkpt lat="45.21704" lon="5.02011">
        <ele>353.67300415039</ele>
        <time>2009-10-14T12:20:41Z</time>
      </trkpt>
      <trkpt lat="45.21738" lon="5.01984">
        <ele>356.15701293945</ele>
        <time>2009-10-14T12:20:48Z</time>
      </trkpt>
      <trkpt lat="45.21772" lon="5.01956">
        <ele>357.00799560547</ele>
        <time>2009-10-14T12:20:56Z</time>
      </trkpt>
      <trkpt lat="45.21799" lon="5.01937">
        <ele>358.45901489258</ele>
        <time>2009-10-14T12:21:02Z</time>
      </trkpt>
      <trkpt lat="45.21821" lon="5.01922">
        <ele>359.72900390625</ele>
        <time>2009-10-14T12:21:07Z</time>
      </trkpt>
      <trkpt lat="45.21839" lon="5.01913">
        <ele>360.10198974609</ele>
        <time>2009-10-14T12:21:11Z</time>
      </trkpt>
      <trkpt lat="45.21867" lon="5.01915">
        <ele>361.83898925781</ele>
        <time>2009-10-14T12:21:17Z</time>
      </trkpt>
      <trkpt lat="45.21884" lon="5.01929">
        <ele>361.73300170898</ele>
        <time>2009-10-14T12:21:21Z</time>
      </trkpt>
      <trkpt lat="45.21894" lon="5.01956">
        <ele>361.20498657227</ele>
        <time>2009-10-14T12:21:25Z</time>
      </trkpt>
      <trkpt lat="45.21907" lon="5.02008">
        <ele>360.66500854492</ele>
        <time>2009-10-14T12:21:32Z</time>
      </trkpt>
      <trkpt lat="45.2192" lon="5.02058">
        <ele>361.21301269531</ele>
        <time>2009-10-14T12:21:38Z</time>
      </trkpt>
      <trkpt lat="45.21925" lon="5.02084">
        <ele>360.74700927734</ele>
        <time>2009-10-14T12:21:41Z</time>
      </trkpt>
      <trkpt lat="45.21942" lon="5.02122">
        <ele>359.24798583984</ele>
        <time>2009-10-14T12:21:46Z</time>
      </trkpt>
      <trkpt lat="45.21964" lon="5.02134">
        <ele>360.19100952148</ele>
        <time>2009-10-14T12:21:50Z</time>
      </trkpt>
      <trkpt lat="45.21986" lon="5.02129">
        <ele>362.64300537109</ele>
        <time>2009-10-14T12:21:54Z</time>
      </trkpt>
      <trkpt lat="45.22034" lon="5.02106">
        <ele>364.51998901367</ele>
        <time>2009-10-14T12:22:04Z</time>
      </trkpt>
      <trkpt lat="45.2205" lon="5.0208">
        <ele>365.65301513672</ele>
        <time>2009-10-14T12:22:09Z</time>
      </trkpt>
      <trkpt lat="45.22052" lon="5.02067">
        <ele>366.08999633789</ele>
        <time>2009-10-14T12:22:11Z</time>
      </trkpt>
      <trkpt lat="45.22052" lon="5.0204">
        <ele>367.36499023438</ele>
        <time>2009-10-14T12:22:15Z</time>
      </trkpt>
      <trkpt lat="45.22064" lon="5.02013">
        <ele>368.52398681641</ele>
        <time>2009-10-14T12:22:20Z</time>
      </trkpt>
      <trkpt lat="45.22079" lon="5.02001">
        <ele>370.00799560547</ele>
        <time>2009-10-14T12:22:24Z</time>
      </trkpt>
      <trkpt lat="45.22087" lon="5.01995">
        <ele>370.49700927734</ele>
        <time>2009-10-14T12:22:26Z</time>
      </trkpt>
      <trkpt lat="45.221" lon="5.01963">
        <ele>371.69799804688</ele>
        <time>2009-10-14T12:22:32Z</time>
      </trkpt>
      <trkpt lat="45.22101" lon="5.01957">
        <ele>371.89199829102</ele>
        <time>2009-10-14T12:22:33Z</time>
      </trkpt>
      <trkpt lat="45.22101" lon="5.01951">
        <ele>371.61801147461</ele>
        <time>2009-10-14T12:22:34Z</time>
      </trkpt>
      <trkpt lat="45.22102" lon="5.01919">
        <ele>371.97799682617</ele>
        <time>2009-10-14T12:22:39Z</time>
      </trkpt>
      <trkpt lat="45.22105" lon="5.01901">
        <ele>372.99499511719</ele>
        <time>2009-10-14T12:22:42Z</time>
      </trkpt>
      <trkpt lat="45.22113" lon="5.01881">
        <ele>373.74099731445</ele>
        <time>2009-10-14T12:22:46Z</time>
      </trkpt>
      <trkpt lat="45.22133" lon="5.01855">
        <ele>374.61401367188</ele>
        <time>2009-10-14T12:22:53Z</time>
      </trkpt>
      <trkpt lat="45.2215" lon="5.01845">
        <ele>374.73300170898</ele>
        <time>2009-10-14T12:22:58Z</time>
      </trkpt>
      <trkpt lat="45.22181" lon="5.01825">
        <ele>375.7080078125</ele>
        <time>2009-10-14T12:23:07Z</time>
      </trkpt>
      <trkpt lat="45.22196" lon="5.01817">
        <ele>376.94299316406</ele>
        <time>2009-10-14T12:23:11Z</time>
      </trkpt>
      <trkpt lat="45.22215" lon="5.0182">
        <ele>376.14401245117</ele>
        <time>2009-10-14T12:23:16Z</time>
      </trkpt>
      <trkpt lat="45.22223" lon="5.01829">
        <ele>377.31201171875</ele>
        <time>2009-10-14T12:23:19Z</time>
      </trkpt>
      <trkpt lat="45.22246" lon="5.01851">
        <ele>378.95001220703</ele>
        <time>2009-10-14T12:23:27Z</time>
      </trkpt>
      <trkpt lat="45.22258" lon="5.01851">
        <ele>379.24700927734</ele>
        <time>2009-10-14T12:23:31Z</time>
      </trkpt>
      <trkpt lat="45.2228" lon="5.0184">
        <ele>379.40798950195</ele>
        <time>2009-10-14T12:23:38Z</time>
      </trkpt>
      <trkpt lat="45.22295" lon="5.0183">
        <ele>382.21499633789</ele>
        <time>2009-10-14T12:23:43Z</time>
      </trkpt>
      <trkpt lat="45.22318" lon="5.01817">
        <ele>381.82000732422</ele>
        <time>2009-10-14T12:23:50Z</time>
      </trkpt>
      <trkpt lat="45.22342" lon="5.01811">
        <ele>384.24499511719</ele>
        <time>2009-10-14T12:23:57Z</time>
      </trkpt>
      <trkpt lat="45.22363" lon="5.01815">
        <ele>384.36801147461</ele>
        <time>2009-10-14T12:24:03Z</time>
      </trkpt>
      <trkpt lat="45.22374" lon="5.01819">
        <ele>386.03900146484</ele>
        <time>2009-10-14T12:24:06Z</time>
      </trkpt>
      <trkpt lat="45.22402" lon="5.01822">
        <ele>387.55099487305</ele>
        <time>2009-10-14T12:24:14Z</time>
      </trkpt>
      <trkpt lat="45.22419" lon="5.01817">
        <ele>386.92401123047</ele>
        <time>2009-10-14T12:24:19Z</time>
      </trkpt>
      <trkpt lat="45.22434" lon="5.01811">
        <ele>388.40399169922</ele>
        <time>2009-10-14T12:24:24Z</time>
      </trkpt>
      <trkpt lat="45.22451" lon="5.01803">
        <ele>388.86199951172</ele>
        <time>2009-10-14T12:24:29Z</time>
      </trkpt>
      <trkpt lat="45.2247" lon="5.01786">
        <ele>390.4280090332</ele>
        <time>2009-10-14T12:24:35Z</time>
      </trkpt>
      <trkpt lat="45.22482" lon="5.01765">
        <ele>391.14999389648</ele>
        <time>2009-10-14T12:24:40Z</time>
      </trkpt>
      <trkpt lat="45.22499" lon="5.01738">
        <ele>392.61199951172</ele>
        <time>2009-10-14T12:24:47Z</time>
      </trkpt>
      <trkpt lat="45.22519" lon="5.01719">
        <ele>394.60598754883</ele>
        <time>2009-10-14T12:24:54Z</time>
      </trkpt>
      <trkpt lat="45.22539" lon="5.01705">
        <ele>395.08898925781</ele>
        <time>2009-10-14T12:25:00Z</time>
      </trkpt>
      <trkpt lat="45.22561" lon="5.01698">
        <ele>395.46499633789</ele>
        <time>2009-10-14T12:25:08Z</time>
      </trkpt>
      <trkpt lat="45.22578" lon="5.017">
        <ele>396.19799804688</ele>
        <time>2009-10-14T12:25:15Z</time>
      </trkpt>
      <trkpt lat="45.22596" lon="5.01701">
        <ele>395.28799438477</ele>
        <time>2009-10-14T12:25:20Z</time>
      </trkpt>
      <trkpt lat="45.22618" lon="5.01692">
        <ele>394.73300170898</ele>
        <time>2009-10-14T12:25:25Z</time>
      </trkpt>
      <trkpt lat="45.22623" lon="5.01687">
        <ele>394.14401245117</ele>
        <time>2009-10-14T12:25:26Z</time>
      </trkpt>
      <trkpt lat="45.22657" lon="5.0164">
        <ele>391.65701293945</ele>
        <time>2009-10-14T12:25:33Z</time>
      </trkpt>
      <trkpt lat="45.22666" lon="5.01623">
        <ele>390.81399536133</ele>
        <time>2009-10-14T12:25:35Z</time>
      </trkpt>
      <trkpt lat="45.22676" lon="5.01607">
        <ele>390.16299438477</ele>
        <time>2009-10-14T12:25:37Z</time>
      </trkpt>
      <trkpt lat="45.2271" lon="5.01542">
        <ele>387.79598999023</ele>
        <time>2009-10-14T12:25:44Z</time>
      </trkpt>
      <trkpt lat="45.22746" lon="5.01462">
        <ele>382.69900512695</ele>
        <time>2009-10-14T12:25:52Z</time>
      </trkpt>
      <trkpt lat="45.22778" lon="5.01381">
        <ele>377.75698852539</ele>
        <time>2009-10-14T12:26:00Z</time>
      </trkpt>
      <trkpt lat="45.22798" lon="5.01325">
        <ele>375.09201049805</ele>
        <time>2009-10-14T12:26:05Z</time>
      </trkpt>
      <trkpt lat="45.22813" lon="5.01274">
        <ele>371.44299316406</ele>
        <time>2009-10-14T12:26:09Z</time>
      </trkpt>
      <trkpt lat="45.22821" lon="5.01199">
        <ele>367.93798828125</ele>
        <time>2009-10-14T12:26:14Z</time>
      </trkpt>
      <trkpt lat="45.22826" lon="5.01124">
        <ele>365.4169921875</ele>
        <time>2009-10-14T12:26:19Z</time>
      </trkpt>
      <trkpt lat="45.22831" lon="5.01045">
        <ele>365.66799926758</ele>
        <time>2009-10-14T12:26:25Z</time>
      </trkpt>
      <trkpt lat="45.22834" lon="5.0098">
        <ele>366.18701171875</ele>
        <time>2009-10-14T12:26:31Z</time>
      </trkpt>
      <trkpt lat="45.22837" lon="5.00936">
        <ele>366.43899536133</ele>
        <time>2009-10-14T12:26:36Z</time>
      </trkpt>
      <trkpt lat="45.2284" lon="5.00914">
        <ele>366.62100219727</ele>
        <time>2009-10-14T12:26:39Z</time>
      </trkpt>
      <trkpt lat="45.22853" lon="5.00885">
        <ele>368.19900512695</ele>
        <time>2009-10-14T12:26:44Z</time>
      </trkpt>
      <trkpt lat="45.22863" lon="5.0088">
        <ele>367.09298706055</ele>
        <time>2009-10-14T12:26:46Z</time>
      </trkpt>
      <trkpt lat="45.22884" lon="5.00871">
        <ele>367.82998657227</ele>
        <time>2009-10-14T12:26:50Z</time>
      </trkpt>
      <trkpt lat="45.2289" lon="5.00869">
        <ele>367.77398681641</ele>
        <time>2009-10-14T12:26:51Z</time>
      </trkpt>
      <trkpt lat="45.22896" lon="5.00867">
        <ele>367.25100708008</ele>
        <time>2009-10-14T12:26:52Z</time>
      </trkpt>
      <trkpt lat="45.22909" lon="5.00862">
        <ele>367.74899291992</ele>
        <time>2009-10-14T12:26:54Z</time>
      </trkpt>
      <trkpt lat="45.22935" lon="5.00857">
        <ele>365.19299316406</ele>
        <time>2009-10-14T12:26:58Z</time>
      </trkpt>
      <trkpt lat="45.22956" lon="5.00859">
        <ele>363.95901489258</ele>
        <time>2009-10-14T12:27:01Z</time>
      </trkpt>
      <trkpt lat="45.22997" lon="5.00871">
        <ele>359.91598510742</ele>
        <time>2009-10-14T12:27:06Z</time>
      </trkpt>
      <trkpt lat="45.23063" lon="5.00889">
        <ele>356.80801391602</ele>
        <time>2009-10-14T12:27:13Z</time>
      </trkpt>
      <trkpt lat="45.23136" lon="5.00908">
        <ele>352.02899169922</ele>
        <time>2009-10-14T12:27:20Z</time>
      </trkpt>
      <trkpt lat="45.23222" lon="5.00924">
        <ele>348.15301513672</ele>
        <time>2009-10-14T12:27:28Z</time>
      </trkpt>
      <trkpt lat="45.23243" lon="5.00928">
        <ele>347.38500976562</ele>
        <time>2009-10-14T12:27:30Z</time>
      </trkpt>
      <trkpt lat="45.23277" lon="5.00945">
        <ele>347.04998779297</ele>
        <time>2009-10-14T12:27:34Z</time>
      </trkpt>
      <trkpt lat="45.2331" lon="5.00954">
        <ele>347.86099243164</ele>
        <time>2009-10-14T12:27:39Z</time>
      </trkpt>
      <trkpt lat="45.23345" lon="5.00958">
        <ele>348.18600463867</ele>
        <time>2009-10-14T12:27:45Z</time>
      </trkpt>
      <trkpt lat="45.23378" lon="5.00963">
        <ele>349.53799438477</ele>
        <time>2009-10-14T12:27:51Z</time>
      </trkpt>
      <trkpt lat="45.23399" lon="5.00967">
        <ele>351.01501464844</ele>
        <time>2009-10-14T12:27:55Z</time>
      </trkpt>
      <trkpt lat="45.23425" lon="5.00971">
        <ele>351.49200439453</ele>
        <time>2009-10-14T12:28:00Z</time>
      </trkpt>
      <trkpt lat="45.23429" lon="5.00972">
        <ele>351.52801513672</ele>
        <time>2009-10-14T12:28:01Z</time>
      </trkpt>
      <trkpt lat="45.23434" lon="5.00973">
        <ele>351.7200012207</ele>
        <time>2009-10-14T12:28:02Z</time>
      </trkpt>
      <trkpt lat="45.2346" lon="5.00977">
        <ele>354.04000854492</ele>
        <time>2009-10-14T12:28:08Z</time>
      </trkpt>
      <trkpt lat="45.23491" lon="5.00982">
        <ele>355.36801147461</ele>
        <time>2009-10-14T12:28:15Z</time>
      </trkpt>
      <trkpt lat="45.23524" lon="5.00992">
        <ele>356.36700439453</ele>
        <time>2009-10-14T12:28:23Z</time>
      </trkpt>
      <trkpt lat="45.23553" lon="5.01007">
        <ele>357.30899047852</ele>
        <time>2009-10-14T12:28:30Z</time>
      </trkpt>
      <trkpt lat="45.23589" lon="5.01027">
        <ele>357.54598999023</ele>
        <time>2009-10-14T12:28:39Z</time>
      </trkpt>
      <trkpt lat="45.23613" lon="5.01035">
        <ele>359.20098876953</ele>
        <time>2009-10-14T12:28:45Z</time>
      </trkpt>
      <trkpt lat="45.23645" lon="5.01044">
        <ele>359.59399414062</ele>
        <time>2009-10-14T12:28:53Z</time>
      </trkpt>
      <trkpt lat="45.23683" lon="5.01053">
        <ele>361.29400634766</ele>
        <time>2009-10-14T12:29:02Z</time>
      </trkpt>
      <trkpt lat="45.23709" lon="5.0106">
        <ele>360.60501098633</ele>
        <time>2009-10-14T12:29:09Z</time>
      </trkpt>
      <trkpt lat="45.23738" lon="5.01068">
        <ele>360.6789855957</ele>
        <time>2009-10-14T12:29:16Z</time>
      </trkpt>
      <trkpt lat="45.23778" lon="5.01078">
        <ele>360.82400512695</ele>
        <time>2009-10-14T12:29:25Z</time>
      </trkpt>
      <trkpt lat="45.23829" lon="5.01092">
        <ele>360.72399902344</ele>
        <time>2009-10-14T12:29:36Z</time>
      </trkpt>
      <trkpt lat="45.2387" lon="5.01099">
        <ele>362.25</ele>
        <time>2009-10-14T12:29:45Z</time>
      </trkpt>
      <trkpt lat="45.23912" lon="5.01093">
        <ele>363.875</ele>
        <time>2009-10-14T12:29:54Z</time>
      </trkpt>
      <trkpt lat="45.23955" lon="5.01085">
        <ele>361.87701416016</ele>
        <time>2009-10-14T12:30:03Z</time>
      </trkpt>
      <trkpt lat="45.23994" lon="5.01078">
        <ele>359.88000488281</ele>
        <time>2009-10-14T12:30:09Z</time>
      </trkpt>
      <trkpt lat="45.24055" lon="5.01066">
        <ele>354.71398925781</ele>
        <time>2009-10-14T12:30:17Z</time>
      </trkpt>
      <trkpt lat="45.24097" lon="5.01058">
        <ele>351.71701049805</ele>
        <time>2009-10-14T12:30:22Z</time>
      </trkpt>
      <trkpt lat="45.24165" lon="5.01045">
        <ele>348.50900268555</ele>
        <time>2009-10-14T12:30:30Z</time>
      </trkpt>
      <trkpt lat="45.24173" lon="5.01044">
        <ele>348.52099609375</ele>
        <time>2009-10-14T12:30:31Z</time>
      </trkpt>
      <trkpt lat="45.24189" lon="5.01037">
        <ele>347.19900512695</ele>
        <time>2009-10-14T12:30:33Z</time>
      </trkpt>
      <trkpt lat="45.24207" lon="5.01015">
        <ele>347.1960144043</ele>
        <time>2009-10-14T12:30:36Z</time>
      </trkpt>
      <trkpt lat="45.24213" lon="5.0098">
        <ele>345.70901489258</ele>
        <time>2009-10-14T12:30:39Z</time>
      </trkpt>
      <trkpt lat="45.24209" lon="5.00955">
        <ele>344.95098876953</ele>
        <time>2009-10-14T12:30:41Z</time>
      </trkpt>
      <trkpt lat="45.24204" lon="5.00932">
        <ele>344.19799804688</ele>
        <time>2009-10-14T12:30:43Z</time>
      </trkpt>
      <trkpt lat="45.24204" lon="5.00909">
        <ele>342.97799682617</ele>
        <time>2009-10-14T12:30:45Z</time>
      </trkpt>
      <trkpt lat="45.24213" lon="5.00895">
        <ele>342.03298950195</ele>
        <time>2009-10-14T12:30:47Z</time>
      </trkpt>
      <trkpt lat="45.24228" lon="5.00901">
        <ele>341.34201049805</ele>
        <time>2009-10-14T12:30:49Z</time>
      </trkpt>
      <trkpt lat="45.24234" lon="5.00919">
        <ele>340.81201171875</ele>
        <time>2009-10-14T12:30:51Z</time>
      </trkpt>
      <trkpt lat="45.24236" lon="5.00938">
        <ele>341.18701171875</ele>
        <time>2009-10-14T12:30:53Z</time>
      </trkpt>
      <trkpt lat="45.24239" lon="5.00978">
        <ele>339.30801391602</ele>
        <time>2009-10-14T12:30:57Z</time>
      </trkpt>
      <trkpt lat="45.2426" lon="5.01026">
        <ele>335.96701049805</ele>
        <time>2009-10-14T12:31:02Z</time>
      </trkpt>
      <trkpt lat="45.24283" lon="5.01048">
        <ele>335.52899169922</ele>
        <time>2009-10-14T12:31:05Z</time>
      </trkpt>
      <trkpt lat="45.24313" lon="5.01053">
        <ele>333.85900878906</ele>
        <time>2009-10-14T12:31:08Z</time>
      </trkpt>
      <trkpt lat="45.24354" lon="5.01052">
        <ele>330.61099243164</ele>
        <time>2009-10-14T12:31:12Z</time>
      </trkpt>
      <trkpt lat="45.24375" lon="5.01057">
        <ele>329.65100097656</ele>
        <time>2009-10-14T12:31:14Z</time>
      </trkpt>
      <trkpt lat="45.24403" lon="5.0108">
        <ele>326.86499023438</ele>
        <time>2009-10-14T12:31:17Z</time>
      </trkpt>
      <trkpt lat="45.24424" lon="5.01116">
        <ele>323.37399291992</ele>
        <time>2009-10-14T12:31:20Z</time>
      </trkpt>
      <trkpt lat="45.24426" lon="5.01146">
        <ele>322.29299926758</ele>
        <time>2009-10-14T12:31:22Z</time>
      </trkpt>
      <trkpt lat="45.24411" lon="5.01173">
        <ele>320.85598754883</ele>
        <time>2009-10-14T12:31:24Z</time>
      </trkpt>
      <trkpt lat="45.244" lon="5.01178">
        <ele>320.53298950195</ele>
        <time>2009-10-14T12:31:25Z</time>
      </trkpt>
      <trkpt lat="45.24365" lon="5.01213">
        <ele>316.96301269531</ele>
        <time>2009-10-14T12:31:29Z</time>
      </trkpt>
      <trkpt lat="45.24331" lon="5.01282">
        <ele>313.30899047852</ele>
        <time>2009-10-14T12:31:34Z</time>
      </trkpt>
      <trkpt lat="45.24297" lon="5.01323">
        <ele>310.75100708008</ele>
        <time>2009-10-14T12:31:38Z</time>
      </trkpt>
      <trkpt lat="45.24298" lon="5.01354">
        <ele>309.15600585938</ele>
        <time>2009-10-14T12:31:40Z</time>
      </trkpt>
      <trkpt lat="45.24313" lon="5.01376">
        <ele>308.15701293945</ele>
        <time>2009-10-14T12:31:42Z</time>
      </trkpt>
      <trkpt lat="45.24323" lon="5.01384">
        <ele>307.93399047852</ele>
        <time>2009-10-14T12:31:43Z</time>
      </trkpt>
      <trkpt lat="45.24351" lon="5.01405">
        <ele>305.5299987793</ele>
        <time>2009-10-14T12:31:46Z</time>
      </trkpt>
      <trkpt lat="45.24392" lon="5.01412">
        <ele>302.69500732422</ele>
        <time>2009-10-14T12:31:50Z</time>
      </trkpt>
      <trkpt lat="45.24402" lon="5.01409">
        <ele>301.24600219727</ele>
        <time>2009-10-14T12:31:51Z</time>
      </trkpt>
      <trkpt lat="45.24421" lon="5.01404">
        <ele>300.14001464844</ele>
        <time>2009-10-14T12:31:53Z</time>
      </trkpt>
      <trkpt lat="45.24447" lon="5.01395">
        <ele>298.56100463867</ele>
        <time>2009-10-14T12:31:56Z</time>
      </trkpt>
      <trkpt lat="45.24481" lon="5.01402">
        <ele>298.24398803711</ele>
        <time>2009-10-14T12:32:00Z</time>
      </trkpt>
      <trkpt lat="45.24495" lon="5.01427">
        <ele>298.60101318359</ele>
        <time>2009-10-14T12:32:03Z</time>
      </trkpt>
      <trkpt lat="45.24497" lon="5.01436">
        <ele>298.53298950195</ele>
        <time>2009-10-14T12:32:04Z</time>
      </trkpt>
      <trkpt lat="45.24509" lon="5.0149">
        <ele>299.87100219727</ele>
        <time>2009-10-14T12:32:11Z</time>
      </trkpt>
      <trkpt lat="45.24512" lon="5.01503">
        <ele>299.99099731445</ele>
        <time>2009-10-14T12:32:13Z</time>
      </trkpt>
      <trkpt lat="45.2452" lon="5.01559">
        <ele>301.4880065918</ele>
        <time>2009-10-14T12:32:22Z</time>
      </trkpt>
      <trkpt lat="45.24525" lon="5.01606">
        <ele>302.30999755859</ele>
        <time>2009-10-14T12:32:30Z</time>
      </trkpt>
      <trkpt lat="45.2453" lon="5.01652">
        <ele>303.76300048828</ele>
        <time>2009-10-14T12:32:38Z</time>
      </trkpt>
      <trkpt lat="45.24532" lon="5.01689">
        <ele>303.78100585938</ele>
        <time>2009-10-14T12:32:44Z</time>
      </trkpt>
      <trkpt lat="45.24535" lon="5.01736">
        <ele>304.19100952148</ele>
        <time>2009-10-14T12:32:51Z</time>
      </trkpt>
      <trkpt lat="45.24539" lon="5.01772">
        <ele>304.9280090332</ele>
        <time>2009-10-14T12:32:56Z</time>
      </trkpt>
      <trkpt lat="45.2454" lon="5.0178">
        <ele>305.15200805664</ele>
        <time>2009-10-14T12:32:57Z</time>
      </trkpt>
      <trkpt lat="45.24546" lon="5.01814">
        <ele>305.60900878906</ele>
        <time>2009-10-14T12:33:02Z</time>
      </trkpt>
      <trkpt lat="45.24563" lon="5.01864">
        <ele>305.41799926758</ele>
        <time>2009-10-14T12:33:10Z</time>
      </trkpt>
      <trkpt lat="45.2458" lon="5.01911">
        <ele>304.97698974609</ele>
        <time>2009-10-14T12:33:17Z</time>
      </trkpt>
      <trkpt lat="45.246" lon="5.01966">
        <ele>304.19000244141</ele>
        <time>2009-10-14T12:33:25Z</time>
      </trkpt>
      <trkpt lat="45.24623" lon="5.02032">
        <ele>305.4880065918</ele>
        <time>2009-10-14T12:33:34Z</time>
      </trkpt>
      <trkpt lat="45.24646" lon="5.02097">
        <ele>306.68701171875</ele>
        <time>2009-10-14T12:33:43Z</time>
      </trkpt>
      <trkpt lat="45.24661" lon="5.02142">
        <ele>307.14599609375</ele>
        <time>2009-10-14T12:33:50Z</time>
      </trkpt>
      <trkpt lat="45.24683" lon="5.02202">
        <ele>306.57299804688</ele>
        <time>2009-10-14T12:33:58Z</time>
      </trkpt>
      <trkpt lat="45.24705" lon="5.0226">
        <ele>304.03799438477</ele>
        <time>2009-10-14T12:34:04Z</time>
      </trkpt>
      <trkpt lat="45.24713" lon="5.02283">
        <ele>303.33099365234</ele>
        <time>2009-10-14T12:34:06Z</time>
      </trkpt>
      <trkpt lat="45.24747" lon="5.02367">
        <ele>302.31698608398</ele>
        <time>2009-10-14T12:34:13Z</time>
      </trkpt>
      <trkpt lat="45.24771" lon="5.02416">
        <ele>303.70700073242</ele>
        <time>2009-10-14T12:34:18Z</time>
      </trkpt>
      <trkpt lat="45.24783" lon="5.02438">
        <ele>305.22299194336</ele>
        <time>2009-10-14T12:34:21Z</time>
      </trkpt>
      <trkpt lat="45.24787" lon="5.02444">
        <ele>305.05499267578</ele>
        <time>2009-10-14T12:34:22Z</time>
      </trkpt>
      <trkpt lat="45.24809" lon="5.0249">
        <ele>306.71899414062</ele>
        <time>2009-10-14T12:34:30Z</time>
      </trkpt>
      <trkpt lat="45.24826" lon="5.02525">
        <ele>308.09799194336</ele>
        <time>2009-10-14T12:34:36Z</time>
      </trkpt>
      <trkpt lat="45.24843" lon="5.02555">
        <ele>308.89801025391</ele>
        <time>2009-10-14T12:34:42Z</time>
      </trkpt>
      <trkpt lat="45.2486" lon="5.02552">
        <ele>310.62600708008</ele>
        <time>2009-10-14T12:34:46Z</time>
      </trkpt>
      <trkpt lat="45.24884" lon="5.02535">
        <ele>308.74398803711</ele>
        <time>2009-10-14T12:34:50Z</time>
      </trkpt>
      <trkpt lat="45.24906" lon="5.02542">
        <ele>307.12200927734</ele>
        <time>2009-10-14T12:34:53Z</time>
      </trkpt>
      <trkpt lat="45.24921" lon="5.02567">
        <ele>306.29901123047</ele>
        <time>2009-10-14T12:34:56Z</time>
      </trkpt>
      <trkpt lat="45.24927" lon="5.02588">
        <ele>305.55499267578</ele>
        <time>2009-10-14T12:34:58Z</time>
      </trkpt>
      <trkpt lat="45.24931" lon="5.0261">
        <ele>304.06100463867</ele>
        <time>2009-10-14T12:35:00Z</time>
      </trkpt>
      <trkpt lat="45.24946" lon="5.02662">
        <ele>303.23300170898</ele>
        <time>2009-10-14T12:35:05Z</time>
      </trkpt>
      <trkpt lat="45.24963" lon="5.02698">
        <ele>301.85699462891</ele>
        <time>2009-10-14T12:35:09Z</time>
      </trkpt>
      <trkpt lat="45.25007" lon="5.02752">
        <ele>299.19500732422</ele>
        <time>2009-10-14T12:35:16Z</time>
      </trkpt>
      <trkpt lat="45.25014" lon="5.02759">
        <ele>298.95498657227</ele>
        <time>2009-10-14T12:35:17Z</time>
      </trkpt>
      <trkpt lat="45.25055" lon="5.028">
        <ele>297.95498657227</ele>
        <time>2009-10-14T12:35:23Z</time>
      </trkpt>
      <trkpt lat="45.25062" lon="5.02806">
        <ele>297.64898681641</ele>
        <time>2009-10-14T12:35:24Z</time>
      </trkpt>
      <trkpt lat="45.25092" lon="5.02819">
        <ele>297.29901123047</ele>
        <time>2009-10-14T12:35:28Z</time>
      </trkpt>
      <trkpt lat="45.25121" lon="5.02809">
        <ele>297.89700317383</ele>
        <time>2009-10-14T12:35:32Z</time>
      </trkpt>
      <trkpt lat="45.25164" lon="5.02765">
        <ele>296.7200012207</ele>
        <time>2009-10-14T12:35:39Z</time>
      </trkpt>
      <trkpt lat="45.25201" lon="5.02721">
        <ele>296.69900512695</ele>
        <time>2009-10-14T12:35:45Z</time>
      </trkpt>
      <trkpt lat="45.25261" lon="5.02653">
        <ele>296.6969909668</ele>
        <time>2009-10-14T12:35:55Z</time>
      </trkpt>
      <trkpt lat="45.25303" lon="5.02605">
        <ele>296.51800537109</ele>
        <time>2009-10-14T12:36:02Z</time>
      </trkpt>
      <trkpt lat="45.25343" lon="5.02561">
        <ele>297.29098510742</ele>
        <time>2009-10-14T12:36:09Z</time>
      </trkpt>
      <trkpt lat="45.25381" lon="5.02518">
        <ele>296.76501464844</ele>
        <time>2009-10-14T12:36:16Z</time>
      </trkpt>
      <trkpt lat="45.25416" lon="5.02478">
        <ele>296.1789855957</ele>
        <time>2009-10-14T12:36:23Z</time>
      </trkpt>
      <trkpt lat="45.2543" lon="5.02464">
        <ele>296.56900024414</ele>
        <time>2009-10-14T12:36:26Z</time>
      </trkpt>
      <trkpt lat="45.25454" lon="5.02438">
        <ele>296.15899658203</ele>
        <time>2009-10-14T12:36:32Z</time>
      </trkpt>
      <trkpt lat="45.25476" lon="5.02427">
        <ele>296.7919921875</ele>
        <time>2009-10-14T12:36:37Z</time>
      </trkpt>
      <trkpt lat="45.2548" lon="5.02413">
        <ele>297.46701049805</ele>
        <time>2009-10-14T12:36:40Z</time>
      </trkpt>
      <trkpt lat="45.25473" lon="5.02399">
        <ele>297.51901245117</ele>
        <time>2009-10-14T12:36:43Z</time>
      </trkpt>
      <trkpt lat="45.25466" lon="5.02397">
        <ele>297.51300048828</ele>
        <time>2009-10-14T12:36:45Z</time>
      </trkpt>
      <trkpt lat="45.25451" lon="5.02396">
        <ele>297.78298950195</ele>
        <time>2009-10-14T12:36:49Z</time>
      </trkpt>
      <trkpt lat="45.25447" lon="5.02391">
        <ele>297.87200927734</ele>
        <time>2009-10-14T12:36:52Z</time>
      </trkpt>
      <trkpt lat="45.25441" lon="5.02381">
        <ele>298.4460144043</ele>
        <time>2009-10-14T12:36:59Z</time>
      </trkpt>
      <trkpt lat="45.25434" lon="5.02367">
        <ele>298.51599121094</ele>
        <time>2009-10-14T12:37:03Z</time>
      </trkpt>
      <trkpt lat="45.2542" lon="5.02343">
        <ele>298.40701293945</ele>
        <time>2009-10-14T12:37:08Z</time>
      </trkpt>
      <trkpt lat="45.25408" lon="5.0232">
        <ele>298.58700561523</ele>
        <time>2009-10-14T12:37:12Z</time>
      </trkpt>
      <trkpt lat="45.25378" lon="5.02263">
        <ele>297.46099853516</ele>
        <time>2009-10-14T12:37:20Z</time>
      </trkpt>
      <trkpt lat="45.2537" lon="5.02227">
        <ele>297.85000610352</ele>
        <time>2009-10-14T12:37:24Z</time>
      </trkpt>
      <trkpt lat="45.25365" lon="5.02177">
        <ele>299.73901367188</ele>
        <time>2009-10-14T12:37:31Z</time>
      </trkpt>
      <trkpt lat="45.25363" lon="5.02158">
        <ele>300.72198486328</ele>
        <time>2009-10-14T12:37:34Z</time>
      </trkpt>
      <trkpt lat="45.25367" lon="5.0211">
        <ele>303.51699829102</ele>
        <time>2009-10-14T12:37:43Z</time>
      </trkpt>
      <trkpt lat="45.25374" lon="5.02087">
        <ele>306.07501220703</ele>
        <time>2009-10-14T12:37:48Z</time>
      </trkpt>
      <trkpt lat="45.2538" lon="5.02065">
        <ele>307.16000366211</ele>
        <time>2009-10-14T12:37:53Z</time>
      </trkpt>
      <trkpt lat="45.25382" lon="5.02055">
        <ele>307.86700439453</ele>
        <time>2009-10-14T12:37:55Z</time>
      </trkpt>
      <trkpt lat="45.25381" lon="5.02015">
        <ele>310.1549987793</ele>
        <time>2009-10-14T12:38:03Z</time>
      </trkpt>
      <trkpt lat="45.25382" lon="5.01986">
        <ele>311.10598754883</ele>
        <time>2009-10-14T12:38:09Z</time>
      </trkpt>
      <trkpt lat="45.25384" lon="5.0195">
        <ele>313.45300292969</ele>
        <time>2009-10-14T12:38:17Z</time>
      </trkpt>
      <trkpt lat="45.25388" lon="5.01917">
        <ele>315.21899414062</ele>
        <time>2009-10-14T12:38:25Z</time>
      </trkpt>
      <trkpt lat="45.25388" lon="5.01884">
        <ele>316.79800415039</ele>
        <time>2009-10-14T12:38:33Z</time>
      </trkpt>
      <trkpt lat="45.25386" lon="5.01859">
        <ele>317.89099121094</ele>
        <time>2009-10-14T12:38:39Z</time>
      </trkpt>
      <trkpt lat="45.25382" lon="5.01834">
        <ele>318.87600708008</ele>
        <time>2009-10-14T12:38:45Z</time>
      </trkpt>
      <trkpt lat="45.25385" lon="5.01813">
        <ele>321.48901367188</ele>
        <time>2009-10-14T12:38:51Z</time>
      </trkpt>
      <trkpt lat="45.25393" lon="5.0179">
        <ele>321.6789855957</ele>
        <time>2009-10-14T12:38:58Z</time>
      </trkpt>
      <trkpt lat="45.25404" lon="5.01771">
        <ele>323.53500366211</ele>
        <time>2009-10-14T12:39:05Z</time>
      </trkpt>
      <trkpt lat="45.25418" lon="5.01748">
        <ele>325.73098754883</ele>
        <time>2009-10-14T12:39:13Z</time>
      </trkpt>
      <trkpt lat="45.25422" lon="5.01734">
        <ele>327.08898925781</ele>
        <time>2009-10-14T12:39:17Z</time>
      </trkpt>
      <trkpt lat="45.25426" lon="5.01704">
        <ele>328.93499755859</ele>
        <time>2009-10-14T12:39:25Z</time>
      </trkpt>
      <trkpt lat="45.25426" lon="5.01672">
        <ele>330.18701171875</ele>
        <time>2009-10-14T12:39:33Z</time>
      </trkpt>
      <trkpt lat="45.25427" lon="5.01644">
        <ele>331.30999755859</ele>
        <time>2009-10-14T12:39:40Z</time>
      </trkpt>
      <trkpt lat="45.25436" lon="5.01635">
        <ele>332.80801391602</ele>
        <time>2009-10-14T12:39:44Z</time>
      </trkpt>
      <trkpt lat="45.25439" lon="5.01636">
        <ele>332.89001464844</ele>
        <time>2009-10-14T12:39:45Z</time>
      </trkpt>
      <trkpt lat="45.25447" lon="5.01646">
        <ele>333.15399169922</ele>
        <time>2009-10-14T12:39:49Z</time>
      </trkpt>
      <trkpt lat="45.25459" lon="5.0168">
        <ele>335.42098999023</ele>
        <time>2009-10-14T12:39:58Z</time>
      </trkpt>
      <trkpt lat="45.2547" lon="5.01715">
        <ele>337.45700073242</ele>
        <time>2009-10-14T12:40:07Z</time>
      </trkpt>
      <trkpt lat="45.2548" lon="5.01741">
        <ele>338.31201171875</ele>
        <time>2009-10-14T12:40:14Z</time>
      </trkpt>
      <trkpt lat="45.25483" lon="5.01751">
        <ele>339.62298583984</ele>
        <time>2009-10-14T12:40:17Z</time>
      </trkpt>
      <trkpt lat="45.25493" lon="5.01777">
        <ele>341.10998535156</ele>
        <time>2009-10-14T12:40:25Z</time>
      </trkpt>
      <trkpt lat="45.255" lon="5.01796">
        <ele>342.48901367188</ele>
        <time>2009-10-14T12:40:31Z</time>
      </trkpt>
      <trkpt lat="45.25509" lon="5.01822">
        <ele>344.22799682617</ele>
        <time>2009-10-14T12:40:39Z</time>
      </trkpt>
      <trkpt lat="45.25517" lon="5.01843">
        <ele>345.95300292969</ele>
        <time>2009-10-14T12:40:46Z</time>
      </trkpt>
      <trkpt lat="45.25526" lon="5.01866">
        <ele>347.42300415039</ele>
        <time>2009-10-14T12:40:53Z</time>
      </trkpt>
      <trkpt lat="45.25534" lon="5.01894">
        <ele>348.55200195312</ele>
        <time>2009-10-14T12:41:01Z</time>
      </trkpt>
      <trkpt lat="45.25538" lon="5.01915">
        <ele>350.14898681641</ele>
        <time>2009-10-14T12:41:07Z</time>
      </trkpt>
      <trkpt lat="45.25539" lon="5.01935">
        <ele>350.84298706055</ele>
        <time>2009-10-14T12:41:12Z</time>
      </trkpt>
      <trkpt lat="45.2554" lon="5.01968">
        <ele>352.375</ele>
        <time>2009-10-14T12:41:20Z</time>
      </trkpt>
      <trkpt lat="45.25541" lon="5.02">
        <ele>353.99798583984</ele>
        <time>2009-10-14T12:41:28Z</time>
      </trkpt>
      <trkpt lat="45.25549" lon="5.02028">
        <ele>355.35299682617</ele>
        <time>2009-10-14T12:41:35Z</time>
      </trkpt>
      <trkpt lat="45.2556" lon="5.02045">
        <ele>356.41598510742</ele>
        <time>2009-10-14T12:41:41Z</time>
      </trkpt>
      <trkpt lat="45.25573" lon="5.02057">
        <ele>357.68099975586</ele>
        <time>2009-10-14T12:41:47Z</time>
      </trkpt>
      <trkpt lat="45.25576" lon="5.02059">
        <ele>357.77499389648</ele>
        <time>2009-10-14T12:41:48Z</time>
      </trkpt>
      <trkpt lat="45.25593" lon="5.02071">
        <ele>359.54501342773</ele>
        <time>2009-10-14T12:41:55Z</time>
      </trkpt>
      <trkpt lat="45.25611" lon="5.0208">
        <ele>360.84201049805</ele>
        <time>2009-10-14T12:42:02Z</time>
      </trkpt>
      <trkpt lat="45.2563" lon="5.02078">
        <ele>362.43200683594</ele>
        <time>2009-10-14T12:42:09Z</time>
      </trkpt>
      <trkpt lat="45.25644" lon="5.02065">
        <ele>363.94500732422</ele>
        <time>2009-10-14T12:42:15Z</time>
      </trkpt>
      <trkpt lat="45.25652" lon="5.02045">
        <ele>364.77801513672</ele>
        <time>2009-10-14T12:42:21Z</time>
      </trkpt>
      <trkpt lat="45.25657" lon="5.0202">
        <ele>366.5419921875</ele>
        <time>2009-10-14T12:42:28Z</time>
      </trkpt>
      <trkpt lat="45.25658" lon="5.01997">
        <ele>368.13198852539</ele>
        <time>2009-10-14T12:42:34Z</time>
      </trkpt>
      <trkpt lat="45.25664" lon="5.0198">
        <ele>368.69000244141</ele>
        <time>2009-10-14T12:42:39Z</time>
      </trkpt>
      <trkpt lat="45.25678" lon="5.01962">
        <ele>371.0530090332</ele>
        <time>2009-10-14T12:42:47Z</time>
      </trkpt>
      <trkpt lat="45.25695" lon="5.0195">
        <ele>372.88299560547</ele>
        <time>2009-10-14T12:42:55Z</time>
      </trkpt>
      <trkpt lat="45.25714" lon="5.01938">
        <ele>374.82400512695</ele>
        <time>2009-10-14T12:43:03Z</time>
      </trkpt>
      <trkpt lat="45.25726" lon="5.01929">
        <ele>375.60699462891</ele>
        <time>2009-10-14T12:43:09Z</time>
      </trkpt>
      <trkpt lat="45.25735" lon="5.01926">
        <ele>376.42498779297</ele>
        <time>2009-10-14T12:43:14Z</time>
      </trkpt>
      <trkpt lat="45.2575" lon="5.01919">
        <ele>377.45599365234</ele>
        <time>2009-10-14T12:43:21Z</time>
      </trkpt>
      <trkpt lat="45.25767" lon="5.01911">
        <ele>378.4280090332</ele>
        <time>2009-10-14T12:43:28Z</time>
      </trkpt>
      <trkpt lat="45.25784" lon="5.01902">
        <ele>380.2080078125</ele>
        <time>2009-10-14T12:43:34Z</time>
      </trkpt>
      <trkpt lat="45.25801" lon="5.01891">
        <ele>381.48599243164</ele>
        <time>2009-10-14T12:43:41Z</time>
      </trkpt>
      <trkpt lat="45.25811" lon="5.01883">
        <ele>382.2799987793</ele>
        <time>2009-10-14T12:43:45Z</time>
      </trkpt>
      <trkpt lat="45.25823" lon="5.01873">
        <ele>382.60900878906</ele>
        <time>2009-10-14T12:43:50Z</time>
      </trkpt>
      <trkpt lat="45.2583" lon="5.01867">
        <ele>384.14599609375</ele>
        <time>2009-10-14T12:43:53Z</time>
      </trkpt>
      <trkpt lat="45.25845" lon="5.01851">
        <ele>385.31698608398</ele>
        <time>2009-10-14T12:44:00Z</time>
      </trkpt>
      <trkpt lat="45.25861" lon="5.01835">
        <ele>385.94299316406</ele>
        <time>2009-10-14T12:44:07Z</time>
      </trkpt>
      <trkpt lat="45.25877" lon="5.01819">
        <ele>387.54699707031</ele>
        <time>2009-10-14T12:44:14Z</time>
      </trkpt>
      <trkpt lat="45.25895" lon="5.01798">
        <ele>388.72100830078</ele>
        <time>2009-10-14T12:44:22Z</time>
      </trkpt>
      <trkpt lat="45.25915" lon="5.01779">
        <ele>390.04998779297</ele>
        <time>2009-10-14T12:44:30Z</time>
      </trkpt>
      <trkpt lat="45.25936" lon="5.01767">
        <ele>391.52801513672</ele>
        <time>2009-10-14T12:44:38Z</time>
      </trkpt>
      <trkpt lat="45.25944" lon="5.01766">
        <ele>392.86599731445</ele>
        <time>2009-10-14T12:44:41Z</time>
      </trkpt>
      <trkpt lat="45.25964" lon="5.01765">
        <ele>393.40200805664</ele>
        <time>2009-10-14T12:44:48Z</time>
      </trkpt>
      <trkpt lat="45.2598" lon="5.01766">
        <ele>394.64401245117</ele>
        <time>2009-10-14T12:44:54Z</time>
      </trkpt>
      <trkpt lat="45.25998" lon="5.01767">
        <ele>395.43399047852</ele>
        <time>2009-10-14T12:45:01Z</time>
      </trkpt>
      <trkpt lat="45.26014" lon="5.01771">
        <ele>397.18499755859</ele>
        <time>2009-10-14T12:45:07Z</time>
      </trkpt>
      <trkpt lat="45.26036" lon="5.01775">
        <ele>398.79400634766</ele>
        <time>2009-10-14T12:45:15Z</time>
      </trkpt>
      <trkpt lat="45.26056" lon="5.01782">
        <ele>401.07598876953</ele>
        <time>2009-10-14T12:45:22Z</time>
      </trkpt>
      <trkpt lat="45.26081" lon="5.01793">
        <ele>401.18200683594</ele>
        <time>2009-10-14T12:45:30Z</time>
      </trkpt>
      <trkpt lat="45.26108" lon="5.01806">
        <ele>403.54400634766</ele>
        <time>2009-10-14T12:45:39Z</time>
      </trkpt>
      <trkpt lat="45.26133" lon="5.01816">
        <ele>405.00299072266</ele>
        <time>2009-10-14T12:45:47Z</time>
      </trkpt>
      <trkpt lat="45.26163" lon="5.01822">
        <ele>406.48699951172</ele>
        <time>2009-10-14T12:45:56Z</time>
      </trkpt>
      <trkpt lat="45.26206" lon="5.0183">
        <ele>408.50299072266</ele>
        <time>2009-10-14T12:46:09Z</time>
      </trkpt>
      <trkpt lat="45.26241" lon="5.01836">
        <ele>410.16101074219</ele>
        <time>2009-10-14T12:46:20Z</time>
      </trkpt>
      <trkpt lat="45.26268" lon="5.01836">
        <ele>412.24700927734</ele>
        <time>2009-10-14T12:46:29Z</time>
      </trkpt>
      <trkpt lat="45.26285" lon="5.01822">
        <ele>414.61499023438</ele>
        <time>2009-10-14T12:46:35Z</time>
      </trkpt>
      <trkpt lat="45.26287" lon="5.01819">
        <ele>414.77499389648</ele>
        <time>2009-10-14T12:46:36Z</time>
      </trkpt>
      <trkpt lat="45.26305" lon="5.01781">
        <ele>416.77700805664</ele>
        <time>2009-10-14T12:46:46Z</time>
      </trkpt>
      <trkpt lat="45.26314" lon="5.01744">
        <ele>417.28799438477</ele>
        <time>2009-10-14T12:46:54Z</time>
      </trkpt>
      <trkpt lat="45.26323" lon="5.0171">
        <ele>415.29299926758</ele>
        <time>2009-10-14T12:47:00Z</time>
      </trkpt>
      <trkpt lat="45.26341" lon="5.01664">
        <ele>414.39801025391</ele>
        <time>2009-10-14T12:47:07Z</time>
      </trkpt>
      <trkpt lat="45.2636" lon="5.01617">
        <ele>412.62200927734</ele>
        <time>2009-10-14T12:47:13Z</time>
      </trkpt>
      <trkpt lat="45.26386" lon="5.01593">
        <ele>411.45199584961</ele>
        <time>2009-10-14T12:47:18Z</time>
      </trkpt>
      <trkpt lat="45.26392" lon="5.01591">
        <ele>411.62298583984</ele>
        <time>2009-10-14T12:47:19Z</time>
      </trkpt>
      <trkpt lat="45.26459" lon="5.01572">
        <ele>410.43499755859</ele>
        <time>2009-10-14T12:47:30Z</time>
      </trkpt>
      <trkpt lat="45.26507" lon="5.01554">
        <ele>410.13198852539</ele>
        <time>2009-10-14T12:47:38Z</time>
      </trkpt>
      <trkpt lat="45.26526" lon="5.01534">
        <ele>410.84399414062</ele>
        <time>2009-10-14T12:47:42Z</time>
      </trkpt>
      <trkpt lat="45.26562" lon="5.01478">
        <ele>410.1969909668</ele>
        <time>2009-10-14T12:47:51Z</time>
      </trkpt>
      <trkpt lat="45.26604" lon="5.01425">
        <ele>409.09399414062</ele>
        <time>2009-10-14T12:48:00Z</time>
      </trkpt>
      <trkpt lat="45.26626" lon="5.01392">
        <ele>411.41198730469</ele>
        <time>2009-10-14T12:48:05Z</time>
      </trkpt>
      <trkpt lat="45.26643" lon="5.01364">
        <ele>412.19198608398</ele>
        <time>2009-10-14T12:48:09Z</time>
      </trkpt>
      <trkpt lat="45.26667" lon="5.01328">
        <ele>413.36801147461</ele>
        <time>2009-10-14T12:48:15Z</time>
      </trkpt>
      <trkpt lat="45.26698" lon="5.01292">
        <ele>414.92199707031</ele>
        <time>2009-10-14T12:48:22Z</time>
      </trkpt>
      <trkpt lat="45.26724" lon="5.01262">
        <ele>413.76300048828</ele>
        <time>2009-10-14T12:48:28Z</time>
      </trkpt>
      <trkpt lat="45.26756" lon="5.0122">
        <ele>414.2619934082</ele>
        <time>2009-10-14T12:48:35Z</time>
      </trkpt>
      <trkpt lat="45.2676" lon="5.01213">
        <ele>414.22698974609</ele>
        <time>2009-10-14T12:48:36Z</time>
      </trkpt>
      <trkpt lat="45.26776" lon="5.01169">
        <ele>413.83801269531</ele>
        <time>2009-10-14T12:48:42Z</time>
      </trkpt>
      <trkpt lat="45.2678" lon="5.01156">
        <ele>414.45199584961</ele>
        <time>2009-10-14T12:48:44Z</time>
      </trkpt>
      <trkpt lat="45.26785" lon="5.01142">
        <ele>414.7380065918</ele>
        <time>2009-10-14T12:48:46Z</time>
      </trkpt>
      <trkpt lat="45.26799" lon="5.01116">
        <ele>416.10598754883</ele>
        <time>2009-10-14T12:48:51Z</time>
      </trkpt>
      <trkpt lat="45.26829" lon="5.01084">
        <ele>415.75799560547</ele>
        <time>2009-10-14T12:48:58Z</time>
      </trkpt>
      <trkpt lat="45.26862" lon="5.01044">
        <ele>414.50698852539</ele>
        <time>2009-10-14T12:49:05Z</time>
      </trkpt>
      <trkpt lat="45.26872" lon="5.01031">
        <ele>414.23001098633</ele>
        <time>2009-10-14T12:49:07Z</time>
      </trkpt>
      <trkpt lat="45.26897" lon="5.01011">
        <ele>410.87298583984</ele>
        <time>2009-10-14T12:49:11Z</time>
      </trkpt>
      <trkpt lat="45.26949" lon="5.00994">
        <ele>411.14999389648</ele>
        <time>2009-10-14T12:49:18Z</time>
      </trkpt>
      <trkpt lat="45.26998" lon="5.0099">
        <ele>411.72500610352</ele>
        <time>2009-10-14T12:49:25Z</time>
      </trkpt>
      <trkpt lat="45.27005" lon="5.0099">
        <ele>411.70001220703</ele>
        <time>2009-10-14T12:49:26Z</time>
      </trkpt>
      <trkpt lat="45.27052" lon="5.00971">
        <ele>410.53298950195</ele>
        <time>2009-10-14T12:49:33Z</time>
      </trkpt>
      <trkpt lat="45.27096" lon="5.0094">
        <ele>411.74301147461</ele>
        <time>2009-10-14T12:49:40Z</time>
      </trkpt>
      <trkpt lat="45.27135" lon="5.00909">
        <ele>411.75601196289</ele>
        <time>2009-10-14T12:49:47Z</time>
      </trkpt>
      <trkpt lat="45.27172" lon="5.0089">
        <ele>412.10998535156</ele>
        <time>2009-10-14T12:49:53Z</time>
      </trkpt>
      <trkpt lat="45.2722" lon="5.00876">
        <ele>412.89099121094</ele>
        <time>2009-10-14T12:50:01Z</time>
      </trkpt>
      <trkpt lat="45.27258" lon="5.00875">
        <ele>412.69500732422</ele>
        <time>2009-10-14T12:50:07Z</time>
      </trkpt>
      <trkpt lat="45.27306" lon="5.00862">
        <ele>411.98400878906</ele>
        <time>2009-10-14T12:50:14Z</time>
      </trkpt>
      <trkpt lat="45.2732" lon="5.00859">
        <ele>411.04501342773</ele>
        <time>2009-10-14T12:50:16Z</time>
      </trkpt>
      <trkpt lat="45.27362" lon="5.0085">
        <ele>410.95401000977</ele>
        <time>2009-10-14T12:50:22Z</time>
      </trkpt>
      <trkpt lat="45.2739" lon="5.00834">
        <ele>408.83401489258</ele>
        <time>2009-10-14T12:50:26Z</time>
      </trkpt>
      <trkpt lat="45.27438" lon="5.00798">
        <ele>407.79501342773</ele>
        <time>2009-10-14T12:50:33Z</time>
      </trkpt>
      <trkpt lat="45.27472" lon="5.00764">
        <ele>406.13299560547</ele>
        <time>2009-10-14T12:50:38Z</time>
      </trkpt>
      <trkpt lat="45.27485" lon="5.00747">
        <ele>405.04800415039</ele>
        <time>2009-10-14T12:50:40Z</time>
      </trkpt>
      <trkpt lat="45.27497" lon="5.00728">
        <ele>404.32901000977</ele>
        <time>2009-10-14T12:50:42Z</time>
      </trkpt>
      <trkpt lat="45.27541" lon="5.00673">
        <ele>405.56201171875</ele>
        <time>2009-10-14T12:50:49Z</time>
      </trkpt>
      <trkpt lat="45.27569" lon="5.00653">
        <ele>405.24798583984</ele>
        <time>2009-10-14T12:50:53Z</time>
      </trkpt>
      <trkpt lat="45.27585" lon="5.00648">
        <ele>404.73400878906</ele>
        <time>2009-10-14T12:50:55Z</time>
      </trkpt>
      <trkpt lat="45.276" lon="5.00643">
        <ele>404.66598510742</ele>
        <time>2009-10-14T12:50:57Z</time>
      </trkpt>
      <trkpt lat="45.27631" lon="5.0062">
        <ele>406.2919921875</ele>
        <time>2009-10-14T12:51:02Z</time>
      </trkpt>
      <trkpt lat="45.27676" lon="5.00577">
        <ele>405.34799194336</ele>
        <time>2009-10-14T12:51:09Z</time>
      </trkpt>
      <trkpt lat="45.27694" lon="5.00557">
        <ele>405.48599243164</ele>
        <time>2009-10-14T12:51:12Z</time>
      </trkpt>
      <trkpt lat="45.27735" lon="5.00494">
        <ele>406.62298583984</ele>
        <time>2009-10-14T12:51:20Z</time>
      </trkpt>
      <trkpt lat="45.27752" lon="5.00476">
        <ele>407.57501220703</ele>
        <time>2009-10-14T12:51:23Z</time>
      </trkpt>
      <trkpt lat="45.27784" lon="5.00462">
        <ele>407.36401367188</ele>
        <time>2009-10-14T12:51:28Z</time>
      </trkpt>
      <trkpt lat="45.27799" lon="5.00465">
        <ele>407.02899169922</ele>
        <time>2009-10-14T12:51:30Z</time>
      </trkpt>
      <trkpt lat="45.27837" lon="5.00478">
        <ele>405.47698974609</ele>
        <time>2009-10-14T12:51:35Z</time>
      </trkpt>
      <trkpt lat="45.27865" lon="5.00487">
        <ele>405.40100097656</ele>
        <time>2009-10-14T12:51:39Z</time>
      </trkpt>
      <trkpt lat="45.27908" lon="5.00499">
        <ele>403.96499633789</ele>
        <time>2009-10-14T12:51:45Z</time>
      </trkpt>
      <trkpt lat="45.27953" lon="5.00513">
        <ele>403.68701171875</ele>
        <time>2009-10-14T12:51:51Z</time>
      </trkpt>
      <trkpt lat="45.27991" lon="5.00524">
        <ele>402.03500366211</ele>
        <time>2009-10-14T12:51:56Z</time>
      </trkpt>
      <trkpt lat="45.28013" lon="5.00531">
        <ele>399.78201293945</ele>
        <time>2009-10-14T12:51:59Z</time>
      </trkpt>
      <trkpt lat="45.28056" lon="5.00563">
        <ele>394.48098754883</ele>
        <time>2009-10-14T12:52:04Z</time>
      </trkpt>
      <trkpt lat="45.2808" lon="5.00596">
        <ele>390.65701293945</ele>
        <time>2009-10-14T12:52:07Z</time>
      </trkpt>
      <trkpt lat="45.28102" lon="5.00636">
        <ele>387.38198852539</ele>
        <time>2009-10-14T12:52:10Z</time>
      </trkpt>
      <trkpt lat="45.28156" lon="5.00674">
        <ele>380.05599975586</ele>
        <time>2009-10-14T12:52:15Z</time>
      </trkpt>
      <trkpt lat="45.282" lon="5.00705">
        <ele>377.16500854492</ele>
        <time>2009-10-14T12:52:19Z</time>
      </trkpt>
      <trkpt lat="45.2822" lon="5.00724">
        <ele>375.23599243164</ele>
        <time>2009-10-14T12:52:21Z</time>
      </trkpt>
      <trkpt lat="45.2826" lon="5.00788">
        <ele>369.8039855957</ele>
        <time>2009-10-14T12:52:26Z</time>
      </trkpt>
      <trkpt lat="45.28297" lon="5.00855">
        <ele>366.625</ele>
        <time>2009-10-14T12:52:31Z</time>
      </trkpt>
      <trkpt lat="45.28325" lon="5.00876">
        <ele>363.10101318359</ele>
        <time>2009-10-14T12:52:34Z</time>
      </trkpt>
      <trkpt lat="45.28347" lon="5.00866">
        <ele>361.19900512695</ele>
        <time>2009-10-14T12:52:36Z</time>
      </trkpt>
      <trkpt lat="45.28376" lon="5.00845">
        <ele>358.86898803711</ele>
        <time>2009-10-14T12:52:39Z</time>
      </trkpt>
      <trkpt lat="45.28392" lon="5.00821">
        <ele>358.61700439453</ele>
        <time>2009-10-14T12:52:42Z</time>
      </trkpt>
      <trkpt lat="45.28379" lon="5.00809">
        <ele>357.82998657227</ele>
        <time>2009-10-14T12:52:44Z</time>
      </trkpt>
      <trkpt lat="45.28364" lon="5.00813">
        <ele>357.2080078125</ele>
        <time>2009-10-14T12:52:46Z</time>
      </trkpt>
      <trkpt lat="45.28336" lon="5.00826">
        <ele>355.32998657227</ele>
        <time>2009-10-14T12:52:50Z</time>
      </trkpt>
      <trkpt lat="45.28323" lon="5.00811">
        <ele>354.37899780273</ele>
        <time>2009-10-14T12:52:52Z</time>
      </trkpt>
      <trkpt lat="45.2832" lon="5.00788">
        <ele>352.99099731445</ele>
        <time>2009-10-14T12:52:54Z</time>
      </trkpt>
      <trkpt lat="45.28317" lon="5.00762">
        <ele>351.3219909668</ele>
        <time>2009-10-14T12:52:56Z</time>
      </trkpt>
      <trkpt lat="45.28324" lon="5.00719">
        <ele>348.71798706055</ele>
        <time>2009-10-14T12:52:59Z</time>
      </trkpt>
      <trkpt lat="45.28337" lon="5.00677">
        <ele>344.94299316406</ele>
        <time>2009-10-14T12:53:02Z</time>
      </trkpt>
      <trkpt lat="45.28328" lon="5.00643">
        <ele>342.3210144043</ele>
        <time>2009-10-14T12:53:04Z</time>
      </trkpt>
      <trkpt lat="45.28319" lon="5.00626">
        <ele>341.64001464844</ele>
        <time>2009-10-14T12:53:05Z</time>
      </trkpt>
      <trkpt lat="45.28302" lon="5.00599">
        <ele>338.80801391602</ele>
        <time>2009-10-14T12:53:07Z</time>
      </trkpt>
      <trkpt lat="45.28295" lon="5.00549">
        <ele>335.20599365234</ele>
        <time>2009-10-14T12:53:10Z</time>
      </trkpt>
      <trkpt lat="45.28308" lon="5.00518">
        <ele>333.81201171875</ele>
        <time>2009-10-14T12:53:12Z</time>
      </trkpt>
      <trkpt lat="45.28326" lon="5.00436">
        <ele>326.56100463867</ele>
        <time>2009-10-14T12:53:17Z</time>
      </trkpt>
      <trkpt lat="45.28321" lon="5.00323">
        <ele>321.24899291992</ele>
        <time>2009-10-14T12:53:23Z</time>
      </trkpt>
      <trkpt lat="45.28321" lon="5.00304">
        <ele>321.20498657227</ele>
        <time>2009-10-14T12:53:24Z</time>
      </trkpt>
      <trkpt lat="45.2832" lon="5.00265">
        <ele>317.51901245117</ele>
        <time>2009-10-14T12:53:26Z</time>
      </trkpt>
      <trkpt lat="45.28333" lon="5.00224">
        <ele>313.57501220703</ele>
        <time>2009-10-14T12:53:29Z</time>
      </trkpt>
      <trkpt lat="45.28354" lon="5.00221">
        <ele>311.11599731445</ele>
        <time>2009-10-14T12:53:31Z</time>
      </trkpt>
      <trkpt lat="45.28407" lon="5.00211">
        <ele>306.21798706055</ele>
        <time>2009-10-14T12:53:36Z</time>
      </trkpt>
      <trkpt lat="45.28428" lon="5.00201">
        <ele>304.96499633789</ele>
        <time>2009-10-14T12:53:38Z</time>
      </trkpt>
      <trkpt lat="45.28473" lon="5.00199">
        <ele>300.43399047852</ele>
        <time>2009-10-14T12:53:42Z</time>
      </trkpt>
      <trkpt lat="45.28529" lon="5.00211">
        <ele>297.19400024414</ele>
        <time>2009-10-14T12:53:47Z</time>
      </trkpt>
      <trkpt lat="45.2859" lon="5.00219">
        <ele>294.17599487305</ele>
        <time>2009-10-14T12:53:53Z</time>
      </trkpt>
      <trkpt lat="45.28608" lon="5.00219">
        <ele>295.60699462891</ele>
        <time>2009-10-14T12:53:55Z</time>
      </trkpt>
      <trkpt lat="45.28649" lon="5.00211">
        <ele>293.14401245117</ele>
        <time>2009-10-14T12:54:00Z</time>
      </trkpt>
      <trkpt lat="45.28685" lon="5.00194">
        <ele>292.35299682617</ele>
        <time>2009-10-14T12:54:05Z</time>
      </trkpt>
      <trkpt lat="45.28722" lon="5.00171">
        <ele>291.57501220703</ele>
        <time>2009-10-14T12:54:11Z</time>
      </trkpt>
      <trkpt lat="45.28727" lon="5.00166">
        <ele>291.68399047852</ele>
        <time>2009-10-14T12:54:12Z</time>
      </trkpt>
      <trkpt lat="45.28737" lon="5.00156">
        <ele>292.37799072266</ele>
        <time>2009-10-14T12:54:14Z</time>
      </trkpt>
      <trkpt lat="45.28769" lon="5.00136">
        <ele>291.46600341797</ele>
        <time>2009-10-14T12:54:20Z</time>
      </trkpt>
      <trkpt lat="45.28802" lon="5.00136">
        <ele>291.05099487305</ele>
        <time>2009-10-14T12:54:26Z</time>
      </trkpt>
      <trkpt lat="45.28807" lon="5.00137">
        <ele>292.32501220703</ele>
        <time>2009-10-14T12:54:27Z</time>
      </trkpt>
      <trkpt lat="45.28839" lon="5.0015">
        <ele>292.57598876953</ele>
        <time>2009-10-14T12:54:33Z</time>
      </trkpt>
      <trkpt lat="45.28856" lon="5.00156">
        <ele>294.24099731445</ele>
        <time>2009-10-14T12:54:36Z</time>
      </trkpt>
      <trkpt lat="45.28888" lon="5.0016">
        <ele>294.52398681641</ele>
        <time>2009-10-14T12:54:42Z</time>
      </trkpt>
      <trkpt lat="45.28913" lon="5.00157">
        <ele>295.26098632812</ele>
        <time>2009-10-14T12:54:47Z</time>
      </trkpt>
      <trkpt lat="45.28928" lon="5.0015">
        <ele>294.92098999023</ele>
        <time>2009-10-14T12:54:50Z</time>
      </trkpt>
      <trkpt lat="45.28947" lon="5.00133">
        <ele>294.27600097656</ele>
        <time>2009-10-14T12:54:54Z</time>
      </trkpt>
      <trkpt lat="45.28968" lon="5.00098">
        <ele>291.81500244141</ele>
        <time>2009-10-14T12:54:59Z</time>
      </trkpt>
      <trkpt lat="45.28974" lon="5.00081">
        <ele>291.15600585938</ele>
        <time>2009-10-14T12:55:01Z</time>
      </trkpt>
      <trkpt lat="45.28983" lon="5.00056">
        <ele>289.81799316406</ele>
        <time>2009-10-14T12:55:04Z</time>
      </trkpt>
      <trkpt lat="45.29006" lon="4.99995">
        <ele>288.95098876953</ele>
        <time>2009-10-14T12:55:11Z</time>
      </trkpt>
      <trkpt lat="45.29029" lon="4.9993">
        <ele>286.4880065918</ele>
        <time>2009-10-14T12:55:18Z</time>
      </trkpt>
      <trkpt lat="45.2905" lon="4.99882">
        <ele>283.14199829102</ele>
        <time>2009-10-14T12:55:23Z</time>
      </trkpt>
      <trkpt lat="45.2906" lon="4.99861">
        <ele>282.27700805664</ele>
        <time>2009-10-14T12:55:25Z</time>
      </trkpt>
      <trkpt lat="45.29076" lon="4.9983">
        <ele>280.42300415039</ele>
        <time>2009-10-14T12:55:28Z</time>
      </trkpt>
      <trkpt lat="45.29092" lon="4.99798">
        <ele>278.98498535156</ele>
        <time>2009-10-14T12:55:32Z</time>
      </trkpt>
      <trkpt lat="45.29095" lon="4.9979">
        <ele>278.99499511719</ele>
        <time>2009-10-14T12:55:34Z</time>
      </trkpt>
      <trkpt lat="45.29096" lon="4.99786">
        <ele>279.02499389648</ele>
        <time>2009-10-14T12:55:35Z</time>
      </trkpt>
      <trkpt lat="45.291" lon="4.99767">
        <ele>277.42199707031</ele>
        <time>2009-10-14T12:55:38Z</time>
      </trkpt>
      <trkpt lat="45.29099" lon="4.99751">
        <ele>276.88500976562</ele>
        <time>2009-10-14T12:55:40Z</time>
      </trkpt>
      <trkpt lat="45.29094" lon="4.99697">
        <ele>275.89099121094</ele>
        <time>2009-10-14T12:55:46Z</time>
      </trkpt>
      <trkpt lat="45.29108" lon="4.99679">
        <ele>275.55599975586</ele>
        <time>2009-10-14T12:55:49Z</time>
      </trkpt>
      <trkpt lat="45.29122" lon="4.9968">
        <ele>275.00201416016</ele>
        <time>2009-10-14T12:55:51Z</time>
      </trkpt>
      <trkpt lat="45.29136" lon="4.99684">
        <ele>273.53601074219</ele>
        <time>2009-10-14T12:55:53Z</time>
      </trkpt>
      <trkpt lat="45.29163" lon="4.99711">
        <ele>269.46301269531</ele>
        <time>2009-10-14T12:55:57Z</time>
      </trkpt>
      <trkpt lat="45.29169" lon="4.99736">
        <ele>268.34201049805</ele>
        <time>2009-10-14T12:55:59Z</time>
      </trkpt>
      <trkpt lat="45.2918" lon="4.99826">
        <ele>262.17001342773</ele>
        <time>2009-10-14T12:56:05Z</time>
      </trkpt>
      <trkpt lat="45.29191" lon="4.9992">
        <ele>259.30200195312</ele>
        <time>2009-10-14T12:56:11Z</time>
      </trkpt>
      <trkpt lat="45.29208" lon="4.9995">
        <ele>257.44100952148</ele>
        <time>2009-10-14T12:56:14Z</time>
      </trkpt>
      <trkpt lat="45.29226" lon="4.99949">
        <ele>256.30899047852</ele>
        <time>2009-10-14T12:56:16Z</time>
      </trkpt>
      <trkpt lat="45.29239" lon="4.99943">
        <ele>256.18099975586</ele>
        <time>2009-10-14T12:56:18Z</time>
      </trkpt>
      <trkpt lat="45.29253" lon="4.99933">
        <ele>256.39099121094</ele>
        <time>2009-10-14T12:56:23Z</time>
      </trkpt>
      <trkpt lat="45.29268" lon="4.99923">
        <ele>255.72300720215</ele>
        <time>2009-10-14T12:56:27Z</time>
      </trkpt>
      <trkpt lat="45.29282" lon="4.99914">
        <ele>254.19000244141</ele>
        <time>2009-10-14T12:56:30Z</time>
      </trkpt>
      <trkpt lat="45.29307" lon="4.99898">
        <ele>254.13299560547</ele>
        <time>2009-10-14T12:56:35Z</time>
      </trkpt>
      <trkpt lat="45.29342" lon="4.99874">
        <ele>251.50199890137</ele>
        <time>2009-10-14T12:56:42Z</time>
      </trkpt>
      <trkpt lat="45.29354" lon="4.99867">
        <ele>251.35800170898</ele>
        <time>2009-10-14T12:56:46Z</time>
      </trkpt>
      <trkpt lat="45.29364" lon="4.9986">
        <ele>250.84199523926</ele>
        <time>2009-10-14T12:56:51Z</time>
      </trkpt>
      <trkpt lat="45.2937" lon="4.99857">
        <ele>250.83200073242</ele>
        <time>2009-10-14T12:56:54Z</time>
      </trkpt>
      <trkpt lat="45.29388" lon="4.99849">
        <ele>249.61700439453</ele>
        <time>2009-10-14T12:57:00Z</time>
      </trkpt>
      <trkpt lat="45.29416" lon="4.99842">
        <ele>248.63900756836</ele>
        <time>2009-10-14T12:57:06Z</time>
      </trkpt>
      <trkpt lat="45.29453" lon="4.99834">
        <ele>246.30599975586</ele>
        <time>2009-10-14T12:57:12Z</time>
      </trkpt>
      <trkpt lat="45.29498" lon="4.99823">
        <ele>243.19000244141</ele>
        <time>2009-10-14T12:57:18Z</time>
      </trkpt>
      <trkpt lat="45.29514" lon="4.99819">
        <ele>242.16999816894</ele>
        <time>2009-10-14T12:57:20Z</time>
      </trkpt>
      <trkpt lat="45.29522" lon="4.99816">
        <ele>241.95799255371</ele>
        <time>2009-10-14T12:57:21Z</time>
      </trkpt>
      <trkpt lat="45.29551" lon="4.99791">
        <ele>239.03900146484</ele>
        <time>2009-10-14T12:57:25Z</time>
      </trkpt>
      <trkpt lat="45.29557" lon="4.99782">
        <ele>238.86599731445</ele>
        <time>2009-10-14T12:57:26Z</time>
      </trkpt>
      <trkpt lat="45.296" lon="4.99711">
        <ele>232.99099731445</ele>
        <time>2009-10-14T12:57:33Z</time>
      </trkpt>
      <trkpt lat="45.2965" lon="4.99629">
        <ele>230.77299499512</ele>
        <time>2009-10-14T12:57:41Z</time>
      </trkpt>
      <trkpt lat="45.29689" lon="4.99575">
        <ele>230.33700561523</ele>
        <time>2009-10-14T12:57:47Z</time>
      </trkpt>
      <trkpt lat="45.29703" lon="4.99559">
        <ele>229.34399414062</ele>
        <time>2009-10-14T12:57:49Z</time>
      </trkpt>
      <trkpt lat="45.29717" lon="4.99545">
        <ele>228.89300537109</ele>
        <time>2009-10-14T12:57:51Z</time>
      </trkpt>
      <trkpt lat="45.29724" lon="4.99539">
        <ele>229.76100158691</ele>
        <time>2009-10-14T12:57:52Z</time>
      </trkpt>
      <trkpt lat="45.29735" lon="4.99529">
        <ele>229.49699401856</ele>
        <time>2009-10-14T12:57:54Z</time>
      </trkpt>
      <trkpt lat="45.29755" lon="4.9953">
        <ele>228.73399353027</ele>
        <time>2009-10-14T12:57:58Z</time>
      </trkpt>
      <trkpt lat="45.29758" lon="4.99533">
        <ele>228.64599609375</ele>
        <time>2009-10-14T12:57:59Z</time>
      </trkpt>
      <trkpt lat="45.29778" lon="4.99553">
        <ele>229.16400146484</ele>
        <time>2009-10-14T12:58:04Z</time>
      </trkpt>
      <trkpt lat="45.29802" lon="4.99577">
        <ele>229.95500183106</ele>
        <time>2009-10-14T12:58:09Z</time>
      </trkpt>
      <trkpt lat="45.29845" lon="4.9962">
        <ele>227.85600280762</ele>
        <time>2009-10-14T12:58:17Z</time>
      </trkpt>
      <trkpt lat="45.29855" lon="4.99632">
        <ele>229.44000244141</ele>
        <time>2009-10-14T12:58:19Z</time>
      </trkpt>
      <trkpt lat="45.29876" lon="4.99656">
        <ele>230.06599426269</ele>
        <time>2009-10-14T12:58:23Z</time>
      </trkpt>
      <trkpt lat="45.29917" lon="4.99705">
        <ele>229.88900756836</ele>
        <time>2009-10-14T12:58:31Z</time>
      </trkpt>
      <trkpt lat="45.29956" lon="4.99755">
        <ele>230.39100646973</ele>
        <time>2009-10-14T12:58:39Z</time>
      </trkpt>
      <trkpt lat="45.30005" lon="4.99825">
        <ele>232.23399353027</ele>
        <time>2009-10-14T12:58:49Z</time>
      </trkpt>
      <trkpt lat="45.30009" lon="4.99833">
        <ele>232.12800598144</ele>
        <time>2009-10-14T12:58:50Z</time>
      </trkpt>
      <trkpt lat="45.30028" lon="4.99871">
        <ele>232.56300354004</ele>
        <time>2009-10-14T12:58:55Z</time>
      </trkpt>
      <trkpt lat="45.30049" lon="4.99916">
        <ele>234.85600280762</ele>
        <time>2009-10-14T12:59:02Z</time>
      </trkpt>
      <trkpt lat="45.30075" lon="4.99969">
        <ele>236.51100158691</ele>
        <time>2009-10-14T12:59:11Z</time>
      </trkpt>
      <trkpt lat="45.30095" lon="5.00011">
        <ele>236.69900512695</ele>
        <time>2009-10-14T12:59:19Z</time>
      </trkpt>
      <trkpt lat="45.30114" lon="5.0005">
        <ele>235.00799560547</ele>
        <time>2009-10-14T12:59:26Z</time>
      </trkpt>
      <trkpt lat="45.30127" lon="5.00078">
        <ele>234.82000732422</ele>
        <time>2009-10-14T12:59:31Z</time>
      </trkpt>
      <trkpt lat="45.30141" lon="5.00107">
        <ele>233.45899963379</ele>
        <time>2009-10-14T12:59:36Z</time>
      </trkpt>
      <trkpt lat="45.30154" lon="5.00135">
        <ele>234.58399963379</ele>
        <time>2009-10-14T12:59:41Z</time>
      </trkpt>
      <trkpt lat="45.30173" lon="5.00178">
        <ele>234.96099853516</ele>
        <time>2009-10-14T12:59:48Z</time>
      </trkpt>
      <trkpt lat="45.30198" lon="5.00241">
        <ele>235.38499450684</ele>
        <time>2009-10-14T12:59:58Z</time>
      </trkpt>
      <trkpt lat="45.30214" lon="5.00307">
        <ele>235.5299987793</ele>
        <time>2009-10-14T13:00:07Z</time>
      </trkpt>
      <trkpt lat="45.30226" lon="5.0037">
        <ele>235.06399536133</ele>
        <time>2009-10-14T13:00:15Z</time>
      </trkpt>
      <trkpt lat="45.30241" lon="5.00453">
        <ele>236.08700561523</ele>
        <time>2009-10-14T13:00:25Z</time>
      </trkpt>
      <trkpt lat="45.30241" lon="5.00461">
        <ele>236.37600708008</ele>
        <time>2009-10-14T13:00:26Z</time>
      </trkpt>
      <trkpt lat="45.30241" lon="5.005">
        <ele>236.31300354004</ele>
        <time>2009-10-14T13:00:31Z</time>
      </trkpt>
      <trkpt lat="45.30239" lon="5.00522">
        <ele>237.67999267578</ele>
        <time>2009-10-14T13:00:34Z</time>
      </trkpt>
      <trkpt lat="45.30243" lon="5.0057">
        <ele>237.70500183106</ele>
        <time>2009-10-14T13:00:40Z</time>
      </trkpt>
      <trkpt lat="45.3026" lon="5.00645">
        <ele>235.21000671387</ele>
        <time>2009-10-14T13:00:48Z</time>
      </trkpt>
      <trkpt lat="45.30256" lon="5.00684">
        <ele>234.80299377441</ele>
        <time>2009-10-14T13:00:52Z</time>
      </trkpt>
      <trkpt lat="45.30252" lon="5.00703">
        <ele>234.41700744629</ele>
        <time>2009-10-14T13:00:54Z</time>
      </trkpt>
      <trkpt lat="45.30254" lon="5.00732">
        <ele>234.60099792481</ele>
        <time>2009-10-14T13:00:57Z</time>
      </trkpt>
      <trkpt lat="45.30278" lon="5.00766">
        <ele>234.44900512695</ele>
        <time>2009-10-14T13:01:02Z</time>
      </trkpt>
      <trkpt lat="45.30307" lon="5.00789">
        <ele>234.71299743652</ele>
        <time>2009-10-14T13:01:07Z</time>
      </trkpt>
      <trkpt lat="45.30347" lon="5.00799">
        <ele>233.86799621582</ele>
        <time>2009-10-14T13:01:12Z</time>
      </trkpt>
      <trkpt lat="45.30374" lon="5.00812">
        <ele>234.09300231934</ele>
        <time>2009-10-14T13:01:16Z</time>
      </trkpt>
      <trkpt lat="45.30397" lon="5.00845">
        <ele>234.67799377441</ele>
        <time>2009-10-14T13:01:21Z</time>
      </trkpt>
      <trkpt lat="45.30399" lon="5.00853">
        <ele>235.35899353027</ele>
        <time>2009-10-14T13:01:22Z</time>
      </trkpt>
      <trkpt lat="45.30428" lon="5.00916">
        <ele>236.54299926758</ele>
        <time>2009-10-14T13:01:31Z</time>
      </trkpt>
      <trkpt lat="45.30445" lon="5.00948">
        <ele>236.84199523926</ele>
        <time>2009-10-14T13:01:36Z</time>
      </trkpt>
      <trkpt lat="45.30454" lon="5.00973">
        <ele>237.83000183106</ele>
        <time>2009-10-14T13:01:40Z</time>
      </trkpt>
      <trkpt lat="45.30458" lon="5.00978">
        <ele>237.97300720215</ele>
        <time>2009-10-14T13:01:41Z</time>
      </trkpt>
      <trkpt lat="45.30471" lon="5.00994">
        <ele>237.68200683594</ele>
        <time>2009-10-14T13:01:44Z</time>
      </trkpt>
      <trkpt lat="45.30508" lon="5.01055">
        <ele>238.8809967041</ele>
        <time>2009-10-14T13:01:54Z</time>
      </trkpt>
      <trkpt lat="45.30516" lon="5.01066">
        <ele>240.09300231934</ele>
        <time>2009-10-14T13:01:56Z</time>
      </trkpt>
      <trkpt lat="45.30536" lon="5.01091">
        <ele>240.27699279785</ele>
        <time>2009-10-14T13:02:01Z</time>
      </trkpt>
      <trkpt lat="45.30536" lon="5.01117">
        <ele>241.54800415039</ele>
        <time>2009-10-14T13:02:05Z</time>
      </trkpt>
      <trkpt lat="45.30526" lon="5.01132">
        <ele>241.50399780273</ele>
        <time>2009-10-14T13:02:08Z</time>
      </trkpt>
      <trkpt lat="45.30494" lon="5.01173">
        <ele>242.14700317383</ele>
        <time>2009-10-14T13:02:17Z</time>
      </trkpt>
      <trkpt lat="45.30481" lon="5.01192">
        <ele>242.55200195312</ele>
        <time>2009-10-14T13:02:21Z</time>
      </trkpt>
      <trkpt lat="45.30453" lon="5.01248">
        <ele>245.22500610352</ele>
        <time>2009-10-14T13:02:31Z</time>
      </trkpt>
      <trkpt lat="45.3045" lon="5.01254">
        <ele>245.77299499512</ele>
        <time>2009-10-14T13:02:32Z</time>
      </trkpt>
      <trkpt lat="45.30429" lon="5.013">
        <ele>247.08999633789</ele>
        <time>2009-10-14T13:02:40Z</time>
      </trkpt>
      <trkpt lat="45.30411" lon="5.01351">
        <ele>247.55900573731</ele>
        <time>2009-10-14T13:02:48Z</time>
      </trkpt>
      <trkpt lat="45.30408" lon="5.01364">
        <ele>247.77699279785</ele>
        <time>2009-10-14T13:02:50Z</time>
      </trkpt>
      <trkpt lat="45.30402" lon="5.01419">
        <ele>249.40100097656</ele>
        <time>2009-10-14T13:02:58Z</time>
      </trkpt>
      <trkpt lat="45.30396" lon="5.01472">
        <ele>250.6309967041</ele>
        <time>2009-10-14T13:03:06Z</time>
      </trkpt>
      <trkpt lat="45.30392" lon="5.01513">
        <ele>251.16400146484</ele>
        <time>2009-10-14T13:03:12Z</time>
      </trkpt>
      <trkpt lat="45.30386" lon="5.01561">
        <ele>252.85600280762</ele>
        <time>2009-10-14T13:03:19Z</time>
      </trkpt>
      <trkpt lat="45.30379" lon="5.01604">
        <ele>252.97700500488</ele>
        <time>2009-10-14T13:03:25Z</time>
      </trkpt>
      <trkpt lat="45.30379" lon="5.0161">
        <ele>253.35299682617</ele>
        <time>2009-10-14T13:03:26Z</time>
      </trkpt>
      <trkpt lat="45.30369" lon="5.01664">
        <ele>254.90699768066</ele>
        <time>2009-10-14T13:03:34Z</time>
      </trkpt>
      <trkpt lat="45.30358" lon="5.01726">
        <ele>256.64700317383</ele>
        <time>2009-10-14T13:03:43Z</time>
      </trkpt>
      <trkpt lat="45.30347" lon="5.01786">
        <ele>258.69799804688</ele>
        <time>2009-10-14T13:03:52Z</time>
      </trkpt>
      <trkpt lat="45.30335" lon="5.01845">
        <ele>260.07299804688</ele>
        <time>2009-10-14T13:04:01Z</time>
      </trkpt>
      <trkpt lat="45.30322" lon="5.01905">
        <ele>261.57699584961</ele>
        <time>2009-10-14T13:04:10Z</time>
      </trkpt>
      <trkpt lat="45.3031" lon="5.01953">
        <ele>261.77700805664</ele>
        <time>2009-10-14T13:04:17Z</time>
      </trkpt>
      <trkpt lat="45.30296" lon="5.02015">
        <ele>263.15798950195</ele>
        <time>2009-10-14T13:04:26Z</time>
      </trkpt>
      <trkpt lat="45.30281" lon="5.02077">
        <ele>263.67498779297</ele>
        <time>2009-10-14T13:04:35Z</time>
      </trkpt>
      <trkpt lat="45.30265" lon="5.02144">
        <ele>264.60998535156</ele>
        <time>2009-10-14T13:04:44Z</time>
      </trkpt>
      <trkpt lat="45.30249" lon="5.02223">
        <ele>265.60598754883</ele>
        <time>2009-10-14T13:04:54Z</time>
      </trkpt>
      <trkpt lat="45.3023" lon="5.02321">
        <ele>266.89599609375</ele>
        <time>2009-10-14T13:05:06Z</time>
      </trkpt>
      <trkpt lat="45.30212" lon="5.02412">
        <ele>267.52801513672</ele>
        <time>2009-10-14T13:05:17Z</time>
      </trkpt>
      <trkpt lat="45.30204" lon="5.02454">
        <ele>267.76501464844</ele>
        <time>2009-10-14T13:05:22Z</time>
      </trkpt>
      <trkpt lat="45.30188" lon="5.02537">
        <ele>269.39199829102</ele>
        <time>2009-10-14T13:05:32Z</time>
      </trkpt>
      <trkpt lat="45.30177" lon="5.02595">
        <ele>270.10800170898</ele>
        <time>2009-10-14T13:05:39Z</time>
      </trkpt>
      <trkpt lat="45.30153" lon="5.02676">
        <ele>271.0539855957</ele>
        <time>2009-10-14T13:05:49Z</time>
      </trkpt>
      <trkpt lat="45.30125" lon="5.02753">
        <ele>272.19100952148</ele>
        <time>2009-10-14T13:05:59Z</time>
      </trkpt>
      <trkpt lat="45.30099" lon="5.02823">
        <ele>272.83200073242</ele>
        <time>2009-10-14T13:06:08Z</time>
      </trkpt>
      <trkpt lat="45.3007" lon="5.02887">
        <ele>273.88800048828</ele>
        <time>2009-10-14T13:06:17Z</time>
      </trkpt>
      <trkpt lat="45.30044" lon="5.02942">
        <ele>274.54400634766</ele>
        <time>2009-10-14T13:06:25Z</time>
      </trkpt>
      <trkpt lat="45.30027" lon="5.02977">
        <ele>275.70700073242</ele>
        <time>2009-10-14T13:06:31Z</time>
      </trkpt>
      <trkpt lat="45.30009" lon="5.03007">
        <ele>276.2619934082</ele>
        <time>2009-10-14T13:06:38Z</time>
      </trkpt>
      <trkpt lat="45.29998" lon="5.03028">
        <ele>277.25500488281</ele>
        <time>2009-10-14T13:06:43Z</time>
      </trkpt>
      <trkpt lat="45.29982" lon="5.03053">
        <ele>277.68200683594</ele>
        <time>2009-10-14T13:06:48Z</time>
      </trkpt>
      <trkpt lat="45.29947" lon="5.03086">
        <ele>278.25201416016</ele>
        <time>2009-10-14T13:06:56Z</time>
      </trkpt>
      <trkpt lat="45.29898" lon="5.03129">
        <ele>279.67498779297</ele>
        <time>2009-10-14T13:07:06Z</time>
      </trkpt>
      <trkpt lat="45.2985" lon="5.03165">
        <ele>280.53201293945</ele>
        <time>2009-10-14T13:07:15Z</time>
      </trkpt>
      <trkpt lat="45.29798" lon="5.03207">
        <ele>282.10998535156</ele>
        <time>2009-10-14T13:07:25Z</time>
      </trkpt>
      <trkpt lat="45.29749" lon="5.03259">
        <ele>282.96701049805</ele>
        <time>2009-10-14T13:07:35Z</time>
      </trkpt>
      <trkpt lat="45.29705" lon="5.03305">
        <ele>284.16299438477</ele>
        <time>2009-10-14T13:07:44Z</time>
      </trkpt>
      <trkpt lat="45.2966" lon="5.03354">
        <ele>285.94500732422</ele>
        <time>2009-10-14T13:07:54Z</time>
      </trkpt>
      <trkpt lat="45.29625" lon="5.03391">
        <ele>286.46798706055</ele>
        <time>2009-10-14T13:08:02Z</time>
      </trkpt>
      <trkpt lat="45.29585" lon="5.03432">
        <ele>287.31500244141</ele>
        <time>2009-10-14T13:08:11Z</time>
      </trkpt>
      <trkpt lat="45.29545" lon="5.03478">
        <ele>289.02301025391</ele>
        <time>2009-10-14T13:08:20Z</time>
      </trkpt>
      <trkpt lat="45.29511" lon="5.03521">
        <ele>289.43499755859</ele>
        <time>2009-10-14T13:08:28Z</time>
      </trkpt>
      <trkpt lat="45.2948" lon="5.03551">
        <ele>290.96600341797</ele>
        <time>2009-10-14T13:08:35Z</time>
      </trkpt>
      <trkpt lat="45.2944" lon="5.03584">
        <ele>292.71499633789</ele>
        <time>2009-10-14T13:08:44Z</time>
      </trkpt>
      <trkpt lat="45.29413" lon="5.03619">
        <ele>293.69198608398</ele>
        <time>2009-10-14T13:08:51Z</time>
      </trkpt>
      <trkpt lat="45.2938" lon="5.03697">
        <ele>294.40399169922</ele>
        <time>2009-10-14T13:09:02Z</time>
      </trkpt>
      <trkpt lat="45.29342" lon="5.03794">
        <ele>296.18798828125</ele>
        <time>2009-10-14T13:09:15Z</time>
      </trkpt>
      <trkpt lat="45.29311" lon="5.03869">
        <ele>296.98901367188</ele>
        <time>2009-10-14T13:09:25Z</time>
      </trkpt>
      <trkpt lat="45.29284" lon="5.03936">
        <ele>297.68798828125</ele>
        <time>2009-10-14T13:09:34Z</time>
      </trkpt>
      <trkpt lat="45.29261" lon="5.03991">
        <ele>298.40899658203</ele>
        <time>2009-10-14T13:09:42Z</time>
      </trkpt>
      <trkpt lat="45.29244" lon="5.04033">
        <ele>300.13598632812</ele>
        <time>2009-10-14T13:09:49Z</time>
      </trkpt>
      <trkpt lat="45.29226" lon="5.04078">
        <ele>302.03500366211</ele>
        <time>2009-10-14T13:09:57Z</time>
      </trkpt>
      <trkpt lat="45.29206" lon="5.04119">
        <ele>304.23300170898</ele>
        <time>2009-10-14T13:10:05Z</time>
      </trkpt>
      <trkpt lat="45.29186" lon="5.0416">
        <ele>306.05899047852</ele>
        <time>2009-10-14T13:10:13Z</time>
      </trkpt>
      <trkpt lat="45.29168" lon="5.04198">
        <ele>306.52600097656</ele>
        <time>2009-10-14T13:10:20Z</time>
      </trkpt>
      <trkpt lat="45.29159" lon="5.04222">
        <ele>306.43798828125</ele>
        <time>2009-10-14T13:10:24Z</time>
      </trkpt>
      <trkpt lat="45.29155" lon="5.04258">
        <ele>307.08499145508</ele>
        <time>2009-10-14T13:10:30Z</time>
      </trkpt>
      <trkpt lat="45.29149" lon="5.04276">
        <ele>308.21398925781</ele>
        <time>2009-10-14T13:10:34Z</time>
      </trkpt>
      <trkpt lat="45.29151" lon="5.04285">
        <ele>307.72100830078</ele>
        <time>2009-10-14T13:10:36Z</time>
      </trkpt>
      <trkpt lat="45.29154" lon="5.04311">
        <ele>308.51000976562</ele>
        <time>2009-10-14T13:10:41Z</time>
      </trkpt>
      <trkpt lat="45.2915" lon="5.04359">
        <ele>311.17300415039</ele>
        <time>2009-10-14T13:10:50Z</time>
      </trkpt>
      <trkpt lat="45.29147" lon="5.04393">
        <ele>312.07598876953</ele>
        <time>2009-10-14T13:10:56Z</time>
      </trkpt>
      <trkpt lat="45.29144" lon="5.04428">
        <ele>313.06698608398</ele>
        <time>2009-10-14T13:11:02Z</time>
      </trkpt>
      <trkpt lat="45.29142" lon="5.0446">
        <ele>313.125</ele>
        <time>2009-10-14T13:11:08Z</time>
      </trkpt>
      <trkpt lat="45.29137" lon="5.04501">
        <ele>313.36401367188</ele>
        <time>2009-10-14T13:11:15Z</time>
      </trkpt>
      <trkpt lat="45.29133" lon="5.04552">
        <ele>313.53900146484</ele>
        <time>2009-10-14T13:11:23Z</time>
      </trkpt>
      <trkpt lat="45.29129" lon="5.04594">
        <ele>314.48699951172</ele>
        <time>2009-10-14T13:11:29Z</time>
      </trkpt>
      <trkpt lat="45.29124" lon="5.04654">
        <ele>313.93200683594</ele>
        <time>2009-10-14T13:11:37Z</time>
      </trkpt>
      <trkpt lat="45.29122" lon="5.04721">
        <ele>314.9169921875</ele>
        <time>2009-10-14T13:11:46Z</time>
      </trkpt>
      <trkpt lat="45.29127" lon="5.04775">
        <ele>314.94100952148</ele>
        <time>2009-10-14T13:11:53Z</time>
      </trkpt>
      <trkpt lat="45.29136" lon="5.04847">
        <ele>315.12399291992</ele>
        <time>2009-10-14T13:12:01Z</time>
      </trkpt>
      <trkpt lat="45.29146" lon="5.04922">
        <ele>314.62600708008</ele>
        <time>2009-10-14T13:12:09Z</time>
      </trkpt>
      <trkpt lat="45.29148" lon="5.04931">
        <ele>314.64700317383</ele>
        <time>2009-10-14T13:12:10Z</time>
      </trkpt>
      <trkpt lat="45.29168" lon="5.0499">
        <ele>315.32000732422</ele>
        <time>2009-10-14T13:12:17Z</time>
      </trkpt>
      <trkpt lat="45.29188" lon="5.05041">
        <ele>316.57501220703</ele>
        <time>2009-10-14T13:12:23Z</time>
      </trkpt>
      <trkpt lat="45.2922" lon="5.05145">
        <ele>316.91101074219</ele>
        <time>2009-10-14T13:12:34Z</time>
      </trkpt>
      <trkpt lat="45.29234" lon="5.05207">
        <ele>318.15100097656</ele>
        <time>2009-10-14T13:12:41Z</time>
      </trkpt>
      <trkpt lat="45.29242" lon="5.05252">
        <ele>319.0830078125</ele>
        <time>2009-10-14T13:12:47Z</time>
      </trkpt>
      <trkpt lat="45.29251" lon="5.053">
        <ele>321.0530090332</ele>
        <time>2009-10-14T13:12:54Z</time>
      </trkpt>
      <trkpt lat="45.29258" lon="5.05324">
        <ele>322.27099609375</ele>
        <time>2009-10-14T13:12:59Z</time>
      </trkpt>
      <trkpt lat="45.29263" lon="5.05339">
        <ele>322.06900024414</ele>
        <time>2009-10-14T13:13:02Z</time>
      </trkpt>
      <trkpt lat="45.29265" lon="5.0535">
        <ele>322.13101196289</ele>
        <time>2009-10-14T13:13:04Z</time>
      </trkpt>
      <trkpt lat="45.29269" lon="5.05397">
        <ele>321.44500732422</ele>
        <time>2009-10-14T13:13:11Z</time>
      </trkpt>
      <trkpt lat="45.29269" lon="5.05403">
        <ele>321.74301147461</ele>
        <time>2009-10-14T13:13:12Z</time>
      </trkpt>
      <trkpt lat="45.29257" lon="5.05451">
        <ele>321.25601196289</ele>
        <time>2009-10-14T13:13:19Z</time>
      </trkpt>
      <trkpt lat="45.29248" lon="5.05478">
        <ele>320.80499267578</ele>
        <time>2009-10-14T13:13:23Z</time>
      </trkpt>
      <trkpt lat="45.29233" lon="5.05519">
        <ele>321.72799682617</ele>
        <time>2009-10-14T13:13:29Z</time>
      </trkpt>
      <trkpt lat="45.29229" lon="5.05557">
        <ele>322.64898681641</ele>
        <time>2009-10-14T13:13:34Z</time>
      </trkpt>
      <trkpt lat="45.2923" lon="5.05565">
        <ele>322.73001098633</ele>
        <time>2009-10-14T13:13:35Z</time>
      </trkpt>
      <trkpt lat="45.29237" lon="5.05635">
        <ele>323.80499267578</ele>
        <time>2009-10-14T13:13:44Z</time>
      </trkpt>
      <trkpt lat="45.29234" lon="5.05705">
        <ele>325.14999389648</ele>
        <time>2009-10-14T13:13:52Z</time>
      </trkpt>
      <trkpt lat="45.29234" lon="5.05783">
        <ele>324.36199951172</ele>
        <time>2009-10-14T13:14:00Z</time>
      </trkpt>
      <trkpt lat="45.29236" lon="5.05877">
        <ele>323.81799316406</ele>
        <time>2009-10-14T13:14:09Z</time>
      </trkpt>
      <trkpt lat="45.29235" lon="5.05888">
        <ele>323.75100708008</ele>
        <time>2009-10-14T13:14:10Z</time>
      </trkpt>
      <trkpt lat="45.29219" lon="5.05937">
        <ele>323.31298828125</ele>
        <time>2009-10-14T13:14:15Z</time>
      </trkpt>
      <trkpt lat="45.29215" lon="5.05946">
        <ele>323.67401123047</ele>
        <time>2009-10-14T13:14:16Z</time>
      </trkpt>
      <trkpt lat="45.29203" lon="5.05998">
        <ele>323.40399169922</ele>
        <time>2009-10-14T13:14:21Z</time>
      </trkpt>
      <trkpt lat="45.29203" lon="5.06009">
        <ele>323.43600463867</ele>
        <time>2009-10-14T13:14:22Z</time>
      </trkpt>
      <trkpt lat="45.292" lon="5.06106">
        <ele>324.86999511719</ele>
        <time>2009-10-14T13:14:31Z</time>
      </trkpt>
      <trkpt lat="45.292" lon="5.0618">
        <ele>326.35800170898</ele>
        <time>2009-10-14T13:14:39Z</time>
      </trkpt>
      <trkpt lat="45.29197" lon="5.0624">
        <ele>328.05899047852</ele>
        <time>2009-10-14T13:14:46Z</time>
      </trkpt>
      <trkpt lat="45.29182" lon="5.06294">
        <ele>328.73001098633</ele>
        <time>2009-10-14T13:14:53Z</time>
      </trkpt>
      <trkpt lat="45.2918" lon="5.06325">
        <ele>329.80899047852</ele>
        <time>2009-10-14T13:14:57Z</time>
      </trkpt>
      <trkpt lat="45.29189" lon="5.06378">
        <ele>331.03698730469</ele>
        <time>2009-10-14T13:15:04Z</time>
      </trkpt>
      <trkpt lat="45.29191" lon="5.06394">
        <ele>331.25201416016</ele>
        <time>2009-10-14T13:15:06Z</time>
      </trkpt>
      <trkpt lat="45.29191" lon="5.06425">
        <ele>331.77600097656</ele>
        <time>2009-10-14T13:15:10Z</time>
      </trkpt>
      <trkpt lat="45.29178" lon="5.06468">
        <ele>333.04998779297</ele>
        <time>2009-10-14T13:15:16Z</time>
      </trkpt>
      <trkpt lat="45.29168" lon="5.06507">
        <ele>333.90100097656</ele>
        <time>2009-10-14T13:15:22Z</time>
      </trkpt>
      <trkpt lat="45.2916" lon="5.06548">
        <ele>334.8219909668</ele>
        <time>2009-10-14T13:15:28Z</time>
      </trkpt>
      <trkpt lat="45.29152" lon="5.06592">
        <ele>336.20199584961</ele>
        <time>2009-10-14T13:15:34Z</time>
      </trkpt>
      <trkpt lat="45.29139" lon="5.06661">
        <ele>337.34100341797</ele>
        <time>2009-10-14T13:15:43Z</time>
      </trkpt>
      <trkpt lat="45.29134" lon="5.06716">
        <ele>338.5719909668</ele>
        <time>2009-10-14T13:15:50Z</time>
      </trkpt>
      <trkpt lat="45.29138" lon="5.06777">
        <ele>339.71798706055</ele>
        <time>2009-10-14T13:15:58Z</time>
      </trkpt>
      <trkpt lat="45.29145" lon="5.0687">
        <ele>341.47198486328</ele>
        <time>2009-10-14T13:16:10Z</time>
      </trkpt>
      <trkpt lat="45.29152" lon="5.06931">
        <ele>342.53601074219</ele>
        <time>2009-10-14T13:16:18Z</time>
      </trkpt>
      <trkpt lat="45.29161" lon="5.07006">
        <ele>344.70599365234</ele>
        <time>2009-10-14T13:16:28Z</time>
      </trkpt>
      <trkpt lat="45.29172" lon="5.07066">
        <ele>345.80801391602</ele>
        <time>2009-10-14T13:16:36Z</time>
      </trkpt>
      <trkpt lat="45.29182" lon="5.07127">
        <ele>346.68899536133</ele>
        <time>2009-10-14T13:16:44Z</time>
      </trkpt>
      <trkpt lat="45.29192" lon="5.07203">
        <ele>346.76998901367</ele>
        <time>2009-10-14T13:16:53Z</time>
      </trkpt>
      <trkpt lat="45.292" lon="5.07278">
        <ele>347.73498535156</ele>
        <time>2009-10-14T13:17:02Z</time>
      </trkpt>
      <trkpt lat="45.29205" lon="5.07319">
        <ele>348.5530090332</ele>
        <time>2009-10-14T13:17:07Z</time>
      </trkpt>
      <trkpt lat="45.29212" lon="5.07343">
        <ele>348.89700317383</ele>
        <time>2009-10-14T13:17:10Z</time>
      </trkpt>
      <trkpt lat="45.29231" lon="5.07392">
        <ele>350.16900634766</ele>
        <time>2009-10-14T13:17:17Z</time>
      </trkpt>
      <trkpt lat="45.29233" lon="5.07399">
        <ele>350.39300537109</ele>
        <time>2009-10-14T13:17:18Z</time>
      </trkpt>
      <trkpt lat="45.29239" lon="5.07422">
        <ele>350.73999023438</ele>
        <time>2009-10-14T13:17:21Z</time>
      </trkpt>
      <trkpt lat="45.29242" lon="5.07497">
        <ele>351.65899658203</ele>
        <time>2009-10-14T13:17:30Z</time>
      </trkpt>
      <trkpt lat="45.29242" lon="5.07564">
        <ele>351.85800170898</ele>
        <time>2009-10-14T13:17:38Z</time>
      </trkpt>
      <trkpt lat="45.2924" lon="5.07629">
        <ele>351.93399047852</ele>
        <time>2009-10-14T13:17:45Z</time>
      </trkpt>
      <trkpt lat="45.29242" lon="5.07693">
        <ele>352.37399291992</ele>
        <time>2009-10-14T13:17:52Z</time>
      </trkpt>
      <trkpt lat="45.29255" lon="5.07737">
        <ele>352.4169921875</ele>
        <time>2009-10-14T13:17:57Z</time>
      </trkpt>
      <trkpt lat="45.29282" lon="5.07795">
        <ele>352.53399658203</ele>
        <time>2009-10-14T13:18:04Z</time>
      </trkpt>
      <trkpt lat="45.29289" lon="5.07812">
        <ele>352.80700683594</ele>
        <time>2009-10-14T13:18:06Z</time>
      </trkpt>
      <trkpt lat="45.29297" lon="5.07848">
        <ele>353.29901123047</ele>
        <time>2009-10-14T13:18:10Z</time>
      </trkpt>
      <trkpt lat="45.29304" lon="5.07912">
        <ele>355.11199951172</ele>
        <time>2009-10-14T13:18:18Z</time>
      </trkpt>
      <trkpt lat="45.29307" lon="5.07965">
        <ele>354.10299682617</ele>
        <time>2009-10-14T13:18:24Z</time>
      </trkpt>
      <trkpt lat="45.29314" lon="5.08034">
        <ele>354.0419921875</ele>
        <time>2009-10-14T13:18:31Z</time>
      </trkpt>
      <trkpt lat="45.29329" lon="5.08079">
        <ele>354.7619934082</ele>
        <time>2009-10-14T13:18:36Z</time>
      </trkpt>
      <trkpt lat="45.29342" lon="5.0813">
        <ele>355.84201049805</ele>
        <time>2009-10-14T13:18:42Z</time>
      </trkpt>
      <trkpt lat="45.29346" lon="5.08186">
        <ele>355.58499145508</ele>
        <time>2009-10-14T13:18:48Z</time>
      </trkpt>
      <trkpt lat="45.29339" lon="5.08237">
        <ele>354.95001220703</ele>
        <time>2009-10-14T13:18:53Z</time>
      </trkpt>
      <trkpt lat="45.29325" lon="5.08326">
        <ele>355.5710144043</ele>
        <time>2009-10-14T13:19:02Z</time>
      </trkpt>
      <trkpt lat="45.29309" lon="5.08409">
        <ele>355.94900512695</ele>
        <time>2009-10-14T13:19:11Z</time>
      </trkpt>
      <trkpt lat="45.29304" lon="5.08468">
        <ele>357.24398803711</ele>
        <time>2009-10-14T13:19:18Z</time>
      </trkpt>
      <trkpt lat="45.29311" lon="5.08512">
        <ele>356.57000732422</ele>
        <time>2009-10-14T13:19:23Z</time>
      </trkpt>
      <trkpt lat="45.29336" lon="5.08588">
        <ele>357.10198974609</ele>
        <time>2009-10-14T13:19:32Z</time>
      </trkpt>
      <trkpt lat="45.29364" lon="5.08672">
        <ele>359.3210144043</ele>
        <time>2009-10-14T13:19:42Z</time>
      </trkpt>
      <trkpt lat="45.29385" lon="5.08733">
        <ele>361.30700683594</ele>
        <time>2009-10-14T13:19:50Z</time>
      </trkpt>
      <trkpt lat="45.29412" lon="5.08826">
        <ele>363.1669921875</ele>
        <time>2009-10-14T13:20:02Z</time>
      </trkpt>
      <trkpt lat="45.29419" lon="5.08884">
        <ele>364.57400512695</ele>
        <time>2009-10-14T13:20:09Z</time>
      </trkpt>
      <trkpt lat="45.29422" lon="5.08948">
        <ele>364.60800170898</ele>
        <time>2009-10-14T13:20:16Z</time>
      </trkpt>
      <trkpt lat="45.29425" lon="5.08966">
        <ele>364.28601074219</ele>
        <time>2009-10-14T13:20:18Z</time>
      </trkpt>
      <trkpt lat="45.29432" lon="5.08994">
        <ele>364.27200317383</ele>
        <time>2009-10-14T13:20:21Z</time>
      </trkpt>
      <trkpt lat="45.2945" lon="5.09052">
        <ele>366.57998657227</ele>
        <time>2009-10-14T13:20:28Z</time>
      </trkpt>
      <trkpt lat="45.29465" lon="5.09124">
        <ele>368.92700195312</ele>
        <time>2009-10-14T13:20:37Z</time>
      </trkpt>
      <trkpt lat="45.29473" lon="5.09161">
        <ele>370.22900390625</ele>
        <time>2009-10-14T13:20:42Z</time>
      </trkpt>
      <trkpt lat="45.29483" lon="5.09203">
        <ele>370.61099243164</ele>
        <time>2009-10-14T13:20:49Z</time>
      </trkpt>
      <trkpt lat="45.29485" lon="5.09208">
        <ele>370.58401489258</ele>
        <time>2009-10-14T13:20:50Z</time>
      </trkpt>
      <trkpt lat="45.29496" lon="5.09254">
        <ele>370.94299316406</ele>
        <time>2009-10-14T13:20:58Z</time>
      </trkpt>
      <trkpt lat="45.29508" lon="5.09302">
        <ele>371.02398681641</ele>
        <time>2009-10-14T13:21:05Z</time>
      </trkpt>
      <trkpt lat="45.29521" lon="5.09354">
        <ele>371.60501098633</ele>
        <time>2009-10-14T13:21:12Z</time>
      </trkpt>
      <trkpt lat="45.29532" lon="5.09399">
        <ele>372.60501098633</ele>
        <time>2009-10-14T13:21:18Z</time>
      </trkpt>
      <trkpt lat="45.29556" lon="5.09482">
        <ele>374.12701416016</ele>
        <time>2009-10-14T13:21:29Z</time>
      </trkpt>
      <trkpt lat="45.29559" lon="5.09489">
        <ele>374.16101074219</ele>
        <time>2009-10-14T13:21:30Z</time>
      </trkpt>
      <trkpt lat="45.29589" lon="5.09565">
        <ele>375.25799560547</ele>
        <time>2009-10-14T13:21:40Z</time>
      </trkpt>
      <trkpt lat="45.2963" lon="5.09659">
        <ele>376.72698974609</ele>
        <time>2009-10-14T13:21:52Z</time>
      </trkpt>
      <trkpt lat="45.29647" lon="5.09707">
        <ele>378.11199951172</ele>
        <time>2009-10-14T13:21:58Z</time>
      </trkpt>
      <trkpt lat="45.2966" lon="5.0975">
        <ele>378.0830078125</ele>
        <time>2009-10-14T13:22:03Z</time>
      </trkpt>
      <trkpt lat="45.29665" lon="5.09768">
        <ele>378.36999511719</ele>
        <time>2009-10-14T13:22:05Z</time>
      </trkpt>
      <trkpt lat="45.29672" lon="5.09823">
        <ele>378.46600341797</ele>
        <time>2009-10-14T13:22:11Z</time>
      </trkpt>
      <trkpt lat="45.29685" lon="5.09864">
        <ele>378.77499389648</ele>
        <time>2009-10-14T13:22:16Z</time>
      </trkpt>
      <trkpt lat="45.29688" lon="5.09869">
        <ele>378.84201049805</ele>
        <time>2009-10-14T13:22:17Z</time>
      </trkpt>
      <trkpt lat="45.29707" lon="5.09893">
        <ele>379.68600463867</ele>
        <time>2009-10-14T13:22:23Z</time>
      </trkpt>
      <trkpt lat="45.2972" lon="5.09919">
        <ele>379.99600219727</ele>
        <time>2009-10-14T13:22:29Z</time>
      </trkpt>
      <trkpt lat="45.29728" lon="5.09945">
        <ele>380.46099853516</ele>
        <time>2009-10-14T13:22:34Z</time>
      </trkpt>
      <trkpt lat="45.29737" lon="5.09985">
        <ele>382.23400878906</ele>
        <time>2009-10-14T13:22:41Z</time>
      </trkpt>
      <trkpt lat="45.29744" lon="5.1001">
        <ele>383.63900756836</ele>
        <time>2009-10-14T13:22:46Z</time>
      </trkpt>
      <trkpt lat="45.29755" lon="5.10043">
        <ele>384.64599609375</ele>
        <time>2009-10-14T13:22:52Z</time>
      </trkpt>
      <trkpt lat="45.29763" lon="5.10071">
        <ele>385.59399414062</ele>
        <time>2009-10-14T13:22:57Z</time>
      </trkpt>
      <trkpt lat="45.29776" lon="5.10112">
        <ele>385.45001220703</ele>
        <time>2009-10-14T13:23:03Z</time>
      </trkpt>
      <trkpt lat="45.29794" lon="5.10177">
        <ele>385.49499511719</ele>
        <time>2009-10-14T13:23:11Z</time>
      </trkpt>
      <trkpt lat="45.29818" lon="5.10237">
        <ele>386.53298950195</ele>
        <time>2009-10-14T13:23:19Z</time>
      </trkpt>
      <trkpt lat="45.29843" lon="5.10272">
        <ele>387.79098510742</ele>
        <time>2009-10-14T13:23:25Z</time>
      </trkpt>
      <trkpt lat="45.29889" lon="5.10322">
        <ele>389.67300415039</ele>
        <time>2009-10-14T13:23:35Z</time>
      </trkpt>
      <trkpt lat="45.29901" lon="5.1034">
        <ele>389.95401000977</ele>
        <time>2009-10-14T13:23:38Z</time>
      </trkpt>
      <trkpt lat="45.29925" lon="5.10399">
        <ele>390.4469909668</ele>
        <time>2009-10-14T13:23:46Z</time>
      </trkpt>
      <trkpt lat="45.29946" lon="5.10453">
        <ele>390.94198608398</ele>
        <time>2009-10-14T13:23:53Z</time>
      </trkpt>
      <trkpt lat="45.29978" lon="5.10523">
        <ele>392.39401245117</ele>
        <time>2009-10-14T13:24:03Z</time>
      </trkpt>
      <trkpt lat="45.30006" lon="5.10584">
        <ele>394.04000854492</ele>
        <time>2009-10-14T13:24:12Z</time>
      </trkpt>
      <trkpt lat="45.30013" lon="5.10596">
        <ele>394.51699829102</ele>
        <time>2009-10-14T13:24:14Z</time>
      </trkpt>
      <trkpt lat="45.30031" lon="5.10653">
        <ele>395.375</ele>
        <time>2009-10-14T13:24:22Z</time>
      </trkpt>
      <trkpt lat="45.30045" lon="5.10705">
        <ele>396.88101196289</ele>
        <time>2009-10-14T13:24:29Z</time>
      </trkpt>
      <trkpt lat="45.30048" lon="5.10745">
        <ele>397.02700805664</ele>
        <time>2009-10-14T13:24:34Z</time>
      </trkpt>
      <trkpt lat="45.30038" lon="5.10812">
        <ele>396.42001342773</ele>
        <time>2009-10-14T13:24:42Z</time>
      </trkpt>
      <trkpt lat="45.30022" lon="5.10905">
        <ele>397.9049987793</ele>
        <time>2009-10-14T13:24:53Z</time>
      </trkpt>
      <trkpt lat="45.30014" lon="5.10969">
        <ele>398.53900146484</ele>
        <time>2009-10-14T13:25:01Z</time>
      </trkpt>
      <trkpt lat="45.30012" lon="5.11039">
        <ele>398.22399902344</ele>
        <time>2009-10-14T13:25:09Z</time>
      </trkpt>
      <trkpt lat="45.30012" lon="5.11108">
        <ele>398.88299560547</ele>
        <time>2009-10-14T13:25:17Z</time>
      </trkpt>
      <trkpt lat="45.30008" lon="5.11143">
        <ele>399.20700073242</ele>
        <time>2009-10-14T13:25:21Z</time>
      </trkpt>
      <trkpt lat="45.29992" lon="5.11187">
        <ele>398.93399047852</ele>
        <time>2009-10-14T13:25:27Z</time>
      </trkpt>
      <trkpt lat="45.29975" lon="5.11219">
        <ele>398.97198486328</ele>
        <time>2009-10-14T13:25:33Z</time>
      </trkpt>
      <trkpt lat="45.2997" lon="5.1123">
        <ele>398.96099853516</ele>
        <time>2009-10-14T13:25:35Z</time>
      </trkpt>
      <trkpt lat="45.29963" lon="5.11261">
        <ele>400.04400634766</ele>
        <time>2009-10-14T13:25:39Z</time>
      </trkpt>
      <trkpt lat="45.29963" lon="5.11306">
        <ele>400.87298583984</ele>
        <time>2009-10-14T13:25:45Z</time>
      </trkpt>
      <trkpt lat="45.2996" lon="5.11372">
        <ele>401.00201416016</ele>
        <time>2009-10-14T13:25:53Z</time>
      </trkpt>
      <trkpt lat="45.2995" lon="5.11429">
        <ele>401.34899902344</ele>
        <time>2009-10-14T13:26:00Z</time>
      </trkpt>
      <trkpt lat="45.29938" lon="5.11489">
        <ele>401.4289855957</ele>
        <time>2009-10-14T13:26:07Z</time>
      </trkpt>
      <trkpt lat="45.29927" lon="5.11544">
        <ele>402.02600097656</ele>
        <time>2009-10-14T13:26:13Z</time>
      </trkpt>
      <trkpt lat="45.29913" lon="5.1161">
        <ele>402.41799926758</ele>
        <time>2009-10-14T13:26:20Z</time>
      </trkpt>
      <trkpt lat="45.29901" lon="5.11689">
        <ele>404.10598754883</ele>
        <time>2009-10-14T13:26:29Z</time>
      </trkpt>
      <trkpt lat="45.29893" lon="5.11765">
        <ele>405.92401123047</ele>
        <time>2009-10-14T13:26:38Z</time>
      </trkpt>
      <trkpt lat="45.29887" lon="5.1182">
        <ele>407.37899780273</ele>
        <time>2009-10-14T13:26:45Z</time>
      </trkpt>
      <trkpt lat="45.29879" lon="5.11895">
        <ele>408.43099975586</ele>
        <time>2009-10-14T13:26:55Z</time>
      </trkpt>
      <trkpt lat="45.29873" lon="5.11963">
        <ele>409.45098876953</ele>
        <time>2009-10-14T13:27:04Z</time>
      </trkpt>
      <trkpt lat="45.29873" lon="5.1201">
        <ele>410.6669921875</ele>
        <time>2009-10-14T13:27:10Z</time>
      </trkpt>
      <trkpt lat="45.29881" lon="5.12073">
        <ele>412.25900268555</ele>
        <time>2009-10-14T13:27:18Z</time>
      </trkpt>
      <trkpt lat="45.29893" lon="5.12161">
        <ele>412.41900634766</ele>
        <time>2009-10-14T13:27:28Z</time>
      </trkpt>
      <trkpt lat="45.29898" lon="5.12234">
        <ele>412.08599853516</ele>
        <time>2009-10-14T13:27:36Z</time>
      </trkpt>
      <trkpt lat="45.29896" lon="5.12286">
        <ele>412.43499755859</ele>
        <time>2009-10-14T13:27:42Z</time>
      </trkpt>
      <trkpt lat="45.2989" lon="5.12366">
        <ele>413.57699584961</ele>
        <time>2009-10-14T13:27:51Z</time>
      </trkpt>
      <trkpt lat="45.29891" lon="5.12384">
        <ele>413.89401245117</ele>
        <time>2009-10-14T13:27:53Z</time>
      </trkpt>
      <trkpt lat="45.29894" lon="5.12411">
        <ele>414.3330078125</ele>
        <time>2009-10-14T13:27:56Z</time>
      </trkpt>
      <trkpt lat="45.29897" lon="5.12428">
        <ele>414.49899291992</ele>
        <time>2009-10-14T13:27:58Z</time>
      </trkpt>
      <trkpt lat="45.29899" lon="5.12445">
        <ele>414.47100830078</ele>
        <time>2009-10-14T13:28:00Z</time>
      </trkpt>
      <trkpt lat="45.29901" lon="5.12479">
        <ele>414.53100585938</ele>
        <time>2009-10-14T13:28:04Z</time>
      </trkpt>
      <trkpt lat="45.29894" lon="5.1253">
        <ele>415.43301391602</ele>
        <time>2009-10-14T13:28:10Z</time>
      </trkpt>
      <trkpt lat="45.29879" lon="5.12574">
        <ele>416.56900024414</ele>
        <time>2009-10-14T13:28:16Z</time>
      </trkpt>
      <trkpt lat="45.29873" lon="5.12597">
        <ele>416.80999755859</ele>
        <time>2009-10-14T13:28:19Z</time>
      </trkpt>
      <trkpt lat="45.29869" lon="5.12643">
        <ele>417.71200561523</ele>
        <time>2009-10-14T13:28:25Z</time>
      </trkpt>
      <trkpt lat="45.29864" lon="5.12671">
        <ele>418.4469909668</ele>
        <time>2009-10-14T13:28:29Z</time>
      </trkpt>
      <trkpt lat="45.29845" lon="5.12699">
        <ele>419.60900878906</ele>
        <time>2009-10-14T13:28:34Z</time>
      </trkpt>
      <trkpt lat="45.29834" lon="5.12728">
        <ele>420.60000610352</ele>
        <time>2009-10-14T13:28:38Z</time>
      </trkpt>
      <trkpt lat="45.29829" lon="5.12785">
        <ele>421.31799316406</ele>
        <time>2009-10-14T13:28:45Z</time>
      </trkpt>
      <trkpt lat="45.29829" lon="5.12853">
        <ele>422.34899902344</ele>
        <time>2009-10-14T13:28:53Z</time>
      </trkpt>
      <trkpt lat="45.29834" lon="5.12891">
        <ele>422.9700012207</ele>
        <time>2009-10-14T13:28:58Z</time>
      </trkpt>
      <trkpt lat="45.29836" lon="5.12917">
        <ele>423.03799438477</ele>
        <time>2009-10-14T13:29:01Z</time>
      </trkpt>
      <trkpt lat="45.29831" lon="5.12957">
        <ele>423.48098754883</ele>
        <time>2009-10-14T13:29:06Z</time>
      </trkpt>
      <trkpt lat="45.29829" lon="5.12987">
        <ele>423.85699462891</ele>
        <time>2009-10-14T13:29:10Z</time>
      </trkpt>
      <trkpt lat="45.29827" lon="5.1302">
        <ele>423.91400146484</ele>
        <time>2009-10-14T13:29:14Z</time>
      </trkpt>
      <trkpt lat="45.29828" lon="5.13036">
        <ele>423.96899414062</ele>
        <time>2009-10-14T13:29:16Z</time>
      </trkpt>
      <trkpt lat="45.29831" lon="5.13051">
        <ele>424.57400512695</ele>
        <time>2009-10-14T13:29:18Z</time>
      </trkpt>
      <trkpt lat="45.29837" lon="5.13101">
        <ele>425.23599243164</ele>
        <time>2009-10-14T13:29:24Z</time>
      </trkpt>
      <trkpt lat="45.29841" lon="5.1312">
        <ele>425.31900024414</ele>
        <time>2009-10-14T13:29:26Z</time>
      </trkpt>
      <trkpt lat="45.2985" lon="5.13161">
        <ele>425.35000610352</ele>
        <time>2009-10-14T13:29:31Z</time>
      </trkpt>
      <trkpt lat="45.29852" lon="5.1317">
        <ele>425.99700927734</ele>
        <time>2009-10-14T13:29:32Z</time>
      </trkpt>
      <trkpt lat="45.29863" lon="5.13219">
        <ele>426.93499755859</ele>
        <time>2009-10-14T13:29:38Z</time>
      </trkpt>
      <trkpt lat="45.29871" lon="5.13277">
        <ele>428.3330078125</ele>
        <time>2009-10-14T13:29:45Z</time>
      </trkpt>
      <trkpt lat="45.29883" lon="5.13336">
        <ele>429.30599975586</ele>
        <time>2009-10-14T13:29:52Z</time>
      </trkpt>
      <trkpt lat="45.29888" lon="5.1336">
        <ele>430.12899780273</ele>
        <time>2009-10-14T13:29:55Z</time>
      </trkpt>
      <trkpt lat="45.2989" lon="5.13376">
        <ele>430.8039855957</ele>
        <time>2009-10-14T13:29:57Z</time>
      </trkpt>
      <trkpt lat="45.29889" lon="5.13414">
        <ele>431.60101318359</ele>
        <time>2009-10-14T13:30:01Z</time>
      </trkpt>
      <trkpt lat="45.29884" lon="5.13467">
        <ele>431.94299316406</ele>
        <time>2009-10-14T13:30:06Z</time>
      </trkpt>
      <trkpt lat="45.29888" lon="5.13508">
        <ele>432.27899169922</ele>
        <time>2009-10-14T13:30:11Z</time>
      </trkpt>
      <trkpt lat="45.29889" lon="5.13541">
        <ele>432.68099975586</ele>
        <time>2009-10-14T13:30:15Z</time>
      </trkpt>
      <trkpt lat="45.29888" lon="5.13556">
        <ele>433.09799194336</ele>
        <time>2009-10-14T13:30:17Z</time>
      </trkpt>
      <trkpt lat="45.29875" lon="5.136">
        <ele>433.84298706055</ele>
        <time>2009-10-14T13:30:22Z</time>
      </trkpt>
      <trkpt lat="45.29859" lon="5.13636">
        <ele>434.15899658203</ele>
        <time>2009-10-14T13:30:25Z</time>
      </trkpt>
      <trkpt lat="45.29835" lon="5.13694">
        <ele>434.83499145508</ele>
        <time>2009-10-14T13:30:31Z</time>
      </trkpt>
      <trkpt lat="45.29823" lon="5.13738">
        <ele>435.77700805664</ele>
        <time>2009-10-14T13:30:37Z</time>
      </trkpt>
      <trkpt lat="45.298" lon="5.13785">
        <ele>436.31399536133</ele>
        <time>2009-10-14T13:30:44Z</time>
      </trkpt>
      <trkpt lat="45.29772" lon="5.13827">
        <ele>438.29501342773</ele>
        <time>2009-10-14T13:30:51Z</time>
      </trkpt>
      <trkpt lat="45.29742" lon="5.13856">
        <ele>439.11801147461</ele>
        <time>2009-10-14T13:30:57Z</time>
      </trkpt>
      <trkpt lat="45.29713" lon="5.13879">
        <ele>439.35900878906</ele>
        <time>2009-10-14T13:31:03Z</time>
      </trkpt>
      <trkpt lat="45.29692" lon="5.13896">
        <ele>440.8210144043</ele>
        <time>2009-10-14T13:31:09Z</time>
      </trkpt>
      <trkpt lat="45.29686" lon="5.139">
        <ele>440.88500976562</ele>
        <time>2009-10-14T13:31:12Z</time>
      </trkpt>
      <trkpt lat="45.29682" lon="5.13906">
        <ele>441.49700927734</ele>
        <time>2009-10-14T13:31:16Z</time>
      </trkpt>
      <trkpt lat="45.2968" lon="5.13913">
        <ele>441.76699829102</ele>
        <time>2009-10-14T13:31:20Z</time>
      </trkpt>
      <trkpt lat="45.29683" lon="5.13922">
        <ele>442.11199951172</ele>
        <time>2009-10-14T13:31:24Z</time>
      </trkpt>
      <trkpt lat="45.29686" lon="5.1393">
        <ele>442.38198852539</ele>
        <time>2009-10-14T13:31:30Z</time>
      </trkpt>
      <trkpt lat="45.29688" lon="5.13936">
        <ele>442.65200805664</ele>
        <time>2009-10-14T13:31:34Z</time>
      </trkpt>
      <trkpt lat="45.2969" lon="5.1394">
        <ele>442.84899902344</ele>
        <time>2009-10-14T13:31:38Z</time>
      </trkpt>
      <trkpt lat="45.29694" lon="5.13953">
        <ele>443.12600708008</ele>
        <time>2009-10-14T13:31:42Z</time>
      </trkpt>
      <trkpt lat="45.29705" lon="5.13987">
        <ele>444.85998535156</ele>
        <time>2009-10-14T13:31:49Z</time>
      </trkpt>
      <trkpt lat="45.29712" lon="5.14008">
        <ele>446.08898925781</ele>
        <time>2009-10-14T13:31:53Z</time>
      </trkpt>
      <trkpt lat="45.29724" lon="5.14049">
        <ele>447.58200073242</ele>
        <time>2009-10-14T13:32:00Z</time>
      </trkpt>
      <trkpt lat="45.29731" lon="5.1408">
        <ele>448.8219909668</ele>
        <time>2009-10-14T13:32:05Z</time>
      </trkpt>
      <trkpt lat="45.29737" lon="5.1411">
        <ele>449.89898681641</ele>
        <time>2009-10-14T13:32:10Z</time>
      </trkpt>
      <trkpt lat="45.29745" lon="5.14146">
        <ele>451.28100585938</ele>
        <time>2009-10-14T13:32:16Z</time>
      </trkpt>
      <trkpt lat="45.2975" lon="5.14178">
        <ele>452.38198852539</ele>
        <time>2009-10-14T13:32:21Z</time>
      </trkpt>
      <trkpt lat="45.29754" lon="5.14202">
        <ele>452.94299316406</ele>
        <time>2009-10-14T13:32:25Z</time>
      </trkpt>
      <trkpt lat="45.29758" lon="5.14242">
        <ele>453.56399536133</ele>
        <time>2009-10-14T13:32:31Z</time>
      </trkpt>
      <trkpt lat="45.29758" lon="5.14255">
        <ele>454.28500366211</ele>
        <time>2009-10-14T13:32:33Z</time>
      </trkpt>
      <trkpt lat="45.29759" lon="5.14274">
        <ele>454.77301025391</ele>
        <time>2009-10-14T13:32:36Z</time>
      </trkpt>
      <trkpt lat="45.2976" lon="5.14293">
        <ele>456.00500488281</ele>
        <time>2009-10-14T13:32:39Z</time>
      </trkpt>
      <trkpt lat="45.29758" lon="5.14355">
        <ele>458.30801391602</ele>
        <time>2009-10-14T13:32:49Z</time>
      </trkpt>
      <trkpt lat="45.29757" lon="5.14367">
        <ele>458.85800170898</ele>
        <time>2009-10-14T13:32:51Z</time>
      </trkpt>
      <trkpt lat="45.2976" lon="5.144">
        <ele>460.11700439453</ele>
        <time>2009-10-14T13:32:56Z</time>
      </trkpt>
      <trkpt lat="45.29767" lon="5.14431">
        <ele>461.04000854492</ele>
        <time>2009-10-14T13:33:01Z</time>
      </trkpt>
      <trkpt lat="45.29775" lon="5.14463">
        <ele>461.99798583984</ele>
        <time>2009-10-14T13:33:07Z</time>
      </trkpt>
      <trkpt lat="45.29786" lon="5.14499">
        <ele>462.42401123047</ele>
        <time>2009-10-14T13:33:13Z</time>
      </trkpt>
      <trkpt lat="45.29797" lon="5.14542">
        <ele>462.90798950195</ele>
        <time>2009-10-14T13:33:20Z</time>
      </trkpt>
      <trkpt lat="45.29799" lon="5.14548">
        <ele>462.79299926758</ele>
        <time>2009-10-14T13:33:21Z</time>
      </trkpt>
      <trkpt lat="45.2982" lon="5.14598">
        <ele>462.01699829102</ele>
        <time>2009-10-14T13:33:29Z</time>
      </trkpt>
      <trkpt lat="45.29845" lon="5.14639">
        <ele>460.99700927734</ele>
        <time>2009-10-14T13:33:35Z</time>
      </trkpt>
      <trkpt lat="45.29871" lon="5.1467">
        <ele>460.35501098633</ele>
        <time>2009-10-14T13:33:40Z</time>
      </trkpt>
      <trkpt lat="45.299" lon="5.14683">
        <ele>457.1960144043</ele>
        <time>2009-10-14T13:33:44Z</time>
      </trkpt>
      <trkpt lat="45.29915" lon="5.14685">
        <ele>457.52700805664</ele>
        <time>2009-10-14T13:33:46Z</time>
      </trkpt>
      <trkpt lat="45.29937" lon="5.14699">
        <ele>454.51098632812</ele>
        <time>2009-10-14T13:33:49Z</time>
      </trkpt>
      <trkpt lat="45.29948" lon="5.14723">
        <ele>451.53799438477</ele>
        <time>2009-10-14T13:33:51Z</time>
      </trkpt>
      <trkpt lat="45.2997" lon="5.14787">
        <ele>448.35598754883</ele>
        <time>2009-10-14T13:33:56Z</time>
      </trkpt>
      <trkpt lat="45.2999" lon="5.14858">
        <ele>444.55099487305</ele>
        <time>2009-10-14T13:34:01Z</time>
      </trkpt>
      <trkpt lat="45.30017" lon="5.14948">
        <ele>438.1130065918</ele>
        <time>2009-10-14T13:34:07Z</time>
      </trkpt>
      <trkpt lat="45.30017" lon="5.1501">
        <ele>435.90100097656</ele>
        <time>2009-10-14T13:34:11Z</time>
      </trkpt>
      <trkpt lat="45.30021" lon="5.15077">
        <ele>432.32400512695</ele>
        <time>2009-10-14T13:34:15Z</time>
      </trkpt>
      <trkpt lat="45.30027" lon="5.15095">
        <ele>431.47198486328</ele>
        <time>2009-10-14T13:34:16Z</time>
      </trkpt>
      <trkpt lat="45.30038" lon="5.15127">
        <ele>429.9280090332</ele>
        <time>2009-10-14T13:34:18Z</time>
      </trkpt>
      <trkpt lat="45.30051" lon="5.1521">
        <ele>425.45300292969</ele>
        <time>2009-10-14T13:34:23Z</time>
      </trkpt>
      <trkpt lat="45.30067" lon="5.15313">
        <ele>419.20999145508</ele>
        <time>2009-10-14T13:34:29Z</time>
      </trkpt>
      <trkpt lat="45.30075" lon="5.15384">
        <ele>415.46499633789</ele>
        <time>2009-10-14T13:34:33Z</time>
      </trkpt>
      <trkpt lat="45.30104" lon="5.15492">
        <ele>408.40200805664</ele>
        <time>2009-10-14T13:34:40Z</time>
      </trkpt>
      <trkpt lat="45.30144" lon="5.15643">
        <ele>401.96701049805</ele>
        <time>2009-10-14T13:34:50Z</time>
      </trkpt>
      <trkpt lat="45.30146" lon="5.15659">
        <ele>401.56100463867</ele>
        <time>2009-10-14T13:34:51Z</time>
      </trkpt>
      <trkpt lat="45.30148" lon="5.15706">
        <ele>399.14401245117</ele>
        <time>2009-10-14T13:34:54Z</time>
      </trkpt>
      <trkpt lat="45.30161" lon="5.15768">
        <ele>395.67401123047</ele>
        <time>2009-10-14T13:34:58Z</time>
      </trkpt>
      <trkpt lat="45.3018" lon="5.15786">
        <ele>394.24798583984</ele>
        <time>2009-10-14T13:35:00Z</time>
      </trkpt>
      <trkpt lat="45.30202" lon="5.15782">
        <ele>392.64801025391</ele>
        <time>2009-10-14T13:35:02Z</time>
      </trkpt>
      <trkpt lat="45.30222" lon="5.15768">
        <ele>392.57800292969</ele>
        <time>2009-10-14T13:35:04Z</time>
      </trkpt>
      <trkpt lat="45.3028" lon="5.15732">
        <ele>388.54501342773</ele>
        <time>2009-10-14T13:35:10Z</time>
      </trkpt>
      <trkpt lat="45.30341" lon="5.15717">
        <ele>384.14599609375</ele>
        <time>2009-10-14T13:35:16Z</time>
      </trkpt>
      <trkpt lat="45.30383" lon="5.15718">
        <ele>382.13101196289</ele>
        <time>2009-10-14T13:35:20Z</time>
      </trkpt>
      <trkpt lat="45.30436" lon="5.15724">
        <ele>380.20098876953</ele>
        <time>2009-10-14T13:35:25Z</time>
      </trkpt>
      <trkpt lat="45.30478" lon="5.1573">
        <ele>378.75799560547</ele>
        <time>2009-10-14T13:35:29Z</time>
      </trkpt>
      <trkpt lat="45.30489" lon="5.15731">
        <ele>378.54098510742</ele>
        <time>2009-10-14T13:35:30Z</time>
      </trkpt>
      <trkpt lat="45.30509" lon="5.15734">
        <ele>379.28698730469</ele>
        <time>2009-10-14T13:35:32Z</time>
      </trkpt>
      <trkpt lat="45.30556" lon="5.15757">
        <ele>377.79998779297</ele>
        <time>2009-10-14T13:35:37Z</time>
      </trkpt>
      <trkpt lat="45.30596" lon="5.15791">
        <ele>378.22399902344</ele>
        <time>2009-10-14T13:35:42Z</time>
      </trkpt>
      <trkpt lat="45.30637" lon="5.15833">
        <ele>380.31298828125</ele>
        <time>2009-10-14T13:35:48Z</time>
      </trkpt>
      <trkpt lat="45.3067" lon="5.15863">
        <ele>381.09799194336</ele>
        <time>2009-10-14T13:35:53Z</time>
      </trkpt>
      <trkpt lat="45.30711" lon="5.15898">
        <ele>382.08898925781</ele>
        <time>2009-10-14T13:36:00Z</time>
      </trkpt>
      <trkpt lat="45.30717" lon="5.15903">
        <ele>382.31201171875</ele>
        <time>2009-10-14T13:36:01Z</time>
      </trkpt>
      <trkpt lat="45.30763" lon="5.15939">
        <ele>382.29000854492</ele>
        <time>2009-10-14T13:36:09Z</time>
      </trkpt>
      <trkpt lat="45.30807" lon="5.15977">
        <ele>382.43099975586</ele>
        <time>2009-10-14T13:36:17Z</time>
      </trkpt>
      <trkpt lat="45.30877" lon="5.16033">
        <ele>383.25698852539</ele>
        <time>2009-10-14T13:36:29Z</time>
      </trkpt>
      <trkpt lat="45.30935" lon="5.1608">
        <ele>382.59298706055</ele>
        <time>2009-10-14T13:36:39Z</time>
      </trkpt>
      <trkpt lat="45.30999" lon="5.16132">
        <ele>380.8030090332</ele>
        <time>2009-10-14T13:36:50Z</time>
      </trkpt>
      <trkpt lat="45.31052" lon="5.16175">
        <ele>382.63800048828</ele>
        <time>2009-10-14T13:36:59Z</time>
      </trkpt>
      <trkpt lat="45.31106" lon="5.16219">
        <ele>382.17599487305</ele>
        <time>2009-10-14T13:37:08Z</time>
      </trkpt>
      <trkpt lat="45.3116" lon="5.16263">
        <ele>382.91101074219</ele>
        <time>2009-10-14T13:37:17Z</time>
      </trkpt>
      <trkpt lat="45.31223" lon="5.16315">
        <ele>382.92498779297</ele>
        <time>2009-10-14T13:37:28Z</time>
      </trkpt>
      <trkpt lat="45.31255" lon="5.16343">
        <ele>383.1669921875</ele>
        <time>2009-10-14T13:37:35Z</time>
      </trkpt>
      <trkpt lat="45.31258" lon="5.16347">
        <ele>382.60501098633</ele>
        <time>2009-10-14T13:37:36Z</time>
      </trkpt>
      <trkpt lat="45.31248" lon="5.16364">
        <ele>383.73199462891</ele>
        <time>2009-10-14T13:37:40Z</time>
      </trkpt>
      <trkpt lat="45.31227" lon="5.16398">
        <ele>383.78201293945</ele>
        <time>2009-10-14T13:37:46Z</time>
      </trkpt>
      <trkpt lat="45.31205" lon="5.16437">
        <ele>383.69000244141</ele>
        <time>2009-10-14T13:37:53Z</time>
      </trkpt>
      <trkpt lat="45.31176" lon="5.16487">
        <ele>384.45001220703</ele>
        <time>2009-10-14T13:38:01Z</time>
      </trkpt>
      <trkpt lat="45.31152" lon="5.16525">
        <ele>385.46200561523</ele>
        <time>2009-10-14T13:38:07Z</time>
      </trkpt>
      <trkpt lat="45.31124" lon="5.16569">
        <ele>386.74798583984</ele>
        <time>2009-10-14T13:38:14Z</time>
      </trkpt>
      <trkpt lat="45.31116" lon="5.16581">
        <ele>386.69100952148</ele>
        <time>2009-10-14T13:38:16Z</time>
      </trkpt>
      <trkpt lat="45.31084" lon="5.16632">
        <ele>388.28799438477</ele>
        <time>2009-10-14T13:38:25Z</time>
      </trkpt>
      <trkpt lat="45.31062" lon="5.16669">
        <ele>389.26501464844</ele>
        <time>2009-10-14T13:38:32Z</time>
      </trkpt>
      <trkpt lat="45.31042" lon="5.16704">
        <ele>389.20498657227</ele>
        <time>2009-10-14T13:38:38Z</time>
      </trkpt>
      <trkpt lat="45.31023" lon="5.16751">
        <ele>389.8450012207</ele>
        <time>2009-10-14T13:38:45Z</time>
      </trkpt>
      <trkpt lat="45.31002" lon="5.16804">
        <ele>390.5830078125</ele>
        <time>2009-10-14T13:38:53Z</time>
      </trkpt>
      <trkpt lat="45.30978" lon="5.16859">
        <ele>390.86599731445</ele>
        <time>2009-10-14T13:39:01Z</time>
      </trkpt>
      <trkpt lat="45.30951" lon="5.16925">
        <ele>391.03298950195</ele>
        <time>2009-10-14T13:39:10Z</time>
      </trkpt>
      <trkpt lat="45.30932" lon="5.16969">
        <ele>391.67199707031</ele>
        <time>2009-10-14T13:39:16Z</time>
      </trkpt>
      <trkpt lat="45.30899" lon="5.17045">
        <ele>392.31600952148</ele>
        <time>2009-10-14T13:39:26Z</time>
      </trkpt>
      <trkpt lat="45.30864" lon="5.17126">
        <ele>393.77301025391</ele>
        <time>2009-10-14T13:39:36Z</time>
      </trkpt>
      <trkpt lat="45.30828" lon="5.1721">
        <ele>394.05700683594</ele>
        <time>2009-10-14T13:39:46Z</time>
      </trkpt>
      <trkpt lat="45.30821" lon="5.17227">
        <ele>394.86599731445</ele>
        <time>2009-10-14T13:39:48Z</time>
      </trkpt>
      <trkpt lat="45.30801" lon="5.1729">
        <ele>395.16900634766</ele>
        <time>2009-10-14T13:39:55Z</time>
      </trkpt>
      <trkpt lat="45.30793" lon="5.17345">
        <ele>396.53799438477</ele>
        <time>2009-10-14T13:40:01Z</time>
      </trkpt>
      <trkpt lat="45.30785" lon="5.17424">
        <ele>397.89199829102</ele>
        <time>2009-10-14T13:40:10Z</time>
      </trkpt>
      <trkpt lat="45.30779" lon="5.17484">
        <ele>399.9469909668</ele>
        <time>2009-10-14T13:40:17Z</time>
      </trkpt>
      <trkpt lat="45.30772" lon="5.17559">
        <ele>399.77801513672</ele>
        <time>2009-10-14T13:40:26Z</time>
      </trkpt>
      <trkpt lat="45.30762" lon="5.17664">
        <ele>401.11401367188</ele>
        <time>2009-10-14T13:40:39Z</time>
      </trkpt>
      <trkpt lat="45.30754" lon="5.17747">
        <ele>401.68301391602</ele>
        <time>2009-10-14T13:40:49Z</time>
      </trkpt>
      <trkpt lat="45.30745" lon="5.17841">
        <ele>402.7200012207</ele>
        <time>2009-10-14T13:41:00Z</time>
      </trkpt>
      <trkpt lat="45.30738" lon="5.17919">
        <ele>404.04998779297</ele>
        <time>2009-10-14T13:41:09Z</time>
      </trkpt>
      <trkpt lat="45.30734" lon="5.17952">
        <ele>404.81698608398</ele>
        <time>2009-10-14T13:41:13Z</time>
      </trkpt>
      <trkpt lat="45.30728" lon="5.18021">
        <ele>405.67700195312</ele>
        <time>2009-10-14T13:41:21Z</time>
      </trkpt>
      <trkpt lat="45.30719" lon="5.18105">
        <ele>406.71899414062</ele>
        <time>2009-10-14T13:41:31Z</time>
      </trkpt>
      <trkpt lat="45.30706" lon="5.18192">
        <ele>406.02801513672</ele>
        <time>2009-10-14T13:41:41Z</time>
      </trkpt>
      <trkpt lat="45.30704" lon="5.18202">
        <ele>406.15899658203</ele>
        <time>2009-10-14T13:41:42Z</time>
      </trkpt>
      <trkpt lat="45.30709" lon="5.18251">
        <ele>405.86401367188</ele>
        <time>2009-10-14T13:41:47Z</time>
      </trkpt>
      <trkpt lat="45.30716" lon="5.18268">
        <ele>405.80700683594</ele>
        <time>2009-10-14T13:41:49Z</time>
      </trkpt>
      <trkpt lat="45.30761" lon="5.18363">
        <ele>405.91101074219</ele>
        <time>2009-10-14T13:42:01Z</time>
      </trkpt>
      <trkpt lat="45.30796" lon="5.18435">
        <ele>405.07000732422</ele>
        <time>2009-10-14T13:42:10Z</time>
      </trkpt>
      <trkpt lat="45.30836" lon="5.18518">
        <ele>404.61700439453</ele>
        <time>2009-10-14T13:42:20Z</time>
      </trkpt>
      <trkpt lat="45.30877" lon="5.18603">
        <ele>404.00900268555</ele>
        <time>2009-10-14T13:42:30Z</time>
      </trkpt>
      <trkpt lat="45.30916" lon="5.18679">
        <ele>404.20599365234</ele>
        <time>2009-10-14T13:42:39Z</time>
      </trkpt>
      <trkpt lat="45.30949" lon="5.18721">
        <ele>404.26300048828</ele>
        <time>2009-10-14T13:42:45Z</time>
      </trkpt>
      <trkpt lat="45.30995" lon="5.18772">
        <ele>405.53799438477</ele>
        <time>2009-10-14T13:42:54Z</time>
      </trkpt>
      <trkpt lat="45.31032" lon="5.18815">
        <ele>406.89599609375</ele>
        <time>2009-10-14T13:43:02Z</time>
      </trkpt>
      <trkpt lat="45.31078" lon="5.18879">
        <ele>407.45999145508</ele>
        <time>2009-10-14T13:43:13Z</time>
      </trkpt>
      <trkpt lat="45.31096" lon="5.18905">
        <ele>408.5299987793</ele>
        <time>2009-10-14T13:43:17Z</time>
      </trkpt>
      <trkpt lat="45.31139" lon="5.18958">
        <ele>407.73300170898</ele>
        <time>2009-10-14T13:43:25Z</time>
      </trkpt>
      <trkpt lat="45.31187" lon="5.19009">
        <ele>404.05801391602</ele>
        <time>2009-10-14T13:43:33Z</time>
      </trkpt>
      <trkpt lat="45.31205" lon="5.19031">
        <ele>402.8039855957</ele>
        <time>2009-10-14T13:43:36Z</time>
      </trkpt>
      <trkpt lat="45.31231" lon="5.19074">
        <ele>401.32400512695</ele>
        <time>2009-10-14T13:43:41Z</time>
      </trkpt>
      <trkpt lat="45.31278" lon="5.19167">
        <ele>400.28698730469</ele>
        <time>2009-10-14T13:43:51Z</time>
      </trkpt>
      <trkpt lat="45.31303" lon="5.19224">
        <ele>399.27099609375</ele>
        <time>2009-10-14T13:43:57Z</time>
      </trkpt>
      <trkpt lat="45.31322" lon="5.19298">
        <ele>397.97299194336</ele>
        <time>2009-10-14T13:44:04Z</time>
      </trkpt>
      <trkpt lat="45.3134" lon="5.19406">
        <ele>397.14498901367</ele>
        <time>2009-10-14T13:44:14Z</time>
      </trkpt>
      <trkpt lat="45.31344" lon="5.19463">
        <ele>395.89300537109</ele>
        <time>2009-10-14T13:44:19Z</time>
      </trkpt>
      <trkpt lat="45.31347" lon="5.19526">
        <ele>393.28799438477</ele>
        <time>2009-10-14T13:44:24Z</time>
      </trkpt>
      <trkpt lat="45.3135" lon="5.19579">
        <ele>390.72799682617</ele>
        <time>2009-10-14T13:44:28Z</time>
      </trkpt>
      <trkpt lat="45.31344" lon="5.19637">
        <ele>387.67700195312</ele>
        <time>2009-10-14T13:44:32Z</time>
      </trkpt>
      <trkpt lat="45.31335" lon="5.19696">
        <ele>385.34698486328</ele>
        <time>2009-10-14T13:44:36Z</time>
      </trkpt>
      <trkpt lat="45.31317" lon="5.19758">
        <ele>382.65100097656</ele>
        <time>2009-10-14T13:44:40Z</time>
      </trkpt>
      <trkpt lat="45.31306" lon="5.19818">
        <ele>380.0710144043</ele>
        <time>2009-10-14T13:44:43Z</time>
      </trkpt>
      <trkpt lat="45.31305" lon="5.19853">
        <ele>378.77801513672</ele>
        <time>2009-10-14T13:44:45Z</time>
      </trkpt>
      <trkpt lat="45.31308" lon="5.19887">
        <ele>377.2380065918</ele>
        <time>2009-10-14T13:44:47Z</time>
      </trkpt>
      <trkpt lat="45.3131" lon="5.19904">
        <ele>376.39498901367</ele>
        <time>2009-10-14T13:44:48Z</time>
      </trkpt>
      <trkpt lat="45.31332" lon="5.20021">
        <ele>370.75799560547</ele>
        <time>2009-10-14T13:44:55Z</time>
      </trkpt>
      <trkpt lat="45.31341" lon="5.20053">
        <ele>369.57800292969</ele>
        <time>2009-10-14T13:44:57Z</time>
      </trkpt>
      <trkpt lat="45.31377" lon="5.20179">
        <ele>363.86999511719</ele>
        <time>2009-10-14T13:45:05Z</time>
      </trkpt>
      <trkpt lat="45.31393" lon="5.20232">
        <ele>363.70401000977</ele>
        <time>2009-10-14T13:45:09Z</time>
      </trkpt>
      <trkpt lat="45.31396" lon="5.2024">
        <ele>363.7200012207</ele>
        <time>2009-10-14T13:45:10Z</time>
      </trkpt>
      <trkpt lat="45.3141" lon="5.20265">
        <ele>363.4049987793</ele>
        <time>2009-10-14T13:45:15Z</time>
      </trkpt>
      <trkpt lat="45.31419" lon="5.20274">
        <ele>362.83801269531</ele>
        <time>2009-10-14T13:45:17Z</time>
      </trkpt>
      <trkpt lat="45.3145" lon="5.20305">
        <ele>360.32998657227</ele>
        <time>2009-10-14T13:45:23Z</time>
      </trkpt>
      <trkpt lat="45.31456" lon="5.2031">
        <ele>359.53399658203</ele>
        <time>2009-10-14T13:45:24Z</time>
      </trkpt>
      <trkpt lat="45.31474" lon="5.2033">
        <ele>359.09100341797</ele>
        <time>2009-10-14T13:45:27Z</time>
      </trkpt>
      <trkpt lat="45.315" lon="5.20362">
        <ele>358.3219909668</ele>
        <time>2009-10-14T13:45:32Z</time>
      </trkpt>
      <trkpt lat="45.31525" lon="5.20396">
        <ele>357.47601318359</ele>
        <time>2009-10-14T13:45:37Z</time>
      </trkpt>
      <trkpt lat="45.31535" lon="5.20407">
        <ele>357.45098876953</ele>
        <time>2009-10-14T13:45:39Z</time>
      </trkpt>
      <trkpt lat="45.31551" lon="5.20431">
        <ele>357.4049987793</ele>
        <time>2009-10-14T13:45:43Z</time>
      </trkpt>
      <trkpt lat="45.31565" lon="5.20452">
        <ele>357.21600341797</ele>
        <time>2009-10-14T13:45:47Z</time>
      </trkpt>
      <trkpt lat="45.31566" lon="5.20458">
        <ele>357.51501464844</ele>
        <time>2009-10-14T13:45:52Z</time>
      </trkpt>
      <trkpt lat="45.31566" lon="5.20459">
        <ele>357.50201416016</ele>
        <time>2009-10-14T13:45:55Z</time>
      </trkpt>
      <trkpt lat="45.31566" lon="5.20459">
        <ele>357.50201416016</ele>
        <time>2009-10-14T13:45:56Z</time>
      </trkpt>
      <trkpt lat="45.31562" lon="5.20463">
        <ele>357.37399291992</ele>
        <time>2009-10-14T13:46:04Z</time>
      </trkpt>
      <trkpt lat="45.31561" lon="5.20464">
        <ele>357.79299926758</ele>
        <time>2009-10-14T13:46:23Z</time>
      </trkpt>
      <trkpt lat="45.3156" lon="5.20462">
        <ele>357.38500976562</ele>
        <time>2009-10-14T13:46:34Z</time>
      </trkpt>
      <trkpt lat="45.31562" lon="5.2046">
        <ele>357.22500610352</ele>
        <time>2009-10-14T13:46:53Z</time>
      </trkpt>
      <trkpt lat="45.31559" lon="5.20459">
        <ele>357.77600097656</ele>
        <time>2009-10-14T13:47:01Z</time>
      </trkpt>
      <trkpt lat="45.3156" lon="5.20461">
        <ele>357.46701049805</ele>
        <time>2009-10-14T13:47:12Z</time>
      </trkpt>
      <trkpt lat="45.31565" lon="5.20469">
        <ele>357.26998901367</ele>
        <time>2009-10-14T13:47:17Z</time>
      </trkpt>
      <trkpt lat="45.31556" lon="5.20479">
        <ele>357.83200073242</ele>
        <time>2009-10-14T13:47:23Z</time>
      </trkpt>
      <trkpt lat="45.31544" lon="5.20493">
        <ele>358.19500732422</ele>
        <time>2009-10-14T13:47:28Z</time>
      </trkpt>
      <trkpt lat="45.31532" lon="5.20509">
        <ele>358.74099731445</ele>
        <time>2009-10-14T13:47:33Z</time>
      </trkpt>
      <trkpt lat="45.31517" lon="5.20528">
        <ele>360.30700683594</ele>
        <time>2009-10-14T13:47:39Z</time>
      </trkpt>
      <trkpt lat="45.31513" lon="5.20533">
        <ele>360.23199462891</ele>
        <time>2009-10-14T13:47:41Z</time>
      </trkpt>
      <trkpt lat="45.31502" lon="5.20548">
        <ele>360.08099365234</ele>
        <time>2009-10-14T13:47:47Z</time>
      </trkpt>
      <trkpt lat="45.31498" lon="5.20554">
        <ele>360.44799804688</ele>
        <time>2009-10-14T13:47:50Z</time>
      </trkpt>
      <trkpt lat="45.31487" lon="5.20564">
        <ele>360.79901123047</ele>
        <time>2009-10-14T13:47:57Z</time>
      </trkpt>
      <trkpt lat="45.3148" lon="5.20574">
        <ele>360.38500976562</ele>
        <time>2009-10-14T13:48:00Z</time>
      </trkpt>
      <trkpt lat="45.31473" lon="5.20581">
        <ele>360.38598632812</ele>
        <time>2009-10-14T13:48:02Z</time>
      </trkpt>
      <trkpt lat="45.31465" lon="5.20589">
        <ele>360.58599853516</ele>
        <time>2009-10-14T13:48:04Z</time>
      </trkpt>
      <trkpt lat="45.31442" lon="5.20613">
        <ele>360.92199707031</ele>
        <time>2009-10-14T13:48:10Z</time>
      </trkpt>
      <trkpt lat="45.31428" lon="5.20632">
        <ele>361.26300048828</ele>
        <time>2009-10-14T13:48:14Z</time>
      </trkpt>
      <trkpt lat="45.31395" lon="5.20671">
        <ele>363.0710144043</ele>
        <time>2009-10-14T13:48:23Z</time>
      </trkpt>
      <trkpt lat="45.31364" lon="5.20704">
        <ele>364.8330078125</ele>
        <time>2009-10-14T13:48:31Z</time>
      </trkpt>
      <trkpt lat="45.31331" lon="5.20738">
        <ele>365.92300415039</ele>
        <time>2009-10-14T13:48:40Z</time>
      </trkpt>
      <trkpt lat="45.313" lon="5.2077">
        <ele>366.60800170898</ele>
        <time>2009-10-14T13:48:48Z</time>
      </trkpt>
      <trkpt lat="45.31277" lon="5.20798">
        <ele>366.38400268555</ele>
        <time>2009-10-14T13:48:54Z</time>
      </trkpt>
      <trkpt lat="45.31248" lon="5.2084">
        <ele>367.05200195312</ele>
        <time>2009-10-14T13:49:02Z</time>
      </trkpt>
      <trkpt lat="45.31226" lon="5.20873">
        <ele>368.08599853516</ele>
        <time>2009-10-14T13:49:08Z</time>
      </trkpt>
      <trkpt lat="45.31197" lon="5.20915">
        <ele>369.10598754883</ele>
        <time>2009-10-14T13:49:16Z</time>
      </trkpt>
      <trkpt lat="45.31176" lon="5.20946">
        <ele>370.4580078125</ele>
        <time>2009-10-14T13:49:22Z</time>
      </trkpt>
      <trkpt lat="45.31154" lon="5.20977">
        <ele>371.33499145508</ele>
        <time>2009-10-14T13:49:28Z</time>
      </trkpt>
      <trkpt lat="45.31138" lon="5.21001">
        <ele>372.39300537109</ele>
        <time>2009-10-14T13:49:33Z</time>
      </trkpt>
      <trkpt lat="45.31119" lon="5.21029">
        <ele>373.92098999023</ele>
        <time>2009-10-14T13:49:39Z</time>
      </trkpt>
      <trkpt lat="45.31097" lon="5.21062">
        <ele>375.20300292969</ele>
        <time>2009-10-14T13:49:46Z</time>
      </trkpt>
      <trkpt lat="45.31091" lon="5.21072">
        <ele>375.39300537109</ele>
        <time>2009-10-14T13:49:48Z</time>
      </trkpt>
      <trkpt lat="45.31078" lon="5.21091">
        <ele>375.71200561523</ele>
        <time>2009-10-14T13:49:52Z</time>
      </trkpt>
      <trkpt lat="45.31052" lon="5.21129">
        <ele>376.39199829102</ele>
        <time>2009-10-14T13:50:00Z</time>
      </trkpt>
      <trkpt lat="45.31042" lon="5.21143">
        <ele>376.72698974609</ele>
        <time>2009-10-14T13:50:03Z</time>
      </trkpt>
      <trkpt lat="45.31013" lon="5.21187">
        <ele>377.03900146484</ele>
        <time>2009-10-14T13:50:12Z</time>
      </trkpt>
      <trkpt lat="45.30999" lon="5.21207">
        <ele>378.25100708008</ele>
        <time>2009-10-14T13:50:17Z</time>
      </trkpt>
      <trkpt lat="45.30987" lon="5.21224">
        <ele>378.94900512695</ele>
        <time>2009-10-14T13:50:21Z</time>
      </trkpt>
      <trkpt lat="45.3096" lon="5.21255">
        <ele>380.07501220703</ele>
        <time>2009-10-14T13:50:29Z</time>
      </trkpt>
      <trkpt lat="45.30947" lon="5.2127">
        <ele>380.32901000977</ele>
        <time>2009-10-14T13:50:33Z</time>
      </trkpt>
      <trkpt lat="45.30927" lon="5.2129">
        <ele>381.32901000977</ele>
        <time>2009-10-14T13:50:39Z</time>
      </trkpt>
      <trkpt lat="45.30912" lon="5.21304">
        <ele>381.76400756836</ele>
        <time>2009-10-14T13:50:43Z</time>
      </trkpt>
      <trkpt lat="45.30885" lon="5.21332">
        <ele>382.76098632812</ele>
        <time>2009-10-14T13:50:51Z</time>
      </trkpt>
      <trkpt lat="45.30859" lon="5.21358">
        <ele>383.67599487305</ele>
        <time>2009-10-14T13:50:58Z</time>
      </trkpt>
      <trkpt lat="45.30834" lon="5.21383">
        <ele>384.74600219727</ele>
        <time>2009-10-14T13:51:05Z</time>
      </trkpt>
      <trkpt lat="45.30811" lon="5.21406">
        <ele>385.49798583984</ele>
        <time>2009-10-14T13:51:11Z</time>
      </trkpt>
      <trkpt lat="45.30774" lon="5.21442">
        <ele>387.46499633789</ele>
        <time>2009-10-14T13:51:20Z</time>
      </trkpt>
      <trkpt lat="45.30746" lon="5.21469">
        <ele>388.80999755859</ele>
        <time>2009-10-14T13:51:27Z</time>
      </trkpt>
      <trkpt lat="45.30717" lon="5.21498">
        <ele>389.83401489258</ele>
        <time>2009-10-14T13:51:35Z</time>
      </trkpt>
      <trkpt lat="45.30701" lon="5.21512">
        <ele>390.2380065918</ele>
        <time>2009-10-14T13:51:39Z</time>
      </trkpt>
      <trkpt lat="45.30676" lon="5.21537">
        <ele>391.51000976562</ele>
        <time>2009-10-14T13:51:46Z</time>
      </trkpt>
      <trkpt lat="45.30669" lon="5.21545">
        <ele>391.81698608398</ele>
        <time>2009-10-14T13:51:48Z</time>
      </trkpt>
      <trkpt lat="45.30635" lon="5.21579">
        <ele>393.04800415039</ele>
        <time>2009-10-14T13:51:57Z</time>
      </trkpt>
      <trkpt lat="45.30603" lon="5.2161">
        <ele>393.75399780273</ele>
        <time>2009-10-14T13:52:05Z</time>
      </trkpt>
      <trkpt lat="45.3057" lon="5.21643">
        <ele>394.90798950195</ele>
        <time>2009-10-14T13:52:13Z</time>
      </trkpt>
      <trkpt lat="45.3055" lon="5.21663">
        <ele>395.52200317383</ele>
        <time>2009-10-14T13:52:18Z</time>
      </trkpt>
      <trkpt lat="45.30538" lon="5.21675">
        <ele>395.99499511719</ele>
        <time>2009-10-14T13:52:21Z</time>
      </trkpt>
      <trkpt lat="45.30513" lon="5.217">
        <ele>397.51599121094</ele>
        <time>2009-10-14T13:52:28Z</time>
      </trkpt>
      <trkpt lat="45.30505" lon="5.21707">
        <ele>398.00698852539</ele>
        <time>2009-10-14T13:52:30Z</time>
      </trkpt>
      <trkpt lat="45.30478" lon="5.21735">
        <ele>399.71200561523</ele>
        <time>2009-10-14T13:52:38Z</time>
      </trkpt>
      <trkpt lat="45.3045" lon="5.21763">
        <ele>401.56600952148</ele>
        <time>2009-10-14T13:52:47Z</time>
      </trkpt>
      <trkpt lat="45.30434" lon="5.21782">
        <ele>402.47698974609</ele>
        <time>2009-10-14T13:52:53Z</time>
      </trkpt>
      <trkpt lat="45.30421" lon="5.218">
        <ele>403.72900390625</ele>
        <time>2009-10-14T13:52:59Z</time>
      </trkpt>
      <trkpt lat="45.30412" lon="5.21832">
        <ele>404.86898803711</ele>
        <time>2009-10-14T13:53:06Z</time>
      </trkpt>
      <trkpt lat="45.30407" lon="5.21875">
        <ele>405.67999267578</ele>
        <time>2009-10-14T13:53:14Z</time>
      </trkpt>
      <trkpt lat="45.30405" lon="5.21891">
        <ele>406.22900390625</ele>
        <time>2009-10-14T13:53:17Z</time>
      </trkpt>
      <trkpt lat="45.30392" lon="5.21918">
        <ele>407.02499389648</ele>
        <time>2009-10-14T13:53:23Z</time>
      </trkpt>
      <trkpt lat="45.30383" lon="5.21924">
        <ele>407.19799804688</ele>
        <time>2009-10-14T13:53:26Z</time>
      </trkpt>
      <trkpt lat="45.3036" lon="5.21932">
        <ele>407.86999511719</ele>
        <time>2009-10-14T13:53:33Z</time>
      </trkpt>
      <trkpt lat="45.30345" lon="5.21933">
        <ele>408.46200561523</ele>
        <time>2009-10-14T13:53:37Z</time>
      </trkpt>
      <trkpt lat="45.30319" lon="5.21936">
        <ele>410.24798583984</ele>
        <time>2009-10-14T13:53:44Z</time>
      </trkpt>
      <trkpt lat="45.303" lon="5.21942">
        <ele>411.12701416016</ele>
        <time>2009-10-14T13:53:49Z</time>
      </trkpt>
      <trkpt lat="45.30271" lon="5.21959">
        <ele>412.67599487305</ele>
        <time>2009-10-14T13:53:57Z</time>
      </trkpt>
      <trkpt lat="45.30246" lon="5.21986">
        <ele>414.53298950195</ele>
        <time>2009-10-14T13:54:05Z</time>
      </trkpt>
      <trkpt lat="45.30217" lon="5.22021">
        <ele>416.50601196289</ele>
        <time>2009-10-14T13:54:15Z</time>
      </trkpt>
      <trkpt lat="45.30197" lon="5.22044">
        <ele>417.77700805664</ele>
        <time>2009-10-14T13:54:22Z</time>
      </trkpt>
      <trkpt lat="45.30194" lon="5.22048">
        <ele>418.05899047852</ele>
        <time>2009-10-14T13:54:23Z</time>
      </trkpt>
      <trkpt lat="45.30166" lon="5.22074">
        <ele>419.33499145508</ele>
        <time>2009-10-14T13:54:32Z</time>
      </trkpt>
      <trkpt lat="45.30147" lon="5.22088">
        <ele>421.52801513672</ele>
        <time>2009-10-14T13:54:38Z</time>
      </trkpt>
      <trkpt lat="45.30122" lon="5.22104">
        <ele>422.14801025391</ele>
        <time>2009-10-14T13:54:46Z</time>
      </trkpt>
      <trkpt lat="45.30092" lon="5.2212">
        <ele>422.14700317383</ele>
        <time>2009-10-14T13:54:55Z</time>
      </trkpt>
      <trkpt lat="45.30067" lon="5.22132">
        <ele>426.78900146484</ele>
        <time>2009-10-14T13:55:03Z</time>
      </trkpt>
      <trkpt lat="45.30044" lon="5.22144">
        <ele>428.54598999023</ele>
        <time>2009-10-14T13:55:10Z</time>
      </trkpt>
      <trkpt lat="45.30011" lon="5.22162">
        <ele>429.98901367188</ele>
        <time>2009-10-14T13:55:20Z</time>
      </trkpt>
      <trkpt lat="45.29989" lon="5.22184">
        <ele>429.99398803711</ele>
        <time>2009-10-14T13:55:28Z</time>
      </trkpt>
      <trkpt lat="45.29971" lon="5.22205">
        <ele>430.00500488281</ele>
        <time>2009-10-14T13:55:35Z</time>
      </trkpt>
      <trkpt lat="45.29953" lon="5.22226">
        <ele>430.02700805664</ele>
        <time>2009-10-14T13:55:42Z</time>
      </trkpt>
      <trkpt lat="45.29931" lon="5.22249">
        <ele>435.87799072266</ele>
        <time>2009-10-14T13:55:50Z</time>
      </trkpt>
      <trkpt lat="45.29926" lon="5.22255">
        <ele>436.81900024414</ele>
        <time>2009-10-14T13:55:52Z</time>
      </trkpt>
      <trkpt lat="45.29903" lon="5.22278">
        <ele>436.8330078125</ele>
        <time>2009-10-14T13:56:00Z</time>
      </trkpt>
      <trkpt lat="45.29878" lon="5.22303">
        <ele>436.84399414062</ele>
        <time>2009-10-14T13:56:09Z</time>
      </trkpt>
      <trkpt lat="45.29873" lon="5.22308">
        <ele>440.26501464844</ele>
        <time>2009-10-14T13:56:11Z</time>
      </trkpt>
      <trkpt lat="45.2985" lon="5.22332">
        <ele>440.91799926758</ele>
        <time>2009-10-14T13:56:20Z</time>
      </trkpt>
      <trkpt lat="45.2983" lon="5.22361">
        <ele>443.11801147461</ele>
        <time>2009-10-14T13:56:29Z</time>
      </trkpt>
      <trkpt lat="45.29815" lon="5.22384">
        <ele>443.12200927734</ele>
        <time>2009-10-14T13:56:36Z</time>
      </trkpt>
      <trkpt lat="45.29803" lon="5.22401">
        <ele>445.50601196289</ele>
        <time>2009-10-14T13:56:41Z</time>
      </trkpt>
      <trkpt lat="45.29789" lon="5.22425">
        <ele>445.5419921875</ele>
        <time>2009-10-14T13:56:48Z</time>
      </trkpt>
      <trkpt lat="45.29779" lon="5.22442">
        <ele>447.33801269531</ele>
        <time>2009-10-14T13:56:53Z</time>
      </trkpt>
      <trkpt lat="45.29769" lon="5.22463">
        <ele>447.75799560547</ele>
        <time>2009-10-14T13:56:59Z</time>
      </trkpt>
      <trkpt lat="45.29756" lon="5.22483">
        <ele>447.75900268555</ele>
        <time>2009-10-14T13:57:05Z</time>
      </trkpt>
      <trkpt lat="45.29738" lon="5.22516">
        <ele>447.77200317383</ele>
        <time>2009-10-14T13:57:13Z</time>
      </trkpt>
      <trkpt lat="45.29726" lon="5.22543">
        <ele>447.79000854492</ele>
        <time>2009-10-14T13:57:19Z</time>
      </trkpt>
      <trkpt lat="45.29717" lon="5.22572">
        <ele>447.8039855957</ele>
        <time>2009-10-14T13:57:25Z</time>
      </trkpt>
      <trkpt lat="45.29707" lon="5.226">
        <ele>447.8219909668</ele>
        <time>2009-10-14T13:57:31Z</time>
      </trkpt>
      <trkpt lat="45.29692" lon="5.22632">
        <ele>452.63800048828</ele>
        <time>2009-10-14T13:57:38Z</time>
      </trkpt>
      <trkpt lat="45.29687" lon="5.22641">
        <ele>454.42401123047</ele>
        <time>2009-10-14T13:57:40Z</time>
      </trkpt>
      <trkpt lat="45.29685" lon="5.22646">
        <ele>454.58801269531</ele>
        <time>2009-10-14T13:57:41Z</time>
      </trkpt>
      <trkpt lat="45.29664" lon="5.22684">
        <ele>455.22799682617</ele>
        <time>2009-10-14T13:57:49Z</time>
      </trkpt>
      <trkpt lat="45.29645" lon="5.22722">
        <ele>455.86199951172</ele>
        <time>2009-10-14T13:57:57Z</time>
      </trkpt>
      <trkpt lat="45.29643" lon="5.22727">
        <ele>455.86599731445</ele>
        <time>2009-10-14T13:57:58Z</time>
      </trkpt>
      <trkpt lat="45.29628" lon="5.22756">
        <ele>456.47100830078</ele>
        <time>2009-10-14T13:58:04Z</time>
      </trkpt>
      <trkpt lat="45.29607" lon="5.22802">
        <ele>456.7799987793</ele>
        <time>2009-10-14T13:58:13Z</time>
      </trkpt>
      <trkpt lat="45.29596" lon="5.22851">
        <ele>456.69900512695</ele>
        <time>2009-10-14T13:58:20Z</time>
      </trkpt>
      <trkpt lat="45.29592" lon="5.22873">
        <ele>456.65899658203</ele>
        <time>2009-10-14T13:58:23Z</time>
      </trkpt>
      <trkpt lat="45.29574" lon="5.22919">
        <ele>456.70199584961</ele>
        <time>2009-10-14T13:58:30Z</time>
      </trkpt>
      <trkpt lat="45.2956" lon="5.22958">
        <ele>456.73400878906</ele>
        <time>2009-10-14T13:58:36Z</time>
      </trkpt>
      <trkpt lat="45.29551" lon="5.2302">
        <ele>456.78601074219</ele>
        <time>2009-10-14T13:58:45Z</time>
      </trkpt>
      <trkpt lat="45.29549" lon="5.2304">
        <ele>459.56900024414</ele>
        <time>2009-10-14T13:58:48Z</time>
      </trkpt>
      <trkpt lat="45.29547" lon="5.23093">
        <ele>460.29299926758</ele>
        <time>2009-10-14T13:58:55Z</time>
      </trkpt>
      <trkpt lat="45.29547" lon="5.23116">
        <ele>460.29598999023</ele>
        <time>2009-10-14T13:58:58Z</time>
      </trkpt>
      <trkpt lat="45.29547" lon="5.23165">
        <ele>460.3039855957</ele>
        <time>2009-10-14T13:59:05Z</time>
      </trkpt>
      <trkpt lat="45.29548" lon="5.23179">
        <ele>460.3039855957</ele>
        <time>2009-10-14T13:59:07Z</time>
      </trkpt>
      <trkpt lat="45.29549" lon="5.23219">
        <ele>460.30200195312</ele>
        <time>2009-10-14T13:59:13Z</time>
      </trkpt>
      <trkpt lat="45.29546" lon="5.23253">
        <ele>460.29800415039</ele>
        <time>2009-10-14T13:59:18Z</time>
      </trkpt>
      <trkpt lat="45.29544" lon="5.23266">
        <ele>461.9469909668</ele>
        <time>2009-10-14T13:59:20Z</time>
      </trkpt>
      <trkpt lat="45.29545" lon="5.2328">
        <ele>463.1969909668</ele>
        <time>2009-10-14T13:59:22Z</time>
      </trkpt>
      <trkpt lat="45.29547" lon="5.23293">
        <ele>463.56298828125</ele>
        <time>2009-10-14T13:59:24Z</time>
      </trkpt>
      <trkpt lat="45.29554" lon="5.23345">
        <ele>463.51699829102</ele>
        <time>2009-10-14T13:59:32Z</time>
      </trkpt>
      <trkpt lat="45.29553" lon="5.23358">
        <ele>463.51501464844</ele>
        <time>2009-10-14T13:59:34Z</time>
      </trkpt>
      <trkpt lat="45.2955" lon="5.23377">
        <ele>464.43798828125</ele>
        <time>2009-10-14T13:59:37Z</time>
      </trkpt>
      <trkpt lat="45.29542" lon="5.23393">
        <ele>464.37200927734</ele>
        <time>2009-10-14T13:59:40Z</time>
      </trkpt>
      <trkpt lat="45.29524" lon="5.23436">
        <ele>465.10501098633</ele>
        <time>2009-10-14T13:59:47Z</time>
      </trkpt>
      <trkpt lat="45.29506" lon="5.23495">
        <ele>465.19000244141</ele>
        <time>2009-10-14T13:59:56Z</time>
      </trkpt>
      <trkpt lat="45.29506" lon="5.23502">
        <ele>465.20199584961</ele>
        <time>2009-10-14T13:59:57Z</time>
      </trkpt>
      <trkpt lat="45.29498" lon="5.23565">
        <ele>466.67498779297</ele>
        <time>2009-10-14T14:00:06Z</time>
      </trkpt>
      <trkpt lat="45.29495" lon="5.23611">
        <ele>466.5719909668</ele>
        <time>2009-10-14T14:00:12Z</time>
      </trkpt>
      <trkpt lat="45.29495" lon="5.23649">
        <ele>466.57400512695</ele>
        <time>2009-10-14T14:00:17Z</time>
      </trkpt>
      <trkpt lat="45.29482" lon="5.23667">
        <ele>465.90798950195</ele>
        <time>2009-10-14T14:00:21Z</time>
      </trkpt>
      <trkpt lat="45.29462" lon="5.23667">
        <ele>465.60699462891</ele>
        <time>2009-10-14T14:00:25Z</time>
      </trkpt>
      <trkpt lat="45.29453" lon="5.23668">
        <ele>465.63598632812</ele>
        <time>2009-10-14T14:00:27Z</time>
      </trkpt>
      <trkpt lat="45.29445" lon="5.2367">
        <ele>465.85699462891</ele>
        <time>2009-10-14T14:00:29Z</time>
      </trkpt>
      <trkpt lat="45.2943" lon="5.23664">
        <ele>465.85000610352</ele>
        <time>2009-10-14T14:00:33Z</time>
      </trkpt>
      <trkpt lat="45.29428" lon="5.23648">
        <ele>466.21798706055</ele>
        <time>2009-10-14T14:00:37Z</time>
      </trkpt>
      <trkpt lat="45.29428" lon="5.23643">
        <ele>466.07998657227</ele>
        <time>2009-10-14T14:00:38Z</time>
      </trkpt>
      <trkpt lat="45.29421" lon="5.23626">
        <ele>466.30801391602</ele>
        <time>2009-10-14T14:00:44Z</time>
      </trkpt>
      <trkpt lat="45.29418" lon="5.23617">
        <ele>466.24600219727</ele>
        <time>2009-10-14T14:00:48Z</time>
      </trkpt>
      <trkpt lat="45.29416" lon="5.2361">
        <ele>466.45901489258</ele>
        <time>2009-10-14T14:00:50Z</time>
      </trkpt>
      <trkpt lat="45.29409" lon="5.23593">
        <ele>466.6130065918</ele>
        <time>2009-10-14T14:00:54Z</time>
      </trkpt>
      <trkpt lat="45.29404" lon="5.23584">
        <ele>466.70498657227</ele>
        <time>2009-10-14T14:00:56Z</time>
      </trkpt>
      <trkpt lat="45.2939" lon="5.23552">
        <ele>467.73999023438</ele>
        <time>2009-10-14T14:01:03Z</time>
      </trkpt>
      <trkpt lat="45.29372" lon="5.23525">
        <ele>468.86099243164</ele>
        <time>2009-10-14T14:01:10Z</time>
      </trkpt>
      <trkpt lat="45.29357" lon="5.23514">
        <ele>469.99200439453</ele>
        <time>2009-10-14T14:01:15Z</time>
      </trkpt>
      <trkpt lat="45.2934" lon="5.2351">
        <ele>470.56500244141</ele>
        <time>2009-10-14T14:01:20Z</time>
      </trkpt>
      <trkpt lat="45.2932" lon="5.23509">
        <ele>471.47500610352</ele>
        <time>2009-10-14T14:01:25Z</time>
      </trkpt>
      <trkpt lat="45.29294" lon="5.23508">
        <ele>472.96301269531</ele>
        <time>2009-10-14T14:01:32Z</time>
      </trkpt>
      <trkpt lat="45.2926" lon="5.23509">
        <ele>474.68899536133</ele>
        <time>2009-10-14T14:01:41Z</time>
      </trkpt>
      <trkpt lat="45.29219" lon="5.2353">
        <ele>476.8210144043</ele>
        <time>2009-10-14T14:01:52Z</time>
      </trkpt>
      <trkpt lat="45.29199" lon="5.23544">
        <ele>477.69198608398</ele>
        <time>2009-10-14T14:01:58Z</time>
      </trkpt>
      <trkpt lat="45.2916" lon="5.23571">
        <ele>479.84899902344</ele>
        <time>2009-10-14T14:02:09Z</time>
      </trkpt>
      <trkpt lat="45.29137" lon="5.23587">
        <ele>481.5</ele>
        <time>2009-10-14T14:02:16Z</time>
      </trkpt>
      <trkpt lat="45.291" lon="5.2361">
        <ele>484.7919921875</ele>
        <time>2009-10-14T14:02:25Z</time>
      </trkpt>
      <trkpt lat="45.29065" lon="5.23629">
        <ele>486.79998779297</ele>
        <time>2009-10-14T14:02:32Z</time>
      </trkpt>
      <trkpt lat="45.29032" lon="5.23637">
        <ele>488.89401245117</ele>
        <time>2009-10-14T14:02:38Z</time>
      </trkpt>
      <trkpt lat="45.29004" lon="5.23647">
        <ele>490.94299316406</ele>
        <time>2009-10-14T14:02:43Z</time>
      </trkpt>
      <trkpt lat="45.28975" lon="5.23663">
        <ele>492.84201049805</ele>
        <time>2009-10-14T14:02:48Z</time>
      </trkpt>
      <trkpt lat="45.28931" lon="5.23688">
        <ele>495.86599731445</ele>
        <time>2009-10-14T14:02:56Z</time>
      </trkpt>
      <trkpt lat="45.28896" lon="5.23705">
        <ele>498.58401489258</ele>
        <time>2009-10-14T14:03:03Z</time>
      </trkpt>
      <trkpt lat="45.28862" lon="5.23721">
        <ele>501.01501464844</ele>
        <time>2009-10-14T14:03:11Z</time>
      </trkpt>
      <trkpt lat="45.28845" lon="5.23732">
        <ele>502.0830078125</ele>
        <time>2009-10-14T14:03:15Z</time>
      </trkpt>
      <trkpt lat="45.2882" lon="5.23746">
        <ele>503.55700683594</ele>
        <time>2009-10-14T14:03:22Z</time>
      </trkpt>
      <trkpt lat="45.28809" lon="5.23752">
        <ele>505.04098510742</ele>
        <time>2009-10-14T14:03:25Z</time>
      </trkpt>
      <trkpt lat="45.28782" lon="5.23772">
        <ele>506.74099731445</ele>
        <time>2009-10-14T14:03:33Z</time>
      </trkpt>
      <trkpt lat="45.28765" lon="5.23793">
        <ele>508.4169921875</ele>
        <time>2009-10-14T14:03:39Z</time>
      </trkpt>
      <trkpt lat="45.28746" lon="5.23819">
        <ele>509.71099853516</ele>
        <time>2009-10-14T14:03:46Z</time>
      </trkpt>
      <trkpt lat="45.28717" lon="5.23856">
        <ele>513.625</ele>
        <time>2009-10-14T14:03:57Z</time>
      </trkpt>
      <trkpt lat="45.28698" lon="5.2388">
        <ele>514.63800048828</ele>
        <time>2009-10-14T14:04:05Z</time>
      </trkpt>
      <trkpt lat="45.2868" lon="5.23902">
        <ele>516.05603027344</ele>
        <time>2009-10-14T14:04:12Z</time>
      </trkpt>
      <trkpt lat="45.28659" lon="5.23922">
        <ele>517.68298339844</ele>
        <time>2009-10-14T14:04:19Z</time>
      </trkpt>
      <trkpt lat="45.28645" lon="5.23944">
        <ele>518.97497558594</ele>
        <time>2009-10-14T14:04:25Z</time>
      </trkpt>
      <trkpt lat="45.28645" lon="5.23949">
        <ele>519.2919921875</ele>
        <time>2009-10-14T14:04:26Z</time>
      </trkpt>
      <trkpt lat="45.28656" lon="5.23957">
        <ele>520.04400634766</ele>
        <time>2009-10-14T14:04:30Z</time>
      </trkpt>
      <trkpt lat="45.28662" lon="5.23954">
        <ele>520.16198730469</ele>
        <time>2009-10-14T14:04:32Z</time>
      </trkpt>
      <trkpt lat="45.28684" lon="5.23937">
        <ele>520.75897216797</ele>
        <time>2009-10-14T14:04:38Z</time>
      </trkpt>
      <trkpt lat="45.28712" lon="5.23924">
        <ele>522.35900878906</ele>
        <time>2009-10-14T14:04:45Z</time>
      </trkpt>
      <trkpt lat="45.28747" lon="5.23913">
        <ele>524.76202392578</ele>
        <time>2009-10-14T14:04:54Z</time>
      </trkpt>
      <trkpt lat="45.28781" lon="5.23901">
        <ele>526.65502929688</ele>
        <time>2009-10-14T14:05:03Z</time>
      </trkpt>
      <trkpt lat="45.28813" lon="5.23889">
        <ele>528.78002929688</ele>
        <time>2009-10-14T14:05:12Z</time>
      </trkpt>
      <trkpt lat="45.28826" lon="5.23881">
        <ele>529.84497070312</ele>
        <time>2009-10-14T14:05:17Z</time>
      </trkpt>
      <trkpt lat="45.28843" lon="5.23876">
        <ele>531.24798583984</ele>
        <time>2009-10-14T14:05:22Z</time>
      </trkpt>
      <trkpt lat="45.28864" lon="5.2386">
        <ele>532.32897949219</ele>
        <time>2009-10-14T14:05:29Z</time>
      </trkpt>
      <trkpt lat="45.28881" lon="5.2384">
        <ele>534.16302490234</ele>
        <time>2009-10-14T14:05:35Z</time>
      </trkpt>
      <trkpt lat="45.28891" lon="5.23821">
        <ele>535.91302490234</ele>
        <time>2009-10-14T14:05:40Z</time>
      </trkpt>
      <trkpt lat="45.28912" lon="5.23803">
        <ele>536.99401855469</ele>
        <time>2009-10-14T14:05:47Z</time>
      </trkpt>
      <trkpt lat="45.28931" lon="5.23803">
        <ele>538.45098876953</ele>
        <time>2009-10-14T14:05:53Z</time>
      </trkpt>
      <trkpt lat="45.28943" lon="5.23814">
        <ele>539.50799560547</ele>
        <time>2009-10-14T14:05:57Z</time>
      </trkpt>
      <trkpt lat="45.28955" lon="5.23841">
        <ele>541.21301269531</ele>
        <time>2009-10-14T14:06:03Z</time>
      </trkpt>
      <trkpt lat="45.28957" lon="5.23846">
        <ele>541.49401855469</ele>
        <time>2009-10-14T14:06:04Z</time>
      </trkpt>
      <trkpt lat="45.28963" lon="5.23868">
        <ele>542.71997070312</ele>
        <time>2009-10-14T14:06:09Z</time>
      </trkpt>
      <trkpt lat="45.28968" lon="5.2389">
        <ele>543.13098144531</ele>
        <time>2009-10-14T14:06:14Z</time>
      </trkpt>
      <trkpt lat="45.28975" lon="5.23922">
        <ele>545.37097167969</ele>
        <time>2009-10-14T14:06:21Z</time>
      </trkpt>
      <trkpt lat="45.28977" lon="5.23954">
        <ele>546.90197753906</ele>
        <time>2009-10-14T14:06:28Z</time>
      </trkpt>
      <trkpt lat="45.28984" lon="5.23975">
        <ele>547.45001220703</ele>
        <time>2009-10-14T14:06:33Z</time>
      </trkpt>
      <trkpt lat="45.29" lon="5.23977">
        <ele>548.08502197266</ele>
        <time>2009-10-14T14:06:38Z</time>
      </trkpt>
      <trkpt lat="45.2902" lon="5.23967">
        <ele>549.29302978516</ele>
        <time>2009-10-14T14:06:44Z</time>
      </trkpt>
      <trkpt lat="45.29042" lon="5.23952">
        <ele>550.87902832031</ele>
        <time>2009-10-14T14:06:51Z</time>
      </trkpt>
      <trkpt lat="45.29064" lon="5.23938">
        <ele>552.38000488281</ele>
        <time>2009-10-14T14:06:58Z</time>
      </trkpt>
      <trkpt lat="45.29067" lon="5.23937">
        <ele>552.4990234375</ele>
        <time>2009-10-14T14:06:59Z</time>
      </trkpt>
      <trkpt lat="45.29066" lon="5.23935">
        <ele>552.01702880859</ele>
        <time>2009-10-14T14:07:03Z</time>
      </trkpt>
      <trkpt lat="45.29052" lon="5.23943">
        <ele>551.03002929688</ele>
        <time>2009-10-14T14:07:07Z</time>
      </trkpt>
      <trkpt lat="45.29037" lon="5.23952">
        <ele>549.80401611328</ele>
        <time>2009-10-14T14:07:10Z</time>
      </trkpt>
      <trkpt lat="45.29026" lon="5.2396">
        <ele>549.15997314453</ele>
        <time>2009-10-14T14:07:12Z</time>
      </trkpt>
      <trkpt lat="45.28999" lon="5.23972">
        <ele>548.43902587891</ele>
        <time>2009-10-14T14:07:17Z</time>
      </trkpt>
      <trkpt lat="45.28987" lon="5.23972">
        <ele>547.49700927734</ele>
        <time>2009-10-14T14:07:21Z</time>
      </trkpt>
      <trkpt lat="45.28979" lon="5.23963">
        <ele>547.11999511719</ele>
        <time>2009-10-14T14:07:26Z</time>
      </trkpt>
      <trkpt lat="45.28977" lon="5.23956">
        <ele>546.66497802734</ele>
        <time>2009-10-14T14:07:28Z</time>
      </trkpt>
      <trkpt lat="45.28975" lon="5.23935">
        <ele>545.57098388672</ele>
        <time>2009-10-14T14:07:33Z</time>
      </trkpt>
      <trkpt lat="45.28976" lon="5.23927">
        <ele>545.22998046875</ele>
        <time>2009-10-14T14:07:36Z</time>
      </trkpt>
      <trkpt lat="45.28978" lon="5.2393">
        <ele>545.60101318359</ele>
        <time>2009-10-14T14:07:38Z</time>
      </trkpt>
      <trkpt lat="45.28978" lon="5.23942">
        <ele>546.21002197266</ele>
        <time>2009-10-14T14:07:45Z</time>
      </trkpt>
      <trkpt lat="45.28979" lon="5.23952">
        <ele>546.40997314453</ele>
        <time>2009-10-14T14:07:51Z</time>
      </trkpt>
      <trkpt lat="45.28983" lon="5.23963">
        <ele>546.70098876953</ele>
        <time>2009-10-14T14:07:58Z</time>
      </trkpt>
      <trkpt lat="45.28986" lon="5.23967">
        <ele>547.16998291016</ele>
        <time>2009-10-14T14:08:04Z</time>
      </trkpt>
      <trkpt lat="45.28986" lon="5.23968">
        <ele>547.06097412109</ele>
        <time>2009-10-14T14:08:16Z</time>
      </trkpt>
      <trkpt lat="45.28988" lon="5.23971">
        <ele>547.1240234375</ele>
        <time>2009-10-14T14:08:18Z</time>
      </trkpt>
      <trkpt lat="45.28994" lon="5.23978">
        <ele>547.89099121094</ele>
        <time>2009-10-14T14:08:23Z</time>
      </trkpt>
      <trkpt lat="45.28996" lon="5.23978">
        <ele>548.10797119141</ele>
        <time>2009-10-14T14:08:28Z</time>
      </trkpt>
      <trkpt lat="45.28996" lon="5.23978">
        <ele>548.14300537109</ele>
        <time>2009-10-14T14:08:29Z</time>
      </trkpt>
      <trkpt lat="45.29002" lon="5.23972">
        <ele>547.74798583984</ele>
        <time>2009-10-14T14:08:34Z</time>
      </trkpt>
      <trkpt lat="45.29013" lon="5.23968">
        <ele>548.11999511719</ele>
        <time>2009-10-14T14:08:38Z</time>
      </trkpt>
      <trkpt lat="45.29026" lon="5.23958">
        <ele>549.58697509766</ele>
        <time>2009-10-14T14:08:42Z</time>
      </trkpt>
      <trkpt lat="45.29035" lon="5.23953">
        <ele>550.32800292969</ele>
        <time>2009-10-14T14:08:45Z</time>
      </trkpt>
      <trkpt lat="45.29053" lon="5.23941">
        <ele>551.09899902344</ele>
        <time>2009-10-14T14:08:51Z</time>
      </trkpt>
      <trkpt lat="45.29072" lon="5.23932">
        <ele>552.01599121094</ele>
        <time>2009-10-14T14:08:58Z</time>
      </trkpt>
      <trkpt lat="45.29086" lon="5.23935">
        <ele>552.97100830078</ele>
        <time>2009-10-14T14:09:03Z</time>
      </trkpt>
      <trkpt lat="45.2909" lon="5.23951">
        <ele>553.93499755859</ele>
        <time>2009-10-14T14:09:07Z</time>
      </trkpt>
      <trkpt lat="45.29082" lon="5.23966">
        <ele>554.67999267578</ele>
        <time>2009-10-14T14:09:11Z</time>
      </trkpt>
      <trkpt lat="45.29058" lon="5.23995">
        <ele>555.68798828125</ele>
        <time>2009-10-14T14:09:20Z</time>
      </trkpt>
      <trkpt lat="45.29039" lon="5.24029">
        <ele>557.17498779297</ele>
        <time>2009-10-14T14:09:29Z</time>
      </trkpt>
      <trkpt lat="45.2903" lon="5.24049">
        <ele>558.98498535156</ele>
        <time>2009-10-14T14:09:34Z</time>
      </trkpt>
      <trkpt lat="45.29012" lon="5.24078">
        <ele>560.18798828125</ele>
        <time>2009-10-14T14:09:42Z</time>
      </trkpt>
      <trkpt lat="45.28991" lon="5.24091">
        <ele>562.08502197266</ele>
        <time>2009-10-14T14:09:49Z</time>
      </trkpt>
      <trkpt lat="45.28967" lon="5.24098">
        <ele>563.74499511719</ele>
        <time>2009-10-14T14:09:57Z</time>
      </trkpt>
      <trkpt lat="45.28947" lon="5.24113">
        <ele>564.90997314453</ele>
        <time>2009-10-14T14:10:04Z</time>
      </trkpt>
      <trkpt lat="45.28917" lon="5.24146">
        <ele>567.75897216797</ele>
        <time>2009-10-14T14:10:16Z</time>
      </trkpt>
      <trkpt lat="45.28891" lon="5.24176">
        <ele>570.29498291016</ele>
        <time>2009-10-14T14:10:27Z</time>
      </trkpt>
      <trkpt lat="45.28868" lon="5.24203">
        <ele>571.60198974609</ele>
        <time>2009-10-14T14:10:37Z</time>
      </trkpt>
      <trkpt lat="45.28853" lon="5.24222">
        <ele>573.74102783203</ele>
        <time>2009-10-14T14:10:45Z</time>
      </trkpt>
      <trkpt lat="45.28838" lon="5.2424">
        <ele>575.61700439453</ele>
        <time>2009-10-14T14:10:53Z</time>
      </trkpt>
      <trkpt lat="45.28823" lon="5.2426">
        <ele>576.86901855469</ele>
        <time>2009-10-14T14:11:01Z</time>
      </trkpt>
      <trkpt lat="45.28806" lon="5.2428">
        <ele>578.04699707031</ele>
        <time>2009-10-14T14:11:10Z</time>
      </trkpt>
      <trkpt lat="45.28791" lon="5.24296">
        <ele>579.31097412109</ele>
        <time>2009-10-14T14:11:18Z</time>
      </trkpt>
      <trkpt lat="45.28783" lon="5.24305">
        <ele>580.916015625</ele>
        <time>2009-10-14T14:11:22Z</time>
      </trkpt>
      <trkpt lat="45.28771" lon="5.24321">
        <ele>581.51501464844</ele>
        <time>2009-10-14T14:11:29Z</time>
      </trkpt>
      <trkpt lat="45.28757" lon="5.24337">
        <ele>583.2919921875</ele>
        <time>2009-10-14T14:11:36Z</time>
      </trkpt>
      <trkpt lat="45.28743" lon="5.24356">
        <ele>584.6669921875</ele>
        <time>2009-10-14T14:11:43Z</time>
      </trkpt>
      <trkpt lat="45.28724" lon="5.2438">
        <ele>585.92401123047</ele>
        <time>2009-10-14T14:11:52Z</time>
      </trkpt>
      <trkpt lat="45.28706" lon="5.24402">
        <ele>587.37200927734</ele>
        <time>2009-10-14T14:12:00Z</time>
      </trkpt>
      <trkpt lat="45.28691" lon="5.24422">
        <ele>587.91198730469</ele>
        <time>2009-10-14T14:12:07Z</time>
      </trkpt>
      <trkpt lat="45.28669" lon="5.24447">
        <ele>589.63201904297</ele>
        <time>2009-10-14T14:12:16Z</time>
      </trkpt>
      <trkpt lat="45.28651" lon="5.24465">
        <ele>591.44598388672</ele>
        <time>2009-10-14T14:12:24Z</time>
      </trkpt>
      <trkpt lat="45.28639" lon="5.24475">
        <ele>592.44598388672</ele>
        <time>2009-10-14T14:12:30Z</time>
      </trkpt>
      <trkpt lat="45.28627" lon="5.24484">
        <ele>593.20697021484</ele>
        <time>2009-10-14T14:12:36Z</time>
      </trkpt>
      <trkpt lat="45.28617" lon="5.24492">
        <ele>593.78900146484</ele>
        <time>2009-10-14T14:12:41Z</time>
      </trkpt>
      <trkpt lat="45.28604" lon="5.24503">
        <ele>594.57098388672</ele>
        <time>2009-10-14T14:12:47Z</time>
      </trkpt>
      <trkpt lat="45.28589" lon="5.24518">
        <ele>595.77398681641</ele>
        <time>2009-10-14T14:12:54Z</time>
      </trkpt>
      <trkpt lat="45.28581" lon="5.24526">
        <ele>596.55401611328</ele>
        <time>2009-10-14T14:12:58Z</time>
      </trkpt>
      <trkpt lat="45.28569" lon="5.24543">
        <ele>597.59698486328</ele>
        <time>2009-10-14T14:13:05Z</time>
      </trkpt>
      <trkpt lat="45.28555" lon="5.24561">
        <ele>598.69598388672</ele>
        <time>2009-10-14T14:13:12Z</time>
      </trkpt>
      <trkpt lat="45.28546" lon="5.24574">
        <ele>599.958984375</ele>
        <time>2009-10-14T14:13:17Z</time>
      </trkpt>
      <trkpt lat="45.28534" lon="5.24584">
        <ele>600.92901611328</ele>
        <time>2009-10-14T14:13:21Z</time>
      </trkpt>
      <trkpt lat="45.28517" lon="5.246">
        <ele>601.84100341797</ele>
        <time>2009-10-14T14:13:27Z</time>
      </trkpt>
      <trkpt lat="45.28503" lon="5.24612">
        <ele>603.20001220703</ele>
        <time>2009-10-14T14:13:32Z</time>
      </trkpt>
      <trkpt lat="45.28489" lon="5.24622">
        <ele>604.20202636719</ele>
        <time>2009-10-14T14:13:37Z</time>
      </trkpt>
      <trkpt lat="45.28472" lon="5.2463">
        <ele>604.9990234375</ele>
        <time>2009-10-14T14:13:43Z</time>
      </trkpt>
      <trkpt lat="45.28459" lon="5.24634">
        <ele>606.03601074219</ele>
        <time>2009-10-14T14:13:47Z</time>
      </trkpt>
      <trkpt lat="45.28443" lon="5.24633">
        <ele>607.09100341797</ele>
        <time>2009-10-14T14:13:52Z</time>
      </trkpt>
      <trkpt lat="45.28429" lon="5.24632">
        <ele>608.0009765625</ele>
        <time>2009-10-14T14:13:58Z</time>
      </trkpt>
      <trkpt lat="45.28413" lon="5.24629">
        <ele>608.73797607422</ele>
        <time>2009-10-14T14:14:04Z</time>
      </trkpt>
      <trkpt lat="45.28395" lon="5.24632">
        <ele>609.39599609375</ele>
        <time>2009-10-14T14:14:10Z</time>
      </trkpt>
      <trkpt lat="45.28377" lon="5.24647">
        <ele>610.38000488281</ele>
        <time>2009-10-14T14:14:17Z</time>
      </trkpt>
      <trkpt lat="45.28363" lon="5.24666">
        <ele>610.92602539062</ele>
        <time>2009-10-14T14:14:23Z</time>
      </trkpt>
      <trkpt lat="45.2835" lon="5.24691">
        <ele>611.52600097656</ele>
        <time>2009-10-14T14:14:29Z</time>
      </trkpt>
      <trkpt lat="45.28347" lon="5.24696">
        <ele>611.10797119141</ele>
        <time>2009-10-14T14:14:30Z</time>
      </trkpt>
      <trkpt lat="45.28341" lon="5.24713">
        <ele>611.37701416016</ele>
        <time>2009-10-14T14:14:33Z</time>
      </trkpt>
      <trkpt lat="45.28335" lon="5.2474">
        <ele>611.53100585938</ele>
        <time>2009-10-14T14:14:37Z</time>
      </trkpt>
      <trkpt lat="45.28329" lon="5.2477">
        <ele>611.21899414062</ele>
        <time>2009-10-14T14:14:42Z</time>
      </trkpt>
      <trkpt lat="45.28313" lon="5.24818">
        <ele>612.26000976562</ele>
        <time>2009-10-14T14:14:50Z</time>
      </trkpt>
      <trkpt lat="45.28293" lon="5.24862">
        <ele>611.86297607422</ele>
        <time>2009-10-14T14:14:57Z</time>
      </trkpt>
      <trkpt lat="45.28283" lon="5.2488">
        <ele>612.27301025391</ele>
        <time>2009-10-14T14:15:00Z</time>
      </trkpt>
      <trkpt lat="45.28275" lon="5.24891">
        <ele>612.375</ele>
        <time>2009-10-14T14:15:02Z</time>
      </trkpt>
      <trkpt lat="45.28262" lon="5.24904">
        <ele>613.32897949219</ele>
        <time>2009-10-14T14:15:05Z</time>
      </trkpt>
      <trkpt lat="45.2821" lon="5.2494">
        <ele>614.26599121094</ele>
        <time>2009-10-14T14:15:16Z</time>
      </trkpt>
      <trkpt lat="45.28175" lon="5.24964">
        <ele>615.35198974609</ele>
        <time>2009-10-14T14:15:24Z</time>
      </trkpt>
      <trkpt lat="45.28141" lon="5.24986">
        <ele>616.52697753906</ele>
        <time>2009-10-14T14:15:32Z</time>
      </trkpt>
      <trkpt lat="45.28108" lon="5.25007">
        <ele>618.19799804688</ele>
        <time>2009-10-14T14:15:40Z</time>
      </trkpt>
      <trkpt lat="45.28072" lon="5.25034">
        <ele>619.36199951172</ele>
        <time>2009-10-14T14:15:48Z</time>
      </trkpt>
      <trkpt lat="45.28028" lon="5.2506">
        <ele>619.84399414062</ele>
        <time>2009-10-14T14:15:58Z</time>
      </trkpt>
      <trkpt lat="45.2799" lon="5.25068">
        <ele>618.96899414062</ele>
        <time>2009-10-14T14:16:05Z</time>
      </trkpt>
      <trkpt lat="45.27938" lon="5.25076">
        <ele>617.38702392578</ele>
        <time>2009-10-14T14:16:13Z</time>
      </trkpt>
      <trkpt lat="45.27904" lon="5.25082">
        <ele>616.54797363281</ele>
        <time>2009-10-14T14:16:18Z</time>
      </trkpt>
      <trkpt lat="45.27882" lon="5.25086">
        <ele>616.33599853516</ele>
        <time>2009-10-14T14:16:21Z</time>
      </trkpt>
      <trkpt lat="45.27826" lon="5.25096">
        <ele>617.62701416016</ele>
        <time>2009-10-14T14:16:29Z</time>
      </trkpt>
      <trkpt lat="45.2778" lon="5.25103">
        <ele>618.84399414062</ele>
        <time>2009-10-14T14:16:36Z</time>
      </trkpt>
      <trkpt lat="45.27731" lon="5.25097">
        <ele>617.35601806641</ele>
        <time>2009-10-14T14:16:43Z</time>
      </trkpt>
      <trkpt lat="45.27682" lon="5.25085">
        <ele>615.65698242188</ele>
        <time>2009-10-14T14:16:49Z</time>
      </trkpt>
      <trkpt lat="45.27642" lon="5.25074">
        <ele>614.8330078125</ele>
        <time>2009-10-14T14:16:54Z</time>
      </trkpt>
      <trkpt lat="45.27586" lon="5.25061">
        <ele>613.92602539062</ele>
        <time>2009-10-14T14:17:01Z</time>
      </trkpt>
      <trkpt lat="45.27518" lon="5.25046">
        <ele>615.29602050781</ele>
        <time>2009-10-14T14:17:10Z</time>
      </trkpt>
      <trkpt lat="45.27511" lon="5.25044">
        <ele>615.50598144531</ele>
        <time>2009-10-14T14:17:11Z</time>
      </trkpt>
      <trkpt lat="45.27454" lon="5.25032">
        <ele>616.23297119141</ele>
        <time>2009-10-14T14:17:19Z</time>
      </trkpt>
      <trkpt lat="45.27421" lon="5.25025">
        <ele>614.70098876953</ele>
        <time>2009-10-14T14:17:23Z</time>
      </trkpt>
      <trkpt lat="45.27384" lon="5.25017">
        <ele>612.92102050781</ele>
        <time>2009-10-14T14:17:27Z</time>
      </trkpt>
      <trkpt lat="45.27335" lon="5.25006">
        <ele>610.76501464844</ele>
        <time>2009-10-14T14:17:32Z</time>
      </trkpt>
      <trkpt lat="45.27292" lon="5.24996">
        <ele>608.27502441406</ele>
        <time>2009-10-14T14:17:36Z</time>
      </trkpt>
      <trkpt lat="45.27212" lon="5.24979">
        <ele>603.30200195312</ele>
        <time>2009-10-14T14:17:43Z</time>
      </trkpt>
      <trkpt lat="45.272" lon="5.24979">
        <ele>603.22497558594</ele>
        <time>2009-10-14T14:17:44Z</time>
      </trkpt>
      <trkpt lat="45.27151" lon="5.24986">
        <ele>601.06201171875</ele>
        <time>2009-10-14T14:17:48Z</time>
      </trkpt>
      <trkpt lat="45.27127" lon="5.24991">
        <ele>600.09100341797</ele>
        <time>2009-10-14T14:17:50Z</time>
      </trkpt>
      <trkpt lat="45.27063" lon="5.24987">
        <ele>596.75598144531</ele>
        <time>2009-10-14T14:17:55Z</time>
      </trkpt>
      <trkpt lat="45.27026" lon="5.2498">
        <ele>594.68701171875</ele>
        <time>2009-10-14T14:17:58Z</time>
      </trkpt>
      <trkpt lat="45.27003" lon="5.24968">
        <ele>593.85601806641</ele>
        <time>2009-10-14T14:18:00Z</time>
      </trkpt>
      <trkpt lat="45.26985" lon="5.24948">
        <ele>592.31201171875</ele>
        <time>2009-10-14T14:18:02Z</time>
      </trkpt>
      <trkpt lat="45.2695" lon="5.24903">
        <ele>590.53900146484</ele>
        <time>2009-10-14T14:18:06Z</time>
      </trkpt>
      <trkpt lat="45.26899" lon="5.24836">
        <ele>587.40197753906</ele>
        <time>2009-10-14T14:18:12Z</time>
      </trkpt>
      <trkpt lat="45.2684" lon="5.24794">
        <ele>585.90399169922</ele>
        <time>2009-10-14T14:18:18Z</time>
      </trkpt>
      <trkpt lat="45.26789" lon="5.24763">
        <ele>582.91497802734</ele>
        <time>2009-10-14T14:18:23Z</time>
      </trkpt>
      <trkpt lat="45.2678" lon="5.24755">
        <ele>582.12200927734</ele>
        <time>2009-10-14T14:18:24Z</time>
      </trkpt>
      <trkpt lat="45.26745" lon="5.24709">
        <ele>578.23901367188</ele>
        <time>2009-10-14T14:18:28Z</time>
      </trkpt>
      <trkpt lat="45.26733" lon="5.24679">
        <ele>575.76800537109</ele>
        <time>2009-10-14T14:18:30Z</time>
      </trkpt>
      <trkpt lat="45.26728" lon="5.24624">
        <ele>573.36999511719</ele>
        <time>2009-10-14T14:18:33Z</time>
      </trkpt>
      <trkpt lat="45.2674" lon="5.24576">
        <ele>570.54797363281</ele>
        <time>2009-10-14T14:18:36Z</time>
      </trkpt>
      <trkpt lat="45.26733" lon="5.24541">
        <ele>568.33898925781</ele>
        <time>2009-10-14T14:18:39Z</time>
      </trkpt>
      <trkpt lat="45.26716" lon="5.2454">
        <ele>567.06896972656</ele>
        <time>2009-10-14T14:18:41Z</time>
      </trkpt>
      <trkpt lat="45.26706" lon="5.24543">
        <ele>566.83801269531</ele>
        <time>2009-10-14T14:18:42Z</time>
      </trkpt>
      <trkpt lat="45.26675" lon="5.24565">
        <ele>564.50598144531</ele>
        <time>2009-10-14T14:18:45Z</time>
      </trkpt>
      <trkpt lat="45.2664" lon="5.24586">
        <ele>561.90197753906</ele>
        <time>2009-10-14T14:18:48Z</time>
      </trkpt>
      <trkpt lat="45.26603" lon="5.24585">
        <ele>559.61999511719</ele>
        <time>2009-10-14T14:18:51Z</time>
      </trkpt>
      <trkpt lat="45.26578" lon="5.2457">
        <ele>557.21398925781</ele>
        <time>2009-10-14T14:18:53Z</time>
      </trkpt>
      <trkpt lat="45.26557" lon="5.24526">
        <ele>555.458984375</ele>
        <time>2009-10-14T14:18:56Z</time>
      </trkpt>
      <trkpt lat="45.26563" lon="5.24479">
        <ele>553.20397949219</ele>
        <time>2009-10-14T14:18:59Z</time>
      </trkpt>
      <trkpt lat="45.26575" lon="5.2444">
        <ele>551.52801513672</ele>
        <time>2009-10-14T14:19:02Z</time>
      </trkpt>
      <trkpt lat="45.26556" lon="5.24418">
        <ele>549.17700195312</ele>
        <time>2009-10-14T14:19:06Z</time>
      </trkpt>
      <trkpt lat="45.26539" lon="5.24412">
        <ele>547.47900390625</ele>
        <time>2009-10-14T14:19:08Z</time>
      </trkpt>
      <trkpt lat="45.26492" lon="5.24367">
        <ele>544.36999511719</ele>
        <time>2009-10-14T14:19:13Z</time>
      </trkpt>
      <trkpt lat="45.2649" lon="5.24353">
        <ele>544.12902832031</ele>
        <time>2009-10-14T14:19:14Z</time>
      </trkpt>
      <trkpt lat="45.26499" lon="5.24317">
        <ele>542.64599609375</ele>
        <time>2009-10-14T14:19:17Z</time>
      </trkpt>
      <trkpt lat="45.26506" lon="5.24303">
        <ele>542.27697753906</ele>
        <time>2009-10-14T14:19:19Z</time>
      </trkpt>
      <trkpt lat="45.26502" lon="5.24292">
        <ele>542.05499267578</ele>
        <time>2009-10-14T14:19:21Z</time>
      </trkpt>
      <trkpt lat="45.265" lon="5.24293">
        <ele>541.65100097656</ele>
        <time>2009-10-14T14:19:24Z</time>
      </trkpt>
      <trkpt lat="45.26492" lon="5.243">
        <ele>540.89099121094</ele>
        <time>2009-10-14T14:19:30Z</time>
      </trkpt>
      <trkpt lat="45.26485" lon="5.24319">
        <ele>540.28002929688</ele>
        <time>2009-10-14T14:19:36Z</time>
      </trkpt>
      <trkpt lat="45.26478" lon="5.24334">
        <ele>539.83001708984</ele>
        <time>2009-10-14T14:19:39Z</time>
      </trkpt>
      <trkpt lat="45.26477" lon="5.24367">
        <ele>538.61700439453</ele>
        <time>2009-10-14T14:19:44Z</time>
      </trkpt>
      <trkpt lat="45.26492" lon="5.24427">
        <ele>535.83898925781</ele>
        <time>2009-10-14T14:19:51Z</time>
      </trkpt>
      <trkpt lat="45.26498" lon="5.24446">
        <ele>535.00299072266</ele>
        <time>2009-10-14T14:19:53Z</time>
      </trkpt>
      <trkpt lat="45.26506" lon="5.24493">
        <ele>532.48101806641</ele>
        <time>2009-10-14T14:19:57Z</time>
      </trkpt>
      <trkpt lat="45.26508" lon="5.24517">
        <ele>531.18798828125</ele>
        <time>2009-10-14T14:19:59Z</time>
      </trkpt>
      <trkpt lat="45.26512" lon="5.24543">
        <ele>530.00500488281</ele>
        <time>2009-10-14T14:20:01Z</time>
      </trkpt>
      <trkpt lat="45.26517" lon="5.24566">
        <ele>528.99200439453</ele>
        <time>2009-10-14T14:20:03Z</time>
      </trkpt>
      <trkpt lat="45.26528" lon="5.24611">
        <ele>528.95501708984</ele>
        <time>2009-10-14T14:20:07Z</time>
      </trkpt>
      <trkpt lat="45.26533" lon="5.24672">
        <ele>528.95300292969</ele>
        <time>2009-10-14T14:20:12Z</time>
      </trkpt>
      <trkpt lat="45.26533" lon="5.24712">
        <ele>528.95001220703</ele>
        <time>2009-10-14T14:20:15Z</time>
      </trkpt>
      <trkpt lat="45.26533" lon="5.2474">
        <ele>528.94702148438</ele>
        <time>2009-10-14T14:20:17Z</time>
      </trkpt>
      <trkpt lat="45.26535" lon="5.24871">
        <ele>528.90600585938</ele>
        <time>2009-10-14T14:20:26Z</time>
      </trkpt>
      <trkpt lat="45.26535" lon="5.24918">
        <ele>519.01397705078</ele>
        <time>2009-10-14T14:20:29Z</time>
      </trkpt>
      <trkpt lat="45.26524" lon="5.24974">
        <ele>512.75500488281</ele>
        <time>2009-10-14T14:20:33Z</time>
      </trkpt>
      <trkpt lat="45.26505" lon="5.25003">
        <ele>511.83700561523</ele>
        <time>2009-10-14T14:20:36Z</time>
      </trkpt>
      <trkpt lat="45.26476" lon="5.25018">
        <ele>511.10699462891</ele>
        <time>2009-10-14T14:20:40Z</time>
      </trkpt>
      <trkpt lat="45.26455" lon="5.25008">
        <ele>510.98300170898</ele>
        <time>2009-10-14T14:20:43Z</time>
      </trkpt>
      <trkpt lat="45.26442" lon="5.25">
        <ele>510.98300170898</ele>
        <time>2009-10-14T14:20:45Z</time>
      </trkpt>
      <trkpt lat="45.26389" lon="5.24975">
        <ele>510.97698974609</ele>
        <time>2009-10-14T14:20:53Z</time>
      </trkpt>
      <trkpt lat="45.26369" lon="5.24956">
        <ele>510.97601318359</ele>
        <time>2009-10-14T14:20:57Z</time>
      </trkpt>
      <trkpt lat="45.26346" lon="5.2492">
        <ele>510.97698974609</ele>
        <time>2009-10-14T14:21:03Z</time>
      </trkpt>
      <trkpt lat="45.26336" lon="5.249">
        <ele>510.98400878906</ele>
        <time>2009-10-14T14:21:07Z</time>
      </trkpt>
      <trkpt lat="45.26321" lon="5.24879">
        <ele>514.03002929688</ele>
        <time>2009-10-14T14:21:13Z</time>
      </trkpt>
      <trkpt lat="45.26312" lon="5.24869">
        <ele>514.03997802734</ele>
        <time>2009-10-14T14:21:17Z</time>
      </trkpt>
      <trkpt lat="45.26288" lon="5.24855">
        <ele>514.05401611328</ele>
        <time>2009-10-14T14:21:25Z</time>
      </trkpt>
      <trkpt lat="45.26273" lon="5.24848">
        <ele>517.55798339844</ele>
        <time>2009-10-14T14:21:30Z</time>
      </trkpt>
      <trkpt lat="45.26255" lon="5.24833">
        <ele>517.44598388672</ele>
        <time>2009-10-14T14:21:37Z</time>
      </trkpt>
      <trkpt lat="45.26232" lon="5.24809">
        <ele>517.47100830078</ele>
        <time>2009-10-14T14:21:46Z</time>
      </trkpt>
      <trkpt lat="45.26212" lon="5.24787">
        <ele>517.50299072266</ele>
        <time>2009-10-14T14:21:54Z</time>
      </trkpt>
      <trkpt lat="45.26189" lon="5.24761">
        <ele>517.54699707031</ele>
        <time>2009-10-14T14:22:03Z</time>
      </trkpt>
      <trkpt lat="45.26172" lon="5.24744">
        <ele>526.83502197266</ele>
        <time>2009-10-14T14:22:09Z</time>
      </trkpt>
      <trkpt lat="45.26168" lon="5.24741">
        <ele>526.86499023438</ele>
        <time>2009-10-14T14:22:10Z</time>
      </trkpt>
      <trkpt lat="45.26134" lon="5.24714">
        <ele>528.49102783203</ele>
        <time>2009-10-14T14:22:16Z</time>
      </trkpt>
      <trkpt lat="45.26125" lon="5.24705">
        <ele>529.47497558594</ele>
        <time>2009-10-14T14:22:18Z</time>
      </trkpt>
      <trkpt lat="45.26109" lon="5.24693">
        <ele>530.58898925781</ele>
        <time>2009-10-14T14:22:22Z</time>
      </trkpt>
      <trkpt lat="45.26091" lon="5.24667">
        <ele>531.49200439453</ele>
        <time>2009-10-14T14:22:30Z</time>
      </trkpt>
      <trkpt lat="45.26084" lon="5.24648">
        <ele>531.57501220703</ele>
        <time>2009-10-14T14:22:34Z</time>
      </trkpt>
      <trkpt lat="45.26066" lon="5.24619">
        <ele>531.57800292969</ele>
        <time>2009-10-14T14:22:40Z</time>
      </trkpt>
      <trkpt lat="45.26051" lon="5.24605">
        <ele>532.21197509766</ele>
        <time>2009-10-14T14:22:45Z</time>
      </trkpt>
      <trkpt lat="45.2605" lon="5.24606">
        <ele>531.9169921875</ele>
        <time>2009-10-14T14:22:50Z</time>
      </trkpt>
      <trkpt lat="45.26049" lon="5.24606">
        <ele>532.458984375</ele>
        <time>2009-10-14T14:22:57Z</time>
      </trkpt>
      <trkpt lat="45.26049" lon="5.24607">
        <ele>532.46099853516</ele>
        <time>2009-10-14T14:23:02Z</time>
      </trkpt>
      <trkpt lat="45.26047" lon="5.24607">
        <ele>532.46899414062</ele>
        <time>2009-10-14T14:23:09Z</time>
      </trkpt>
      <trkpt lat="45.26046" lon="5.24607">
        <ele>532.16802978516</ele>
        <time>2009-10-14T14:23:11Z</time>
      </trkpt>
      <trkpt lat="45.26046" lon="5.24607">
        <ele>532.17199707031</ele>
        <time>2009-10-14T14:23:12Z</time>
      </trkpt>
      <trkpt lat="45.26047" lon="5.24606">
        <ele>533.43499755859</ele>
        <time>2009-10-14T14:23:31Z</time>
      </trkpt>
      <trkpt lat="45.26047" lon="5.24607">
        <ele>533.43499755859</ele>
        <time>2009-10-14T14:23:34Z</time>
      </trkpt>
      <trkpt lat="45.26047" lon="5.24607">
        <ele>533.44000244141</ele>
        <time>2009-10-14T14:23:35Z</time>
      </trkpt>
      <trkpt lat="45.26048" lon="5.24607">
        <ele>532.18200683594</ele>
        <time>2009-10-14T14:23:41Z</time>
      </trkpt>
      <trkpt lat="45.26047" lon="5.24608">
        <ele>531.62200927734</ele>
        <time>2009-10-14T14:23:43Z</time>
      </trkpt>
      <trkpt lat="45.26043" lon="5.24606">
        <ele>531.58697509766</ele>
        <time>2009-10-14T14:23:46Z</time>
      </trkpt>
      <trkpt lat="45.26042" lon="5.24604">
        <ele>531.55297851562</ele>
        <time>2009-10-14T14:23:47Z</time>
      </trkpt>
      <trkpt lat="45.26036" lon="5.24597">
        <ele>531.40802001953</ele>
        <time>2009-10-14T14:23:50Z</time>
      </trkpt>
      <trkpt lat="45.26034" lon="5.24594">
        <ele>531.40899658203</ele>
        <time>2009-10-14T14:23:51Z</time>
      </trkpt>
      <trkpt lat="45.26019" lon="5.24577">
        <ele>530.48797607422</ele>
        <time>2009-10-14T14:23:56Z</time>
      </trkpt>
      <trkpt lat="45.26017" lon="5.24574">
        <ele>530.00500488281</ele>
        <time>2009-10-14T14:23:57Z</time>
      </trkpt>
      <trkpt lat="45.26007" lon="5.24561">
        <ele>529.50201416016</ele>
        <time>2009-10-14T14:24:00Z</time>
      </trkpt>
      <trkpt lat="45.25985" lon="5.24529">
        <ele>528.34997558594</ele>
        <time>2009-10-14T14:24:07Z</time>
      </trkpt>
      <trkpt lat="45.25964" lon="5.24497">
        <ele>527.82397460938</ele>
        <time>2009-10-14T14:24:13Z</time>
      </trkpt>
      <trkpt lat="45.25953" lon="5.24481">
        <ele>527.60198974609</ele>
        <time>2009-10-14T14:24:17Z</time>
      </trkpt>
      <trkpt lat="45.25933" lon="5.24452">
        <ele>526.49200439453</ele>
        <time>2009-10-14T14:24:23Z</time>
      </trkpt>
      <trkpt lat="45.25908" lon="5.24424">
        <ele>524.60998535156</ele>
        <time>2009-10-14T14:24:28Z</time>
      </trkpt>
      <trkpt lat="45.25874" lon="5.24387">
        <ele>521.93902587891</ele>
        <time>2009-10-14T14:24:34Z</time>
      </trkpt>
      <trkpt lat="45.25872" lon="5.24383">
        <ele>521.51000976562</ele>
        <time>2009-10-14T14:24:35Z</time>
      </trkpt>
      <trkpt lat="45.25879" lon="5.24368">
        <ele>519.2919921875</ele>
        <time>2009-10-14T14:24:39Z</time>
      </trkpt>
      <trkpt lat="45.25882" lon="5.24362">
        <ele>518.57598876953</ele>
        <time>2009-10-14T14:24:40Z</time>
      </trkpt>
      <trkpt lat="45.25891" lon="5.24329">
        <ele>514.92901611328</ele>
        <time>2009-10-14T14:24:45Z</time>
      </trkpt>
      <trkpt lat="45.25897" lon="5.24296">
        <ele>511.73098754883</ele>
        <time>2009-10-14T14:24:50Z</time>
      </trkpt>
      <trkpt lat="45.25897" lon="5.24286">
        <ele>510.99798583984</ele>
        <time>2009-10-14T14:24:52Z</time>
      </trkpt>
      <trkpt lat="45.259" lon="5.24275">
        <ele>510.21301269531</ele>
        <time>2009-10-14T14:24:54Z</time>
      </trkpt>
      <trkpt lat="45.25895" lon="5.24252">
        <ele>509.49398803711</ele>
        <time>2009-10-14T14:24:58Z</time>
      </trkpt>
      <trkpt lat="45.25891" lon="5.24248">
        <ele>509.24499511719</ele>
        <time>2009-10-14T14:24:59Z</time>
      </trkpt>
      <trkpt lat="45.25869" lon="5.24223">
        <ele>507.31799316406</ele>
        <time>2009-10-14T14:25:03Z</time>
      </trkpt>
      <trkpt lat="45.25862" lon="5.2421">
        <ele>506.71798706055</ele>
        <time>2009-10-14T14:25:05Z</time>
      </trkpt>
      <trkpt lat="45.25853" lon="5.24178">
        <ele>503.85598754883</ele>
        <time>2009-10-14T14:25:09Z</time>
      </trkpt>
      <trkpt lat="45.25851" lon="5.2417">
        <ele>503.29901123047</ele>
        <time>2009-10-14T14:25:10Z</time>
      </trkpt>
      <trkpt lat="45.25843" lon="5.24144">
        <ele>502.51901245117</ele>
        <time>2009-10-14T14:25:15Z</time>
      </trkpt>
      <trkpt lat="45.25835" lon="5.24131">
        <ele>501.58099365234</ele>
        <time>2009-10-14T14:25:20Z</time>
      </trkpt>
      <trkpt lat="45.2583" lon="5.24122">
        <ele>501.34201049805</ele>
        <time>2009-10-14T14:25:23Z</time>
      </trkpt>
      <trkpt lat="45.25823" lon="5.2412">
        <ele>500.86401367188</ele>
        <time>2009-10-14T14:25:29Z</time>
      </trkpt>
      <trkpt lat="45.25821" lon="5.24121">
        <ele>501.00299072266</ele>
        <time>2009-10-14T14:25:31Z</time>
      </trkpt>
      <trkpt lat="45.25808" lon="5.24127">
        <ele>501.20098876953</ele>
        <time>2009-10-14T14:25:37Z</time>
      </trkpt>
      <trkpt lat="45.25801" lon="5.24138">
        <ele>501.07800292969</ele>
        <time>2009-10-14T14:25:41Z</time>
      </trkpt>
      <trkpt lat="45.25796" lon="5.24152">
        <ele>501.13900756836</ele>
        <time>2009-10-14T14:25:45Z</time>
      </trkpt>
      <trkpt lat="45.25784" lon="5.24173">
        <ele>501.29400634766</ele>
        <time>2009-10-14T14:25:51Z</time>
      </trkpt>
      <trkpt lat="45.25771" lon="5.24189">
        <ele>501.36599731445</ele>
        <time>2009-10-14T14:25:55Z</time>
      </trkpt>
      <trkpt lat="45.25764" lon="5.24197">
        <ele>501.30700683594</ele>
        <time>2009-10-14T14:25:57Z</time>
      </trkpt>
      <trkpt lat="45.25727" lon="5.24245">
        <ele>501.13101196289</ele>
        <time>2009-10-14T14:26:08Z</time>
      </trkpt>
      <trkpt lat="45.25694" lon="5.24286">
        <ele>501.13598632812</ele>
        <time>2009-10-14T14:26:17Z</time>
      </trkpt>
      <trkpt lat="45.25661" lon="5.24327">
        <ele>501.14001464844</ele>
        <time>2009-10-14T14:26:26Z</time>
      </trkpt>
      <trkpt lat="45.25631" lon="5.24363">
        <ele>501.14498901367</ele>
        <time>2009-10-14T14:26:34Z</time>
      </trkpt>
      <trkpt lat="45.25613" lon="5.24386">
        <ele>503.35198974609</ele>
        <time>2009-10-14T14:26:39Z</time>
      </trkpt>
      <trkpt lat="45.25596" lon="5.24401">
        <ele>503.82998657227</ele>
        <time>2009-10-14T14:26:43Z</time>
      </trkpt>
      <trkpt lat="45.25562" lon="5.24417">
        <ele>505.30899047852</ele>
        <time>2009-10-14T14:26:51Z</time>
      </trkpt>
      <trkpt lat="45.25539" lon="5.24428">
        <ele>505.60900878906</ele>
        <time>2009-10-14T14:26:56Z</time>
      </trkpt>
      <trkpt lat="45.2553" lon="5.24433">
        <ele>505.77499389648</ele>
        <time>2009-10-14T14:26:58Z</time>
      </trkpt>
      <trkpt lat="45.25505" lon="5.24445">
        <ele>506.48999023438</ele>
        <time>2009-10-14T14:27:04Z</time>
      </trkpt>
      <trkpt lat="45.25497" lon="5.24449">
        <ele>506.28900146484</ele>
        <time>2009-10-14T14:27:06Z</time>
      </trkpt>
      <trkpt lat="45.25485" lon="5.24455">
        <ele>506.52700805664</ele>
        <time>2009-10-14T14:27:09Z</time>
      </trkpt>
      <trkpt lat="45.25461" lon="5.24465">
        <ele>507.10400390625</ele>
        <time>2009-10-14T14:27:15Z</time>
      </trkpt>
      <trkpt lat="45.25457" lon="5.24466">
        <ele>507.23001098633</ele>
        <time>2009-10-14T14:27:16Z</time>
      </trkpt>
      <trkpt lat="45.25449" lon="5.2447">
        <ele>507.62200927734</ele>
        <time>2009-10-14T14:27:18Z</time>
      </trkpt>
      <trkpt lat="45.25437" lon="5.24461">
        <ele>507.96200561523</ele>
        <time>2009-10-14T14:27:22Z</time>
      </trkpt>
      <trkpt lat="45.25436" lon="5.24453">
        <ele>508.38000488281</ele>
        <time>2009-10-14T14:27:24Z</time>
      </trkpt>
      <trkpt lat="45.2544" lon="5.24422">
        <ele>509.13800048828</ele>
        <time>2009-10-14T14:27:31Z</time>
      </trkpt>
      <trkpt lat="45.25444" lon="5.24408">
        <ele>510.06201171875</ele>
        <time>2009-10-14T14:27:35Z</time>
      </trkpt>
      <trkpt lat="45.25446" lon="5.2439">
        <ele>511.54699707031</ele>
        <time>2009-10-14T14:27:41Z</time>
      </trkpt>
      <trkpt lat="45.25449" lon="5.24367">
        <ele>512.94500732422</ele>
        <time>2009-10-14T14:27:48Z</time>
      </trkpt>
      <trkpt lat="45.25457" lon="5.24343">
        <ele>515.041015625</ele>
        <time>2009-10-14T14:27:55Z</time>
      </trkpt>
      <trkpt lat="45.25462" lon="5.24331">
        <ele>516.48498535156</ele>
        <time>2009-10-14T14:27:59Z</time>
      </trkpt>
      <trkpt lat="45.25471" lon="5.24316">
        <ele>517.92199707031</ele>
        <time>2009-10-14T14:28:06Z</time>
      </trkpt>
      <trkpt lat="45.25477" lon="5.24307">
        <ele>518.87298583984</ele>
        <time>2009-10-14T14:28:11Z</time>
      </trkpt>
      <trkpt lat="45.25488" lon="5.24295">
        <ele>520.88299560547</ele>
        <time>2009-10-14T14:28:18Z</time>
      </trkpt>
      <trkpt lat="45.25499" lon="5.24278">
        <ele>522.8330078125</ele>
        <time>2009-10-14T14:28:25Z</time>
      </trkpt>
      <trkpt lat="45.25509" lon="5.24259">
        <ele>524.32897949219</ele>
        <time>2009-10-14T14:28:32Z</time>
      </trkpt>
      <trkpt lat="45.25514" lon="5.24243">
        <ele>525.78900146484</ele>
        <time>2009-10-14T14:28:38Z</time>
      </trkpt>
      <trkpt lat="45.25521" lon="5.2422">
        <ele>527.55603027344</ele>
        <time>2009-10-14T14:28:46Z</time>
      </trkpt>
      <trkpt lat="45.25529" lon="5.24196">
        <ele>528.82000732422</ele>
        <time>2009-10-14T14:28:54Z</time>
      </trkpt>
      <trkpt lat="45.25538" lon="5.24175">
        <ele>530.25402832031</ele>
        <time>2009-10-14T14:29:01Z</time>
      </trkpt>
      <trkpt lat="45.25546" lon="5.24155">
        <ele>531.57501220703</ele>
        <time>2009-10-14T14:29:08Z</time>
      </trkpt>
      <trkpt lat="45.25555" lon="5.2413">
        <ele>533.15502929688</ele>
        <time>2009-10-14T14:29:17Z</time>
      </trkpt>
      <trkpt lat="45.25561" lon="5.24113">
        <ele>534.16900634766</ele>
        <time>2009-10-14T14:29:23Z</time>
      </trkpt>
      <trkpt lat="45.25562" lon="5.24101">
        <ele>534.48602294922</ele>
        <time>2009-10-14T14:29:27Z</time>
      </trkpt>
      <trkpt lat="45.25557" lon="5.24095">
        <ele>536.10998535156</ele>
        <time>2009-10-14T14:29:30Z</time>
      </trkpt>
      <trkpt lat="45.25549" lon="5.24093">
        <ele>537.76300048828</ele>
        <time>2009-10-14T14:29:34Z</time>
      </trkpt>
      <trkpt lat="45.25537" lon="5.24098">
        <ele>538.90802001953</ele>
        <time>2009-10-14T14:29:40Z</time>
      </trkpt>
      <trkpt lat="45.25525" lon="5.24105">
        <ele>540.13000488281</ele>
        <time>2009-10-14T14:29:47Z</time>
      </trkpt>
      <trkpt lat="45.25523" lon="5.24106">
        <ele>540.36602783203</ele>
        <time>2009-10-14T14:29:48Z</time>
      </trkpt>
      <trkpt lat="45.2551" lon="5.24111">
        <ele>541.25299072266</ele>
        <time>2009-10-14T14:29:55Z</time>
      </trkpt>
      <trkpt lat="45.25497" lon="5.24117">
        <ele>542.32800292969</ele>
        <time>2009-10-14T14:30:02Z</time>
      </trkpt>
      <trkpt lat="45.25484" lon="5.24125">
        <ele>543.39898681641</ele>
        <time>2009-10-14T14:30:08Z</time>
      </trkpt>
      <trkpt lat="45.25471" lon="5.24136">
        <ele>544.49102783203</ele>
        <time>2009-10-14T14:30:14Z</time>
      </trkpt>
      <trkpt lat="45.25459" lon="5.24146">
        <ele>545.94799804688</ele>
        <time>2009-10-14T14:30:21Z</time>
      </trkpt>
      <trkpt lat="45.25449" lon="5.24154">
        <ele>546.98199462891</ele>
        <time>2009-10-14T14:30:26Z</time>
      </trkpt>
      <trkpt lat="45.25439" lon="5.24164">
        <ele>548.53198242188</ele>
        <time>2009-10-14T14:30:32Z</time>
      </trkpt>
      <trkpt lat="45.25427" lon="5.24177">
        <ele>550.78900146484</ele>
        <time>2009-10-14T14:30:38Z</time>
      </trkpt>
      <trkpt lat="45.25411" lon="5.2419">
        <ele>553.63897705078</ele>
        <time>2009-10-14T14:30:44Z</time>
      </trkpt>
      <trkpt lat="45.25398" lon="5.24198">
        <ele>555.96801757812</ele>
        <time>2009-10-14T14:30:49Z</time>
      </trkpt>
      <trkpt lat="45.25389" lon="5.24204">
        <ele>558.24102783203</ele>
        <time>2009-10-14T14:30:53Z</time>
      </trkpt>
      <trkpt lat="45.25386" lon="5.24206">
        <ele>558.42102050781</ele>
        <time>2009-10-14T14:30:54Z</time>
      </trkpt>
      <trkpt lat="45.2537" lon="5.24213">
        <ele>561.04302978516</ele>
        <time>2009-10-14T14:30:59Z</time>
      </trkpt>
      <trkpt lat="45.25366" lon="5.24214">
        <ele>561.26800537109</ele>
        <time>2009-10-14T14:31:00Z</time>
      </trkpt>
      <trkpt lat="45.25343" lon="5.24221">
        <ele>564.56097412109</ele>
        <time>2009-10-14T14:31:05Z</time>
      </trkpt>
      <trkpt lat="45.25323" lon="5.24229">
        <ele>567.06201171875</ele>
        <time>2009-10-14T14:31:10Z</time>
      </trkpt>
      <trkpt lat="45.25306" lon="5.24235">
        <ele>568.78002929688</ele>
        <time>2009-10-14T14:31:16Z</time>
      </trkpt>
      <trkpt lat="45.25294" lon="5.24233">
        <ele>570.16198730469</ele>
        <time>2009-10-14T14:31:21Z</time>
      </trkpt>
      <trkpt lat="45.25286" lon="5.24226">
        <ele>570.21801757812</ele>
        <time>2009-10-14T14:31:26Z</time>
      </trkpt>
      <trkpt lat="45.25278" lon="5.24217">
        <ele>572.62701416016</ele>
        <time>2009-10-14T14:31:31Z</time>
      </trkpt>
      <trkpt lat="45.25271" lon="5.24206">
        <ele>573.65301513672</ele>
        <time>2009-10-14T14:31:37Z</time>
      </trkpt>
      <trkpt lat="45.25267" lon="5.24192">
        <ele>575.2509765625</ele>
        <time>2009-10-14T14:31:43Z</time>
      </trkpt>
      <trkpt lat="45.25273" lon="5.24175">
        <ele>576.85797119141</ele>
        <time>2009-10-14T14:31:48Z</time>
      </trkpt>
      <trkpt lat="45.25285" lon="5.24149">
        <ele>580.15301513672</ele>
        <time>2009-10-14T14:31:57Z</time>
      </trkpt>
      <trkpt lat="45.25291" lon="5.24135">
        <ele>581.21099853516</ele>
        <time>2009-10-14T14:32:03Z</time>
      </trkpt>
      <trkpt lat="45.25299" lon="5.24115">
        <ele>582.28997802734</ele>
        <time>2009-10-14T14:32:12Z</time>
      </trkpt>
      <trkpt lat="45.25301" lon="5.24105">
        <ele>583.19396972656</ele>
        <time>2009-10-14T14:32:17Z</time>
      </trkpt>
      <trkpt lat="45.25303" lon="5.24097">
        <ele>583.6259765625</ele>
        <time>2009-10-14T14:32:21Z</time>
      </trkpt>
      <trkpt lat="45.2531" lon="5.24079">
        <ele>584.82299804688</ele>
        <time>2009-10-14T14:32:29Z</time>
      </trkpt>
      <trkpt lat="45.25314" lon="5.24058">
        <ele>585.97497558594</ele>
        <time>2009-10-14T14:32:37Z</time>
      </trkpt>
      <trkpt lat="45.2531" lon="5.24044">
        <ele>587.80499267578</ele>
        <time>2009-10-14T14:32:42Z</time>
      </trkpt>
      <trkpt lat="45.25299" lon="5.2402">
        <ele>590.52197265625</ele>
        <time>2009-10-14T14:32:51Z</time>
      </trkpt>
      <trkpt lat="45.25291" lon="5.24002">
        <ele>592.49200439453</ele>
        <time>2009-10-14T14:32:58Z</time>
      </trkpt>
      <trkpt lat="45.25289" lon="5.23985">
        <ele>593.45098876953</ele>
        <time>2009-10-14T14:33:04Z</time>
      </trkpt>
      <trkpt lat="45.25289" lon="5.2398">
        <ele>594.22399902344</ele>
        <time>2009-10-14T14:33:06Z</time>
      </trkpt>
      <trkpt lat="45.25292" lon="5.2397">
        <ele>594.60198974609</ele>
        <time>2009-10-14T14:33:10Z</time>
      </trkpt>
      <trkpt lat="45.25302" lon="5.23951">
        <ele>595.62799072266</ele>
        <time>2009-10-14T14:33:19Z</time>
      </trkpt>
      <trkpt lat="45.25309" lon="5.23943">
        <ele>596.01397705078</ele>
        <time>2009-10-14T14:33:24Z</time>
      </trkpt>
      <trkpt lat="45.25318" lon="5.23934">
        <ele>594.38397216797</ele>
        <time>2009-10-14T14:33:31Z</time>
      </trkpt>
      <trkpt lat="45.25319" lon="5.23932">
        <ele>594.16302490234</ele>
        <time>2009-10-14T14:33:32Z</time>
      </trkpt>
      <trkpt lat="45.25327" lon="5.23919">
        <ele>595.3330078125</ele>
        <time>2009-10-14T14:33:38Z</time>
      </trkpt>
      <trkpt lat="45.25334" lon="5.239">
        <ele>594.68103027344</ele>
        <time>2009-10-14T14:33:44Z</time>
      </trkpt>
      <trkpt lat="45.25336" lon="5.23881">
        <ele>595.42297363281</ele>
        <time>2009-10-14T14:33:50Z</time>
      </trkpt>
      <trkpt lat="45.25338" lon="5.23865">
        <ele>595.75500488281</ele>
        <time>2009-10-14T14:33:55Z</time>
      </trkpt>
      <trkpt lat="45.25337" lon="5.23856">
        <ele>595.84899902344</ele>
        <time>2009-10-14T14:33:59Z</time>
      </trkpt>
      <trkpt lat="45.25333" lon="5.23841">
        <ele>595.75799560547</ele>
        <time>2009-10-14T14:34:06Z</time>
      </trkpt>
      <trkpt lat="45.25331" lon="5.23837">
        <ele>596.18103027344</ele>
        <time>2009-10-14T14:34:11Z</time>
      </trkpt>
      <trkpt lat="45.25336" lon="5.23846">
        <ele>595.92102050781</ele>
        <time>2009-10-14T14:34:15Z</time>
      </trkpt>
      <trkpt lat="45.25336" lon="5.23849">
        <ele>596.10699462891</ele>
        <time>2009-10-14T14:34:16Z</time>
      </trkpt>
      <trkpt lat="45.25336" lon="5.2388">
        <ele>596.02001953125</ele>
        <time>2009-10-14T14:34:23Z</time>
      </trkpt>
      <trkpt lat="45.25334" lon="5.23893">
        <ele>595.80700683594</ele>
        <time>2009-10-14T14:34:27Z</time>
      </trkpt>
      <trkpt lat="45.25334" lon="5.23896">
        <ele>595.68298339844</ele>
        <time>2009-10-14T14:34:28Z</time>
      </trkpt>
      <trkpt lat="45.25336" lon="5.23894">
        <ele>595.16302490234</ele>
        <time>2009-10-14T14:34:32Z</time>
      </trkpt>
      <trkpt lat="45.25336" lon="5.23886">
        <ele>595.60900878906</ele>
        <time>2009-10-14T14:34:34Z</time>
      </trkpt>
      <trkpt lat="45.25336" lon="5.2385">
        <ele>595.90997314453</ele>
        <time>2009-10-14T14:34:40Z</time>
      </trkpt>
      <trkpt lat="45.25323" lon="5.23828">
        <ele>596.25897216797</ele>
        <time>2009-10-14T14:34:45Z</time>
      </trkpt>
      <trkpt lat="45.2532" lon="5.23827">
        <ele>596.57202148438</ele>
        <time>2009-10-14T14:34:46Z</time>
      </trkpt>
      <trkpt lat="45.25297" lon="5.23821">
        <ele>599.14099121094</ele>
        <time>2009-10-14T14:34:52Z</time>
      </trkpt>
      <trkpt lat="45.25279" lon="5.23821">
        <ele>600.78601074219</ele>
        <time>2009-10-14T14:34:56Z</time>
      </trkpt>
      <trkpt lat="45.2527" lon="5.23822">
        <ele>601.4580078125</ele>
        <time>2009-10-14T14:34:58Z</time>
      </trkpt>
      <trkpt lat="45.25261" lon="5.23823">
        <ele>602.33801269531</ele>
        <time>2009-10-14T14:35:00Z</time>
      </trkpt>
      <trkpt lat="45.25237" lon="5.23831">
        <ele>604.72900390625</ele>
        <time>2009-10-14T14:35:06Z</time>
      </trkpt>
      <trkpt lat="45.25221" lon="5.23835">
        <ele>606.52899169922</ele>
        <time>2009-10-14T14:35:11Z</time>
      </trkpt>
      <trkpt lat="45.25203" lon="5.23839">
        <ele>608.12097167969</ele>
        <time>2009-10-14T14:35:17Z</time>
      </trkpt>
      <trkpt lat="45.2519" lon="5.23842">
        <ele>609.43499755859</ele>
        <time>2009-10-14T14:35:22Z</time>
      </trkpt>
      <trkpt lat="45.25178" lon="5.23848">
        <ele>610.51599121094</ele>
        <time>2009-10-14T14:35:27Z</time>
      </trkpt>
      <trkpt lat="45.25164" lon="5.23854">
        <ele>611.43200683594</ele>
        <time>2009-10-14T14:35:34Z</time>
      </trkpt>
      <trkpt lat="45.25158" lon="5.23856">
        <ele>611.39801025391</ele>
        <time>2009-10-14T14:35:37Z</time>
      </trkpt>
      <trkpt lat="45.25143" lon="5.23862">
        <ele>612.50701904297</ele>
        <time>2009-10-14T14:35:45Z</time>
      </trkpt>
      <trkpt lat="45.25127" lon="5.2387">
        <ele>613.49597167969</ele>
        <time>2009-10-14T14:35:52Z</time>
      </trkpt>
      <trkpt lat="45.25111" lon="5.23879">
        <ele>613.76000976562</ele>
        <time>2009-10-14T14:35:59Z</time>
      </trkpt>
      <trkpt lat="45.25087" lon="5.23886">
        <ele>613.81201171875</ele>
        <time>2009-10-14T14:36:06Z</time>
      </trkpt>
      <trkpt lat="45.2506" lon="5.23886">
        <ele>614.77001953125</ele>
        <time>2009-10-14T14:36:13Z</time>
      </trkpt>
      <trkpt lat="45.25036" lon="5.23892">
        <ele>616.17297363281</ele>
        <time>2009-10-14T14:36:20Z</time>
      </trkpt>
      <trkpt lat="45.25011" lon="5.23901">
        <ele>617.42797851562</ele>
        <time>2009-10-14T14:36:28Z</time>
      </trkpt>
      <trkpt lat="45.24995" lon="5.23905">
        <ele>617.56701660156</ele>
        <time>2009-10-14T14:36:33Z</time>
      </trkpt>
      <trkpt lat="45.24974" lon="5.23904">
        <ele>617.79699707031</ele>
        <time>2009-10-14T14:36:39Z</time>
      </trkpt>
      <trkpt lat="45.24961" lon="5.2389">
        <ele>618.00701904297</ele>
        <time>2009-10-14T14:36:43Z</time>
      </trkpt>
      <trkpt lat="45.24951" lon="5.2386">
        <ele>618.57800292969</ele>
        <time>2009-10-14T14:36:49Z</time>
      </trkpt>
      <trkpt lat="45.24947" lon="5.23844">
        <ele>618.76397705078</ele>
        <time>2009-10-14T14:36:52Z</time>
      </trkpt>
      <trkpt lat="45.24931" lon="5.23802">
        <ele>620.33801269531</ele>
        <time>2009-10-14T14:37:00Z</time>
      </trkpt>
      <trkpt lat="45.24913" lon="5.23755">
        <ele>622.27600097656</ele>
        <time>2009-10-14T14:37:09Z</time>
      </trkpt>
      <trkpt lat="45.24895" lon="5.23705">
        <ele>621.7509765625</ele>
        <time>2009-10-14T14:37:18Z</time>
      </trkpt>
      <trkpt lat="45.2488" lon="5.23657">
        <ele>621.05200195312</ele>
        <time>2009-10-14T14:37:25Z</time>
      </trkpt>
      <trkpt lat="45.24862" lon="5.23592">
        <ele>620.57800292969</ele>
        <time>2009-10-14T14:37:34Z</time>
      </trkpt>
      <trkpt lat="45.24846" lon="5.23549">
        <ele>621.61499023438</ele>
        <time>2009-10-14T14:37:41Z</time>
      </trkpt>
      <trkpt lat="45.24818" lon="5.23494">
        <ele>620.35400390625</ele>
        <time>2009-10-14T14:37:49Z</time>
      </trkpt>
      <trkpt lat="45.24793" lon="5.23442">
        <ele>619.33898925781</ele>
        <time>2009-10-14T14:37:56Z</time>
      </trkpt>
      <trkpt lat="45.2479" lon="5.23434">
        <ele>619.42999267578</ele>
        <time>2009-10-14T14:37:57Z</time>
      </trkpt>
      <trkpt lat="45.24759" lon="5.23385">
        <ele>617.88897705078</ele>
        <time>2009-10-14T14:38:04Z</time>
      </trkpt>
      <trkpt lat="45.24747" lon="5.23373">
        <ele>616.97998046875</ele>
        <time>2009-10-14T14:38:06Z</time>
      </trkpt>
      <trkpt lat="45.24727" lon="5.23338">
        <ele>615.73400878906</ele>
        <time>2009-10-14T14:38:10Z</time>
      </trkpt>
      <trkpt lat="45.24724" lon="5.23327">
        <ele>615.08099365234</ele>
        <time>2009-10-14T14:38:11Z</time>
      </trkpt>
      <trkpt lat="45.2471" lon="5.23238">
        <ele>613.78399658203</ele>
        <time>2009-10-14T14:38:19Z</time>
      </trkpt>
      <trkpt lat="45.24716" lon="5.23187">
        <ele>612.09802246094</ele>
        <time>2009-10-14T14:38:24Z</time>
      </trkpt>
      <trkpt lat="45.24732" lon="5.23139">
        <ele>614.833984375</ele>
        <time>2009-10-14T14:38:30Z</time>
      </trkpt>
      <trkpt lat="45.24745" lon="5.23102">
        <ele>614.50799560547</ele>
        <time>2009-10-14T14:38:35Z</time>
      </trkpt>
      <trkpt lat="45.24763" lon="5.23042">
        <ele>613.54699707031</ele>
        <time>2009-10-14T14:38:42Z</time>
      </trkpt>
      <trkpt lat="45.24785" lon="5.22962">
        <ele>612.01397705078</ele>
        <time>2009-10-14T14:38:50Z</time>
      </trkpt>
      <trkpt lat="45.24803" lon="5.22895">
        <ele>612.27600097656</ele>
        <time>2009-10-14T14:38:57Z</time>
      </trkpt>
      <trkpt lat="45.24819" lon="5.22838">
        <ele>611.17401123047</ele>
        <time>2009-10-14T14:39:03Z</time>
      </trkpt>
      <trkpt lat="45.24835" lon="5.22806">
        <ele>609.39398193359</ele>
        <time>2009-10-14T14:39:07Z</time>
      </trkpt>
      <trkpt lat="45.2485" lon="5.22784">
        <ele>608.041015625</ele>
        <time>2009-10-14T14:39:10Z</time>
      </trkpt>
      <trkpt lat="45.24866" lon="5.22762">
        <ele>606.69299316406</ele>
        <time>2009-10-14T14:39:13Z</time>
      </trkpt>
      <trkpt lat="45.24873" lon="5.22754">
        <ele>606.34100341797</ele>
        <time>2009-10-14T14:39:14Z</time>
      </trkpt>
      <trkpt lat="45.24904" lon="5.22736">
        <ele>602.70202636719</ele>
        <time>2009-10-14T14:39:18Z</time>
      </trkpt>
      <trkpt lat="45.24929" lon="5.22706">
        <ele>600.333984375</ele>
        <time>2009-10-14T14:39:22Z</time>
      </trkpt>
      <trkpt lat="45.24941" lon="5.22686">
        <ele>599.55297851562</ele>
        <time>2009-10-14T14:39:24Z</time>
      </trkpt>
      <trkpt lat="45.24965" lon="5.2263">
        <ele>596.51000976562</ele>
        <time>2009-10-14T14:39:29Z</time>
      </trkpt>
      <trkpt lat="45.24971" lon="5.22605">
        <ele>596.28802490234</ele>
        <time>2009-10-14T14:39:31Z</time>
      </trkpt>
      <trkpt lat="45.24977" lon="5.22582">
        <ele>596.00701904297</ele>
        <time>2009-10-14T14:39:33Z</time>
      </trkpt>
      <trkpt lat="45.25002" lon="5.22551">
        <ele>595.66900634766</ele>
        <time>2009-10-14T14:39:37Z</time>
      </trkpt>
      <trkpt lat="45.25014" lon="5.22536">
        <ele>595.29400634766</ele>
        <time>2009-10-14T14:39:39Z</time>
      </trkpt>
      <trkpt lat="45.25024" lon="5.22518">
        <ele>595.32299804688</ele>
        <time>2009-10-14T14:39:41Z</time>
      </trkpt>
      <trkpt lat="45.25047" lon="5.22473">
        <ele>595.39099121094</ele>
        <time>2009-10-14T14:39:46Z</time>
      </trkpt>
      <trkpt lat="45.25061" lon="5.22417">
        <ele>596.63897705078</ele>
        <time>2009-10-14T14:39:52Z</time>
      </trkpt>
      <trkpt lat="45.25075" lon="5.22364">
        <ele>597.48797607422</ele>
        <time>2009-10-14T14:39:58Z</time>
      </trkpt>
      <trkpt lat="45.25089" lon="5.22313">
        <ele>597.65002441406</ele>
        <time>2009-10-14T14:40:04Z</time>
      </trkpt>
      <trkpt lat="45.25106" lon="5.22242">
        <ele>596.99499511719</ele>
        <time>2009-10-14T14:40:12Z</time>
      </trkpt>
      <trkpt lat="45.25119" lon="5.2217">
        <ele>596.71398925781</ele>
        <time>2009-10-14T14:40:20Z</time>
      </trkpt>
      <trkpt lat="45.25136" lon="5.22122">
        <ele>594.28399658203</ele>
        <time>2009-10-14T14:40:26Z</time>
      </trkpt>
      <trkpt lat="45.25163" lon="5.22085">
        <ele>592.52099609375</ele>
        <time>2009-10-14T14:40:32Z</time>
      </trkpt>
      <trkpt lat="45.2519" lon="5.22048">
        <ele>591.17999267578</ele>
        <time>2009-10-14T14:40:38Z</time>
      </trkpt>
      <trkpt lat="45.25204" lon="5.22029">
        <ele>591.19799804688</ele>
        <time>2009-10-14T14:40:41Z</time>
      </trkpt>
      <trkpt lat="45.25209" lon="5.22023">
        <ele>590.88397216797</ele>
        <time>2009-10-14T14:40:42Z</time>
      </trkpt>
      <trkpt lat="45.25214" lon="5.21989">
        <ele>587.84497070312</ele>
        <time>2009-10-14T14:40:46Z</time>
      </trkpt>
      <trkpt lat="45.25204" lon="5.21974">
        <ele>587.83502197266</ele>
        <time>2009-10-14T14:40:48Z</time>
      </trkpt>
      <trkpt lat="45.25193" lon="5.21961">
        <ele>587.89898681641</ele>
        <time>2009-10-14T14:40:50Z</time>
      </trkpt>
      <trkpt lat="45.25181" lon="5.21948">
        <ele>588.13800048828</ele>
        <time>2009-10-14T14:40:52Z</time>
      </trkpt>
      <trkpt lat="45.25174" lon="5.21941">
        <ele>588.07299804688</ele>
        <time>2009-10-14T14:40:53Z</time>
      </trkpt>
      <trkpt lat="45.25149" lon="5.21911">
        <ele>587.12902832031</ele>
        <time>2009-10-14T14:40:57Z</time>
      </trkpt>
      <trkpt lat="45.25127" lon="5.21861">
        <ele>586.40301513672</ele>
        <time>2009-10-14T14:41:02Z</time>
      </trkpt>
      <trkpt lat="45.25118" lon="5.21801">
        <ele>584.90802001953</ele>
        <time>2009-10-14T14:41:08Z</time>
      </trkpt>
      <trkpt lat="45.251" lon="5.21755">
        <ele>583.41998291016</ele>
        <time>2009-10-14T14:41:13Z</time>
      </trkpt>
      <trkpt lat="45.25097" lon="5.21746">
        <ele>583.30999755859</ele>
        <time>2009-10-14T14:41:14Z</time>
      </trkpt>
      <trkpt lat="45.25097" lon="5.21719">
        <ele>581.80902099609</ele>
        <time>2009-10-14T14:41:17Z</time>
      </trkpt>
      <trkpt lat="45.25101" lon="5.2167">
        <ele>581.42102050781</ele>
        <time>2009-10-14T14:41:22Z</time>
      </trkpt>
      <trkpt lat="45.25111" lon="5.21602">
        <ele>580.82299804688</ele>
        <time>2009-10-14T14:41:29Z</time>
      </trkpt>
      <trkpt lat="45.25114" lon="5.21594">
        <ele>580.82299804688</ele>
        <time>2009-10-14T14:41:30Z</time>
      </trkpt>
      <trkpt lat="45.25131" lon="5.21555">
        <ele>580.82202148438</ele>
        <time>2009-10-14T14:41:35Z</time>
      </trkpt>
      <trkpt lat="45.25141" lon="5.21516">
        <ele>577.19500732422</ele>
        <time>2009-10-14T14:41:39Z</time>
      </trkpt>
      <trkpt lat="45.25146" lon="5.21465">
        <ele>578.23400878906</ele>
        <time>2009-10-14T14:41:43Z</time>
      </trkpt>
      <trkpt lat="45.25147" lon="5.21441">
        <ele>578.46697998047</ele>
        <time>2009-10-14T14:41:45Z</time>
      </trkpt>
      <trkpt lat="45.25148" lon="5.21403">
        <ele>578.11999511719</ele>
        <time>2009-10-14T14:41:48Z</time>
      </trkpt>
      <trkpt lat="45.25148" lon="5.2139">
        <ele>578.25897216797</ele>
        <time>2009-10-14T14:41:49Z</time>
      </trkpt>
      <trkpt lat="45.25143" lon="5.21351">
        <ele>576.90899658203</ele>
        <time>2009-10-14T14:41:52Z</time>
      </trkpt>
      <trkpt lat="45.2514" lon="5.21339">
        <ele>576.72601318359</ele>
        <time>2009-10-14T14:41:53Z</time>
      </trkpt>
      <trkpt lat="45.25125" lon="5.21293">
        <ele>576.458984375</ele>
        <time>2009-10-14T14:41:57Z</time>
      </trkpt>
      <trkpt lat="45.25107" lon="5.21248">
        <ele>576.99401855469</ele>
        <time>2009-10-14T14:42:02Z</time>
      </trkpt>
      <trkpt lat="45.25097" lon="5.21222">
        <ele>578.21899414062</ele>
        <time>2009-10-14T14:42:06Z</time>
      </trkpt>
      <trkpt lat="45.2509" lon="5.21203">
        <ele>580.8759765625</ele>
        <time>2009-10-14T14:42:10Z</time>
      </trkpt>
      <trkpt lat="45.25086" lon="5.21193">
        <ele>580.48199462891</ele>
        <time>2009-10-14T14:42:12Z</time>
      </trkpt>
      <trkpt lat="45.25083" lon="5.21183">
        <ele>580.14300537109</ele>
        <time>2009-10-14T14:42:14Z</time>
      </trkpt>
      <trkpt lat="45.25075" lon="5.21167">
        <ele>580.44097900391</ele>
        <time>2009-10-14T14:42:17Z</time>
      </trkpt>
      <trkpt lat="45.25054" lon="5.21132">
        <ele>580.88201904297</ele>
        <time>2009-10-14T14:42:23Z</time>
      </trkpt>
      <trkpt lat="45.25026" lon="5.21092">
        <ele>580.90197753906</ele>
        <time>2009-10-14T14:42:30Z</time>
      </trkpt>
      <trkpt lat="45.2499" lon="5.21042">
        <ele>580.90197753906</ele>
        <time>2009-10-14T14:42:38Z</time>
      </trkpt>
      <trkpt lat="45.24972" lon="5.21017">
        <ele>578.74401855469</ele>
        <time>2009-10-14T14:42:42Z</time>
      </trkpt>
      <trkpt lat="45.24968" lon="5.2101">
        <ele>578.57702636719</ele>
        <time>2009-10-14T14:42:43Z</time>
      </trkpt>
      <trkpt lat="45.24933" lon="5.2095">
        <ele>577.04400634766</ele>
        <time>2009-10-14T14:42:51Z</time>
      </trkpt>
      <trkpt lat="45.24918" lon="5.20924">
        <ele>575.50897216797</ele>
        <time>2009-10-14T14:42:54Z</time>
      </trkpt>
      <trkpt lat="45.24913" lon="5.20915">
        <ele>575.40698242188</ele>
        <time>2009-10-14T14:42:55Z</time>
      </trkpt>
      <trkpt lat="45.24882" lon="5.20845">
        <ele>572.42401123047</ele>
        <time>2009-10-14T14:43:02Z</time>
      </trkpt>
      <trkpt lat="45.24871" lon="5.20811">
        <ele>571.04797363281</ele>
        <time>2009-10-14T14:43:05Z</time>
      </trkpt>
      <trkpt lat="45.24854" lon="5.2076">
        <ele>570.78900146484</ele>
        <time>2009-10-14T14:43:10Z</time>
      </trkpt>
      <trkpt lat="45.24836" lon="5.20707">
        <ele>571.18200683594</ele>
        <time>2009-10-14T14:43:15Z</time>
      </trkpt>
      <trkpt lat="45.24821" lon="5.20663">
        <ele>571.18597412109</ele>
        <time>2009-10-14T14:43:19Z</time>
      </trkpt>
      <trkpt lat="45.24804" lon="5.20607">
        <ele>568.04302978516</ele>
        <time>2009-10-14T14:43:24Z</time>
      </trkpt>
      <trkpt lat="45.24797" lon="5.20584">
        <ele>566.73699951172</ele>
        <time>2009-10-14T14:43:26Z</time>
      </trkpt>
      <trkpt lat="45.24776" lon="5.20526">
        <ele>564.82897949219</ele>
        <time>2009-10-14T14:43:31Z</time>
      </trkpt>
      <trkpt lat="45.24765" lon="5.20492">
        <ele>564.23901367188</ele>
        <time>2009-10-14T14:43:34Z</time>
      </trkpt>
      <trkpt lat="45.24746" lon="5.20436">
        <ele>563.84197998047</ele>
        <time>2009-10-14T14:43:39Z</time>
      </trkpt>
      <trkpt lat="45.24728" lon="5.20384">
        <ele>564.27899169922</ele>
        <time>2009-10-14T14:43:44Z</time>
      </trkpt>
      <trkpt lat="45.24712" lon="5.20335">
        <ele>564.05297851562</ele>
        <time>2009-10-14T14:43:49Z</time>
      </trkpt>
      <trkpt lat="45.24707" lon="5.20289">
        <ele>562.76397705078</ele>
        <time>2009-10-14T14:43:53Z</time>
      </trkpt>
      <trkpt lat="45.24709" lon="5.20276">
        <ele>562.69598388672</ele>
        <time>2009-10-14T14:43:54Z</time>
      </trkpt>
      <trkpt lat="45.24738" lon="5.20184">
        <ele>560.24597167969</ele>
        <time>2009-10-14T14:44:02Z</time>
      </trkpt>
      <trkpt lat="45.24762" lon="5.20108">
        <ele>558.69097900391</ele>
        <time>2009-10-14T14:44:08Z</time>
      </trkpt>
      <trkpt lat="45.24787" lon="5.20031">
        <ele>557.27502441406</ele>
        <time>2009-10-14T14:44:14Z</time>
      </trkpt>
      <trkpt lat="45.24812" lon="5.19955">
        <ele>556.791015625</ele>
        <time>2009-10-14T14:44:20Z</time>
      </trkpt>
      <trkpt lat="45.24823" lon="5.19906">
        <ele>557.26599121094</ele>
        <time>2009-10-14T14:44:24Z</time>
      </trkpt>
      <trkpt lat="45.24826" lon="5.19842">
        <ele>555.92901611328</ele>
        <time>2009-10-14T14:44:29Z</time>
      </trkpt>
      <trkpt lat="45.24826" lon="5.19773">
        <ele>554.54699707031</ele>
        <time>2009-10-14T14:44:34Z</time>
      </trkpt>
      <trkpt lat="45.24818" lon="5.19732">
        <ele>552.57897949219</ele>
        <time>2009-10-14T14:44:37Z</time>
      </trkpt>
      <trkpt lat="45.24801" lon="5.19695">
        <ele>550.73699951172</ele>
        <time>2009-10-14T14:44:40Z</time>
      </trkpt>
      <trkpt lat="45.24804" lon="5.19667">
        <ele>551.57202148438</ele>
        <time>2009-10-14T14:44:42Z</time>
      </trkpt>
      <trkpt lat="45.24838" lon="5.19642">
        <ele>554.34802246094</ele>
        <time>2009-10-14T14:44:47Z</time>
      </trkpt>
      <trkpt lat="45.24852" lon="5.19634">
        <ele>555.67199707031</ele>
        <time>2009-10-14T14:44:49Z</time>
      </trkpt>
      <trkpt lat="45.24885" lon="5.19609">
        <ele>557.05297851562</ele>
        <time>2009-10-14T14:44:54Z</time>
      </trkpt>
      <trkpt lat="45.24896" lon="5.19593">
        <ele>556.68798828125</ele>
        <time>2009-10-14T14:44:56Z</time>
      </trkpt>
      <trkpt lat="45.24927" lon="5.19539">
        <ele>556.90600585938</ele>
        <time>2009-10-14T14:45:02Z</time>
      </trkpt>
      <trkpt lat="45.24956" lon="5.19471">
        <ele>556.47198486328</ele>
        <time>2009-10-14T14:45:09Z</time>
      </trkpt>
      <trkpt lat="45.24968" lon="5.19412">
        <ele>556.36700439453</ele>
        <time>2009-10-14T14:45:14Z</time>
      </trkpt>
      <trkpt lat="45.24971" lon="5.19355">
        <ele>556.96197509766</ele>
        <time>2009-10-14T14:45:19Z</time>
      </trkpt>
      <trkpt lat="45.24977" lon="5.19264">
        <ele>555.61401367188</ele>
        <time>2009-10-14T14:45:27Z</time>
      </trkpt>
      <trkpt lat="45.24987" lon="5.19191">
        <ele>553.07098388672</ele>
        <time>2009-10-14T14:45:33Z</time>
      </trkpt>
      <trkpt lat="45.25004" lon="5.19145">
        <ele>551.97198486328</ele>
        <time>2009-10-14T14:45:37Z</time>
      </trkpt>
      <trkpt lat="45.25034" lon="5.19071">
        <ele>548.21197509766</ele>
        <time>2009-10-14T14:45:43Z</time>
      </trkpt>
      <trkpt lat="45.25075" lon="5.18962">
        <ele>542.17901611328</ele>
        <time>2009-10-14T14:45:51Z</time>
      </trkpt>
      <trkpt lat="45.2508" lon="5.18947">
        <ele>541.95098876953</ele>
        <time>2009-10-14T14:45:52Z</time>
      </trkpt>
      <trkpt lat="45.25092" lon="5.18902">
        <ele>540.60601806641</ele>
        <time>2009-10-14T14:45:55Z</time>
      </trkpt>
      <trkpt lat="45.25107" lon="5.18841">
        <ele>540.4580078125</ele>
        <time>2009-10-14T14:45:59Z</time>
      </trkpt>
      <trkpt lat="45.25108" lon="5.18784">
        <ele>541.62097167969</ele>
        <time>2009-10-14T14:46:03Z</time>
      </trkpt>
      <trkpt lat="45.25106" lon="5.1877">
        <ele>541.70501708984</ele>
        <time>2009-10-14T14:46:04Z</time>
      </trkpt>
      <trkpt lat="45.25088" lon="5.18682">
        <ele>542.76702880859</ele>
        <time>2009-10-14T14:46:11Z</time>
      </trkpt>
      <trkpt lat="45.25072" lon="5.18607">
        <ele>542.98797607422</ele>
        <time>2009-10-14T14:46:17Z</time>
      </trkpt>
      <trkpt lat="45.25064" lon="5.1856">
        <ele>543.19000244141</ele>
        <time>2009-10-14T14:46:21Z</time>
      </trkpt>
      <trkpt lat="45.25047" lon="5.18468">
        <ele>544.08599853516</ele>
        <time>2009-10-14T14:46:29Z</time>
      </trkpt>
      <trkpt lat="45.25029" lon="5.18374">
        <ele>544.97399902344</ele>
        <time>2009-10-14T14:46:37Z</time>
      </trkpt>
      <trkpt lat="45.25013" lon="5.1829">
        <ele>543.79602050781</ele>
        <time>2009-10-14T14:46:44Z</time>
      </trkpt>
      <trkpt lat="45.24987" lon="5.18154">
        <ele>542.89599609375</ele>
        <time>2009-10-14T14:46:55Z</time>
      </trkpt>
      <trkpt lat="45.24978" lon="5.18132">
        <ele>543.15002441406</ele>
        <time>2009-10-14T14:46:57Z</time>
      </trkpt>
      <trkpt lat="45.24932" lon="5.18054">
        <ele>542.21502685547</ele>
        <time>2009-10-14T14:47:05Z</time>
      </trkpt>
      <trkpt lat="45.24909" lon="5.18001">
        <ele>541.67498779297</ele>
        <time>2009-10-14T14:47:10Z</time>
      </trkpt>
      <trkpt lat="45.24891" lon="5.17929">
        <ele>540.90600585938</ele>
        <time>2009-10-14T14:47:16Z</time>
      </trkpt>
      <trkpt lat="45.24868" lon="5.17831">
        <ele>539.18499755859</ele>
        <time>2009-10-14T14:47:24Z</time>
      </trkpt>
      <trkpt lat="45.24864" lon="5.17767">
        <ele>538.54400634766</ele>
        <time>2009-10-14T14:47:29Z</time>
      </trkpt>
      <trkpt lat="45.24864" lon="5.17677">
        <ele>537.90301513672</ele>
        <time>2009-10-14T14:47:36Z</time>
      </trkpt>
      <trkpt lat="45.24858" lon="5.17593">
        <ele>535.90997314453</ele>
        <time>2009-10-14T14:47:43Z</time>
      </trkpt>
      <trkpt lat="45.2485" lon="5.17515">
        <ele>534.22698974609</ele>
        <time>2009-10-14T14:47:50Z</time>
      </trkpt>
      <trkpt lat="45.24844" lon="5.1744">
        <ele>533.19799804688</ele>
        <time>2009-10-14T14:47:56Z</time>
      </trkpt>
      <trkpt lat="45.24846" lon="5.17374">
        <ele>532.83502197266</ele>
        <time>2009-10-14T14:48:01Z</time>
      </trkpt>
      <trkpt lat="45.2485" lon="5.17298">
        <ele>533.89599609375</ele>
        <time>2009-10-14T14:48:07Z</time>
      </trkpt>
      <trkpt lat="45.24847" lon="5.17234">
        <ele>533.17602539062</ele>
        <time>2009-10-14T14:48:12Z</time>
      </trkpt>
      <trkpt lat="45.24838" lon="5.17146">
        <ele>532.92602539062</ele>
        <time>2009-10-14T14:48:19Z</time>
      </trkpt>
      <trkpt lat="45.24828" lon="5.17095">
        <ele>532.51000976562</ele>
        <time>2009-10-14T14:48:23Z</time>
      </trkpt>
      <trkpt lat="45.24808" lon="5.16996">
        <ele>531.77099609375</ele>
        <time>2009-10-14T14:48:31Z</time>
      </trkpt>
      <trkpt lat="45.248" lon="5.16897">
        <ele>531.36700439453</ele>
        <time>2009-10-14T14:48:39Z</time>
      </trkpt>
      <trkpt lat="45.24791" lon="5.16815">
        <ele>531.14599609375</ele>
        <time>2009-10-14T14:48:46Z</time>
      </trkpt>
      <trkpt lat="45.2478" lon="5.16777">
        <ele>531.44598388672</ele>
        <time>2009-10-14T14:48:50Z</time>
      </trkpt>
      <trkpt lat="45.24769" lon="5.16738">
        <ele>531.51000976562</ele>
        <time>2009-10-14T14:48:54Z</time>
      </trkpt>
      <trkpt lat="45.24746" lon="5.16665">
        <ele>532.46398925781</ele>
        <time>2009-10-14T14:49:01Z</time>
      </trkpt>
      <trkpt lat="45.24714" lon="5.16564">
        <ele>531.17297363281</ele>
        <time>2009-10-14T14:49:11Z</time>
      </trkpt>
      <trkpt lat="45.24693" lon="5.16494">
        <ele>532.40197753906</ele>
        <time>2009-10-14T14:49:18Z</time>
      </trkpt>
      <trkpt lat="45.24683" lon="5.16446">
        <ele>532.65197753906</ele>
        <time>2009-10-14T14:49:23Z</time>
      </trkpt>
      <trkpt lat="45.24672" lon="5.1636">
        <ele>532.08502197266</ele>
        <time>2009-10-14T14:49:32Z</time>
      </trkpt>
      <trkpt lat="45.24661" lon="5.16279">
        <ele>532.26000976562</ele>
        <time>2009-10-14T14:49:40Z</time>
      </trkpt>
      <trkpt lat="45.24651" lon="5.16204">
        <ele>531.79797363281</ele>
        <time>2009-10-14T14:49:48Z</time>
      </trkpt>
      <trkpt lat="45.24638" lon="5.16131">
        <ele>530.5</ele>
        <time>2009-10-14T14:49:56Z</time>
      </trkpt>
      <trkpt lat="45.24619" lon="5.16089">
        <ele>530.90802001953</ele>
        <time>2009-10-14T14:50:01Z</time>
      </trkpt>
      <trkpt lat="45.24566" lon="5.16027">
        <ele>529.72302246094</ele>
        <time>2009-10-14T14:50:10Z</time>
      </trkpt>
      <trkpt lat="45.24519" lon="5.15973">
        <ele>527.32000732422</ele>
        <time>2009-10-14T14:50:18Z</time>
      </trkpt>
      <trkpt lat="45.24467" lon="5.15913">
        <ele>524.60302734375</ele>
        <time>2009-10-14T14:50:26Z</time>
      </trkpt>
      <trkpt lat="45.2444" lon="5.15883">
        <ele>523.76202392578</ele>
        <time>2009-10-14T14:50:31Z</time>
      </trkpt>
      <trkpt lat="45.24422" lon="5.15865">
        <ele>523.4169921875</ele>
        <time>2009-10-14T14:50:36Z</time>
      </trkpt>
      <trkpt lat="45.24395" lon="5.15837">
        <ele>524.26800537109</ele>
        <time>2009-10-14T14:50:43Z</time>
      </trkpt>
      <trkpt lat="45.24361" lon="5.158">
        <ele>523.65197753906</ele>
        <time>2009-10-14T14:50:50Z</time>
      </trkpt>
      <trkpt lat="45.24322" lon="5.1576">
        <ele>523.82501220703</ele>
        <time>2009-10-14T14:50:57Z</time>
      </trkpt>
      <trkpt lat="45.24284" lon="5.15715">
        <ele>523.82000732422</ele>
        <time>2009-10-14T14:51:04Z</time>
      </trkpt>
      <trkpt lat="45.2426" lon="5.15663">
        <ele>523.83697509766</ele>
        <time>2009-10-14T14:51:10Z</time>
      </trkpt>
      <trkpt lat="45.2424" lon="5.15615">
        <ele>524.49798583984</ele>
        <time>2009-10-14T14:51:15Z</time>
      </trkpt>
      <trkpt lat="45.242" lon="5.15556">
        <ele>524.18597412109</ele>
        <time>2009-10-14T14:51:22Z</time>
      </trkpt>
      <trkpt lat="45.24163" lon="5.15506">
        <ele>524.27301025391</ele>
        <time>2009-10-14T14:51:28Z</time>
      </trkpt>
      <trkpt lat="45.24089" lon="5.1541">
        <ele>524.27801513672</ele>
        <time>2009-10-14T14:51:39Z</time>
      </trkpt>
      <trkpt lat="45.24028" lon="5.15335">
        <ele>523.90002441406</ele>
        <time>2009-10-14T14:51:48Z</time>
      </trkpt>
      <trkpt lat="45.23975" lon="5.15266">
        <ele>523.89697265625</ele>
        <time>2009-10-14T14:51:56Z</time>
      </trkpt>
      <trkpt lat="45.23925" lon="5.15203">
        <ele>521.94299316406</ele>
        <time>2009-10-14T14:52:03Z</time>
      </trkpt>
      <trkpt lat="45.23869" lon="5.1513">
        <ele>521.32000732422</ele>
        <time>2009-10-14T14:52:11Z</time>
      </trkpt>
      <trkpt lat="45.23795" lon="5.15032">
        <ele>519.82501220703</ele>
        <time>2009-10-14T14:52:21Z</time>
      </trkpt>
      <trkpt lat="45.23766" lon="5.14975">
        <ele>520.13098144531</ele>
        <time>2009-10-14T14:52:26Z</time>
      </trkpt>
      <trkpt lat="45.23727" lon="5.14881">
        <ele>521.34497070312</ele>
        <time>2009-10-14T14:52:34Z</time>
      </trkpt>
      <trkpt lat="45.23709" lon="5.14823">
        <ele>521.57598876953</ele>
        <time>2009-10-14T14:52:39Z</time>
      </trkpt>
      <trkpt lat="45.23685" lon="5.14764">
        <ele>522.76599121094</ele>
        <time>2009-10-14T14:52:45Z</time>
      </trkpt>
      <trkpt lat="45.23658" lon="5.14692">
        <ele>522.4580078125</ele>
        <time>2009-10-14T14:52:53Z</time>
      </trkpt>
      <trkpt lat="45.23639" lon="5.14655">
        <ele>521.94299316406</ele>
        <time>2009-10-14T14:52:57Z</time>
      </trkpt>
      <trkpt lat="45.23585" lon="5.14567">
        <ele>522.73199462891</ele>
        <time>2009-10-14T14:53:07Z</time>
      </trkpt>
      <trkpt lat="45.23541" lon="5.14496">
        <ele>522.52398681641</ele>
        <time>2009-10-14T14:53:15Z</time>
      </trkpt>
      <trkpt lat="45.23492" lon="5.1442">
        <ele>522.3330078125</ele>
        <time>2009-10-14T14:53:23Z</time>
      </trkpt>
      <trkpt lat="45.23451" lon="5.14353">
        <ele>522.01599121094</ele>
        <time>2009-10-14T14:53:30Z</time>
      </trkpt>
      <trkpt lat="45.23408" lon="5.14283">
        <ele>522.48199462891</ele>
        <time>2009-10-14T14:53:38Z</time>
      </trkpt>
      <trkpt lat="45.23391" lon="5.14253">
        <ele>521.20501708984</ele>
        <time>2009-10-14T14:53:41Z</time>
      </trkpt>
      <trkpt lat="45.23346" lon="5.14176">
        <ele>517.30102539062</ele>
        <time>2009-10-14T14:53:48Z</time>
      </trkpt>
      <trkpt lat="45.23313" lon="5.14118">
        <ele>514.41400146484</ele>
        <time>2009-10-14T14:53:53Z</time>
      </trkpt>
      <trkpt lat="45.23286" lon="5.14072">
        <ele>513.2919921875</ele>
        <time>2009-10-14T14:53:57Z</time>
      </trkpt>
      <trkpt lat="45.23253" lon="5.14016">
        <ele>512.6669921875</ele>
        <time>2009-10-14T14:54:02Z</time>
      </trkpt>
      <trkpt lat="45.23232" lon="5.13987">
        <ele>512.26898193359</ele>
        <time>2009-10-14T14:54:05Z</time>
      </trkpt>
      <trkpt lat="45.23181" lon="5.13951">
        <ele>511.75299072266</ele>
        <time>2009-10-14T14:54:11Z</time>
      </trkpt>
      <trkpt lat="45.23131" lon="5.1391">
        <ele>510.85400390625</ele>
        <time>2009-10-14T14:54:17Z</time>
      </trkpt>
      <trkpt lat="45.23092" lon="5.13873">
        <ele>511.65301513672</ele>
        <time>2009-10-14T14:54:22Z</time>
      </trkpt>
      <trkpt lat="45.2304" lon="5.13838">
        <ele>512.77801513672</ele>
        <time>2009-10-14T14:54:28Z</time>
      </trkpt>
      <trkpt lat="45.22997" lon="5.13807">
        <ele>513.05999755859</ele>
        <time>2009-10-14T14:54:33Z</time>
      </trkpt>
      <trkpt lat="45.22989" lon="5.13799">
        <ele>513.05902099609</ele>
        <time>2009-10-14T14:54:34Z</time>
      </trkpt>
      <trkpt lat="45.22966" lon="5.13759">
        <ele>512.99499511719</ele>
        <time>2009-10-14T14:54:38Z</time>
      </trkpt>
      <trkpt lat="45.22951" lon="5.13715">
        <ele>514.01300048828</ele>
        <time>2009-10-14T14:54:42Z</time>
      </trkpt>
      <trkpt lat="45.22925" lon="5.13671">
        <ele>514.35601806641</ele>
        <time>2009-10-14T14:54:47Z</time>
      </trkpt>
      <trkpt lat="45.22892" lon="5.13637">
        <ele>516.39898681641</ele>
        <time>2009-10-14T14:54:52Z</time>
      </trkpt>
      <trkpt lat="45.22885" lon="5.13631">
        <ele>516.45599365234</ele>
        <time>2009-10-14T14:54:53Z</time>
      </trkpt>
      <trkpt lat="45.22856" lon="5.13595">
        <ele>517.03100585938</ele>
        <time>2009-10-14T14:54:58Z</time>
      </trkpt>
      <trkpt lat="45.22846" lon="5.13579">
        <ele>517.45300292969</ele>
        <time>2009-10-14T14:55:00Z</time>
      </trkpt>
      <trkpt lat="45.22822" lon="5.1352">
        <ele>516.31896972656</ele>
        <time>2009-10-14T14:55:06Z</time>
      </trkpt>
      <trkpt lat="45.22799" lon="5.13489">
        <ele>516.541015625</ele>
        <time>2009-10-14T14:55:10Z</time>
      </trkpt>
      <trkpt lat="45.2275" lon="5.13447">
        <ele>515.30700683594</ele>
        <time>2009-10-14T14:55:17Z</time>
      </trkpt>
      <trkpt lat="45.22698" lon="5.13402">
        <ele>514.18298339844</ele>
        <time>2009-10-14T14:55:24Z</time>
      </trkpt>
      <trkpt lat="45.22653" lon="5.13362">
        <ele>512.46301269531</ele>
        <time>2009-10-14T14:55:30Z</time>
      </trkpt>
      <trkpt lat="45.22646" lon="5.13355">
        <ele>512.35400390625</ele>
        <time>2009-10-14T14:55:31Z</time>
      </trkpt>
      <trkpt lat="45.22622" lon="5.13334">
        <ele>511.01800537109</ele>
        <time>2009-10-14T14:55:34Z</time>
      </trkpt>
      <trkpt lat="45.2257" lon="5.1329">
        <ele>508.92700195312</ele>
        <time>2009-10-14T14:55:40Z</time>
      </trkpt>
      <trkpt lat="45.22544" lon="5.13267">
        <ele>506.99099731445</ele>
        <time>2009-10-14T14:55:43Z</time>
      </trkpt>
      <trkpt lat="45.22517" lon="5.13247">
        <ele>506.81500244141</ele>
        <time>2009-10-14T14:55:46Z</time>
      </trkpt>
      <trkpt lat="45.22444" lon="5.13213">
        <ele>506.59100341797</ele>
        <time>2009-10-14T14:55:54Z</time>
      </trkpt>
      <trkpt lat="45.22417" lon="5.13198">
        <ele>506.28799438477</ele>
        <time>2009-10-14T14:55:57Z</time>
      </trkpt>
      <trkpt lat="45.22402" lon="5.13169">
        <ele>505.25799560547</ele>
        <time>2009-10-14T14:56:00Z</time>
      </trkpt>
      <trkpt lat="45.22398" lon="5.13127">
        <ele>507.98400878906</ele>
        <time>2009-10-14T14:56:04Z</time>
      </trkpt>
      <trkpt lat="45.22403" lon="5.13097">
        <ele>508.28201293945</ele>
        <time>2009-10-14T14:56:08Z</time>
      </trkpt>
      <trkpt lat="45.22406" lon="5.13076">
        <ele>508.25399780273</ele>
        <time>2009-10-14T14:56:11Z</time>
      </trkpt>
      <trkpt lat="45.22396" lon="5.13041">
        <ele>508.75</ele>
        <time>2009-10-14T14:56:16Z</time>
      </trkpt>
      <trkpt lat="45.22374" lon="5.13022">
        <ele>509.1369934082</ele>
        <time>2009-10-14T14:56:20Z</time>
      </trkpt>
      <trkpt lat="45.22353" lon="5.13014">
        <ele>509.98999023438</ele>
        <time>2009-10-14T14:56:23Z</time>
      </trkpt>
      <trkpt lat="45.22303" lon="5.13004">
        <ele>508.78201293945</ele>
        <time>2009-10-14T14:56:30Z</time>
      </trkpt>
      <trkpt lat="45.22268" lon="5.12983">
        <ele>507.79000854492</ele>
        <time>2009-10-14T14:56:35Z</time>
      </trkpt>
      <trkpt lat="45.22226" lon="5.12949">
        <ele>506.04699707031</ele>
        <time>2009-10-14T14:56:41Z</time>
      </trkpt>
      <trkpt lat="45.22174" lon="5.12909">
        <ele>504.98400878906</ele>
        <time>2009-10-14T14:56:48Z</time>
      </trkpt>
      <trkpt lat="45.22144" lon="5.1288">
        <ele>501.85299682617</ele>
        <time>2009-10-14T14:56:52Z</time>
      </trkpt>
      <trkpt lat="45.2213" lon="5.12859">
        <ele>500.28298950195</ele>
        <time>2009-10-14T14:56:54Z</time>
      </trkpt>
      <trkpt lat="45.22108" lon="5.12817">
        <ele>498.21099853516</ele>
        <time>2009-10-14T14:56:58Z</time>
      </trkpt>
      <trkpt lat="45.22092" lon="5.12762">
        <ele>493.78201293945</ele>
        <time>2009-10-14T14:57:03Z</time>
      </trkpt>
      <trkpt lat="45.2208" lon="5.12695">
        <ele>488.59799194336</ele>
        <time>2009-10-14T14:57:08Z</time>
      </trkpt>
      <trkpt lat="45.22083" lon="5.12604">
        <ele>483.31500244141</ele>
        <time>2009-10-14T14:57:14Z</time>
      </trkpt>
      <trkpt lat="45.22081" lon="5.12563">
        <ele>481.48699951172</ele>
        <time>2009-10-14T14:57:18Z</time>
      </trkpt>
      <trkpt lat="45.22073" lon="5.12518">
        <ele>478.36898803711</ele>
        <time>2009-10-14T14:57:23Z</time>
      </trkpt>
      <trkpt lat="45.22053" lon="5.12477">
        <ele>474.91799926758</ele>
        <time>2009-10-14T14:57:27Z</time>
      </trkpt>
      <trkpt lat="45.22048" lon="5.12466">
        <ele>474.64001464844</ele>
        <time>2009-10-14T14:57:28Z</time>
      </trkpt>
      <trkpt lat="45.22032" lon="5.12425">
        <ele>472.43200683594</ele>
        <time>2009-10-14T14:57:32Z</time>
      </trkpt>
      <trkpt lat="45.22023" lon="5.12364">
        <ele>468.90798950195</ele>
        <time>2009-10-14T14:57:37Z</time>
      </trkpt>
      <trkpt lat="45.22019" lon="5.12301">
        <ele>465.92001342773</ele>
        <time>2009-10-14T14:57:42Z</time>
      </trkpt>
      <trkpt lat="45.22024" lon="5.12235">
        <ele>461.70700073242</ele>
        <time>2009-10-14T14:57:47Z</time>
      </trkpt>
      <trkpt lat="45.22042" lon="5.12142">
        <ele>455.5719909668</ele>
        <time>2009-10-14T14:57:55Z</time>
      </trkpt>
      <trkpt lat="45.22059" lon="5.12042">
        <ele>450.17300415039</ele>
        <time>2009-10-14T14:58:04Z</time>
      </trkpt>
      <trkpt lat="45.22067" lon="5.11998">
        <ele>446.96099853516</ele>
        <time>2009-10-14T14:58:08Z</time>
      </trkpt>
      <trkpt lat="45.22078" lon="5.1193">
        <ele>444.27099609375</ele>
        <time>2009-10-14T14:58:14Z</time>
      </trkpt>
      <trkpt lat="45.22092" lon="5.11843">
        <ele>440.11499023438</ele>
        <time>2009-10-14T14:58:22Z</time>
      </trkpt>
      <trkpt lat="45.2211" lon="5.11779">
        <ele>435.47198486328</ele>
        <time>2009-10-14T14:58:28Z</time>
      </trkpt>
      <trkpt lat="45.22134" lon="5.11705">
        <ele>429.51599121094</ele>
        <time>2009-10-14T14:58:34Z</time>
      </trkpt>
      <trkpt lat="45.22169" lon="5.11592">
        <ele>423.25</ele>
        <time>2009-10-14T14:58:42Z</time>
      </trkpt>
      <trkpt lat="45.22178" lon="5.11564">
        <ele>422.38900756836</ele>
        <time>2009-10-14T14:58:44Z</time>
      </trkpt>
      <trkpt lat="45.22204" lon="5.11522">
        <ele>419.84899902344</ele>
        <time>2009-10-14T14:58:48Z</time>
      </trkpt>
      <trkpt lat="45.22222" lon="5.11509">
        <ele>418.29699707031</ele>
        <time>2009-10-14T14:58:50Z</time>
      </trkpt>
      <trkpt lat="45.22261" lon="5.1149">
        <ele>415.72698974609</ele>
        <time>2009-10-14T14:58:54Z</time>
      </trkpt>
      <trkpt lat="45.22269" lon="5.11484">
        <ele>414.97299194336</ele>
        <time>2009-10-14T14:58:55Z</time>
      </trkpt>
      <trkpt lat="45.22294" lon="5.11448">
        <ele>413.73901367188</ele>
        <time>2009-10-14T14:58:59Z</time>
      </trkpt>
      <trkpt lat="45.223" lon="5.11417">
        <ele>414.3450012207</ele>
        <time>2009-10-14T14:59:02Z</time>
      </trkpt>
      <trkpt lat="45.22299" lon="5.11387">
        <ele>415.49700927734</ele>
        <time>2009-10-14T14:59:06Z</time>
      </trkpt>
      <trkpt lat="45.22298" lon="5.11382">
        <ele>415.98098754883</ele>
        <time>2009-10-14T14:59:07Z</time>
      </trkpt>
      <trkpt lat="45.22289" lon="5.11357">
        <ele>417.69000244141</ele>
        <time>2009-10-14T14:59:13Z</time>
      </trkpt>
      <trkpt lat="45.22289" lon="5.11348">
        <ele>418.23599243164</ele>
        <time>2009-10-14T14:59:16Z</time>
      </trkpt>
      <trkpt lat="45.22289" lon="5.11345">
        <ele>418.6789855957</ele>
        <time>2009-10-14T14:59:17Z</time>
      </trkpt>
      <trkpt lat="45.2229" lon="5.11331">
        <ele>419.76098632812</ele>
        <time>2009-10-14T14:59:22Z</time>
      </trkpt>
      <trkpt lat="45.2229" lon="5.11326">
        <ele>420.31100463867</ele>
        <time>2009-10-14T14:59:24Z</time>
      </trkpt>
      <trkpt lat="45.22292" lon="5.11304">
        <ele>422.41799926758</ele>
        <time>2009-10-14T14:59:31Z</time>
      </trkpt>
      <trkpt lat="45.22293" lon="5.1129">
        <ele>423.53201293945</ele>
        <time>2009-10-14T14:59:35Z</time>
      </trkpt>
      <trkpt lat="45.22294" lon="5.11277">
        <ele>425.70001220703</ele>
        <time>2009-10-14T14:59:39Z</time>
      </trkpt>
      <trkpt lat="45.22295" lon="5.11262">
        <ele>427.94500732422</ele>
        <time>2009-10-14T14:59:45Z</time>
      </trkpt>
      <trkpt lat="45.22296" lon="5.11259">
        <ele>428.20001220703</ele>
        <time>2009-10-14T14:59:46Z</time>
      </trkpt>
      <trkpt lat="45.22298" lon="5.11237">
        <ele>429.36801147461</ele>
        <time>2009-10-14T14:59:53Z</time>
      </trkpt>
      <trkpt lat="45.22299" lon="5.11222">
        <ele>430.18499755859</ele>
        <time>2009-10-14T14:59:58Z</time>
      </trkpt>
      <trkpt lat="45.22301" lon="5.11209">
        <ele>431.54699707031</ele>
        <time>2009-10-14T15:00:03Z</time>
      </trkpt>
      <trkpt lat="45.22303" lon="5.1119">
        <ele>432.80499267578</ele>
        <time>2009-10-14T15:00:10Z</time>
      </trkpt>
      <trkpt lat="45.22304" lon="5.11174">
        <ele>433.74600219727</ele>
        <time>2009-10-14T15:00:17Z</time>
      </trkpt>
      <trkpt lat="45.22305" lon="5.11157">
        <ele>435.47601318359</ele>
        <time>2009-10-14T15:00:23Z</time>
      </trkpt>
      <trkpt lat="45.22307" lon="5.11135">
        <ele>437.74798583984</ele>
        <time>2009-10-14T15:00:31Z</time>
      </trkpt>
      <trkpt lat="45.22307" lon="5.11115">
        <ele>439.65798950195</ele>
        <time>2009-10-14T15:00:38Z</time>
      </trkpt>
      <trkpt lat="45.22309" lon="5.11099">
        <ele>440.81600952148</ele>
        <time>2009-10-14T15:00:44Z</time>
      </trkpt>
      <trkpt lat="45.22312" lon="5.11082">
        <ele>442.25100708008</ele>
        <time>2009-10-14T15:00:50Z</time>
      </trkpt>
      <trkpt lat="45.22318" lon="5.11066">
        <ele>443.86401367188</ele>
        <time>2009-10-14T15:00:56Z</time>
      </trkpt>
      <trkpt lat="45.22324" lon="5.11051">
        <ele>444.98999023438</ele>
        <time>2009-10-14T15:01:02Z</time>
      </trkpt>
      <trkpt lat="45.22327" lon="5.11044">
        <ele>445.81201171875</ele>
        <time>2009-10-14T15:01:05Z</time>
      </trkpt>
      <trkpt lat="45.22333" lon="5.11031">
        <ele>446.72500610352</ele>
        <time>2009-10-14T15:01:11Z</time>
      </trkpt>
      <trkpt lat="45.22334" lon="5.11024">
        <ele>447.11700439453</ele>
        <time>2009-10-14T15:01:13Z</time>
      </trkpt>
      <trkpt lat="45.22337" lon="5.10991">
        <ele>449.13800048828</ele>
        <time>2009-10-14T15:01:22Z</time>
      </trkpt>
      <trkpt lat="45.22335" lon="5.10966">
        <ele>449.62100219727</ele>
        <time>2009-10-14T15:01:28Z</time>
      </trkpt>
      <trkpt lat="45.22331" lon="5.10933">
        <ele>450.75601196289</ele>
        <time>2009-10-14T15:01:36Z</time>
      </trkpt>
      <trkpt lat="45.22325" lon="5.10893">
        <ele>451.23599243164</ele>
        <time>2009-10-14T15:01:44Z</time>
      </trkpt>
      <trkpt lat="45.22319" lon="5.10872">
        <ele>451.15798950195</ele>
        <time>2009-10-14T15:01:50Z</time>
      </trkpt>
      <trkpt lat="45.2232" lon="5.10872">
        <ele>451.26599121094</ele>
        <time>2009-10-14T15:01:52Z</time>
      </trkpt>
      <trkpt lat="45.22322" lon="5.10884">
        <ele>450.65600585938</ele>
        <time>2009-10-14T15:01:59Z</time>
      </trkpt>
      <trkpt lat="45.22324" lon="5.10892">
        <ele>450.77398681641</ele>
        <time>2009-10-14T15:02:04Z</time>
      </trkpt>
      <trkpt lat="45.22324" lon="5.10899">
        <ele>450.6780090332</ele>
        <time>2009-10-14T15:02:09Z</time>
      </trkpt>
      <trkpt lat="45.22324" lon="5.10901">
        <ele>451.12899780273</ele>
        <time>2009-10-14T15:02:17Z</time>
      </trkpt>
      <trkpt lat="45.22324" lon="5.10908">
        <ele>450.46798706055</ele>
        <time>2009-10-14T15:02:23Z</time>
      </trkpt>
      <trkpt lat="45.22327" lon="5.10928">
        <ele>450.25201416016</ele>
        <time>2009-10-14T15:02:27Z</time>
      </trkpt>
      <trkpt lat="45.22332" lon="5.10969">
        <ele>449.41299438477</ele>
        <time>2009-10-14T15:02:34Z</time>
      </trkpt>
      <trkpt lat="45.22332" lon="5.11015">
        <ele>447.80099487305</ele>
        <time>2009-10-14T15:02:41Z</time>
      </trkpt>
      <trkpt lat="45.22324" lon="5.11047">
        <ele>445.26998901367</ele>
        <time>2009-10-14T15:02:45Z</time>
      </trkpt>
      <trkpt lat="45.22316" lon="5.11065">
        <ele>443.81298828125</ele>
        <time>2009-10-14T15:02:47Z</time>
      </trkpt>
      <trkpt lat="45.22305" lon="5.11121">
        <ele>438.70901489258</ele>
        <time>2009-10-14T15:02:52Z</time>
      </trkpt>
      <trkpt lat="45.223" lon="5.11196">
        <ele>431.30499267578</ele>
        <time>2009-10-14T15:02:57Z</time>
      </trkpt>
      <trkpt lat="45.22299" lon="5.11207">
        <ele>431.15899658203</ele>
        <time>2009-10-14T15:02:58Z</time>
      </trkpt>
      <trkpt lat="45.22295" lon="5.11247">
        <ele>428.09100341797</ele>
        <time>2009-10-14T15:03:02Z</time>
      </trkpt>
      <trkpt lat="45.22293" lon="5.1127">
        <ele>426.55099487305</ele>
        <time>2009-10-14T15:03:04Z</time>
      </trkpt>
      <trkpt lat="45.22291" lon="5.11296">
        <ele>423.22601318359</ele>
        <time>2009-10-14T15:03:07Z</time>
      </trkpt>
      <trkpt lat="45.22288" lon="5.11334">
        <ele>420.05899047852</ele>
        <time>2009-10-14T15:03:11Z</time>
      </trkpt>
      <trkpt lat="45.22287" lon="5.11345">
        <ele>419.10400390625</ele>
        <time>2009-10-14T15:03:13Z</time>
      </trkpt>
      <trkpt lat="45.22287" lon="5.11349">
        <ele>418.49899291992</ele>
        <time>2009-10-14T15:03:14Z</time>
      </trkpt>
      <trkpt lat="45.22279" lon="5.11355">
        <ele>417.65200805664</ele>
        <time>2009-10-14T15:03:19Z</time>
      </trkpt>
      <trkpt lat="45.22272" lon="5.11346">
        <ele>418.12899780273</ele>
        <time>2009-10-14T15:03:23Z</time>
      </trkpt>
      <trkpt lat="45.22261" lon="5.11332">
        <ele>419.16900634766</ele>
        <time>2009-10-14T15:03:28Z</time>
      </trkpt>
      <trkpt lat="45.22258" lon="5.11329">
        <ele>419.29998779297</ele>
        <time>2009-10-14T15:03:29Z</time>
      </trkpt>
      <trkpt lat="45.22241" lon="5.11308">
        <ele>419.98599243164</ele>
        <time>2009-10-14T15:03:36Z</time>
      </trkpt>
      <trkpt lat="45.22223" lon="5.1128">
        <ele>419.99600219727</ele>
        <time>2009-10-14T15:03:44Z</time>
      </trkpt>
      <trkpt lat="45.22206" lon="5.11251">
        <ele>419.65600585938</ele>
        <time>2009-10-14T15:03:50Z</time>
      </trkpt>
      <trkpt lat="45.22183" lon="5.11206">
        <ele>419.16299438477</ele>
        <time>2009-10-14T15:03:58Z</time>
      </trkpt>
      <trkpt lat="45.2216" lon="5.11149">
        <ele>419.32299804688</ele>
        <time>2009-10-14T15:04:07Z</time>
      </trkpt>
      <trkpt lat="45.22136" lon="5.11085">
        <ele>420.25100708008</ele>
        <time>2009-10-14T15:04:16Z</time>
      </trkpt>
      <trkpt lat="45.2212" lon="5.11033">
        <ele>419.93399047852</ele>
        <time>2009-10-14T15:04:23Z</time>
      </trkpt>
      <trkpt lat="45.22105" lon="5.10968">
        <ele>419.22198486328</ele>
        <time>2009-10-14T15:04:31Z</time>
      </trkpt>
      <trkpt lat="45.2209" lon="5.10896">
        <ele>417.9469909668</ele>
        <time>2009-10-14T15:04:39Z</time>
      </trkpt>
      <trkpt lat="45.22075" lon="5.10821">
        <ele>416.17599487305</ele>
        <time>2009-10-14T15:04:47Z</time>
      </trkpt>
      <trkpt lat="45.22061" lon="5.10748">
        <ele>415.89801025391</ele>
        <time>2009-10-14T15:04:55Z</time>
      </trkpt>
      <trkpt lat="45.22046" lon="5.10668">
        <ele>414.51300048828</ele>
        <time>2009-10-14T15:05:03Z</time>
      </trkpt>
      <trkpt lat="45.22026" lon="5.10599">
        <ele>412.32699584961</ele>
        <time>2009-10-14T15:05:09Z</time>
      </trkpt>
      <trkpt lat="45.21994" lon="5.10498">
        <ele>410.18701171875</ele>
        <time>2009-10-14T15:05:18Z</time>
      </trkpt>
      <trkpt lat="45.21975" lon="5.10435">
        <ele>410.59100341797</ele>
        <time>2009-10-14T15:05:24Z</time>
      </trkpt>
      <trkpt lat="45.2196" lon="5.10388">
        <ele>408.71398925781</ele>
        <time>2009-10-14T15:05:28Z</time>
      </trkpt>
      <trkpt lat="45.21931" lon="5.10295">
        <ele>404.1549987793</ele>
        <time>2009-10-14T15:05:35Z</time>
      </trkpt>
      <trkpt lat="45.21914" lon="5.10237">
        <ele>401.59100341797</ele>
        <time>2009-10-14T15:05:39Z</time>
      </trkpt>
      <trkpt lat="45.21906" lon="5.10165">
        <ele>401.5710144043</ele>
        <time>2009-10-14T15:05:44Z</time>
      </trkpt>
      <trkpt lat="45.21904" lon="5.10062">
        <ele>399.95700073242</ele>
        <time>2009-10-14T15:05:52Z</time>
      </trkpt>
      <trkpt lat="45.21898" lon="5.09949">
        <ele>396.10598754883</ele>
        <time>2009-10-14T15:06:01Z</time>
      </trkpt>
      <trkpt lat="45.21897" lon="5.09911">
        <ele>394.54901123047</ele>
        <time>2009-10-14T15:06:04Z</time>
      </trkpt>
      <trkpt lat="45.21896" lon="5.09839">
        <ele>393.91500854492</ele>
        <time>2009-10-14T15:06:10Z</time>
      </trkpt>
      <trkpt lat="45.21898" lon="5.09774">
        <ele>392.27099609375</ele>
        <time>2009-10-14T15:06:16Z</time>
      </trkpt>
      <trkpt lat="45.21901" lon="5.09726">
        <ele>390.12701416016</ele>
        <time>2009-10-14T15:06:20Z</time>
      </trkpt>
      <trkpt lat="45.21903" lon="5.09646">
        <ele>387.57000732422</ele>
        <time>2009-10-14T15:06:26Z</time>
      </trkpt>
      <trkpt lat="45.21907" lon="5.09577">
        <ele>384.1969909668</ele>
        <time>2009-10-14T15:06:31Z</time>
      </trkpt>
      <trkpt lat="45.21921" lon="5.09492">
        <ele>379.8869934082</ele>
        <time>2009-10-14T15:06:37Z</time>
      </trkpt>
      <trkpt lat="45.2194" lon="5.0938">
        <ele>376.20199584961</ele>
        <time>2009-10-14T15:06:45Z</time>
      </trkpt>
      <trkpt lat="45.21942" lon="5.09366">
        <ele>375.27301025391</ele>
        <time>2009-10-14T15:06:46Z</time>
      </trkpt>
      <trkpt lat="45.2194" lon="5.09306">
        <ele>373.15301513672</ele>
        <time>2009-10-14T15:06:50Z</time>
      </trkpt>
      <trkpt lat="45.21928" lon="5.0923">
        <ele>369.73001098633</ele>
        <time>2009-10-14T15:06:55Z</time>
      </trkpt>
      <trkpt lat="45.21915" lon="5.09172">
        <ele>369.75100708008</ele>
        <time>2009-10-14T15:06:59Z</time>
      </trkpt>
      <trkpt lat="45.21898" lon="5.09129">
        <ele>370.32000732422</ele>
        <time>2009-10-14T15:07:03Z</time>
      </trkpt>
      <trkpt lat="45.21886" lon="5.09101">
        <ele>371.65100097656</ele>
        <time>2009-10-14T15:07:06Z</time>
      </trkpt>
      <trkpt lat="45.21863" lon="5.0904">
        <ele>372.50500488281</ele>
        <time>2009-10-14T15:07:13Z</time>
      </trkpt>
      <trkpt lat="45.21832" lon="5.08956">
        <ele>372.98001098633</ele>
        <time>2009-10-14T15:07:23Z</time>
      </trkpt>
      <trkpt lat="45.2181" lon="5.08898">
        <ele>374.52499389648</ele>
        <time>2009-10-14T15:07:31Z</time>
      </trkpt>
      <trkpt lat="45.21798" lon="5.08855">
        <ele>375.34399414062</ele>
        <time>2009-10-14T15:07:37Z</time>
      </trkpt>
      <trkpt lat="45.21795" lon="5.08802">
        <ele>376.13800048828</ele>
        <time>2009-10-14T15:07:44Z</time>
      </trkpt>
      <trkpt lat="45.21802" lon="5.08743">
        <ele>372.56500244141</ele>
        <time>2009-10-14T15:07:51Z</time>
      </trkpt>
      <trkpt lat="45.21807" lon="5.08682">
        <ele>370.46899414062</ele>
        <time>2009-10-14T15:07:57Z</time>
      </trkpt>
      <trkpt lat="45.21809" lon="5.08671">
        <ele>370.18600463867</ele>
        <time>2009-10-14T15:07:58Z</time>
      </trkpt>
      <trkpt lat="45.21817" lon="5.08589">
        <ele>365.35699462891</ele>
        <time>2009-10-14T15:08:05Z</time>
      </trkpt>
      <trkpt lat="45.21819" lon="5.08564">
        <ele>364.51000976562</ele>
        <time>2009-10-14T15:08:07Z</time>
      </trkpt>
      <trkpt lat="45.21823" lon="5.08526">
        <ele>363.33599853516</ele>
        <time>2009-10-14T15:08:10Z</time>
      </trkpt>
      <trkpt lat="45.21834" lon="5.0841">
        <ele>361.39999389648</ele>
        <time>2009-10-14T15:08:19Z</time>
      </trkpt>
      <trkpt lat="45.21843" lon="5.0828">
        <ele>359.13900756836</ele>
        <time>2009-10-14T15:08:29Z</time>
      </trkpt>
      <trkpt lat="45.21836" lon="5.08216">
        <ele>358.38900756836</ele>
        <time>2009-10-14T15:08:34Z</time>
      </trkpt>
      <trkpt lat="45.21817" lon="5.08141">
        <ele>356.92700195312</ele>
        <time>2009-10-14T15:08:40Z</time>
      </trkpt>
      <trkpt lat="45.21781" lon="5.08027">
        <ele>355.11599731445</ele>
        <time>2009-10-14T15:08:49Z</time>
      </trkpt>
      <trkpt lat="45.21743" lon="5.07912">
        <ele>353.40600585938</ele>
        <time>2009-10-14T15:08:58Z</time>
      </trkpt>
      <trkpt lat="45.21714" lon="5.07821">
        <ele>352.3869934082</ele>
        <time>2009-10-14T15:09:05Z</time>
      </trkpt>
      <trkpt lat="45.21688" lon="5.07745">
        <ele>350.89099121094</ele>
        <time>2009-10-14T15:09:11Z</time>
      </trkpt>
      <trkpt lat="45.21653" lon="5.07663">
        <ele>350.73498535156</ele>
        <time>2009-10-14T15:09:18Z</time>
      </trkpt>
      <trkpt lat="45.2165" lon="5.07651">
        <ele>351.24398803711</ele>
        <time>2009-10-14T15:09:19Z</time>
      </trkpt>
      <trkpt lat="45.21648" lon="5.07606">
        <ele>352.66299438477</ele>
        <time>2009-10-14T15:09:23Z</time>
      </trkpt>
      <trkpt lat="45.2165" lon="5.07596">
        <ele>353.49899291992</ele>
        <time>2009-10-14T15:09:24Z</time>
      </trkpt>
      <trkpt lat="45.21664" lon="5.07548">
        <ele>354.73098754883</ele>
        <time>2009-10-14T15:09:30Z</time>
      </trkpt>
      <trkpt lat="45.21667" lon="5.07529">
        <ele>354.81201171875</ele>
        <time>2009-10-14T15:09:34Z</time>
      </trkpt>
      <trkpt lat="45.21667" lon="5.07527">
        <ele>355.54998779297</ele>
        <time>2009-10-14T15:09:38Z</time>
      </trkpt>
      <trkpt lat="45.21668" lon="5.07528">
        <ele>355.69900512695</ele>
        <time>2009-10-14T15:09:45Z</time>
      </trkpt>
      <trkpt lat="45.21661" lon="5.07517">
        <ele>355.47698974609</ele>
        <time>2009-10-14T15:09:51Z</time>
      </trkpt>
      <trkpt lat="45.21658" lon="5.07515">
        <ele>355.14099121094</ele>
        <time>2009-10-14T15:09:52Z</time>
      </trkpt>
      <trkpt lat="45.21629" lon="5.07501">
        <ele>354.27301025391</ele>
        <time>2009-10-14T15:09:59Z</time>
      </trkpt>
      <trkpt lat="45.21594" lon="5.07484">
        <ele>354.02801513672</ele>
        <time>2009-10-14T15:10:05Z</time>
      </trkpt>
      <trkpt lat="45.21537" lon="5.07456">
        <ele>353.17098999023</ele>
        <time>2009-10-14T15:10:13Z</time>
      </trkpt>
      <trkpt lat="45.21475" lon="5.07426">
        <ele>352.32501220703</ele>
        <time>2009-10-14T15:10:21Z</time>
      </trkpt>
      <trkpt lat="45.21423" lon="5.074">
        <ele>351.68899536133</ele>
        <time>2009-10-14T15:10:28Z</time>
      </trkpt>
      <trkpt lat="45.2137" lon="5.07374">
        <ele>351.40899658203</ele>
        <time>2009-10-14T15:10:35Z</time>
      </trkpt>
      <trkpt lat="45.21321" lon="5.07351">
        <ele>350.13299560547</ele>
        <time>2009-10-14T15:10:41Z</time>
      </trkpt>
      <trkpt lat="45.21296" lon="5.07335">
        <ele>348.73999023438</ele>
        <time>2009-10-14T15:10:44Z</time>
      </trkpt>
      <trkpt lat="45.21246" lon="5.07288">
        <ele>345.73999023438</ele>
        <time>2009-10-14T15:10:50Z</time>
      </trkpt>
      <trkpt lat="45.21199" lon="5.0725">
        <ele>344.96798706055</ele>
        <time>2009-10-14T15:10:55Z</time>
      </trkpt>
      <trkpt lat="45.21117" lon="5.07204">
        <ele>341.64001464844</ele>
        <time>2009-10-14T15:11:03Z</time>
      </trkpt>
      <trkpt lat="45.21106" lon="5.07198">
        <ele>341.64801025391</ele>
        <time>2009-10-14T15:11:04Z</time>
      </trkpt>
      <trkpt lat="45.21053" lon="5.07179">
        <ele>339.16900634766</ele>
        <time>2009-10-14T15:11:09Z</time>
      </trkpt>
      <trkpt lat="45.21003" lon="5.07165">
        <ele>337.86099243164</ele>
        <time>2009-10-14T15:11:14Z</time>
      </trkpt>
      <trkpt lat="45.20964" lon="5.07153">
        <ele>336.23300170898</ele>
        <time>2009-10-14T15:11:18Z</time>
      </trkpt>
      <trkpt lat="45.20918" lon="5.07129">
        <ele>335.8630065918</ele>
        <time>2009-10-14T15:11:23Z</time>
      </trkpt>
      <trkpt lat="45.20886" lon="5.07106">
        <ele>334.96099853516</ele>
        <time>2009-10-14T15:11:27Z</time>
      </trkpt>
      <trkpt lat="45.20815" lon="5.07053">
        <ele>332.9880065918</ele>
        <time>2009-10-14T15:11:36Z</time>
      </trkpt>
      <trkpt lat="45.20766" lon="5.07009">
        <ele>333.40399169922</ele>
        <time>2009-10-14T15:11:42Z</time>
      </trkpt>
      <trkpt lat="45.20723" lon="5.06957">
        <ele>333.43499755859</ele>
        <time>2009-10-14T15:11:48Z</time>
      </trkpt>
      <trkpt lat="45.20702" lon="5.06921">
        <ele>334.22698974609</ele>
        <time>2009-10-14T15:11:52Z</time>
      </trkpt>
      <trkpt lat="45.20696" lon="5.06917">
        <ele>334.06698608398</ele>
        <time>2009-10-14T15:11:53Z</time>
      </trkpt>
      <trkpt lat="45.20669" lon="5.06888">
        <ele>332.96798706055</ele>
        <time>2009-10-14T15:11:58Z</time>
      </trkpt>
      <trkpt lat="45.20647" lon="5.06834">
        <ele>332.33499145508</ele>
        <time>2009-10-14T15:12:04Z</time>
      </trkpt>
      <trkpt lat="45.20624" lon="5.06791">
        <ele>332.89199829102</ele>
        <time>2009-10-14T15:12:09Z</time>
      </trkpt>
      <trkpt lat="45.20583" lon="5.06728">
        <ele>333.10800170898</ele>
        <time>2009-10-14T15:12:17Z</time>
      </trkpt>
      <trkpt lat="45.20554" lon="5.06686">
        <ele>333.44000244141</ele>
        <time>2009-10-14T15:12:23Z</time>
      </trkpt>
      <trkpt lat="45.20525" lon="5.06643">
        <ele>333.97698974609</ele>
        <time>2009-10-14T15:12:29Z</time>
      </trkpt>
      <trkpt lat="45.20499" lon="5.06605">
        <ele>334.73901367188</ele>
        <time>2009-10-14T15:12:35Z</time>
      </trkpt>
      <trkpt lat="45.2048" lon="5.06578">
        <ele>334.40100097656</ele>
        <time>2009-10-14T15:12:39Z</time>
      </trkpt>
      <trkpt lat="45.20459" lon="5.0655">
        <ele>334.05801391602</ele>
        <time>2009-10-14T15:12:44Z</time>
      </trkpt>
      <trkpt lat="45.20425" lon="5.06502">
        <ele>333.92999267578</ele>
        <time>2009-10-14T15:12:51Z</time>
      </trkpt>
      <trkpt lat="45.20415" lon="5.06489">
        <ele>334.26400756836</ele>
        <time>2009-10-14T15:12:53Z</time>
      </trkpt>
      <trkpt lat="45.20404" lon="5.06477">
        <ele>335.10101318359</ele>
        <time>2009-10-14T15:12:55Z</time>
      </trkpt>
      <trkpt lat="45.2038" lon="5.0646">
        <ele>335.18099975586</ele>
        <time>2009-10-14T15:12:59Z</time>
      </trkpt>
      <trkpt lat="45.20333" lon="5.06419">
        <ele>334.43200683594</ele>
        <time>2009-10-14T15:13:06Z</time>
      </trkpt>
      <trkpt lat="45.20287" lon="5.06376">
        <ele>332.35598754883</ele>
        <time>2009-10-14T15:13:12Z</time>
      </trkpt>
      <trkpt lat="45.20232" lon="5.06338">
        <ele>330.91900634766</ele>
        <time>2009-10-14T15:13:18Z</time>
      </trkpt>
      <trkpt lat="45.20163" lon="5.06293">
        <ele>328.08099365234</ele>
        <time>2009-10-14T15:13:25Z</time>
      </trkpt>
      <trkpt lat="45.20072" lon="5.06237">
        <ele>325.35101318359</ele>
        <time>2009-10-14T15:13:34Z</time>
      </trkpt>
      <trkpt lat="45.20015" lon="5.06202">
        <ele>322.78100585938</ele>
        <time>2009-10-14T15:13:39Z</time>
      </trkpt>
      <trkpt lat="45.19933" lon="5.06147">
        <ele>321.71499633789</ele>
        <time>2009-10-14T15:13:46Z</time>
      </trkpt>
      <trkpt lat="45.19885" lon="5.06104">
        <ele>320.79901123047</ele>
        <time>2009-10-14T15:13:50Z</time>
      </trkpt>
      <trkpt lat="45.19823" lon="5.06044">
        <ele>317.74700927734</ele>
        <time>2009-10-14T15:13:55Z</time>
      </trkpt>
      <trkpt lat="45.19758" lon="5.05982">
        <ele>315.29699707031</ele>
        <time>2009-10-14T15:14:00Z</time>
      </trkpt>
      <trkpt lat="45.19693" lon="5.05919">
        <ele>313.00500488281</ele>
        <time>2009-10-14T15:14:05Z</time>
      </trkpt>
      <trkpt lat="45.19668" lon="5.05894">
        <ele>312.78201293945</ele>
        <time>2009-10-14T15:14:07Z</time>
      </trkpt>
      <trkpt lat="45.19632" lon="5.05834">
        <ele>312.29098510742</ele>
        <time>2009-10-14T15:14:11Z</time>
      </trkpt>
      <trkpt lat="45.19615" lon="5.05786">
        <ele>313.71200561523</ele>
        <time>2009-10-14T15:14:14Z</time>
      </trkpt>
      <trkpt lat="45.1961" lon="5.05771">
        <ele>314.09799194336</ele>
        <time>2009-10-14T15:14:15Z</time>
      </trkpt>
      <trkpt lat="45.19595" lon="5.05699">
        <ele>314.57400512695</ele>
        <time>2009-10-14T15:14:20Z</time>
      </trkpt>
      <trkpt lat="45.19572" lon="5.0564">
        <ele>314.04400634766</ele>
        <time>2009-10-14T15:14:25Z</time>
      </trkpt>
      <trkpt lat="45.19517" lon="5.05554">
        <ele>312.06399536133</ele>
        <time>2009-10-14T15:14:34Z</time>
      </trkpt>
      <trkpt lat="45.1947" lon="5.05503">
        <ele>311.87200927734</ele>
        <time>2009-10-14T15:14:41Z</time>
      </trkpt>
      <trkpt lat="45.19418" lon="5.0545">
        <ele>311.66598510742</ele>
        <time>2009-10-14T15:14:49Z</time>
      </trkpt>
      <trkpt lat="45.19356" lon="5.05382">
        <ele>310.90200805664</ele>
        <time>2009-10-14T15:14:59Z</time>
      </trkpt>
      <trkpt lat="45.19315" lon="5.05326">
        <ele>309.56201171875</ele>
        <time>2009-10-14T15:15:06Z</time>
      </trkpt>
      <trkpt lat="45.19271" lon="5.05267">
        <ele>308.81201171875</ele>
        <time>2009-10-14T15:15:13Z</time>
      </trkpt>
      <trkpt lat="45.19247" lon="5.05232">
        <ele>306.5830078125</ele>
        <time>2009-10-14T15:15:17Z</time>
      </trkpt>
      <trkpt lat="45.19199" lon="5.05166">
        <ele>304.84201049805</ele>
        <time>2009-10-14T15:15:25Z</time>
      </trkpt>
      <trkpt lat="45.19181" lon="5.05142">
        <ele>303.92300415039</ele>
        <time>2009-10-14T15:15:28Z</time>
      </trkpt>
      <trkpt lat="45.19168" lon="5.05126">
        <ele>303.30999755859</ele>
        <time>2009-10-14T15:15:30Z</time>
      </trkpt>
      <trkpt lat="45.19126" lon="5.0508">
        <ele>302.55700683594</ele>
        <time>2009-10-14T15:15:36Z</time>
      </trkpt>
      <trkpt lat="45.19087" lon="5.0504">
        <ele>301.4460144043</ele>
        <time>2009-10-14T15:15:41Z</time>
      </trkpt>
      <trkpt lat="45.19064" lon="5.05014">
        <ele>301.17098999023</ele>
        <time>2009-10-14T15:15:44Z</time>
      </trkpt>
      <trkpt lat="45.19006" lon="5.04951">
        <ele>300.66500854492</ele>
        <time>2009-10-14T15:15:51Z</time>
      </trkpt>
      <trkpt lat="45.18951" lon="5.04892">
        <ele>299.76501464844</ele>
        <time>2009-10-14T15:15:58Z</time>
      </trkpt>
      <trkpt lat="45.18909" lon="5.04842">
        <ele>299.56500244141</ele>
        <time>2009-10-14T15:16:04Z</time>
      </trkpt>
      <trkpt lat="45.18867" lon="5.04793">
        <ele>297.91000366211</ele>
        <time>2009-10-14T15:16:10Z</time>
      </trkpt>
      <trkpt lat="45.18809" lon="5.04722">
        <ele>297.42999267578</ele>
        <time>2009-10-14T15:16:19Z</time>
      </trkpt>
      <trkpt lat="45.18785" lon="5.04693">
        <ele>297.35699462891</ele>
        <time>2009-10-14T15:16:23Z</time>
      </trkpt>
      <trkpt lat="45.18774" lon="5.04668">
        <ele>298.48400878906</ele>
        <time>2009-10-14T15:16:26Z</time>
      </trkpt>
      <trkpt lat="45.18779" lon="5.04654">
        <ele>299.62200927734</ele>
        <time>2009-10-14T15:16:28Z</time>
      </trkpt>
      <trkpt lat="45.18784" lon="5.04651">
        <ele>299.86599731445</ele>
        <time>2009-10-14T15:16:29Z</time>
      </trkpt>
      <trkpt lat="45.18789" lon="5.0465">
        <ele>299.85598754883</ele>
        <time>2009-10-14T15:16:30Z</time>
      </trkpt>
      <trkpt lat="45.18827" lon="5.04651">
        <ele>299.94500732422</ele>
        <time>2009-10-14T15:16:37Z</time>
      </trkpt>
      <trkpt lat="45.18849" lon="5.0465">
        <ele>299.79000854492</ele>
        <time>2009-10-14T15:16:41Z</time>
      </trkpt>
      <trkpt lat="45.18896" lon="5.04642">
        <ele>301.21499633789</ele>
        <time>2009-10-14T15:16:50Z</time>
      </trkpt>
      <trkpt lat="45.18932" lon="5.04632">
        <ele>301.96899414062</ele>
        <time>2009-10-14T15:16:57Z</time>
      </trkpt>
      <trkpt lat="45.18968" lon="5.04626">
        <ele>302.98498535156</ele>
        <time>2009-10-14T15:17:04Z</time>
      </trkpt>
      <trkpt lat="45.18979" lon="5.04628">
        <ele>302.97698974609</ele>
        <time>2009-10-14T15:17:06Z</time>
      </trkpt>
      <trkpt lat="45.18997" lon="5.04637">
        <ele>304.79800415039</ele>
        <time>2009-10-14T15:17:10Z</time>
      </trkpt>
      <trkpt lat="45.19023" lon="5.04665">
        <ele>305.88101196289</ele>
        <time>2009-10-14T15:17:17Z</time>
      </trkpt>
      <trkpt lat="45.1904" lon="5.04694">
        <ele>307.75299072266</ele>
        <time>2009-10-14T15:17:23Z</time>
      </trkpt>
      <trkpt lat="45.19051" lon="5.04723">
        <ele>309.08700561523</ele>
        <time>2009-10-14T15:17:28Z</time>
      </trkpt>
      <trkpt lat="45.19072" lon="5.04785">
        <ele>311.45999145508</ele>
        <time>2009-10-14T15:17:39Z</time>
      </trkpt>
      <trkpt lat="45.19086" lon="5.04816">
        <ele>313.08099365234</ele>
        <time>2009-10-14T15:17:46Z</time>
      </trkpt>
      <trkpt lat="45.19107" lon="5.04839">
        <ele>313.84799194336</ele>
        <time>2009-10-14T15:17:53Z</time>
      </trkpt>
      <trkpt lat="45.19132" lon="5.04852">
        <ele>315.375</ele>
        <time>2009-10-14T15:18:00Z</time>
      </trkpt>
      <trkpt lat="45.19157" lon="5.04854">
        <ele>316.44900512695</ele>
        <time>2009-10-14T15:18:07Z</time>
      </trkpt>
      <trkpt lat="45.19178" lon="5.04847">
        <ele>318.18301391602</ele>
        <time>2009-10-14T15:18:13Z</time>
      </trkpt>
      <trkpt lat="45.19195" lon="5.04835">
        <ele>319.09201049805</ele>
        <time>2009-10-14T15:18:19Z</time>
      </trkpt>
      <trkpt lat="45.19213" lon="5.04809">
        <ele>320.37600708008</ele>
        <time>2009-10-14T15:18:27Z</time>
      </trkpt>
      <trkpt lat="45.19229" lon="5.04778">
        <ele>321.32901000977</ele>
        <time>2009-10-14T15:18:35Z</time>
      </trkpt>
      <trkpt lat="45.19254" lon="5.04728">
        <ele>322.77600097656</ele>
        <time>2009-10-14T15:18:47Z</time>
      </trkpt>
      <trkpt lat="45.19275" lon="5.04685">
        <ele>323.9049987793</ele>
        <time>2009-10-14T15:18:57Z</time>
      </trkpt>
      <trkpt lat="45.19299" lon="5.04632">
        <ele>325.64001464844</ele>
        <time>2009-10-14T15:19:08Z</time>
      </trkpt>
      <trkpt lat="45.19327" lon="5.04576">
        <ele>326.96499633789</ele>
        <time>2009-10-14T15:19:19Z</time>
      </trkpt>
      <trkpt lat="45.19359" lon="5.0451">
        <ele>329.16500854492</ele>
        <time>2009-10-14T15:19:32Z</time>
      </trkpt>
      <trkpt lat="45.1938" lon="5.04472">
        <ele>330.54400634766</ele>
        <time>2009-10-14T15:19:40Z</time>
      </trkpt>
      <trkpt lat="45.19405" lon="5.04454">
        <ele>331.20700073242</ele>
        <time>2009-10-14T15:19:47Z</time>
      </trkpt>
      <trkpt lat="45.19417" lon="5.04452">
        <ele>332.07699584961</ele>
        <time>2009-10-14T15:19:50Z</time>
      </trkpt>
      <trkpt lat="45.19452" lon="5.04461">
        <ele>333.72799682617</ele>
        <time>2009-10-14T15:19:59Z</time>
      </trkpt>
      <trkpt lat="45.19489" lon="5.04477">
        <ele>335.96301269531</ele>
        <time>2009-10-14T15:20:09Z</time>
      </trkpt>
      <trkpt lat="45.19524" lon="5.04491">
        <ele>337.55899047852</ele>
        <time>2009-10-14T15:20:18Z</time>
      </trkpt>
      <trkpt lat="45.19547" lon="5.04496">
        <ele>338.93600463867</ele>
        <time>2009-10-14T15:20:24Z</time>
      </trkpt>
      <trkpt lat="45.19569" lon="5.04485">
        <ele>340.51098632812</ele>
        <time>2009-10-14T15:20:30Z</time>
      </trkpt>
      <trkpt lat="45.19581" lon="5.04462">
        <ele>341.72698974609</ele>
        <time>2009-10-14T15:20:35Z</time>
      </trkpt>
      <trkpt lat="45.19585" lon="5.0444">
        <ele>342.7619934082</ele>
        <time>2009-10-14T15:20:39Z</time>
      </trkpt>
      <trkpt lat="45.19584" lon="5.04392">
        <ele>343.125</ele>
        <time>2009-10-14T15:20:47Z</time>
      </trkpt>
      <trkpt lat="45.19581" lon="5.0434">
        <ele>346.04998779297</ele>
        <time>2009-10-14T15:20:56Z</time>
      </trkpt>
      <trkpt lat="45.1958" lon="5.04288">
        <ele>348.43798828125</ele>
        <time>2009-10-14T15:21:06Z</time>
      </trkpt>
      <trkpt lat="45.1958" lon="5.04242">
        <ele>350.84298706055</ele>
        <time>2009-10-14T15:21:15Z</time>
      </trkpt>
      <trkpt lat="45.19579" lon="5.04181">
        <ele>352.40399169922</ele>
        <time>2009-10-14T15:21:27Z</time>
      </trkpt>
      <trkpt lat="45.19582" lon="5.04127">
        <ele>353.71899414062</ele>
        <time>2009-10-14T15:21:38Z</time>
      </trkpt>
      <trkpt lat="45.19598" lon="5.04089">
        <ele>355.31500244141</ele>
        <time>2009-10-14T15:21:47Z</time>
      </trkpt>
      <trkpt lat="45.19605" lon="5.04079">
        <ele>356.60198974609</ele>
        <time>2009-10-14T15:21:50Z</time>
      </trkpt>
      <trkpt lat="45.19627" lon="5.04059">
        <ele>357.25900268555</ele>
        <time>2009-10-14T15:21:58Z</time>
      </trkpt>
      <trkpt lat="45.19638" lon="5.04049">
        <ele>357.76400756836</ele>
        <time>2009-10-14T15:22:03Z</time>
      </trkpt>
      <trkpt lat="45.19641" lon="5.04034">
        <ele>359.26000976562</ele>
        <time>2009-10-14T15:22:07Z</time>
      </trkpt>
      <trkpt lat="45.19635" lon="5.0402">
        <ele>359.94198608398</ele>
        <time>2009-10-14T15:22:12Z</time>
      </trkpt>
      <trkpt lat="45.19624" lon="5.03999">
        <ele>360.4580078125</ele>
        <time>2009-10-14T15:22:19Z</time>
      </trkpt>
      <trkpt lat="45.19607" lon="5.03965">
        <ele>363.04901123047</ele>
        <time>2009-10-14T15:22:29Z</time>
      </trkpt>
      <trkpt lat="45.19598" lon="5.03947">
        <ele>363.86401367188</ele>
        <time>2009-10-14T15:22:35Z</time>
      </trkpt>
      <trkpt lat="45.19587" lon="5.03926">
        <ele>365.49600219727</ele>
        <time>2009-10-14T15:22:42Z</time>
      </trkpt>
      <trkpt lat="45.19575" lon="5.03903">
        <ele>366.38500976562</ele>
        <time>2009-10-14T15:22:50Z</time>
      </trkpt>
      <trkpt lat="45.19565" lon="5.03883">
        <ele>367.51998901367</ele>
        <time>2009-10-14T15:22:57Z</time>
      </trkpt>
      <trkpt lat="45.1955" lon="5.03856">
        <ele>368.43701171875</ele>
        <time>2009-10-14T15:23:06Z</time>
      </trkpt>
      <trkpt lat="45.19533" lon="5.03828">
        <ele>369.78201293945</ele>
        <time>2009-10-14T15:23:15Z</time>
      </trkpt>
      <trkpt lat="45.19513" lon="5.03798">
        <ele>370.98098754883</ele>
        <time>2009-10-14T15:23:24Z</time>
      </trkpt>
      <trkpt lat="45.19493" lon="5.03757">
        <ele>371.52499389648</ele>
        <time>2009-10-14T15:23:33Z</time>
      </trkpt>
      <trkpt lat="45.19486" lon="5.03739">
        <ele>371.25799560547</ele>
        <time>2009-10-14T15:23:36Z</time>
      </trkpt>
      <trkpt lat="45.19482" lon="5.03693">
        <ele>369.67401123047</ele>
        <time>2009-10-14T15:23:42Z</time>
      </trkpt>
      <trkpt lat="45.19492" lon="5.03659">
        <ele>368.6969909668</ele>
        <time>2009-10-14T15:23:46Z</time>
      </trkpt>
      <trkpt lat="45.19523" lon="5.03604">
        <ele>365.98098754883</ele>
        <time>2009-10-14T15:23:53Z</time>
      </trkpt>
      <trkpt lat="45.19563" lon="5.0357">
        <ele>364.54800415039</ele>
        <time>2009-10-14T15:23:59Z</time>
      </trkpt>
      <trkpt lat="45.19577" lon="5.03561">
        <ele>364.06100463867</ele>
        <time>2009-10-14T15:24:01Z</time>
      </trkpt>
      <trkpt lat="45.19609" lon="5.03535">
        <ele>363.49798583984</ele>
        <time>2009-10-14T15:24:06Z</time>
      </trkpt>
      <trkpt lat="45.1963" lon="5.03498">
        <ele>364.55599975586</ele>
        <time>2009-10-14T15:24:11Z</time>
      </trkpt>
      <trkpt lat="45.19632" lon="5.03489">
        <ele>365.52899169922</ele>
        <time>2009-10-14T15:24:12Z</time>
      </trkpt>
      <trkpt lat="45.19636" lon="5.03471">
        <ele>366.19000244141</ele>
        <time>2009-10-14T15:24:14Z</time>
      </trkpt>
      <trkpt lat="45.19637" lon="5.03463">
        <ele>365.91500854492</ele>
        <time>2009-10-14T15:24:15Z</time>
      </trkpt>
      <trkpt lat="45.19636" lon="5.03432">
        <ele>366.4880065918</ele>
        <time>2009-10-14T15:24:19Z</time>
      </trkpt>
      <trkpt lat="45.1963" lon="5.03411">
        <ele>367.12701416016</ele>
        <time>2009-10-14T15:24:22Z</time>
      </trkpt>
      <trkpt lat="45.19611" lon="5.03371">
        <ele>369.30099487305</ele>
        <time>2009-10-14T15:24:29Z</time>
      </trkpt>
      <trkpt lat="45.19599" lon="5.03351">
        <ele>370.18399047852</ele>
        <time>2009-10-14T15:24:33Z</time>
      </trkpt>
      <trkpt lat="45.19582" lon="5.03311">
        <ele>371.8450012207</ele>
        <time>2009-10-14T15:24:40Z</time>
      </trkpt>
      <trkpt lat="45.19581" lon="5.03304">
        <ele>371.97399902344</ele>
        <time>2009-10-14T15:24:41Z</time>
      </trkpt>
      <trkpt lat="45.19576" lon="5.03252">
        <ele>374.61700439453</ele>
        <time>2009-10-14T15:24:49Z</time>
      </trkpt>
      <trkpt lat="45.19575" lon="5.03239">
        <ele>375.0299987793</ele>
        <time>2009-10-14T15:24:51Z</time>
      </trkpt>
      <trkpt lat="45.19567" lon="5.03218">
        <ele>375.62298583984</ele>
        <time>2009-10-14T15:24:55Z</time>
      </trkpt>
      <trkpt lat="45.19551" lon="5.03191">
        <ele>376.06100463867</ele>
        <time>2009-10-14T15:25:01Z</time>
      </trkpt>
      <trkpt lat="45.19545" lon="5.03174">
        <ele>375.82998657227</ele>
        <time>2009-10-14T15:25:04Z</time>
      </trkpt>
      <trkpt lat="45.19542" lon="5.03151">
        <ele>376.49600219727</ele>
        <time>2009-10-14T15:25:08Z</time>
      </trkpt>
      <trkpt lat="45.19541" lon="5.03135">
        <ele>376.50799560547</ele>
        <time>2009-10-14T15:25:11Z</time>
      </trkpt>
      <trkpt lat="45.19528" lon="5.03111">
        <ele>372.28100585938</ele>
        <time>2009-10-14T15:25:15Z</time>
      </trkpt>
      <trkpt lat="45.19525" lon="5.03086">
        <ele>369.36898803711</ele>
        <time>2009-10-14T15:25:19Z</time>
      </trkpt>
      <trkpt lat="45.19535" lon="5.03077">
        <ele>367.30700683594</ele>
        <time>2009-10-14T15:25:21Z</time>
      </trkpt>
      <trkpt lat="45.19559" lon="5.03073">
        <ele>364.64898681641</ele>
        <time>2009-10-14T15:25:24Z</time>
      </trkpt>
      <trkpt lat="45.19578" lon="5.03076">
        <ele>362.06298828125</ele>
        <time>2009-10-14T15:25:26Z</time>
      </trkpt>
      <trkpt lat="45.1964" lon="5.03071">
        <ele>355.54901123047</ele>
        <time>2009-10-14T15:25:32Z</time>
      </trkpt>
      <trkpt lat="45.1965" lon="5.03069">
        <ele>357.25900268555</ele>
        <time>2009-10-14T15:25:33Z</time>
      </trkpt>
      <trkpt lat="45.19678" lon="5.03056">
        <ele>353.50299072266</ele>
        <time>2009-10-14T15:25:36Z</time>
      </trkpt>
      <trkpt lat="45.19702" lon="5.03021">
        <ele>351.42498779297</ele>
        <time>2009-10-14T15:25:40Z</time>
      </trkpt>
      <trkpt lat="45.19701" lon="5.02993">
        <ele>350.48199462891</ele>
        <time>2009-10-14T15:25:42Z</time>
      </trkpt>
      <trkpt lat="45.19689" lon="5.02953">
        <ele>351.28799438477</ele>
        <time>2009-10-14T15:25:45Z</time>
      </trkpt>
      <trkpt lat="45.19673" lon="5.02935">
        <ele>353.22900390625</ele>
        <time>2009-10-14T15:25:48Z</time>
      </trkpt>
      <trkpt lat="45.1966" lon="5.02926">
        <ele>354.88598632812</ele>
        <time>2009-10-14T15:25:51Z</time>
      </trkpt>
      <trkpt lat="45.19644" lon="5.02918">
        <ele>356.37799072266</ele>
        <time>2009-10-14T15:25:56Z</time>
      </trkpt>
      <trkpt lat="45.19624" lon="5.02906">
        <ele>358.43099975586</ele>
        <time>2009-10-14T15:26:03Z</time>
      </trkpt>
      <trkpt lat="45.19616" lon="5.0289">
        <ele>360.2380065918</ele>
        <time>2009-10-14T15:26:08Z</time>
      </trkpt>
      <trkpt lat="45.19616" lon="5.02875">
        <ele>361.01300048828</ele>
        <time>2009-10-14T15:26:12Z</time>
      </trkpt>
      <trkpt lat="45.19625" lon="5.02856">
        <ele>362.35400390625</ele>
        <time>2009-10-14T15:26:17Z</time>
      </trkpt>
      <trkpt lat="45.19634" lon="5.02827">
        <ele>363.44299316406</ele>
        <time>2009-10-14T15:26:24Z</time>
      </trkpt>
      <trkpt lat="45.19633" lon="5.02812">
        <ele>364.23300170898</ele>
        <time>2009-10-14T15:26:28Z</time>
      </trkpt>
      <trkpt lat="45.19625" lon="5.02797">
        <ele>364.69799804688</ele>
        <time>2009-10-14T15:26:33Z</time>
      </trkpt>
      <trkpt lat="45.19608" lon="5.02776">
        <ele>365.79998779297</ele>
        <time>2009-10-14T15:26:41Z</time>
      </trkpt>
      <trkpt lat="45.196" lon="5.02752">
        <ele>366.79299926758</ele>
        <time>2009-10-14T15:26:47Z</time>
      </trkpt>
      <trkpt lat="45.19593" lon="5.0272">
        <ele>367.84100341797</ele>
        <time>2009-10-14T15:26:55Z</time>
      </trkpt>
      <trkpt lat="45.19582" lon="5.02701">
        <ele>369.19799804688</ele>
        <time>2009-10-14T15:27:01Z</time>
      </trkpt>
      <trkpt lat="45.19571" lon="5.02689">
        <ele>370.05700683594</ele>
        <time>2009-10-14T15:27:07Z</time>
      </trkpt>
      <trkpt lat="45.19553" lon="5.02673">
        <ele>371.18798828125</ele>
        <time>2009-10-14T15:27:15Z</time>
      </trkpt>
      <trkpt lat="45.19533" lon="5.02657">
        <ele>373.07800292969</ele>
        <time>2009-10-14T15:27:23Z</time>
      </trkpt>
      <trkpt lat="45.19514" lon="5.02648">
        <ele>374.08499145508</ele>
        <time>2009-10-14T15:27:30Z</time>
      </trkpt>
      <trkpt lat="45.19488" lon="5.02644">
        <ele>375.02899169922</ele>
        <time>2009-10-14T15:27:39Z</time>
      </trkpt>
      <trkpt lat="45.19455" lon="5.02643">
        <ele>376.36999511719</ele>
        <time>2009-10-14T15:27:49Z</time>
      </trkpt>
      <trkpt lat="45.1943" lon="5.02642">
        <ele>378.13900756836</ele>
        <time>2009-10-14T15:27:57Z</time>
      </trkpt>
      <trkpt lat="45.19408" lon="5.02633">
        <ele>379.50799560547</ele>
        <time>2009-10-14T15:28:04Z</time>
      </trkpt>
      <trkpt lat="45.194" lon="5.02613">
        <ele>379.90798950195</ele>
        <time>2009-10-14T15:28:09Z</time>
      </trkpt>
      <trkpt lat="45.194" lon="5.02587">
        <ele>378.76000976562</ele>
        <time>2009-10-14T15:28:15Z</time>
      </trkpt>
      <trkpt lat="45.19401" lon="5.02568">
        <ele>377.1669921875</ele>
        <time>2009-10-14T15:28:18Z</time>
      </trkpt>
      <trkpt lat="45.19405" lon="5.02553">
        <ele>375.8330078125</ele>
        <time>2009-10-14T15:28:20Z</time>
      </trkpt>
      <trkpt lat="45.19415" lon="5.02533">
        <ele>373.91101074219</ele>
        <time>2009-10-14T15:28:23Z</time>
      </trkpt>
      <trkpt lat="45.19431" lon="5.02503">
        <ele>372.63101196289</ele>
        <time>2009-10-14T15:28:27Z</time>
      </trkpt>
      <trkpt lat="45.19465" lon="5.02473">
        <ele>369.10800170898</ele>
        <time>2009-10-14T15:28:32Z</time>
      </trkpt>
      <trkpt lat="45.19491" lon="5.02463">
        <ele>367.50100708008</ele>
        <time>2009-10-14T15:28:35Z</time>
      </trkpt>
      <trkpt lat="45.19512" lon="5.02437">
        <ele>365.05099487305</ele>
        <time>2009-10-14T15:28:38Z</time>
      </trkpt>
      <trkpt lat="45.19519" lon="5.02409">
        <ele>363.66299438477</ele>
        <time>2009-10-14T15:28:40Z</time>
      </trkpt>
      <trkpt lat="45.19529" lon="5.02332">
        <ele>359.73498535156</ele>
        <time>2009-10-14T15:28:45Z</time>
      </trkpt>
      <trkpt lat="45.19528" lon="5.02265">
        <ele>361.41299438477</ele>
        <time>2009-10-14T15:28:50Z</time>
      </trkpt>
      <trkpt lat="45.19527" lon="5.02237">
        <ele>363.28698730469</ele>
        <time>2009-10-14T15:28:53Z</time>
      </trkpt>
      <trkpt lat="45.19527" lon="5.02229">
        <ele>363.47601318359</ele>
        <time>2009-10-14T15:28:54Z</time>
      </trkpt>
      <trkpt lat="45.19535" lon="5.02199">
        <ele>364.49099731445</ele>
        <time>2009-10-14T15:29:00Z</time>
      </trkpt>
      <trkpt lat="45.19543" lon="5.02187">
        <ele>364.79000854492</ele>
        <time>2009-10-14T15:29:04Z</time>
      </trkpt>
      <trkpt lat="45.19555" lon="5.02173">
        <ele>364.22900390625</ele>
        <time>2009-10-14T15:29:08Z</time>
      </trkpt>
      <trkpt lat="45.19566" lon="5.02155">
        <ele>363.94100952148</ele>
        <time>2009-10-14T15:29:12Z</time>
      </trkpt>
      <trkpt lat="45.19588" lon="5.02101">
        <ele>363.42498779297</ele>
        <time>2009-10-14T15:29:21Z</time>
      </trkpt>
      <trkpt lat="45.19601" lon="5.02065">
        <ele>364.7380065918</ele>
        <time>2009-10-14T15:29:27Z</time>
      </trkpt>
      <trkpt lat="45.19614" lon="5.0203">
        <ele>364.29501342773</ele>
        <time>2009-10-14T15:29:33Z</time>
      </trkpt>
      <trkpt lat="45.19637" lon="5.01981">
        <ele>364.37701416016</ele>
        <time>2009-10-14T15:29:41Z</time>
      </trkpt>
      <trkpt lat="45.19657" lon="5.01938">
        <ele>363.3030090332</ele>
        <time>2009-10-14T15:29:47Z</time>
      </trkpt>
      <trkpt lat="45.1967" lon="5.01906">
        <ele>364.76699829102</ele>
        <time>2009-10-14T15:29:52Z</time>
      </trkpt>
      <trkpt lat="45.1967" lon="5.01894">
        <ele>365.63500976562</ele>
        <time>2009-10-14T15:29:54Z</time>
      </trkpt>
      <trkpt lat="45.19661" lon="5.01881">
        <ele>366.46099853516</ele>
        <time>2009-10-14T15:29:57Z</time>
      </trkpt>
      <trkpt lat="45.19648" lon="5.01877">
        <ele>367.42401123047</ele>
        <time>2009-10-14T15:30:00Z</time>
      </trkpt>
      <trkpt lat="45.19621" lon="5.01868">
        <ele>369.9469909668</ele>
        <time>2009-10-14T15:30:07Z</time>
      </trkpt>
      <trkpt lat="45.19604" lon="5.0185">
        <ele>372.36499023438</ele>
        <time>2009-10-14T15:30:13Z</time>
      </trkpt>
      <trkpt lat="45.19595" lon="5.0183">
        <ele>373.94799804688</ele>
        <time>2009-10-14T15:30:18Z</time>
      </trkpt>
      <trkpt lat="45.1958" lon="5.018">
        <ele>375.60501098633</ele>
        <time>2009-10-14T15:30:25Z</time>
      </trkpt>
      <trkpt lat="45.19571" lon="5.01768">
        <ele>375.60800170898</ele>
        <time>2009-10-14T15:30:31Z</time>
      </trkpt>
      <trkpt lat="45.19569" lon="5.01757">
        <ele>375.61099243164</ele>
        <time>2009-10-14T15:30:33Z</time>
      </trkpt>
      <trkpt lat="45.19553" lon="5.01729">
        <ele>374.14700317383</ele>
        <time>2009-10-14T15:30:38Z</time>
      </trkpt>
      <trkpt lat="45.19548" lon="5.01724">
        <ele>374.06600952148</ele>
        <time>2009-10-14T15:30:39Z</time>
      </trkpt>
      <trkpt lat="45.19507" lon="5.01701">
        <ele>373.16799926758</ele>
        <time>2009-10-14T15:30:47Z</time>
      </trkpt>
      <trkpt lat="45.19475" lon="5.01686">
        <ele>373.82598876953</ele>
        <time>2009-10-14T15:30:53Z</time>
      </trkpt>
      <trkpt lat="45.19448" lon="5.01681">
        <ele>373.90701293945</ele>
        <time>2009-10-14T15:30:58Z</time>
      </trkpt>
      <trkpt lat="45.19406" lon="5.01676">
        <ele>373.47799682617</ele>
        <time>2009-10-14T15:31:06Z</time>
      </trkpt>
      <trkpt lat="45.19377" lon="5.01671">
        <ele>374.73699951172</ele>
        <time>2009-10-14T15:31:12Z</time>
      </trkpt>
      <trkpt lat="45.19352" lon="5.01659">
        <ele>375.99600219727</ele>
        <time>2009-10-14T15:31:18Z</time>
      </trkpt>
      <trkpt lat="45.19324" lon="5.0164">
        <ele>377.91900634766</ele>
        <time>2009-10-14T15:31:26Z</time>
      </trkpt>
      <trkpt lat="45.19315" lon="5.01635">
        <ele>378.3450012207</ele>
        <time>2009-10-14T15:31:29Z</time>
      </trkpt>
      <trkpt lat="45.19307" lon="5.0163">
        <ele>378.64199829102</ele>
        <time>2009-10-14T15:31:32Z</time>
      </trkpt>
      <trkpt lat="45.19295" lon="5.01617">
        <ele>377.91900634766</ele>
        <time>2009-10-14T15:31:36Z</time>
      </trkpt>
      <trkpt lat="45.19283" lon="5.016">
        <ele>375.47299194336</ele>
        <time>2009-10-14T15:31:39Z</time>
      </trkpt>
      <trkpt lat="45.19267" lon="5.01564">
        <ele>372.82901000977</ele>
        <time>2009-10-14T15:31:43Z</time>
      </trkpt>
      <trkpt lat="45.19265" lon="5.01534">
        <ele>370.47601318359</ele>
        <time>2009-10-14T15:31:46Z</time>
      </trkpt>
      <trkpt lat="45.19272" lon="5.01515">
        <ele>368.98599243164</ele>
        <time>2009-10-14T15:31:48Z</time>
      </trkpt>
      <trkpt lat="45.19287" lon="5.01463">
        <ele>366.61801147461</ele>
        <time>2009-10-14T15:31:53Z</time>
      </trkpt>
      <trkpt lat="45.19282" lon="5.01441">
        <ele>366.55200195312</ele>
        <time>2009-10-14T15:31:55Z</time>
      </trkpt>
      <trkpt lat="45.19258" lon="5.01386">
        <ele>366.90200805664</ele>
        <time>2009-10-14T15:32:01Z</time>
      </trkpt>
      <trkpt lat="45.19239" lon="5.01365">
        <ele>368.20199584961</ele>
        <time>2009-10-14T15:32:05Z</time>
      </trkpt>
      <trkpt lat="45.1922" lon="5.01361">
        <ele>368.65200805664</ele>
        <time>2009-10-14T15:32:09Z</time>
      </trkpt>
      <trkpt lat="45.19209" lon="5.01349">
        <ele>369.73599243164</ele>
        <time>2009-10-14T15:32:12Z</time>
      </trkpt>
      <trkpt lat="45.19204" lon="5.01326">
        <ele>371.25399780273</ele>
        <time>2009-10-14T15:32:16Z</time>
      </trkpt>
      <trkpt lat="45.19202" lon="5.01303">
        <ele>372.97500610352</ele>
        <time>2009-10-14T15:32:21Z</time>
      </trkpt>
      <trkpt lat="45.19199" lon="5.01297">
        <ele>373.31100463867</ele>
        <time>2009-10-14T15:32:23Z</time>
      </trkpt>
      <trkpt lat="45.19187" lon="5.01289">
        <ele>372.85998535156</ele>
        <time>2009-10-14T15:32:28Z</time>
      </trkpt>
      <trkpt lat="45.19169" lon="5.01289">
        <ele>371.30200195312</ele>
        <time>2009-10-14T15:32:32Z</time>
      </trkpt>
      <trkpt lat="45.19139" lon="5.01289">
        <ele>369.25399780273</ele>
        <time>2009-10-14T15:32:37Z</time>
      </trkpt>
      <trkpt lat="45.19127" lon="5.01292">
        <ele>368.21701049805</ele>
        <time>2009-10-14T15:32:39Z</time>
      </trkpt>
      <trkpt lat="45.19107" lon="5.01301">
        <ele>366.70901489258</ele>
        <time>2009-10-14T15:32:42Z</time>
      </trkpt>
      <trkpt lat="45.19062" lon="5.01328">
        <ele>362.45401000977</ele>
        <time>2009-10-14T15:32:48Z</time>
      </trkpt>
      <trkpt lat="45.1901" lon="5.01356">
        <ele>358.25399780273</ele>
        <time>2009-10-14T15:32:54Z</time>
      </trkpt>
      <trkpt lat="45.1899" lon="5.01363">
        <ele>357.15899658203</ele>
        <time>2009-10-14T15:32:56Z</time>
      </trkpt>
      <trkpt lat="45.18941" lon="5.01363">
        <ele>355.22601318359</ele>
        <time>2009-10-14T15:33:01Z</time>
      </trkpt>
      <trkpt lat="45.18917" lon="5.01345">
        <ele>353.19500732422</ele>
        <time>2009-10-14T15:33:04Z</time>
      </trkpt>
      <trkpt lat="45.18904" lon="5.0131">
        <ele>351.30700683594</ele>
        <time>2009-10-14T15:33:07Z</time>
      </trkpt>
      <trkpt lat="45.18892" lon="5.01291">
        <ele>350.36898803711</ele>
        <time>2009-10-14T15:33:09Z</time>
      </trkpt>
      <trkpt lat="45.18879" lon="5.01285">
        <ele>349.88900756836</ele>
        <time>2009-10-14T15:33:11Z</time>
      </trkpt>
      <trkpt lat="45.18867" lon="5.01288">
        <ele>349.16500854492</ele>
        <time>2009-10-14T15:33:13Z</time>
      </trkpt>
      <trkpt lat="45.18853" lon="5.01297">
        <ele>348.50100708008</ele>
        <time>2009-10-14T15:33:17Z</time>
      </trkpt>
      <trkpt lat="45.18854" lon="5.01301">
        <ele>348.09600830078</ele>
        <time>2009-10-14T15:33:21Z</time>
      </trkpt>
      <trkpt lat="45.18856" lon="5.013">
        <ele>348.34698486328</ele>
        <time>2009-10-14T15:33:22Z</time>
      </trkpt>
      <trkpt lat="45.1887" lon="5.01292">
        <ele>348.49301147461</ele>
        <time>2009-10-14T15:33:28Z</time>
      </trkpt>
      <trkpt lat="45.18881" lon="5.01289">
        <ele>349.32800292969</ele>
        <time>2009-10-14T15:33:31Z</time>
      </trkpt>
      <trkpt lat="45.18897" lon="5.01296">
        <ele>350.06500244141</ele>
        <time>2009-10-14T15:33:35Z</time>
      </trkpt>
      <trkpt lat="45.18903" lon="5.01304">
        <ele>350.63900756836</ele>
        <time>2009-10-14T15:33:37Z</time>
      </trkpt>
      <trkpt lat="45.18905" lon="5.0131">
        <ele>351.06698608398</ele>
        <time>2009-10-14T15:33:38Z</time>
      </trkpt>
      <trkpt lat="45.18911" lon="5.01327">
        <ele>352.28799438477</ele>
        <time>2009-10-14T15:33:41Z</time>
      </trkpt>
      <trkpt lat="45.18914" lon="5.01338">
        <ele>352.40399169922</ele>
        <time>2009-10-14T15:33:43Z</time>
      </trkpt>
      <trkpt lat="45.18925" lon="5.01357">
        <ele>353.45498657227</ele>
        <time>2009-10-14T15:33:47Z</time>
      </trkpt>
      <trkpt lat="45.18929" lon="5.0136">
        <ele>354.08401489258</ele>
        <time>2009-10-14T15:33:48Z</time>
      </trkpt>
      <trkpt lat="45.18937" lon="5.01365">
        <ele>354.35800170898</ele>
        <time>2009-10-14T15:33:50Z</time>
      </trkpt>
      <trkpt lat="45.18967" lon="5.01372">
        <ele>355.4469909668</ele>
        <time>2009-10-14T15:33:57Z</time>
      </trkpt>
      <trkpt lat="45.18987" lon="5.0137">
        <ele>355.72198486328</ele>
        <time>2009-10-14T15:34:02Z</time>
      </trkpt>
      <trkpt lat="45.19009" lon="5.01363">
        <ele>358.47601318359</ele>
        <time>2009-10-14T15:34:08Z</time>
      </trkpt>
      <trkpt lat="45.1903" lon="5.01351">
        <ele>359.81900024414</ele>
        <time>2009-10-14T15:34:14Z</time>
      </trkpt>
      <trkpt lat="45.19033" lon="5.0135">
        <ele>359.92199707031</ele>
        <time>2009-10-14T15:34:15Z</time>
      </trkpt>
      <trkpt lat="45.19054" lon="5.0134">
        <ele>361.68701171875</ele>
        <time>2009-10-14T15:34:22Z</time>
      </trkpt>
      <trkpt lat="45.19075" lon="5.01329">
        <ele>361.52700805664</ele>
        <time>2009-10-14T15:34:29Z</time>
      </trkpt>
      <trkpt lat="45.1909" lon="5.01321">
        <ele>363.10598754883</ele>
        <time>2009-10-14T15:34:35Z</time>
      </trkpt>
      <trkpt lat="45.19106" lon="5.01312">
        <ele>365.05700683594</ele>
        <time>2009-10-14T15:34:41Z</time>
      </trkpt>
      <trkpt lat="45.19123" lon="5.01303">
        <ele>366.0530090332</ele>
        <time>2009-10-14T15:34:47Z</time>
      </trkpt>
      <trkpt lat="45.19144" lon="5.01297">
        <ele>368.22900390625</ele>
        <time>2009-10-14T15:34:54Z</time>
      </trkpt>
      <trkpt lat="45.19165" lon="5.01296">
        <ele>368.9169921875</ele>
        <time>2009-10-14T15:35:01Z</time>
      </trkpt>
      <trkpt lat="45.19188" lon="5.01295">
        <ele>370.52398681641</ele>
        <time>2009-10-14T15:35:09Z</time>
      </trkpt>
      <trkpt lat="45.19193" lon="5.01296">
        <ele>371.8450012207</ele>
        <time>2009-10-14T15:35:11Z</time>
      </trkpt>
      <trkpt lat="45.19202" lon="5.01298">
        <ele>373.57699584961</ele>
        <time>2009-10-14T15:35:15Z</time>
      </trkpt>
      <trkpt lat="45.19206" lon="5.01308">
        <ele>373.11199951172</ele>
        <time>2009-10-14T15:35:20Z</time>
      </trkpt>
      <trkpt lat="45.19208" lon="5.01328">
        <ele>371.98098754883</ele>
        <time>2009-10-14T15:35:24Z</time>
      </trkpt>
      <trkpt lat="45.19208" lon="5.01335">
        <ele>371.82699584961</ele>
        <time>2009-10-14T15:35:25Z</time>
      </trkpt>
      <trkpt lat="45.19217" lon="5.01364">
        <ele>369.125</ele>
        <time>2009-10-14T15:35:29Z</time>
      </trkpt>
      <trkpt lat="45.19236" lon="5.01371">
        <ele>368.10699462891</ele>
        <time>2009-10-14T15:35:32Z</time>
      </trkpt>
      <trkpt lat="45.19255" lon="5.01381">
        <ele>367.16299438477</ele>
        <time>2009-10-14T15:35:35Z</time>
      </trkpt>
      <trkpt lat="45.19264" lon="5.01397">
        <ele>366.60598754883</ele>
        <time>2009-10-14T15:35:37Z</time>
      </trkpt>
      <trkpt lat="45.19285" lon="5.01447">
        <ele>366.10400390625</ele>
        <time>2009-10-14T15:35:43Z</time>
      </trkpt>
      <trkpt lat="45.1929" lon="5.01489">
        <ele>366.62100219727</ele>
        <time>2009-10-14T15:35:48Z</time>
      </trkpt>
      <trkpt lat="45.19278" lon="5.01515">
        <ele>367.82699584961</ele>
        <time>2009-10-14T15:35:52Z</time>
      </trkpt>
      <trkpt lat="45.19249" lon="5.01534">
        <ele>368.39199829102</ele>
        <time>2009-10-14T15:35:59Z</time>
      </trkpt>
      <trkpt lat="45.19207" lon="5.01553">
        <ele>368.60598754883</ele>
        <time>2009-10-14T15:36:07Z</time>
      </trkpt>
      <trkpt lat="45.19179" lon="5.01568">
        <ele>368.19799804688</ele>
        <time>2009-10-14T15:36:12Z</time>
      </trkpt>
      <trkpt lat="45.19159" lon="5.01601">
        <ele>367.50799560547</ele>
        <time>2009-10-14T15:36:17Z</time>
      </trkpt>
      <trkpt lat="45.19154" lon="5.01619">
        <ele>367.4289855957</ele>
        <time>2009-10-14T15:36:19Z</time>
      </trkpt>
      <trkpt lat="45.19139" lon="5.0171">
        <ele>364.40600585938</ele>
        <time>2009-10-14T15:36:28Z</time>
      </trkpt>
      <trkpt lat="45.19135" lon="5.01731">
        <ele>363.29800415039</ele>
        <time>2009-10-14T15:36:30Z</time>
      </trkpt>
      <trkpt lat="45.19114" lon="5.01783">
        <ele>359.22399902344</ele>
        <time>2009-10-14T15:36:35Z</time>
      </trkpt>
      <trkpt lat="45.19108" lon="5.01792">
        <ele>359.05099487305</ele>
        <time>2009-10-14T15:36:36Z</time>
      </trkpt>
      <trkpt lat="45.19095" lon="5.01809">
        <ele>359.25299072266</ele>
        <time>2009-10-14T15:36:38Z</time>
      </trkpt>
      <trkpt lat="45.1905" lon="5.01869">
        <ele>359.17999267578</ele>
        <time>2009-10-14T15:36:45Z</time>
      </trkpt>
      <trkpt lat="45.19028" lon="5.01898">
        <ele>360.70300292969</ele>
        <time>2009-10-14T15:36:49Z</time>
      </trkpt>
      <trkpt lat="45.18996" lon="5.01915">
        <ele>360.85101318359</ele>
        <time>2009-10-14T15:36:54Z</time>
      </trkpt>
      <trkpt lat="45.18983" lon="5.01915">
        <ele>362.05700683594</ele>
        <time>2009-10-14T15:36:56Z</time>
      </trkpt>
      <trkpt lat="45.1897" lon="5.01914">
        <ele>362.94900512695</ele>
        <time>2009-10-14T15:36:58Z</time>
      </trkpt>
      <trkpt lat="45.18948" lon="5.0191">
        <ele>363.67300415039</ele>
        <time>2009-10-14T15:37:02Z</time>
      </trkpt>
      <trkpt lat="45.18907" lon="5.01906">
        <ele>363.47198486328</ele>
        <time>2009-10-14T15:37:10Z</time>
      </trkpt>
      <trkpt lat="45.18864" lon="5.01901">
        <ele>362.09899902344</ele>
        <time>2009-10-14T15:37:17Z</time>
      </trkpt>
      <trkpt lat="45.18823" lon="5.01883">
        <ele>359.88198852539</ele>
        <time>2009-10-14T15:37:23Z</time>
      </trkpt>
      <trkpt lat="45.18782" lon="5.01853">
        <ele>358.42001342773</ele>
        <time>2009-10-14T15:37:29Z</time>
      </trkpt>
      <trkpt lat="45.18732" lon="5.01809">
        <ele>356.35598754883</ele>
        <time>2009-10-14T15:37:36Z</time>
      </trkpt>
      <trkpt lat="45.1871" lon="5.01791">
        <ele>355.54501342773</ele>
        <time>2009-10-14T15:37:39Z</time>
      </trkpt>
      <trkpt lat="45.18668" lon="5.01762">
        <ele>352.12100219727</ele>
        <time>2009-10-14T15:37:44Z</time>
      </trkpt>
      <trkpt lat="45.18626" lon="5.01743">
        <ele>349.90899658203</ele>
        <time>2009-10-14T15:37:49Z</time>
      </trkpt>
      <trkpt lat="45.18584" lon="5.01724">
        <ele>347.10800170898</ele>
        <time>2009-10-14T15:37:54Z</time>
      </trkpt>
      <trkpt lat="45.18568" lon="5.01717">
        <ele>347.00100708008</ele>
        <time>2009-10-14T15:37:56Z</time>
      </trkpt>
      <trkpt lat="45.18536" lon="5.01721">
        <ele>346.98999023438</ele>
        <time>2009-10-14T15:38:00Z</time>
      </trkpt>
      <trkpt lat="45.18523" lon="5.01731">
        <ele>346.98199462891</ele>
        <time>2009-10-14T15:38:02Z</time>
      </trkpt>
      <trkpt lat="45.18478" lon="5.01773">
        <ele>346.94500732422</ele>
        <time>2009-10-14T15:38:09Z</time>
      </trkpt>
      <trkpt lat="45.18441" lon="5.01796">
        <ele>346.91500854492</ele>
        <time>2009-10-14T15:38:14Z</time>
      </trkpt>
      <trkpt lat="45.18434" lon="5.018">
        <ele>346.90798950195</ele>
        <time>2009-10-14T15:38:15Z</time>
      </trkpt>
      <trkpt lat="45.1839" lon="5.01808">
        <ele>346.86898803711</ele>
        <time>2009-10-14T15:38:21Z</time>
      </trkpt>
      <trkpt lat="45.18362" lon="5.01807">
        <ele>341.25900268555</ele>
        <time>2009-10-14T15:38:25Z</time>
      </trkpt>
      <trkpt lat="45.18319" lon="5.01803">
        <ele>341.20999145508</ele>
        <time>2009-10-14T15:38:32Z</time>
      </trkpt>
      <trkpt lat="45.183" lon="5.01803">
        <ele>341.19400024414</ele>
        <time>2009-10-14T15:38:35Z</time>
      </trkpt>
      <trkpt lat="45.18272" lon="5.01805">
        <ele>342.03100585938</ele>
        <time>2009-10-14T15:38:39Z</time>
      </trkpt>
      <trkpt lat="45.18248" lon="5.01808">
        <ele>341.26501464844</ele>
        <time>2009-10-14T15:38:42Z</time>
      </trkpt>
      <trkpt lat="45.18198" lon="5.01811">
        <ele>340.6960144043</ele>
        <time>2009-10-14T15:38:48Z</time>
      </trkpt>
      <trkpt lat="45.18145" lon="5.01807">
        <ele>341.27700805664</ele>
        <time>2009-10-14T15:38:54Z</time>
      </trkpt>
      <trkpt lat="45.18089" lon="5.01802">
        <ele>341.94500732422</ele>
        <time>2009-10-14T15:39:01Z</time>
      </trkpt>
      <trkpt lat="45.18055" lon="5.01796">
        <ele>342.4169921875</ele>
        <time>2009-10-14T15:39:06Z</time>
      </trkpt>
      <trkpt lat="45.1804" lon="5.01795">
        <ele>342.14001464844</ele>
        <time>2009-10-14T15:39:08Z</time>
      </trkpt>
      <trkpt lat="45.18011" lon="5.01807">
        <ele>341.33401489258</ele>
        <time>2009-10-14T15:39:12Z</time>
      </trkpt>
      <trkpt lat="45.17958" lon="5.01859">
        <ele>339.6789855957</ele>
        <time>2009-10-14T15:39:20Z</time>
      </trkpt>
      <trkpt lat="45.1794" lon="5.01879">
        <ele>339.74200439453</ele>
        <time>2009-10-14T15:39:23Z</time>
      </trkpt>
      <trkpt lat="45.1792" lon="5.01921">
        <ele>341.06698608398</ele>
        <time>2009-10-14T15:39:28Z</time>
      </trkpt>
      <trkpt lat="45.17919" lon="5.01939">
        <ele>341.71701049805</ele>
        <time>2009-10-14T15:39:30Z</time>
      </trkpt>
      <trkpt lat="45.17919" lon="5.01997">
        <ele>343.23599243164</ele>
        <time>2009-10-14T15:39:37Z</time>
      </trkpt>
      <trkpt lat="45.1791" lon="5.02031">
        <ele>346.21798706055</ele>
        <time>2009-10-14T15:39:42Z</time>
      </trkpt>
      <trkpt lat="45.17893" lon="5.02047">
        <ele>347.92498779297</ele>
        <time>2009-10-14T15:39:46Z</time>
      </trkpt>
      <trkpt lat="45.17873" lon="5.02051">
        <ele>349.37799072266</ele>
        <time>2009-10-14T15:39:50Z</time>
      </trkpt>
      <trkpt lat="45.17838" lon="5.02045">
        <ele>350.61599731445</ele>
        <time>2009-10-14T15:39:57Z</time>
      </trkpt>
      <trkpt lat="45.17785" lon="5.02034">
        <ele>352.97399902344</ele>
        <time>2009-10-14T15:40:08Z</time>
      </trkpt>
      <trkpt lat="45.17746" lon="5.02025">
        <ele>354.36999511719</ele>
        <time>2009-10-14T15:40:16Z</time>
      </trkpt>
      <trkpt lat="45.17714" lon="5.02014">
        <ele>354.69400024414</ele>
        <time>2009-10-14T15:40:23Z</time>
      </trkpt>
      <trkpt lat="45.17675" lon="5.02">
        <ele>356.32901000977</ele>
        <time>2009-10-14T15:40:31Z</time>
      </trkpt>
      <trkpt lat="45.17655" lon="5.02">
        <ele>355.58499145508</ele>
        <time>2009-10-14T15:40:35Z</time>
      </trkpt>
      <trkpt lat="45.17636" lon="5.02002">
        <ele>355.67300415039</ele>
        <time>2009-10-14T15:40:39Z</time>
      </trkpt>
      <trkpt lat="45.17611" lon="5.02011">
        <ele>355.79299926758</ele>
        <time>2009-10-14T15:40:46Z</time>
      </trkpt>
      <trkpt lat="45.17595" lon="5.02022">
        <ele>356.41000366211</ele>
        <time>2009-10-14T15:40:51Z</time>
      </trkpt>
      <trkpt lat="45.17584" lon="5.02032">
        <ele>356.45700073242</ele>
        <time>2009-10-14T15:40:54Z</time>
      </trkpt>
      <trkpt lat="45.17564" lon="5.02054">
        <ele>356.91000366211</ele>
        <time>2009-10-14T15:41:00Z</time>
      </trkpt>
      <trkpt lat="45.17534" lon="5.02085">
        <ele>357.56900024414</ele>
        <time>2009-10-14T15:41:08Z</time>
      </trkpt>
      <trkpt lat="45.17518" lon="5.02101">
        <ele>357.82699584961</ele>
        <time>2009-10-14T15:41:12Z</time>
      </trkpt>
      <trkpt lat="45.17498" lon="5.02117">
        <ele>357.64099121094</ele>
        <time>2009-10-14T15:41:17Z</time>
      </trkpt>
      <trkpt lat="45.17464" lon="5.02141">
        <ele>356.26098632812</ele>
        <time>2009-10-14T15:41:25Z</time>
      </trkpt>
      <trkpt lat="45.17421" lon="5.02168">
        <ele>353.35998535156</ele>
        <time>2009-10-14T15:41:33Z</time>
      </trkpt>
      <trkpt lat="45.17381" lon="5.02195">
        <ele>351.98400878906</ele>
        <time>2009-10-14T15:41:39Z</time>
      </trkpt>
      <trkpt lat="45.17318" lon="5.02237">
        <ele>347.8219909668</ele>
        <time>2009-10-14T15:41:47Z</time>
      </trkpt>
      <trkpt lat="45.17251" lon="5.02282">
        <ele>346.06201171875</ele>
        <time>2009-10-14T15:41:55Z</time>
      </trkpt>
      <trkpt lat="45.17203" lon="5.02312">
        <ele>345.3630065918</ele>
        <time>2009-10-14T15:42:01Z</time>
      </trkpt>
      <trkpt lat="45.17177" lon="5.0232">
        <ele>345.14001464844</ele>
        <time>2009-10-14T15:42:04Z</time>
      </trkpt>
      <trkpt lat="45.17106" lon="5.02336">
        <ele>342.9049987793</ele>
        <time>2009-10-14T15:42:12Z</time>
      </trkpt>
      <trkpt lat="45.17078" lon="5.02344">
        <ele>341.02301025391</ele>
        <time>2009-10-14T15:42:15Z</time>
      </trkpt>
      <trkpt lat="45.17033" lon="5.02371">
        <ele>337.77899169922</ele>
        <time>2009-10-14T15:42:20Z</time>
      </trkpt>
      <trkpt lat="45.17016" lon="5.02384">
        <ele>336.93701171875</ele>
        <time>2009-10-14T15:42:22Z</time>
      </trkpt>
      <trkpt lat="45.16996" lon="5.02414">
        <ele>335.35900878906</ele>
        <time>2009-10-14T15:42:25Z</time>
      </trkpt>
      <trkpt lat="45.16991" lon="5.02426">
        <ele>334.74798583984</ele>
        <time>2009-10-14T15:42:26Z</time>
      </trkpt>
      <trkpt lat="45.16962" lon="5.0248">
        <ele>331.63198852539</ele>
        <time>2009-10-14T15:42:31Z</time>
      </trkpt>
      <trkpt lat="45.16954" lon="5.02487">
        <ele>330.79598999023</ele>
        <time>2009-10-14T15:42:32Z</time>
      </trkpt>
      <trkpt lat="45.16927" lon="5.02503">
        <ele>329.26699829102</ele>
        <time>2009-10-14T15:42:35Z</time>
      </trkpt>
      <trkpt lat="45.16883" lon="5.02533">
        <ele>327.05801391602</ele>
        <time>2009-10-14T15:42:40Z</time>
      </trkpt>
      <trkpt lat="45.16849" lon="5.0256">
        <ele>325.21301269531</ele>
        <time>2009-10-14T15:42:44Z</time>
      </trkpt>
      <trkpt lat="45.1684" lon="5.02565">
        <ele>325.24499511719</ele>
        <time>2009-10-14T15:42:45Z</time>
      </trkpt>
      <trkpt lat="45.1679" lon="5.02576">
        <ele>322.99398803711</ele>
        <time>2009-10-14T15:42:50Z</time>
      </trkpt>
      <trkpt lat="45.16769" lon="5.02578">
        <ele>321.5119934082</ele>
        <time>2009-10-14T15:42:52Z</time>
      </trkpt>
      <trkpt lat="45.16736" lon="5.02598">
        <ele>318.78298950195</ele>
        <time>2009-10-14T15:42:56Z</time>
      </trkpt>
      <trkpt lat="45.16728" lon="5.02617">
        <ele>317.01998901367</ele>
        <time>2009-10-14T15:42:58Z</time>
      </trkpt>
      <trkpt lat="45.16731" lon="5.02642">
        <ele>314.8039855957</ele>
        <time>2009-10-14T15:43:00Z</time>
      </trkpt>
      <trkpt lat="45.16736" lon="5.02654">
        <ele>313.875</ele>
        <time>2009-10-14T15:43:01Z</time>
      </trkpt>
      <trkpt lat="45.1675" lon="5.02677">
        <ele>312.32501220703</ele>
        <time>2009-10-14T15:43:03Z</time>
      </trkpt>
      <trkpt lat="45.16771" lon="5.02727">
        <ele>309.2919921875</ele>
        <time>2009-10-14T15:43:07Z</time>
      </trkpt>
      <trkpt lat="45.16782" lon="5.02786">
        <ele>305.79598999023</ele>
        <time>2009-10-14T15:43:11Z</time>
      </trkpt>
      <trkpt lat="45.1679" lon="5.02849">
        <ele>303.03201293945</ele>
        <time>2009-10-14T15:43:15Z</time>
      </trkpt>
      <trkpt lat="45.16792" lon="5.02881">
        <ele>302.34100341797</ele>
        <time>2009-10-14T15:43:17Z</time>
      </trkpt>
      <trkpt lat="45.16793" lon="5.02948">
        <ele>299.02301025391</ele>
        <time>2009-10-14T15:43:21Z</time>
      </trkpt>
      <trkpt lat="45.16787" lon="5.03058">
        <ele>294.63400268555</ele>
        <time>2009-10-14T15:43:28Z</time>
      </trkpt>
      <trkpt lat="45.16774" lon="5.03117">
        <ele>292.73400878906</ele>
        <time>2009-10-14T15:43:32Z</time>
      </trkpt>
      <trkpt lat="45.16772" lon="5.03179">
        <ele>292.46701049805</ele>
        <time>2009-10-14T15:43:36Z</time>
      </trkpt>
      <trkpt lat="45.16769" lon="5.0321">
        <ele>288.16299438477</ele>
        <time>2009-10-14T15:43:38Z</time>
      </trkpt>
      <trkpt lat="45.16755" lon="5.03302">
        <ele>284.74200439453</ele>
        <time>2009-10-14T15:43:44Z</time>
      </trkpt>
      <trkpt lat="45.16755" lon="5.03349">
        <ele>282.47698974609</ele>
        <time>2009-10-14T15:43:47Z</time>
      </trkpt>
      <trkpt lat="45.16754" lon="5.03382">
        <ele>280.88299560547</ele>
        <time>2009-10-14T15:43:49Z</time>
      </trkpt>
      <trkpt lat="45.16736" lon="5.03461">
        <ele>278.33898925781</ele>
        <time>2009-10-14T15:43:54Z</time>
      </trkpt>
      <trkpt lat="45.1672" lon="5.03503">
        <ele>276.79299926758</ele>
        <time>2009-10-14T15:43:57Z</time>
      </trkpt>
      <trkpt lat="45.16683" lon="5.03563">
        <ele>273.08599853516</ele>
        <time>2009-10-14T15:44:02Z</time>
      </trkpt>
      <trkpt lat="45.16645" lon="5.03597">
        <ele>270.23098754883</ele>
        <time>2009-10-14T15:44:06Z</time>
      </trkpt>
      <trkpt lat="45.16581" lon="5.03642">
        <ele>266.58999633789</ele>
        <time>2009-10-14T15:44:12Z</time>
      </trkpt>
      <trkpt lat="45.16573" lon="5.0365">
        <ele>266.37200927734</ele>
        <time>2009-10-14T15:44:13Z</time>
      </trkpt>
      <trkpt lat="45.16552" lon="5.03688">
        <ele>264.1130065918</ele>
        <time>2009-10-14T15:44:17Z</time>
      </trkpt>
      <trkpt lat="45.1655" lon="5.03711">
        <ele>263.47500610352</ele>
        <time>2009-10-14T15:44:19Z</time>
      </trkpt>
      <trkpt lat="45.16552" lon="5.03752">
        <ele>262.45300292969</ele>
        <time>2009-10-14T15:44:24Z</time>
      </trkpt>
      <trkpt lat="45.16551" lon="5.03756">
        <ele>262.05200195312</ele>
        <time>2009-10-14T15:44:25Z</time>
      </trkpt>
      <trkpt lat="45.16539" lon="5.03765">
        <ele>261.51300048828</ele>
        <time>2009-10-14T15:44:29Z</time>
      </trkpt>
      <trkpt lat="45.16529" lon="5.03765">
        <ele>261.23001098633</ele>
        <time>2009-10-14T15:44:31Z</time>
      </trkpt>
      <trkpt lat="45.16489" lon="5.03764">
        <ele>260.39599609375</ele>
        <time>2009-10-14T15:44:39Z</time>
      </trkpt>
      <trkpt lat="45.16446" lon="5.03767">
        <ele>259.81799316406</ele>
        <time>2009-10-14T15:44:46Z</time>
      </trkpt>
      <trkpt lat="45.16385" lon="5.03772">
        <ele>258.00698852539</ele>
        <time>2009-10-14T15:44:55Z</time>
      </trkpt>
      <trkpt lat="45.16363" lon="5.03774">
        <ele>257.9580078125</ele>
        <time>2009-10-14T15:44:58Z</time>
      </trkpt>
      <trkpt lat="45.16333" lon="5.03776">
        <ele>256.85400390625</ele>
        <time>2009-10-14T15:45:02Z</time>
      </trkpt>
      <trkpt lat="45.16325" lon="5.03777">
        <ele>256.9580078125</ele>
        <time>2009-10-14T15:45:03Z</time>
      </trkpt>
      <trkpt lat="45.16284" lon="5.03779">
        <ele>256.00500488281</ele>
        <time>2009-10-14T15:45:09Z</time>
      </trkpt>
      <trkpt lat="45.16243" lon="5.03781">
        <ele>255.65600585938</ele>
        <time>2009-10-14T15:45:15Z</time>
      </trkpt>
      <trkpt lat="45.16237" lon="5.03781">
        <ele>255.50999450684</ele>
        <time>2009-10-14T15:45:16Z</time>
      </trkpt>
      <trkpt lat="45.16211" lon="5.03783">
        <ele>255.43600463867</ele>
        <time>2009-10-14T15:45:20Z</time>
      </trkpt>
      <trkpt lat="45.16193" lon="5.03769">
        <ele>255.7619934082</ele>
        <time>2009-10-14T15:45:24Z</time>
      </trkpt>
      <trkpt lat="45.16191" lon="5.03746">
        <ele>255.39100646973</ele>
        <time>2009-10-14T15:45:27Z</time>
      </trkpt>
      <trkpt lat="45.1619" lon="5.03682">
        <ele>254.52299499512</ele>
        <time>2009-10-14T15:45:34Z</time>
      </trkpt>
      <trkpt lat="45.16187" lon="5.03603">
        <ele>254.48599243164</ele>
        <time>2009-10-14T15:45:42Z</time>
      </trkpt>
      <trkpt lat="45.16178" lon="5.03523">
        <ele>254.28300476074</ele>
        <time>2009-10-14T15:45:50Z</time>
      </trkpt>
      <trkpt lat="45.16161" lon="5.03443">
        <ele>254.78799438477</ele>
        <time>2009-10-14T15:45:58Z</time>
      </trkpt>
      <trkpt lat="45.16149" lon="5.03404">
        <ele>255.42799377441</ele>
        <time>2009-10-14T15:46:02Z</time>
      </trkpt>
      <trkpt lat="45.16127" lon="5.03358">
        <ele>255.42100524902</ele>
        <time>2009-10-14T15:46:07Z</time>
      </trkpt>
      <trkpt lat="45.16101" lon="5.03315">
        <ele>255.57099914551</ele>
        <time>2009-10-14T15:46:12Z</time>
      </trkpt>
      <trkpt lat="45.16052" lon="5.03228">
        <ele>255.13000488281</ele>
        <time>2009-10-14T15:46:22Z</time>
      </trkpt>
      <trkpt lat="45.16005" lon="5.03134">
        <ele>254.16900634766</ele>
        <time>2009-10-14T15:46:32Z</time>
      </trkpt>
      <trkpt lat="45.15963" lon="5.03072">
        <ele>252.70500183106</ele>
        <time>2009-10-14T15:46:39Z</time>
      </trkpt>
      <trkpt lat="45.1589" lon="5.0297">
        <ele>251.28999328613</ele>
        <time>2009-10-14T15:46:50Z</time>
      </trkpt>
      <trkpt lat="45.15837" lon="5.02904">
        <ele>250.20700073242</ele>
        <time>2009-10-14T15:46:57Z</time>
      </trkpt>
      <trkpt lat="45.15775" lon="5.02843">
        <ele>248.63499450684</ele>
        <time>2009-10-14T15:47:04Z</time>
      </trkpt>
      <trkpt lat="45.15698" lon="5.02768">
        <ele>246.31599426269</ele>
        <time>2009-10-14T15:47:12Z</time>
      </trkpt>
      <trkpt lat="45.15649" lon="5.02722">
        <ele>245.94400024414</ele>
        <time>2009-10-14T15:47:17Z</time>
      </trkpt>
      <trkpt lat="45.1559" lon="5.02655">
        <ele>243.67100524902</ele>
        <time>2009-10-14T15:47:23Z</time>
      </trkpt>
      <trkpt lat="45.15532" lon="5.02579">
        <ele>242.34899902344</ele>
        <time>2009-10-14T15:47:29Z</time>
      </trkpt>
      <trkpt lat="45.15478" lon="5.02504">
        <ele>242.46699523926</ele>
        <time>2009-10-14T15:47:35Z</time>
      </trkpt>
      <trkpt lat="45.15421" lon="5.02426">
        <ele>241.92399597168</ele>
        <time>2009-10-14T15:47:42Z</time>
      </trkpt>
      <trkpt lat="45.15371" lon="5.02369">
        <ele>240.96000671387</ele>
        <time>2009-10-14T15:47:48Z</time>
      </trkpt>
      <trkpt lat="45.15313" lon="5.02306">
        <ele>240.95899963379</ele>
        <time>2009-10-14T15:47:55Z</time>
      </trkpt>
      <trkpt lat="45.15282" lon="5.02254">
        <ele>241.43600463867</ele>
        <time>2009-10-14T15:48:00Z</time>
      </trkpt>
      <trkpt lat="45.15245" lon="5.02186">
        <ele>242.18600463867</ele>
        <time>2009-10-14T15:48:07Z</time>
      </trkpt>
      <trkpt lat="45.15202" lon="5.02112">
        <ele>241.6549987793</ele>
        <time>2009-10-14T15:48:15Z</time>
      </trkpt>
      <trkpt lat="45.15191" lon="5.02094">
        <ele>242.02900695801</ele>
        <time>2009-10-14T15:48:17Z</time>
      </trkpt>
      <trkpt lat="45.1517" lon="5.02056">
        <ele>241.79699707031</ele>
        <time>2009-10-14T15:48:21Z</time>
      </trkpt>
      <trkpt lat="45.1512" lon="5.01987">
        <ele>241.25999450684</ele>
        <time>2009-10-14T15:48:29Z</time>
      </trkpt>
      <trkpt lat="45.15065" lon="5.01909">
        <ele>241.29499816894</ele>
        <time>2009-10-14T15:48:38Z</time>
      </trkpt>
      <trkpt lat="45.15024" lon="5.01852">
        <ele>240.7440032959</ele>
        <time>2009-10-14T15:48:45Z</time>
      </trkpt>
      <trkpt lat="45.14964" lon="5.01767">
        <ele>240.1369934082</ele>
        <time>2009-10-14T15:48:55Z</time>
      </trkpt>
      <trkpt lat="45.14918" lon="5.01702">
        <ele>239.39100646973</ele>
        <time>2009-10-14T15:49:02Z</time>
      </trkpt>
      <trkpt lat="45.14877" lon="5.01648">
        <ele>239.42300415039</ele>
        <time>2009-10-14T15:49:08Z</time>
      </trkpt>
      <trkpt lat="45.14843" lon="5.01611">
        <ele>240.41799926758</ele>
        <time>2009-10-14T15:49:13Z</time>
      </trkpt>
      <trkpt lat="45.14813" lon="5.01576">
        <ele>241.31799316406</ele>
        <time>2009-10-14T15:49:18Z</time>
      </trkpt>
      <trkpt lat="45.14785" lon="5.01547">
        <ele>239.22099304199</ele>
        <time>2009-10-14T15:49:22Z</time>
      </trkpt>
      <trkpt lat="45.14751" lon="5.01516">
        <ele>237.14199829102</ele>
        <time>2009-10-14T15:49:26Z</time>
      </trkpt>
      <trkpt lat="45.14722" lon="5.01468">
        <ele>234.90800476074</ele>
        <time>2009-10-14T15:49:30Z</time>
      </trkpt>
      <trkpt lat="45.14687" lon="5.01372">
        <ele>231.89599609375</ele>
        <time>2009-10-14T15:49:36Z</time>
      </trkpt>
      <trkpt lat="45.1467" lon="5.01323">
        <ele>233.35000610352</ele>
        <time>2009-10-14T15:49:39Z</time>
      </trkpt>
      <trkpt lat="45.14652" lon="5.01273">
        <ele>232.07099914551</ele>
        <time>2009-10-14T15:49:42Z</time>
      </trkpt>
      <trkpt lat="45.14616" lon="5.01222">
        <ele>233.39100646973</ele>
        <time>2009-10-14T15:49:46Z</time>
      </trkpt>
      <trkpt lat="45.14605" lon="5.01213">
        <ele>233.56700134277</ele>
        <time>2009-10-14T15:49:47Z</time>
      </trkpt>
      <trkpt lat="45.14528" lon="5.01158">
        <ele>234.74499511719</ele>
        <time>2009-10-14T15:49:54Z</time>
      </trkpt>
      <trkpt lat="45.14478" lon="5.01116">
        <ele>234.46600341797</ele>
        <time>2009-10-14T15:49:59Z</time>
      </trkpt>
      <trkpt lat="45.14428" lon="5.01062">
        <ele>235.01499938965</ele>
        <time>2009-10-14T15:50:05Z</time>
      </trkpt>
      <trkpt lat="45.14371" lon="5.00998">
        <ele>234.80200195312</ele>
        <time>2009-10-14T15:50:13Z</time>
      </trkpt>
      <trkpt lat="45.14309" lon="5.00931">
        <ele>233.78300476074</ele>
        <time>2009-10-14T15:50:22Z</time>
      </trkpt>
      <trkpt lat="45.14271" lon="5.00903">
        <ele>233.53799438477</ele>
        <time>2009-10-14T15:50:27Z</time>
      </trkpt>
      <trkpt lat="45.14201" lon="5.00868">
        <ele>232.75300598144</ele>
        <time>2009-10-14T15:50:36Z</time>
      </trkpt>
      <trkpt lat="45.14142" lon="5.00839">
        <ele>231.83099365234</ele>
        <time>2009-10-14T15:50:43Z</time>
      </trkpt>
      <trkpt lat="45.14083" lon="5.0081">
        <ele>231.26300048828</ele>
        <time>2009-10-14T15:50:49Z</time>
      </trkpt>
      <trkpt lat="45.13991" lon="5.00765">
        <ele>230.97099304199</ele>
        <time>2009-10-14T15:50:58Z</time>
      </trkpt>
      <trkpt lat="45.13889" lon="5.00714">
        <ele>230.19599914551</ele>
        <time>2009-10-14T15:51:08Z</time>
      </trkpt>
      <trkpt lat="45.138" lon="5.00663">
        <ele>229.46099853516</ele>
        <time>2009-10-14T15:51:17Z</time>
      </trkpt>
      <trkpt lat="45.13752" lon="5.00622">
        <ele>229.42300415039</ele>
        <time>2009-10-14T15:51:23Z</time>
      </trkpt>
      <trkpt lat="45.13696" lon="5.0056">
        <ele>228.20399475098</ele>
        <time>2009-10-14T15:51:31Z</time>
      </trkpt>
      <trkpt lat="45.13636" lon="5.00494">
        <ele>228.20300292969</ele>
        <time>2009-10-14T15:51:40Z</time>
      </trkpt>
      <trkpt lat="45.13607" lon="5.00475">
        <ele>228.17500305176</ele>
        <time>2009-10-14T15:51:44Z</time>
      </trkpt>
      <trkpt lat="45.13565" lon="5.00463">
        <ele>227.69999694824</ele>
        <time>2009-10-14T15:51:49Z</time>
      </trkpt>
      <trkpt lat="45.13513" lon="5.00448">
        <ele>227.34599304199</ele>
        <time>2009-10-14T15:51:55Z</time>
      </trkpt>
      <trkpt lat="45.13464" lon="5.0042">
        <ele>226.48899841309</ele>
        <time>2009-10-14T15:52:01Z</time>
      </trkpt>
      <trkpt lat="45.13398" lon="5.00376">
        <ele>225.8390045166</ele>
        <time>2009-10-14T15:52:09Z</time>
      </trkpt>
      <trkpt lat="45.13338" lon="5.00344">
        <ele>224.07200622559</ele>
        <time>2009-10-14T15:52:16Z</time>
      </trkpt>
      <trkpt lat="45.13283" lon="5.00338">
        <ele>223.44700622559</ele>
        <time>2009-10-14T15:52:22Z</time>
      </trkpt>
      <trkpt lat="45.13205" lon="5.00341">
        <ele>221.38000488281</ele>
        <time>2009-10-14T15:52:30Z</time>
      </trkpt>
      <trkpt lat="45.13194" lon="5.00342">
        <ele>221.08799743652</ele>
        <time>2009-10-14T15:52:31Z</time>
      </trkpt>
      <trkpt lat="45.13142" lon="5.00329">
        <ele>220.18800354004</ele>
        <time>2009-10-14T15:52:36Z</time>
      </trkpt>
      <trkpt lat="45.13091" lon="5.00304">
        <ele>219.68099975586</ele>
        <time>2009-10-14T15:52:41Z</time>
      </trkpt>
      <trkpt lat="45.13028" lon="5.00281">
        <ele>219.97399902344</ele>
        <time>2009-10-14T15:52:47Z</time>
      </trkpt>
      <trkpt lat="45.12959" lon="5.00248">
        <ele>219.56900024414</ele>
        <time>2009-10-14T15:52:54Z</time>
      </trkpt>
      <trkpt lat="45.12925" lon="5.00222">
        <ele>219.60200500488</ele>
        <time>2009-10-14T15:52:58Z</time>
      </trkpt>
      <trkpt lat="45.12901" lon="5.00194">
        <ele>218</ele>
        <time>2009-10-14T15:53:01Z</time>
      </trkpt>
      <trkpt lat="45.12868" lon="5.00136">
        <ele>215.85400390625</ele>
        <time>2009-10-14T15:53:06Z</time>
      </trkpt>
      <trkpt lat="45.12855" lon="5.00112">
        <ele>215.03199768066</ele>
        <time>2009-10-14T15:53:08Z</time>
      </trkpt>
      <trkpt lat="45.12839" lon="5.00091">
        <ele>214.16200256348</ele>
        <time>2009-10-14T15:53:10Z</time>
      </trkpt>
      <trkpt lat="45.1281" lon="5.00073">
        <ele>212.42300415039</ele>
        <time>2009-10-14T15:53:13Z</time>
      </trkpt>
      <trkpt lat="45.12729" lon="5.00041">
        <ele>210.05099487305</ele>
        <time>2009-10-14T15:53:21Z</time>
      </trkpt>
      <trkpt lat="45.12701" lon="5.00017">
        <ele>208.78700256348</ele>
        <time>2009-10-14T15:53:24Z</time>
      </trkpt>
      <trkpt lat="45.12676" lon="4.99987">
        <ele>208.07699584961</ele>
        <time>2009-10-14T15:53:27Z</time>
      </trkpt>
      <trkpt lat="45.12654" lon="4.99936">
        <ele>207.65199279785</ele>
        <time>2009-10-14T15:53:31Z</time>
      </trkpt>
      <trkpt lat="45.12651" lon="4.99922">
        <ele>207.80000305176</ele>
        <time>2009-10-14T15:53:32Z</time>
      </trkpt>
      <trkpt lat="45.12641" lon="4.99883">
        <ele>208.28199768066</ele>
        <time>2009-10-14T15:53:35Z</time>
      </trkpt>
      <trkpt lat="45.12618" lon="4.99843">
        <ele>208.41200256348</ele>
        <time>2009-10-14T15:53:39Z</time>
      </trkpt>
      <trkpt lat="45.12611" lon="4.99834">
        <ele>208.47999572754</ele>
        <time>2009-10-14T15:53:40Z</time>
      </trkpt>
      <trkpt lat="45.12595" lon="4.99819">
        <ele>208.33999633789</ele>
        <time>2009-10-14T15:53:42Z</time>
      </trkpt>
      <trkpt lat="45.12558" lon="4.99758">
        <ele>208.78300476074</ele>
        <time>2009-10-14T15:53:48Z</time>
      </trkpt>
      <trkpt lat="45.12526" lon="4.99713">
        <ele>209.45500183106</ele>
        <time>2009-10-14T15:53:53Z</time>
      </trkpt>
      <trkpt lat="45.12485" lon="4.99669">
        <ele>209.89700317383</ele>
        <time>2009-10-14T15:53:59Z</time>
      </trkpt>
      <trkpt lat="45.12447" lon="4.99611">
        <ele>210.23599243164</ele>
        <time>2009-10-14T15:54:06Z</time>
      </trkpt>
      <trkpt lat="45.12403" lon="4.99538">
        <ele>210.75199890137</ele>
        <time>2009-10-14T15:54:15Z</time>
      </trkpt>
      <trkpt lat="45.12386" lon="4.99482">
        <ele>211.03199768066</ele>
        <time>2009-10-14T15:54:21Z</time>
      </trkpt>
      <trkpt lat="45.12366" lon="4.99386">
        <ele>211.83999633789</ele>
        <time>2009-10-14T15:54:31Z</time>
      </trkpt>
      <trkpt lat="45.12351" lon="4.99303">
        <ele>212.27600097656</ele>
        <time>2009-10-14T15:54:40Z</time>
      </trkpt>
      <trkpt lat="45.12341" lon="4.99247">
        <ele>212.55000305176</ele>
        <time>2009-10-14T15:54:46Z</time>
      </trkpt>
      <trkpt lat="45.12321" lon="4.992">
        <ele>211.2859954834</ele>
        <time>2009-10-14T15:54:52Z</time>
      </trkpt>
      <trkpt lat="45.12296" lon="4.99152">
        <ele>210.10499572754</ele>
        <time>2009-10-14T15:54:58Z</time>
      </trkpt>
      <trkpt lat="45.12284" lon="4.99124">
        <ele>208.83700561523</ele>
        <time>2009-10-14T15:55:01Z</time>
      </trkpt>
      <trkpt lat="45.12279" lon="4.99102">
        <ele>208.13000488281</ele>
        <time>2009-10-14T15:55:03Z</time>
      </trkpt>
      <trkpt lat="45.12263" lon="4.99076">
        <ele>206.00399780273</ele>
        <time>2009-10-14T15:55:06Z</time>
      </trkpt>
      <trkpt lat="45.12255" lon="4.9907">
        <ele>205.48300170898</ele>
        <time>2009-10-14T15:55:07Z</time>
      </trkpt>
      <trkpt lat="45.12236" lon="4.99048">
        <ele>201.99299621582</ele>
        <time>2009-10-14T15:55:10Z</time>
      </trkpt>
      <trkpt lat="45.12202" lon="4.99032">
        <ele>200.2859954834</ele>
        <time>2009-10-14T15:55:14Z</time>
      </trkpt>
      <trkpt lat="45.12193" lon="4.99024">
        <ele>199.05099487305</ele>
        <time>2009-10-14T15:55:15Z</time>
      </trkpt>
      <trkpt lat="45.12139" lon="4.98962">
        <ele>195.4049987793</ele>
        <time>2009-10-14T15:55:21Z</time>
      </trkpt>
      <trkpt lat="45.12099" lon="4.98895">
        <ele>193.80799865723</ele>
        <time>2009-10-14T15:55:26Z</time>
      </trkpt>
      <trkpt lat="45.12071" lon="4.98838">
        <ele>193.30000305176</ele>
        <time>2009-10-14T15:55:30Z</time>
      </trkpt>
      <trkpt lat="45.12041" lon="4.98746">
        <ele>192.44000244141</ele>
        <time>2009-10-14T15:55:36Z</time>
      </trkpt>
      <trkpt lat="45.12026" lon="4.98668">
        <ele>192.57699584961</ele>
        <time>2009-10-14T15:55:41Z</time>
      </trkpt>
      <trkpt lat="45.12019" lon="4.98592">
        <ele>193.30799865723</ele>
        <time>2009-10-14T15:55:46Z</time>
      </trkpt>
      <trkpt lat="45.1202" lon="4.98493">
        <ele>193.65100097656</ele>
        <time>2009-10-14T15:55:53Z</time>
      </trkpt>
      <trkpt lat="45.12025" lon="4.98469">
        <ele>193.44500732422</ele>
        <time>2009-10-14T15:55:55Z</time>
      </trkpt>
      <trkpt lat="45.12041" lon="4.98429">
        <ele>194.40600585938</ele>
        <time>2009-10-14T15:55:59Z</time>
      </trkpt>
      <trkpt lat="45.12052" lon="4.98401">
        <ele>194.55200195312</ele>
        <time>2009-10-14T15:56:02Z</time>
      </trkpt>
      <trkpt lat="45.12051" lon="4.98391">
        <ele>194.77400207519</ele>
        <time>2009-10-14T15:56:03Z</time>
      </trkpt>
      <trkpt lat="45.12058" lon="4.98328">
        <ele>193.09700012207</ele>
        <time>2009-10-14T15:56:09Z</time>
      </trkpt>
      <trkpt lat="45.1207" lon="4.98249">
        <ele>192.11599731445</ele>
        <time>2009-10-14T15:56:16Z</time>
      </trkpt>
      <trkpt lat="45.1207" lon="4.98168">
        <ele>191.94000244141</ele>
        <time>2009-10-14T15:56:23Z</time>
      </trkpt>
      <trkpt lat="45.12061" lon="4.98106">
        <ele>191.32000732422</ele>
        <time>2009-10-14T15:56:28Z</time>
      </trkpt>
      <trkpt lat="45.1204" lon="4.98021">
        <ele>190.40400695801</ele>
        <time>2009-10-14T15:56:35Z</time>
      </trkpt>
      <trkpt lat="45.12007" lon="4.97885">
        <ele>188.69500732422</ele>
        <time>2009-10-14T15:56:46Z</time>
      </trkpt>
      <trkpt lat="45.1198" lon="4.97733">
        <ele>187.24299621582</ele>
        <time>2009-10-14T15:56:58Z</time>
      </trkpt>
      <trkpt lat="45.11961" lon="4.97618">
        <ele>188.21600341797</ele>
        <time>2009-10-14T15:57:07Z</time>
      </trkpt>
      <trkpt lat="45.11958" lon="4.97594">
        <ele>188.03700256348</ele>
        <time>2009-10-14T15:57:09Z</time>
      </trkpt>
      <trkpt lat="45.11952" lon="4.97569">
        <ele>187.54400634766</ele>
        <time>2009-10-14T15:57:11Z</time>
      </trkpt>
      <trkpt lat="45.11938" lon="4.97487">
        <ele>186.06399536133</ele>
        <time>2009-10-14T15:57:17Z</time>
      </trkpt>
      <trkpt lat="45.11912" lon="4.97336">
        <ele>185.34700012207</ele>
        <time>2009-10-14T15:57:28Z</time>
      </trkpt>
      <trkpt lat="45.11889" lon="4.97205">
        <ele>185.70399475098</ele>
        <time>2009-10-14T15:57:38Z</time>
      </trkpt>
      <trkpt lat="45.11881" lon="4.97159">
        <ele>186.40800476074</ele>
        <time>2009-10-14T15:57:42Z</time>
      </trkpt>
      <trkpt lat="45.11882" lon="4.97115">
        <ele>186.9049987793</ele>
        <time>2009-10-14T15:57:46Z</time>
      </trkpt>
      <trkpt lat="45.11893" lon="4.97093">
        <ele>188.02600097656</ele>
        <time>2009-10-14T15:57:49Z</time>
      </trkpt>
      <trkpt lat="45.11903" lon="4.97062">
        <ele>188.51600646973</ele>
        <time>2009-10-14T15:57:54Z</time>
      </trkpt>
      <trkpt lat="45.11889" lon="4.97049">
        <ele>188.29400634766</ele>
        <time>2009-10-14T15:57:57Z</time>
      </trkpt>
      <trkpt lat="45.11877" lon="4.9704">
        <ele>188.02299499512</ele>
        <time>2009-10-14T15:57:59Z</time>
      </trkpt>
      <trkpt lat="45.11839" lon="4.96991">
        <ele>187.97200012207</ele>
        <time>2009-10-14T15:58:06Z</time>
      </trkpt>
      <trkpt lat="45.11787" lon="4.96912">
        <ele>188.17300415039</ele>
        <time>2009-10-14T15:58:16Z</time>
      </trkpt>
      <trkpt lat="45.11771" lon="4.96888">
        <ele>188.01300048828</ele>
        <time>2009-10-14T15:58:19Z</time>
      </trkpt>
      <trkpt lat="45.11763" lon="4.9685">
        <ele>187.88600158691</ele>
        <time>2009-10-14T15:58:23Z</time>
      </trkpt>
      <trkpt lat="45.11755" lon="4.96824">
        <ele>187.70399475098</ele>
        <time>2009-10-14T15:58:26Z</time>
      </trkpt>
      <trkpt lat="45.11734" lon="4.96813">
        <ele>187.43800354004</ele>
        <time>2009-10-14T15:58:29Z</time>
      </trkpt>
      <trkpt lat="45.11715" lon="4.96796">
        <ele>187.29699707031</ele>
        <time>2009-10-14T15:58:32Z</time>
      </trkpt>
      <trkpt lat="45.11672" lon="4.96727">
        <ele>186.29299926758</ele>
        <time>2009-10-14T15:58:40Z</time>
      </trkpt>
      <trkpt lat="45.11642" lon="4.96657">
        <ele>185.63000488281</ele>
        <time>2009-10-14T15:58:47Z</time>
      </trkpt>
      <trkpt lat="45.11603" lon="4.96556">
        <ele>185.87399291992</ele>
        <time>2009-10-14T15:58:57Z</time>
      </trkpt>
      <trkpt lat="45.11583" lon="4.96505">
        <ele>185.43099975586</ele>
        <time>2009-10-14T15:59:03Z</time>
      </trkpt>
      <trkpt lat="45.11579" lon="4.96467">
        <ele>186.06700134277</ele>
        <time>2009-10-14T15:59:08Z</time>
      </trkpt>
      <trkpt lat="45.11579" lon="4.96456">
        <ele>186.70899963379</ele>
        <time>2009-10-14T15:59:10Z</time>
      </trkpt>
      <trkpt lat="45.11579" lon="4.96448">
        <ele>187.30499267578</ele>
        <time>2009-10-14T15:59:12Z</time>
      </trkpt>
      <trkpt lat="45.11574" lon="4.96443">
        <ele>187.14300537109</ele>
        <time>2009-10-14T15:59:17Z</time>
      </trkpt>
      <trkpt lat="45.11575" lon="4.96445">
        <ele>187.25700378418</ele>
        <time>2009-10-14T15:59:27Z</time>
      </trkpt>
      <trkpt lat="45.11575" lon="4.96447">
        <ele>186.64399719238</ele>
        <time>2009-10-14T15:59:39Z</time>
      </trkpt>
      <trkpt lat="45.11575" lon="4.96447">
        <ele>187.68200683594</ele>
        <time>2009-10-14T15:59:44Z</time>
      </trkpt>
      <trkpt lat="45.11574" lon="4.96448">
        <ele>187.18899536133</ele>
        <time>2009-10-14T15:59:47Z</time>
      </trkpt>
      <trkpt lat="45.11565" lon="4.9645">
        <ele>187.07600402832</ele>
        <time>2009-10-14T15:59:54Z</time>
      </trkpt>
      <trkpt lat="45.11559" lon="4.96436">
        <ele>187.40100097656</ele>
        <time>2009-10-14T15:59:58Z</time>
      </trkpt>
      <trkpt lat="45.11562" lon="4.96424">
        <ele>187.75500488281</ele>
        <time>2009-10-14T16:00:02Z</time>
      </trkpt>
      <trkpt lat="45.11566" lon="4.96427">
        <ele>187.99699401856</ele>
        <time>2009-10-14T16:00:06Z</time>
      </trkpt>
      <trkpt lat="45.11567" lon="4.96428">
        <ele>188.47300720215</ele>
        <time>2009-10-14T16:00:12Z</time>
      </trkpt>
      <trkpt lat="45.11568" lon="4.96429">
        <ele>188.46800231934</ele>
        <time>2009-10-14T16:00:19Z</time>
      </trkpt>
      <trkpt lat="45.11568" lon="4.9643">
        <ele>188.52799987793</ele>
        <time>2009-10-14T16:00:26Z</time>
      </trkpt>
    </trkseg>
  </trk>
</gpx>